| time (UTC) | temp F | wind direction | speed knots | gust knots | rain 1hr in | rain 24hr in | rain mn in | humidity % | barometer mb |
| 20260505152557 | 80 | 129 | 5.2 | 7.0 | 0.00 | 0.00 | 0.00 | 67 | 1017.1 |
| 20260505152431 | 77 | 130 | 1.7 | 5.2 | 0.00 | 0.00 | 0.00 | 74 | 1016.7 |
| 20260505152425 | 76 | 269 | 0.0 | 1.7 | 0.00 | 0.00 | 0.00 | 76 | 1016.7 |
| 20260505152420 | 75 | 269 | 0.9 | 1.7 | 0.00 | 0.00 | 0.00 | 79 | 1016.6 |
| 20260505152414 | 76 | 125 | 3.5 | 5.2 | 0.00 | 0.00 | 0.00 | 80 | 1016.8 |
| 20260505152409 | 74 | 130 | 2.6 | 4.3 | 0.00 | 0.00 | 0.00 | 76 | 1016.8 |
| 20260505152404 | 79 | 124 | 4.3 | 5.2 | 0.00 | 0.00 | 0.00 | 75 | 1016.8 |
| 20260505152359 | 81 | 111 | 6.1 | 7.8 | 0.00 | 0.00 | 0.00 | 71 | 1017.0 |
| 20260505152352 | 82 | 107 | 6.1 | 7.8 | 0.00 | 0.00 | 0.00 | 67 | 1017.0 |
| 20260505152347 | 81 | 109 | 7.8 | 10.4 | 0.00 | 0.00 | 0.00 | 68 | 1017.0 |
| 20260505152342 | 81 | 111 | 7.0 | 10.4 | 0.00 | 0.00 | 0.00 | 70 | 1017.1 |
| 20260505152056 | 61 | 236 | 2.6 | 3.5 | 0.00 | 0.00 | 0.00 | 93 | 1015.3 |
| 20260505152048 | 61 | 206 | 0.0 | 2.6 | 0.00 | 0.00 | 0.00 | 93 | 1015.3 |
| 20260505152043 | 62 | 126 | 0.0 | 0.0 | 0.00 | 0.00 | 0.00 | 93 | 1015.1 |
| 20260505152039 | 61 | 126 | 0.0 | 0.0 | 0.00 | 0.00 | 0.00 | 93 | 1015.1 |
| 20260505152033 | 60 | 237 | 0.0 | 1.7 | 0.00 | 0.00 | 0.00 | 94 | 1015.3 |
| 20260505152028 | 60 | 237 | 0.0 | 1.7 | 0.00 | 0.00 | 0.00 | 93 | 1015.4 |
| 20260505152023 | 60 | 237 | 1.7 | 3.5 | 0.00 | 0.00 | 0.00 | 93 | 1015.3 |
| 20260505152018 | 60 | 237 | 0.0 | 0.0 | 0.00 | 0.00 | 0.00 | 94 | 1015.6 |
| 20260505152013 | 60 | 238 | 0.0 | 0.0 | 0.00 | 0.00 | 0.00 | 94 | 1015.9 |
| 20260505152007 | 60 | 237 | 0.0 | 0.0 | 0.00 | 0.00 | 0.00 | 93 | 1015.7 |
| 20260505152002 | 60 | 257 | 1.7 | 3.5 | 0.00 | 0.00 | 0.00 | 94 | 1016.1 |
| 20260505151956 | 82 | 124 | 5.2 | 7.8 | 0.00 | 0.00 | 0.00 | 67 | 1017.2 |
| 20260505151949 | 82 | 134 | 5.2 | 7.8 | 0.00 | 0.00 | 0.00 | 62 | 1017.0 |
| 20260505151945 | 60 | 257 | 1.7 | 3.5 | 0.00 | 0.00 | 0.00 | 94 | 1016.0 |
| 20260505151940 | 80 | 129 | 5.2 | 7.0 | 0.00 | 0.00 | 0.00 | 67 | 1017.1 |
| 20260505151814 | 60 | 268 | 1.7 | 3.5 | 0.00 | 0.00 | 0.00 | 94 | 1016.3 |
| 20260505151810 | 61 | 270 | 0.9 | 3.5 | 0.00 | 0.00 | 0.00 | 93 | 1016.1 |
| 20260505151804 | 60 | 270 | 1.7 | 3.5 | 0.00 | 0.00 | 0.00 | 93 | 1016.3 |
| 20260505151800 | 62 | 269 | 0.9 | 2.6 | 0.00 | 0.00 | 0.00 | 93 | 1016.3 |
| 20260505151754 | 63 | 270 | 0.9 | 2.6 | 0.00 | 0.00 | 0.00 | 92 | 1016.4 |
| 20260505151749 | 65 | 270 | 0.9 | 2.6 | 0.00 | 0.00 | 0.00 | 91 | 1016.6 |
| 20260505151742 | 68 | 269 | 0.0 | 1.7 | 0.00 | 0.00 | 0.00 | 88 | 1016.6 |
| 20260505151736 | 71 | 269 | 0.0 | 1.7 | 0.00 | 0.00 | 0.00 | 81 | 1016.5 |
| 20260505151731 | 73 | 269 | 0.0 | 0.0 | 0.00 | 0.00 | 0.00 | 80 | 1016.6 |
| 20260505151726 | 77 | 130 | 1.7 | 5.2 | 0.00 | 0.00 | 0.00 | 74 | 1016.7 |
| 20260505151721 | 76 | 269 | 0.0 | 1.7 | 0.00 | 0.00 | 0.00 | 76 | 1016.7 |
| 20260505151715 | 81 | 109 | 7.8 | 10.4 | 0.00 | 0.00 | 0.00 | 68 | 1017.0 |
| 20260505151710 | 75 | 269 | 0.9 | 1.7 | 0.00 | 0.00 | 0.00 | 79 | 1016.6 |
| 20260505151704 | 76 | 125 | 3.5 | 5.2 | 0.00 | 0.00 | 0.00 | 80 | 1016.8 |
| 20260505151659 | 74 | 130 | 2.6 | 4.3 | 0.00 | 0.00 | 0.00 | 76 | 1016.8 |
| 20260505151655 | 79 | 124 | 4.3 | 5.2 | 0.00 | 0.00 | 0.00 | 75 | 1016.8 |
| 20260505151649 | 81 | 111 | 6.1 | 7.8 | 0.00 | 0.00 | 0.00 | 71 | 1017.0 |
| 20260505151642 | 82 | 107 | 6.1 | 7.8 | 0.00 | 0.00 | 0.00 | 67 | 1017.0 |
| 20260505151637 | 81 | 111 | 7.0 | 10.4 | 0.00 | 0.00 | 0.00 | 70 | 1017.1 |
| 20260505151631 | 81 | 115 | 7.0 | 10.4 | 0.00 | 0.00 | 0.00 | 67 | 1017.2 |
| 20260505151624 | 79 | 133 | 5.2 | 7.0 | 0.00 | 0.00 | 0.00 | 65 | 1017.2 |
| 20260505151502 | 82 | 134 | 5.2 | 7.8 | 0.00 | 0.00 | 0.00 | 62 | 1017.0 |
| 20260505151057 | 79 | 124 | 4.3 | 5.2 | 0.00 | 0.00 | 0.00 | 75 | 1016.8 |
| 20260505151051 | 81 | 111 | 7.0 | 10.4 | 0.00 | 0.00 | 0.00 | 70 | 1017.1 |
| 20260505150800 | 73 | 269 | 0.0 | 0.0 | 0.00 | 0.00 | 0.00 | 80 | 1016.6 |
| 20260505150755 | 77 | 130 | 1.7 | 5.2 | 0.00 | 0.00 | 0.00 | 74 | 1016.7 |
| 20260505150751 | 76 | 269 | 0.0 | 1.7 | 0.00 | 0.00 | 0.00 | 76 | 1016.7 |
| 20260505150745 | 82 | 107 | 6.1 | 7.8 | 0.00 | 0.00 | 0.00 | 67 | 1017.0 |
| 20260505150740 | 81 | 115 | 7.0 | 10.4 | 0.00 | 0.00 | 0.00 | 67 | 1017.2 |
| 20260505150733 | 82 | 124 | 5.2 | 7.8 | 0.00 | 0.00 | 0.00 | 67 | 1017.2 |
| 20260505150727 | 82 | 134 | 5.2 | 7.8 | 0.00 | 0.00 | 0.00 | 62 | 1017.0 |
| 20260505150708 | 80 | 129 | 5.2 | 7.0 | 0.00 | 0.00 | 0.00 | 67 | 1017.1 |
| 20260505150554 | 81 | 111 | 7.0 | 10.4 | 0.00 | 0.00 | 0.00 | 70 | 1017.1 |
| 20260505150427 | 60 | 257 | 1.7 | 3.5 | 0.00 | 0.00 | 0.00 | 94 | 1016.1 |
| 20260505150422 | 60 | 237 | 0.0 | 1.7 | 0.00 | 0.00 | 0.00 | 94 | 1015.3 |
| 20260505150417 | 60 | 257 | 1.7 | 3.5 | 0.00 | 0.00 | 0.00 | 94 | 1016.0 |
| 20260505150411 | 75 | 269 | 0.9 | 1.7 | 0.00 | 0.00 | 0.00 | 79 | 1016.6 |
| 20260505150406 | 76 | 125 | 3.5 | 5.2 | 0.00 | 0.00 | 0.00 | 80 | 1016.8 |
| 20260505150401 | 74 | 130 | 2.6 | 4.3 | 0.00 | 0.00 | 0.00 | 76 | 1016.8 |
| 20260505150355 | 79 | 124 | 4.3 | 5.2 | 0.00 | 0.00 | 0.00 | 75 | 1016.8 |
| 20260505150351 | 81 | 111 | 6.1 | 7.8 | 0.00 | 0.00 | 0.00 | 71 | 1017.0 |
| 20260505150222 | 60 | 268 | 1.7 | 3.5 | 0.00 | 0.00 | 0.00 | 94 | 1016.3 |
| 20260505150217 | 82 | 107 | 6.1 | 7.8 | 0.00 | 0.00 | 0.00 | 67 | 1017.0 |
| 20260505150212 | 81 | 115 | 7.0 | 10.4 | 0.00 | 0.00 | 0.00 | 67 | 1017.2 |
| 20260505150207 | 61 | 270 | 0.9 | 3.5 | 0.00 | 0.00 | 0.00 | 93 | 1016.1 |
| 20260505150202 | 82 | 124 | 5.2 | 7.8 | 0.00 | 0.00 | 0.00 | 67 | 1017.2 |
| 20260505150156 | 62 | 269 | 0.9 | 2.6 | 0.00 | 0.00 | 0.00 | 93 | 1016.3 |
| 20260505150151 | 82 | 134 | 5.2 | 7.8 | 0.00 | 0.00 | 0.00 | 62 | 1017.0 |
| 20260505150146 | 63 | 270 | 0.9 | 2.6 | 0.00 | 0.00 | 0.00 | 92 | 1016.4 |
| 20260505150141 | 68 | 269 | 0.0 | 1.7 | 0.00 | 0.00 | 0.00 | 88 | 1016.6 |
| 20260505140616 | 68 | 269 | 0.0 | 1.7 | 0.00 | 0.00 | 0.00 | 88 | 1016.6 |
| 20260505140611 | 82 | 107 | 6.1 | 7.8 | 0.00 | 0.00 | 0.00 | 67 | 1017.0 |
| 20260505140606 | 71 | 269 | 0.0 | 1.7 | 0.00 | 0.00 | 0.00 | 81 | 1016.5 |
| 20260505140601 | 73 | 269 | 0.0 | 0.0 | 0.00 | 0.00 | 0.00 | 80 | 1016.6 |
| 20260505140555 | 75 | 269 | 0.9 | 1.7 | 0.00 | 0.00 | 0.00 | 79 | 1016.6 |
| 20260505140429 | 74 | 130 | 2.6 | 4.3 | 0.00 | 0.00 | 0.00 | 76 | 1016.8 |
| 20260505140302 | 79 | 124 | 4.3 | 5.2 | 0.00 | 0.00 | 0.00 | 75 | 1016.8 |
| 20260505140256 | 62 | 269 | 0.9 | 2.6 | 0.00 | 0.00 | 0.00 | 93 | 1016.3 |
| 20260505140251 | 63 | 270 | 0.9 | 2.6 | 0.00 | 0.00 | 0.00 | 92 | 1016.4 |
| 20260505140246 | 76 | 125 | 3.5 | 5.2 | 0.00 | 0.00 | 0.00 | 80 | 1016.8 |
| 20260505140241 | 81 | 111 | 6.1 | 7.8 | 0.00 | 0.00 | 0.00 | 71 | 1017.0 |
| 20260505140113 | 88 | 31 | 4.3 | 7.8 | 0.00 | 0.12 | 0.02 | 60 | 1009.0 |
| 20260505140107 | 88 | 251 | 4.3 | 8.7 | 0.00 | 0.12 | 0.02 | 60 | 1009.0 |
| 20260505130232 | 63 | 270 | 0.9 | 2.6 | 0.00 | 0.00 | 0.00 | 92 | 1016.4 |
| 20260505130227 | 65 | 270 | 0.9 | 2.6 | 0.00 | 0.00 | 0.00 | 91 | 1016.6 |
| 20260505130222 | 73 | 269 | 0.0 | 0.0 | 0.00 | 0.00 | 0.00 | 80 | 1016.6 |
| 20260505130217 | 75 | 269 | 0.9 | 1.7 | 0.00 | 0.00 | 0.00 | 79 | 1016.6 |
| 20260505125016 | 60 | 270 | 1.7 | 3.5 | 0.00 | 0.00 | 0.00 | 93 | 1016.3 |
| 20260505125011 | 60 | 237 | 0.0 | 0.0 | 0.00 | 0.00 | 0.00 | 93 | 1015.7 |
| 20260505125007 | 60 | 237 | 0.0 | 0.0 | 0.00 | 0.00 | 0.00 | 94 | 1015.7 |
| 20260505125002 | 65 | 270 | 0.9 | 2.6 | 0.00 | 0.00 | 0.00 | 91 | 1016.6 |
| 20260505124957 | 68 | 269 | 0.0 | 1.7 | 0.00 | 0.00 | 0.00 | 88 | 1016.6 |
| 20260505124826 | 60 | 238 | 0.0 | 0.0 | 0.00 | 0.00 | 0.00 | 94 | 1015.9 |
| 20260505124821 | 61 | 270 | 0.9 | 3.5 | 0.00 | 0.00 | 0.00 | 93 | 1016.1 |
| 20260505124817 | 60 | 257 | 1.7 | 3.5 | 0.00 | 0.00 | 0.00 | 94 | 1016.0 |
| 20260505124811 | 71 | 269 | 0.0 | 1.7 | 0.00 | 0.00 | 0.00 | 81 | 1016.5 |
| 20260505124639 | 73 | 269 | 0.0 | 0.0 | 0.00 | 0.00 | 0.00 | 80 | 1016.6 |
| 20260505124520 | 60 | 268 | 1.7 | 3.5 | 0.00 | 0.00 | 0.00 | 94 | 1016.3 |
| 20260505124514 | 60 | 270 | 1.7 | 3.5 | 0.00 | 0.00 | 0.00 | 93 | 1016.3 |
| 20260505124507 | 65 | 270 | 0.9 | 2.6 | 0.00 | 0.00 | 0.00 | 91 | 1016.6 |
| 20260505124340 | 62 | 269 | 0.9 | 2.6 | 0.00 | 0.00 | 0.00 | 93 | 1016.3 |
| 20260505124334 | 68 | 269 | 0.0 | 1.7 | 0.00 | 0.00 | 0.00 | 88 | 1016.6 |
| 20260505123807 | 61 | 236 | 2.6 | 3.5 | 0.00 | 0.00 | 0.00 | 93 | 1015.3 |
| 20260505123800 | 60 | 237 | 0.0 | 1.7 | 0.00 | 0.00 | 0.00 | 93 | 1015.4 |
| 20260505123756 | 60 | 237 | 1.7 | 3.5 | 0.00 | 0.00 | 0.00 | 93 | 1015.3 |
| 20260505123750 | 60 | 237 | 0.0 | 1.7 | 0.00 | 0.00 | 0.00 | 94 | 1015.3 |
| 20260505123745 | 60 | 237 | 0.0 | 0.0 | 0.00 | 0.00 | 0.00 | 94 | 1015.6 |
| 20260505123739 | 60 | 237 | 0.0 | 0.0 | 0.00 | 0.00 | 0.00 | 93 | 1015.7 |
| 20260505123732 | 60 | 237 | 0.0 | 0.0 | 0.00 | 0.00 | 0.00 | 94 | 1015.7 |
| 20260505123728 | 60 | 238 | 0.0 | 0.0 | 0.00 | 0.00 | 0.00 | 94 | 1015.9 |
| 20260505123723 | 60 | 257 | 1.7 | 3.5 | 0.00 | 0.00 | 0.00 | 94 | 1016.0 |
| 20260505123718 | 60 | 257 | 1.7 | 3.5 | 0.00 | 0.00 | 0.00 | 94 | 1016.1 |
| 20260505123713 | 60 | 268 | 1.7 | 3.5 | 0.00 | 0.00 | 0.00 | 94 | 1016.3 |
| 20260505123707 | 60 | 270 | 1.7 | 3.5 | 0.00 | 0.00 | 0.00 | 93 | 1016.3 |
| 20260505123702 | 68 | 269 | 0.0 | 1.7 | 0.00 | 0.00 | 0.00 | 88 | 1016.6 |
| 20260505123647 | 71 | 269 | 0.0 | 1.7 | 0.00 | 0.00 | 0.00 | 81 | 1016.5 |
| 20260505123407 | 63 | 270 | 0.9 | 2.6 | 0.00 | 0.00 | 0.00 | 92 | 1016.4 |
| 20260505123401 | 65 | 270 | 0.9 | 2.6 | 0.00 | 0.00 | 0.00 | 91 | 1016.6 |
| 20260505123235 | 61 | 126 | 0.0 | 0.0 | 0.00 | 0.00 | 0.00 | 93 | 1015.0 |
| 20260505123228 | 62 | 126 | 0.0 | 0.0 | 0.00 | 0.00 | 0.00 | 93 | 1015.1 |
| 20260505123224 | 61 | 126 | 0.0 | 0.0 | 0.00 | 0.00 | 0.00 | 93 | 1015.1 |
| 20260505123218 | 61 | 206 | 0.0 | 2.6 | 0.00 | 0.00 | 0.00 | 93 | 1015.3 |
| 20260505123213 | 61 | 236 | 2.6 | 3.5 | 0.00 | 0.00 | 0.00 | 93 | 1015.3 |
| 20260505123207 | 60 | 237 | 0.0 | 1.7 | 0.00 | 0.00 | 0.00 | 93 | 1015.4 |
| 20260505123203 | 60 | 237 | 1.7 | 3.5 | 0.00 | 0.00 | 0.00 | 93 | 1015.3 |
| 20260505123157 | 68 | 269 | 0.0 | 1.7 | 0.00 | 0.00 | 0.00 | 88 | 1016.6 |
| 20260505123152 | 60 | 237 | 0.0 | 1.7 | 0.00 | 0.00 | 0.00 | 94 | 1015.3 |
| 20260505123027 | 60 | 237 | 0.0 | 0.0 | 0.00 | 0.00 | 0.00 | 93 | 1015.7 |
| 20260505122857 | 60 | 237 | 0.0 | 0.0 | 0.00 | 0.00 | 0.00 | 94 | 1015.7 |
| 20260505122852 | 60 | 238 | 0.0 | 0.0 | 0.00 | 0.00 | 0.00 | 94 | 1015.9 |
| 20260505122846 | 60 | 257 | 1.7 | 3.5 | 0.00 | 0.00 | 0.00 | 94 | 1016.0 |
| 20260505122841 | 60 | 257 | 1.7 | 3.5 | 0.00 | 0.00 | 0.00 | 94 | 1016.1 |
| 20260505122836 | 62 | 269 | 0.9 | 2.6 | 0.00 | 0.00 | 0.00 | 93 | 1016.3 |
| 20260505122831 | 60 | 268 | 1.7 | 3.5 | 0.00 | 0.00 | 0.00 | 94 | 1016.3 |
| 20260505122825 | 61 | 270 | 0.9 | 3.5 | 0.00 | 0.00 | 0.00 | 93 | 1016.1 |
| 20260505122817 | 63 | 270 | 0.9 | 2.6 | 0.00 | 0.00 | 0.00 | 92 | 1016.4 |
| 20260505122812 | 65 | 270 | 0.9 | 2.6 | 0.00 | 0.00 | 0.00 | 91 | 1016.6 |
| 20260505122355 | 60 | 237 | 0.0 | 1.7 | 0.00 | 0.00 | 0.00 | 94 | 1015.3 |
| 20260505122350 | 60 | 237 | 0.0 | 0.0 | 0.00 | 0.00 | 0.00 | 94 | 1015.6 |
| 20260505122344 | 61 | 270 | 0.9 | 3.5 | 0.00 | 0.00 | 0.00 | 93 | 1016.1 |
| 20260505122340 | 60 | 268 | 1.7 | 3.5 | 0.00 | 0.00 | 0.00 | 94 | 1016.3 |
| 20260505122334 | 62 | 269 | 0.9 | 2.6 | 0.00 | 0.00 | 0.00 | 93 | 1016.3 |
| 20260505122329 | 60 | 257 | 1.7 | 3.5 | 0.00 | 0.00 | 0.00 | 94 | 1016.0 |
| 20260505122203 | 63 | 270 | 0.9 | 2.6 | 0.00 | 0.00 | 0.00 | 92 | 1016.4 |
| 20260505122158 | 60 | 237 | 0.0 | 0.0 | 0.00 | 0.00 | 0.00 | 94 | 1015.7 |
| 20260505122153 | 60 | 257 | 1.7 | 3.5 | 0.00 | 0.00 | 0.00 | 94 | 1016.1 |
| 20260505122146 | 65 | 270 | 0.9 | 2.6 | 0.00 | 0.00 | 0.00 | 91 | 1016.6 |
| 20260505121855 | 60 | 270 | 1.7 | 3.5 | 0.00 | 0.00 | 0.00 | 93 | 1016.3 |
| 20260505121849 | 61 | 270 | 0.9 | 3.5 | 0.00 | 0.00 | 0.00 | 93 | 1016.1 |
| 20260505121844 | 62 | 269 | 0.9 | 2.6 | 0.00 | 0.00 | 0.00 | 93 | 1016.3 |
| 20260505121717 | 63 | 270 | 0.9 | 2.6 | 0.00 | 0.00 | 0.00 | 92 | 1016.4 |
| 20260505121657 | 65 | 270 | 0.9 | 2.6 | 0.00 | 0.00 | 0.00 | 91 | 1016.6 |
| 20260505121420 | 61 | 126 | 0.0 | 0.0 | 0.00 | 0.00 | 0.00 | 93 | 1015.1 |
| 20260505121416 | 61 | 206 | 0.0 | 2.6 | 0.00 | 0.00 | 0.00 | 93 | 1015.3 |
| 20260505121411 | 61 | 236 | 2.6 | 3.5 | 0.00 | 0.00 | 0.00 | 93 | 1015.3 |
| 20260505121404 | 60 | 237 | 1.7 | 3.5 | 0.00 | 0.00 | 0.00 | 93 | 1015.3 |
| 20260505121356 | 60 | 268 | 1.7 | 3.5 | 0.00 | 0.00 | 0.00 | 94 | 1016.3 |
| 20260505121351 | 61 | 270 | 0.9 | 3.5 | 0.00 | 0.00 | 0.00 | 93 | 1016.1 |
| 20260505121344 | 60 | 237 | 0.0 | 1.7 | 0.00 | 0.00 | 0.00 | 93 | 1015.4 |
| 20260505121339 | 60 | 270 | 1.7 | 3.5 | 0.00 | 0.00 | 0.00 | 93 | 1016.3 |
| 20260505121335 | 62 | 269 | 0.9 | 2.6 | 0.00 | 0.00 | 0.00 | 93 | 1016.3 |
| 20260505121207 | 60 | 237 | 0.0 | 0.0 | 0.00 | 0.00 | 0.00 | 94 | 1015.6 |
| 20260505121200 | 60 | 237 | 0.0 | 0.0 | 0.00 | 0.00 | 0.00 | 93 | 1015.7 |
| 20260505121155 | 63 | 270 | 0.9 | 2.6 | 0.00 | 0.00 | 0.00 | 92 | 1016.4 |
| 20260505121027 | 60 | 238 | 0.0 | 0.0 | 0.00 | 0.00 | 0.00 | 94 | 1015.9 |
| 20260505121022 | 60 | 257 | 1.7 | 3.5 | 0.00 | 0.00 | 0.00 | 94 | 1016.0 |
| 20260505121016 | 60 | 257 | 1.7 | 3.5 | 0.00 | 0.00 | 0.00 | 94 | 1016.1 |
| 20260505120848 | 60 | 270 | 1.7 | 3.5 | 0.00 | 0.00 | 0.00 | 93 | 1016.3 |
| 20260505120843 | 61 | 270 | 0.9 | 3.5 | 0.00 | 0.00 | 0.00 | 93 | 1016.1 |
| 20260505120837 | 62 | 269 | 0.9 | 2.6 | 0.00 | 0.00 | 0.00 | 93 | 1016.3 |
| 20260505120428 | 60 | 237 | 0.0 | 1.7 | 0.00 | 0.00 | 0.00 | 94 | 1015.3 |
| 20260505120422 | 60 | 237 | 0.0 | 0.0 | 0.00 | 0.00 | 0.00 | 94 | 1015.6 |
| 20260505120417 | 60 | 238 | 0.0 | 0.0 | 0.00 | 0.00 | 0.00 | 94 | 1015.9 |
| 20260505120412 | 60 | 237 | 0.0 | 0.0 | 0.00 | 0.00 | 0.00 | 93 | 1015.7 |
| 20260505120406 | 60 | 237 | 0.0 | 0.0 | 0.00 | 0.00 | 0.00 | 94 | 1015.7 |
| 20260505120402 | 60 | 257 | 1.7 | 3.5 | 0.00 | 0.00 | 0.00 | 94 | 1016.0 |
| 20260505120355 | 60 | 257 | 1.7 | 3.5 | 0.00 | 0.00 | 0.00 | 94 | 1016.1 |
| 20260505120350 | 60 | 268 | 1.7 | 3.5 | 0.00 | 0.00 | 0.00 | 94 | 1016.3 |
| 20260505120344 | 60 | 270 | 1.7 | 3.5 | 0.00 | 0.00 | 0.00 | 93 | 1016.3 |
| 20260505120340 | 61 | 270 | 0.9 | 3.5 | 0.00 | 0.00 | 0.00 | 93 | 1016.1 |
| 20260505120049 | 61 | 126 | 0.0 | 0.0 | 0.00 | 0.00 | 0.00 | 93 | 1015.0 |
| 20260505120045 | 62 | 126 | 0.0 | 0.0 | 0.00 | 0.00 | 0.00 | 93 | 1015.1 |
| 20260505120039 | 61 | 236 | 2.6 | 3.5 | 0.00 | 0.00 | 0.00 | 93 | 1015.3 |
| 20260505120035 | 60 | 237 | 1.7 | 3.5 | 0.00 | 0.00 | 0.00 | 93 | 1015.3 |
| 20260505115909 | 60 | 238 | 0.0 | 0.0 | 0.00 | 0.00 | 0.00 | 94 | 1015.9 |
| 20260505115903 | 60 | 237 | 0.0 | 0.0 | 0.00 | 0.00 | 0.00 | 94 | 1015.6 |
| 20260505115734 | 60 | 268 | 1.7 | 3.5 | 0.00 | 0.00 | 0.00 | 94 | 1016.3 |
| 20260505115729 | 60 | 257 | 1.7 | 3.5 | 0.00 | 0.00 | 0.00 | 94 | 1016.1 |
| 20260505115723 | 87 | 32 | 5.2 | 7.8 | 0.00 | 0.13 | 0.02 | 61 | 1010.1 |
| 20260505115718 | 86 | 304 | 2.6 | 7.8 | 0.00 | 0.13 | 0.02 | 60 | 1010.2 |
| 20260505115713 | 60 | 270 | 1.7 | 3.5 | 0.00 | 0.00 | 0.00 | 93 | 1016.3 |
| 20260505115709 | 62 | 126 | 0.9 | 1.7 | 0.00 | 0.00 | 0.00 | 90 | 1015.0 |
| 20260505115704 | 62 | 126 | 0.0 | 0.0 | 0.00 | 0.00 | 0.00 | 91 | 1014.6 |
| 20260505115658 | 60 | 237 | 0.0 | 0.0 | 0.00 | 0.00 | 0.00 | 93 | 1015.7 |
| 20260505115652 | 61 | 270 | 0.9 | 3.5 | 0.00 | 0.00 | 0.00 | 93 | 1016.1 |
| 20260505115646 | 61 | 126 | 0.0 | 0.0 | 0.00 | 0.00 | 0.00 | 93 | 1015.1 |
| 20260505115640 | 60 | 237 | 0.0 | 0.0 | 0.00 | 0.00 | 0.00 | 94 | 1015.7 |
| 20260505115634 | 61 | 206 | 0.0 | 2.6 | 0.00 | 0.00 | 0.00 | 93 | 1015.3 |
| 20260505115630 | 60 | 257 | 1.7 | 3.5 | 0.00 | 0.00 | 0.00 | 94 | 1016.0 |
| 20260505115621 | 62 | 269 | 0.9 | 2.6 | 0.00 | 0.00 | 0.00 | 93 | 1016.3 |
| 20260505115500 | 61 | 126 | 0.0 | 0.0 | 0.00 | 0.00 | 0.00 | 91 | 1014.8 |
| 20260505115454 | 61 | 126 | 0.0 | 0.0 | 0.00 | 0.00 | 0.00 | 91 | 1014.8 |
| 20260505115447 | 61 | 126 | 0.0 | 0.0 | 0.00 | 0.00 | 0.00 | 92 | 1014.9 |
| 20260505115442 | 61 | 126 | 0.0 | 0.0 | 0.00 | 0.00 | 0.00 | 92 | 1014.9 |
| 20260505115436 | 61 | 126 | 0.0 | 0.0 | 0.00 | 0.00 | 0.00 | 92 | 1014.8 |
| 20260505115432 | 61 | 126 | 0.0 | 0.0 | 0.00 | 0.00 | 0.00 | 93 | 1015.0 |
| 20260505115426 | 87 | 10 | 3.5 | 9.6 | 0.00 | 0.13 | 0.02 | 67 | 1010.5 |
| 20260505115421 | 61 | 236 | 2.6 | 3.5 | 0.00 | 0.00 | 0.00 | 93 | 1015.3 |
| 20260505115416 | 86 | 286 | 3.5 | 9.6 | 0.00 | 0.13 | 0.02 | 68 | 1010.5 |
| 20260505115411 | 62 | 126 | 0.0 | 0.0 | 0.00 | 0.00 | 0.00 | 93 | 1015.1 |
| 20260505115406 | 60 | 237 | 1.7 | 3.5 | 0.00 | 0.00 | 0.00 | 93 | 1015.3 |
| 20260505115400 | 60 | 237 | 0.0 | 1.7 | 0.00 | 0.00 | 0.00 | 93 | 1015.4 |
| 20260505115356 | 60 | 238 | 0.0 | 0.0 | 0.00 | 0.00 | 0.00 | 94 | 1015.9 |
| 20260505115350 | 85 | 228 | 5.2 | 11.3 | 0.00 | 0.13 | 0.02 | 67 | 1010.7 |
| 20260505115345 | 86 | 211 | 2.6 | 9.6 | 0.00 | 0.13 | 0.02 | 63 | 1010.8 |
| 20260505115339 | 85 | 36 | 3.5 | 9.6 | 0.00 | 0.13 | 0.02 | 68 | 1010.7 |
| 20260505115334 | 85 | 250 | 3.5 | 9.6 | 0.00 | 0.13 | 0.02 | 64 | 1010.8 |
| 20260505115329 | 85 | 344 | 3.5 | 8.7 | 0.00 | 0.13 | 0.02 | 62 | 1011.0 |
| 20260505115323 | 86 | 5 | 3.5 | 10.4 | 0.00 | 0.13 | 0.02 | 66 | 1011.3 |
| 20260505115318 | 85 | 46 | 3.5 | 8.7 | 0.00 | 0.13 | 0.02 | 67 | 1011.4 |
| 20260505115313 | 85 | 236 | 4.3 | 10.4 | 0.00 | 0.13 | 0.02 | 66 | 1011.5 |
| 20260505115308 | 85 | 301 | 3.5 | 10.4 | 0.00 | 0.13 | 0.02 | 66 | 1011.7 |
| 20260505115305 | 84 | 12 | 3.5 | 8.7 | 0.00 | 0.13 | 0.02 | 69 | 1011.7 |
| 20260505115258 | 83 | 287 | 2.6 | 8.7 | 0.00 | 0.13 | 0.02 | 71 | 1011.6 |
| 20260505115253 | 60 | 237 | 0.0 | 0.0 | 0.00 | 0.00 | 0.00 | 94 | 1015.6 |
| 20260505115245 | 60 | 268 | 1.7 | 3.5 | 0.00 | 0.00 | 0.00 | 94 | 1016.3 |
| 20260505115241 | 60 | 237 | 0.0 | 1.7 | 0.00 | 0.00 | 0.00 | 94 | 1015.3 |
| 20260505115235 | 60 | 270 | 1.7 | 3.5 | 0.00 | 0.00 | 0.00 | 93 | 1016.3 |
| 20260505115230 | 60 | 257 | 1.7 | 3.5 | 0.00 | 0.00 | 0.00 | 94 | 1016.1 |
| 20260505115224 | 84 | 254 | 2.6 | 6.1 | 0.01 | 0.13 | 0.02 | 71 | 1011.8 |
| 20260505115219 | 83 | 240 | 1.7 | 5.2 | 0.01 | 0.13 | 0.02 | 73 | 1012.0 |
| 20260505115214 | 62 | 126 | 0.0 | 1.7 | 0.00 | 0.00 | 0.00 | 91 | 1014.9 |
| 20260505115209 | 62 | 121 | 0.9 | 1.7 | 0.00 | 0.00 | 0.00 | 90 | 1015.0 |
| 20260505115204 | 60 | 237 | 0.0 | 0.0 | 0.00 | 0.00 | 0.00 | 94 | 1015.7 |
| 20260505115159 | 60 | 237 | 0.0 | 0.0 | 0.00 | 0.00 | 0.00 | 93 | 1015.7 |
| 20260505115154 | 61 | 206 | 0.0 | 2.6 | 0.00 | 0.00 | 0.00 | 93 | 1015.3 |
| 20260505115148 | 61 | 270 | 0.9 | 3.5 | 0.00 | 0.00 | 0.00 | 93 | 1016.1 |
| 20260505115142 | 60 | 257 | 1.7 | 3.5 | 0.00 | 0.00 | 0.00 | 94 | 1016.0 |
| 20260505115019 | 62 | 126 | 0.9 | 1.7 | 0.00 | 0.00 | 0.00 | 90 | 1015.0 |
| 20260505115013 | 61 | 126 | 0.0 | 0.0 | 0.00 | 0.00 | 0.00 | 91 | 1014.7 |
| 20260505115008 | 62 | 126 | 0.0 | 0.0 | 0.00 | 0.00 | 0.00 | 91 | 1014.6 |
| 20260505115002 | 61 | 126 | 0.0 | 0.0 | 0.00 | 0.00 | 0.00 | 91 | 1014.8 |
| 20260505114957 | 61 | 126 | 0.0 | 0.0 | 0.00 | 0.00 | 0.00 | 91 | 1014.8 |
| 20260505114952 | 61 | 126 | 0.0 | 0.0 | 0.00 | 0.00 | 0.00 | 92 | 1014.9 |
| 20260505114947 | 61 | 126 | 0.0 | 0.0 | 0.00 | 0.00 | 0.00 | 92 | 1014.9 |
| 20260505114940 | 61 | 126 | 0.0 | 0.0 | 0.00 | 0.00 | 0.00 | 92 | 1014.8 |
| 20260505114936 | 61 | 126 | 0.0 | 0.0 | 0.00 | 0.00 | 0.00 | 93 | 1015.0 |
| 20260505114930 | 62 | 126 | 0.0 | 0.0 | 0.00 | 0.00 | 0.00 | 93 | 1015.1 |
| 20260505114925 | 61 | 236 | 2.6 | 3.5 | 0.00 | 0.00 | 0.00 | 93 | 1015.3 |
| 20260505114920 | 60 | 237 | 1.7 | 3.5 | 0.00 | 0.00 | 0.00 | 93 | 1015.3 |
| 20260505114915 | 60 | 238 | 0.0 | 0.0 | 0.00 | 0.00 | 0.00 | 94 | 1015.9 |
| 20260505114909 | 60 | 237 | 0.0 | 1.7 | 0.00 | 0.00 | 0.00 | 93 | 1015.4 |
| 20260505114743 | 60 | 237 | 0.0 | 1.7 | 0.00 | 0.00 | 0.00 | 94 | 1015.3 |
| 20260505114738 | 60 | 268 | 1.7 | 3.5 | 0.00 | 0.00 | 0.00 | 94 | 1016.3 |
| 20260505114732 | 60 | 237 | 0.0 | 0.0 | 0.00 | 0.00 | 0.00 | 94 | 1015.6 |
| 20260505114727 | 60 | 270 | 1.7 | 3.5 | 0.00 | 0.00 | 0.00 | 93 | 1016.3 |
| 20260505114722 | 60 | 237 | 0.0 | 0.0 | 0.00 | 0.00 | 0.00 | 93 | 1015.7 |
| 20260505114717 | 60 | 237 | 0.0 | 0.0 | 0.00 | 0.00 | 0.00 | 94 | 1015.7 |
| 20260505114659 | 61 | 270 | 0.9 | 3.5 | 0.00 | 0.00 | 0.00 | 93 | 1016.1 |
| 20260505114545 | 61 | 126 | 0.0 | 0.0 | 0.00 | 0.00 | 0.00 | 93 | 1015.1 |
| 20260505114539 | 61 | 206 | 0.0 | 2.6 | 0.00 | 0.00 | 0.00 | 93 | 1015.3 |
| 20260505114256 | 60 | 237 | 0.0 | 1.7 | 0.00 | 0.00 | 0.00 | 93 | 1015.4 |
| 20260505114252 | 60 | 257 | 1.7 | 3.5 | 0.00 | 0.00 | 0.00 | 94 | 1016.1 |
| 20260505114245 | 60 | 268 | 1.7 | 3.5 | 0.00 | 0.00 | 0.00 | 94 | 1016.3 |
| 20260505114239 | 60 | 270 | 1.7 | 3.5 | 0.00 | 0.00 | 0.00 | 93 | 1016.3 |
| 20260505114115 | 60 | 237 | 1.7 | 3.5 | 0.00 | 0.00 | 0.00 | 93 | 1015.3 |
| 20260505114110 | 60 | 237 | 0.0 | 1.7 | 0.00 | 0.00 | 0.00 | 94 | 1015.3 |
| 20260505114104 | 60 | 237 | 0.0 | 0.0 | 0.00 | 0.00 | 0.00 | 94 | 1015.6 |
| 20260505114059 | 60 | 237 | 0.0 | 0.0 | 0.00 | 0.00 | 0.00 | 93 | 1015.7 |
| 20260505114054 | 60 | 237 | 0.0 | 0.0 | 0.00 | 0.00 | 0.00 | 94 | 1015.7 |
| 20260505114049 | 60 | 257 | 1.7 | 3.5 | 0.00 | 0.00 | 0.00 | 94 | 1016.0 |
| 20260505113803 | 61 | 126 | 0.0 | 0.0 | 0.00 | 0.00 | 0.00 | 91 | 1014.8 |
| 20260505113757 | 61 | 126 | 0.0 | 0.0 | 0.00 | 0.00 | 0.00 | 92 | 1014.9 |
| 20260505113752 | 61 | 126 | 0.0 | 0.0 | 0.00 | 0.00 | 0.00 | 92 | 1014.9 |
| 20260505113745 | 61 | 126 | 0.0 | 0.0 | 0.00 | 0.00 | 0.00 | 92 | 1014.8 |
| 20260505113741 | 61 | 126 | 0.0 | 0.0 | 0.00 | 0.00 | 0.00 | 93 | 1015.0 |
| 20260505113735 | 61 | 126 | 0.0 | 0.0 | 0.00 | 0.00 | 0.00 | 93 | 1015.1 |
| 20260505113731 | 61 | 206 | 0.0 | 2.6 | 0.00 | 0.00 | 0.00 | 93 | 1015.3 |
| 20260505113725 | 60 | 257 | 1.7 | 3.5 | 0.00 | 0.00 | 0.00 | 94 | 1016.1 |
| 20260505113720 | 62 | 126 | 0.0 | 0.0 | 0.00 | 0.00 | 0.00 | 93 | 1015.1 |
| 20260505113715 | 60 | 237 | 0.0 | 1.7 | 0.00 | 0.00 | 0.00 | 93 | 1015.4 |
| 20260505113710 | 60 | 268 | 1.7 | 3.5 | 0.00 | 0.00 | 0.00 | 94 | 1016.3 |
| 20260505113652 | 60 | 270 | 1.7 | 3.5 | 0.00 | 0.00 | 0.00 | 93 | 1016.3 |
| 20260505113535 | 61 | 236 | 2.6 | 3.5 | 0.00 | 0.00 | 0.00 | 93 | 1015.3 |
| 20260505113531 | 82 | 236 | 1.7 | 5.2 | 0.01 | 0.13 | 0.02 | 73 | 1012.2 |
| 20260505113525 | 81 | 336 | 1.7 | 5.2 | 0.01 | 0.13 | 0.02 | 74 | 1012.3 |
| 20260505113520 | 81 | 100 | 1.7 | 4.3 | 0.01 | 0.13 | 0.02 | 80 | 1012.3 |
| 20260505113514 | 81 | 28 | 1.7 | 3.5 | 0.01 | 0.13 | 0.02 | 81 | 1012.3 |
| 20260505113509 | 80 | 355 | 0.9 | 2.6 | 0.00 | 0.12 | 0.01 | 82 | 1012.4 |
| 20260505113503 | 80 | 355 | 0.9 | 1.7 | 0.00 | 0.12 | 0.01 | 81 | 1012.4 |
| 20260505113459 | 79 | 355 | 0.9 | 2.6 | 0.00 | 0.12 | 0.01 | 82 | 1012.3 |
| 20260505113454 | 78 | 355 | 1.7 | 3.5 | 0.00 | 0.12 | 0.01 | 83 | 1012.1 |
| 20260505113445 | 77 | 329 | 1.7 | 3.5 | 0.00 | 0.12 | 0.01 | 84 | 1012.2 |
| 20260505113441 | 76 | 244 | 2.6 | 3.5 | 0.00 | 0.12 | 0.01 | 85 | 1012.1 |
| 20260505113437 | 76 | 244 | 0.9 | 4.3 | 0.00 | 0.12 | 0.01 | 84 | 1012.0 |
| 20260505113431 | 60 | 237 | 0.0 | 1.7 | 0.00 | 0.00 | 0.00 | 94 | 1015.3 |
| 20260505113426 | 60 | 237 | 0.0 | 0.0 | 0.00 | 0.00 | 0.00 | 93 | 1015.7 |
| 20260505113420 | 60 | 237 | 0.0 | 0.0 | 0.00 | 0.00 | 0.00 | 94 | 1015.7 |
| 20260505113414 | 76 | 277 | 0.9 | 4.3 | 0.00 | 0.12 | 0.01 | 86 | 1012.1 |
| 20260505113409 | 60 | 237 | 1.7 | 3.5 | 0.00 | 0.00 | 0.00 | 93 | 1015.3 |
| 20260505113405 | 60 | 238 | 0.0 | 0.0 | 0.00 | 0.00 | 0.00 | 94 | 1015.9 |
| 20260505113359 | 60 | 257 | 1.7 | 3.5 | 0.00 | 0.00 | 0.00 | 94 | 1016.0 |
| 20260505113232 | 60 | 257 | 1.7 | 3.5 | 0.00 | 0.00 | 0.00 | 94 | 1016.1 |
| 20260505113227 | 62 | 121 | 0.9 | 1.7 | 0.00 | 0.00 | 0.00 | 90 | 1015.0 |
| 20260505113222 | 62 | 126 | 0.0 | 0.0 | 0.00 | 0.00 | 0.00 | 91 | 1014.6 |
| 20260505113217 | 63 | 121 | 0.9 | 3.5 | 0.00 | 0.00 | 0.00 | 89 | 1015.3 |
| 20260505113212 | 62 | 126 | 0.0 | 1.7 | 0.00 | 0.00 | 0.00 | 91 | 1014.9 |
| 20260505113206 | 62 | 121 | 0.9 | 1.7 | 0.00 | 0.00 | 0.00 | 90 | 1015.0 |
| 20260505113201 | 62 | 126 | 0.9 | 1.7 | 0.00 | 0.00 | 0.00 | 90 | 1015.0 |
| 20260505113156 | 61 | 126 | 0.0 | 0.0 | 0.00 | 0.00 | 0.00 | 91 | 1014.8 |
| 20260505113151 | 61 | 126 | 0.0 | 0.0 | 0.00 | 0.00 | 0.00 | 91 | 1014.7 |
| 20260505113145 | 61 | 126 | 0.0 | 0.0 | 0.00 | 0.00 | 0.00 | 91 | 1014.8 |
| 20260505113137 | 61 | 126 | 0.0 | 0.0 | 0.00 | 0.00 | 0.00 | 92 | 1014.9 |
| 20260505113133 | 61 | 126 | 0.0 | 0.0 | 0.00 | 0.00 | 0.00 | 92 | 1014.9 |
| 20260505113127 | 61 | 126 | 0.0 | 0.0 | 0.00 | 0.00 | 0.00 | 92 | 1014.8 |
| 20260505113122 | 61 | 126 | 0.0 | 0.0 | 0.00 | 0.00 | 0.00 | 93 | 1015.0 |
| 20260505113116 | 61 | 126 | 0.0 | 0.0 | 0.00 | 0.00 | 0.00 | 93 | 1015.1 |
| 20260505113112 | 61 | 206 | 0.0 | 2.6 | 0.00 | 0.00 | 0.00 | 93 | 1015.3 |
| 20260505113106 | 62 | 126 | 0.0 | 0.0 | 0.00 | 0.00 | 0.00 | 93 | 1015.1 |
| 20260505113100 | 60 | 268 | 1.7 | 3.5 | 0.00 | 0.00 | 0.00 | 94 | 1016.3 |
| 20260505113056 | 60 | 237 | 0.0 | 1.7 | 0.00 | 0.00 | 0.00 | 93 | 1015.4 |
| 20260505113051 | 61 | 236 | 2.6 | 3.5 | 0.00 | 0.00 | 0.00 | 93 | 1015.3 |
| 20260505113045 | 60 | 237 | 0.0 | 0.0 | 0.00 | 0.00 | 0.00 | 94 | 1015.6 |
| 20260505112919 | 60 | 237 | 0.0 | 1.7 | 0.00 | 0.00 | 0.00 | 94 | 1015.3 |
| 20260505112913 | 60 | 237 | 0.0 | 0.0 | 0.00 | 0.00 | 0.00 | 93 | 1015.7 |
| 20260505112908 | 60 | 237 | 0.0 | 0.0 | 0.00 | 0.00 | 0.00 | 94 | 1015.7 |
| 20260505112903 | 60 | 238 | 0.0 | 0.0 | 0.00 | 0.00 | 0.00 | 94 | 1015.9 |
| 20260505112858 | 60 | 257 | 1.7 | 3.5 | 0.00 | 0.00 | 0.00 | 94 | 1016.0 |
| 20260505112732 | 60 | 257 | 1.7 | 3.5 | 0.00 | 0.00 | 0.00 | 94 | 1016.1 |
| 20260505112607 | 60 | 268 | 1.7 | 3.5 | 0.00 | 0.00 | 0.00 | 94 | 1016.3 |
| 20260505112601 | 61 | 126 | 0.0 | 0.0 | 0.00 | 0.00 | 0.00 | 91 | 1014.8 |
| 20260505112556 | 61 | 126 | 0.0 | 0.0 | 0.00 | 0.00 | 0.00 | 92 | 1014.9 |
| 20260505112552 | 61 | 126 | 0.0 | 0.0 | 0.00 | 0.00 | 0.00 | 92 | 1014.9 |
| 20260505112546 | 60 | 237 | 0.0 | 1.7 | 0.00 | 0.00 | 0.00 | 93 | 1015.4 |
| 20260505112539 | 60 | 237 | 0.0 | 0.0 | 0.00 | 0.00 | 0.00 | 94 | 1015.6 |
| 20260505112415 | 61 | 206 | 0.0 | 2.6 | 0.00 | 0.00 | 0.00 | 93 | 1015.3 |
| 20260505112411 | 61 | 236 | 2.6 | 3.5 | 0.00 | 0.00 | 0.00 | 93 | 1015.3 |
| 20260505112406 | 62 | 126 | 0.0 | 0.0 | 0.00 | 0.00 | 0.00 | 93 | 1015.1 |
| 20260505112400 | 60 | 237 | 1.7 | 3.5 | 0.00 | 0.00 | 0.00 | 93 | 1015.3 |
| 20260505112354 | 61 | 126 | 0.0 | 0.0 | 0.00 | 0.00 | 0.00 | 92 | 1014.8 |
| 20260505112349 | 64 | 121 | 1.7 | 3.5 | 0.00 | 0.00 | 0.00 | 88 | 1015.3 |
| 20260505112345 | 60 | 237 | 0.0 | 1.7 | 0.00 | 0.00 | 0.00 | 94 | 1015.3 |
| 20260505112338 | 60 | 237 | 0.0 | 0.0 | 0.00 | 0.00 | 0.00 | 93 | 1015.7 |
| 20260505112332 | 64 | 100 | 0.9 | 3.5 | 0.00 | 0.00 | 0.00 | 87 | 1015.3 |
| 20260505112326 | 60 | 238 | 0.0 | 0.0 | 0.00 | 0.00 | 0.00 | 94 | 1015.9 |
| 20260505112321 | 62 | 126 | 0.0 | 1.7 | 0.00 | 0.00 | 0.00 | 91 | 1014.9 |
| 20260505112316 | 61 | 126 | 0.0 | 0.0 | 0.00 | 0.00 | 0.00 | 93 | 1015.1 |
| 20260505112310 | 60 | 237 | 0.0 | 0.0 | 0.00 | 0.00 | 0.00 | 94 | 1015.7 |
| 20260505112305 | 60 | 257 | 1.7 | 3.5 | 0.00 | 0.00 | 0.00 | 94 | 1016.0 |
| 20260505112138 | 60 | 257 | 1.7 | 3.5 | 0.00 | 0.00 | 0.00 | 94 | 1016.1 |
| 20260505112015 | 62 | 121 | 0.9 | 1.7 | 0.00 | 0.00 | 0.00 | 90 | 1015.0 |
| 20260505112009 | 61 | 126 | 0.0 | 0.0 | 0.00 | 0.00 | 0.00 | 91 | 1014.8 |
| 20260505112004 | 61 | 126 | 0.0 | 0.0 | 0.00 | 0.00 | 0.00 | 91 | 1014.8 |
| 20260505112000 | 62 | 126 | 0.0 | 0.0 | 0.00 | 0.00 | 0.00 | 91 | 1014.6 |
| 20260505111954 | 60 | 237 | 0.0 | 1.7 | 0.00 | 0.00 | 0.00 | 93 | 1015.4 |
| 20260505111948 | 62 | 121 | 0.9 | 1.7 | 0.00 | 0.00 | 0.00 | 90 | 1015.0 |
| 20260505111944 | 61 | 126 | 0.0 | 0.0 | 0.00 | 0.00 | 0.00 | 92 | 1014.9 |
| 20260505111937 | 60 | 237 | 0.0 | 0.0 | 0.00 | 0.00 | 0.00 | 94 | 1015.6 |
| 20260505111932 | 61 | 126 | 0.0 | 0.0 | 0.00 | 0.00 | 0.00 | 92 | 1014.9 |
| 20260505111927 | 61 | 126 | 0.0 | 0.0 | 0.00 | 0.00 | 0.00 | 91 | 1014.7 |
| 20260505111922 | 61 | 126 | 0.0 | 0.0 | 0.00 | 0.00 | 0.00 | 92 | 1014.8 |
| 20260505111916 | 61 | 126 | 0.0 | 0.0 | 0.00 | 0.00 | 0.00 | 93 | 1015.0 |
| 20260505111912 | 61 | 236 | 2.6 | 3.5 | 0.00 | 0.00 | 0.00 | 93 | 1015.3 |
| 20260505111906 | 61 | 206 | 0.0 | 2.6 | 0.00 | 0.00 | 0.00 | 93 | 1015.3 |
| 20260505111902 | 62 | 126 | 0.0 | 0.0 | 0.00 | 0.00 | 0.00 | 93 | 1015.1 |
| 20260505111857 | 60 | 237 | 1.7 | 3.5 | 0.00 | 0.00 | 0.00 | 93 | 1015.3 |
| 20260505111851 | 60 | 237 | 0.0 | 1.7 | 0.00 | 0.00 | 0.00 | 94 | 1015.3 |
| 20260505111847 | 60 | 237 | 0.0 | 0.0 | 0.00 | 0.00 | 0.00 | 93 | 1015.7 |
| 20260505111839 | 60 | 238 | 0.0 | 0.0 | 0.00 | 0.00 | 0.00 | 94 | 1015.9 |
| 20260505111714 | 63 | 121 | 0.9 | 3.5 | 0.00 | 0.00 | 0.00 | 89 | 1015.3 |
| 20260505111708 | 64 | 121 | 1.7 | 3.5 | 0.00 | 0.00 | 0.00 | 88 | 1015.3 |
| 20260505111703 | 62 | 126 | 0.0 | 1.7 | 0.00 | 0.00 | 0.00 | 91 | 1014.9 |
| 20260505111659 | 61 | 126 | 0.0 | 0.0 | 0.00 | 0.00 | 0.00 | 93 | 1015.1 |
| 20260505111653 | 60 | 257 | 1.7 | 3.5 | 0.00 | 0.00 | 0.00 | 94 | 1016.0 |
| 20260505111637 | 60 | 257 | 1.7 | 3.5 | 0.00 | 0.00 | 0.00 | 94 | 1016.1 |
| 20260505111519 | 62 | 126 | 0.9 | 1.7 | 0.00 | 0.00 | 0.00 | 90 | 1015.0 |
| 20260505111515 | 61 | 126 | 0.0 | 0.0 | 0.00 | 0.00 | 0.00 | 91 | 1014.8 |
| 20260505111510 | 62 | 121 | 0.9 | 1.7 | 0.00 | 0.00 | 0.00 | 90 | 1015.0 |
| 20260505111504 | 60 | 237 | 0.0 | 1.7 | 0.00 | 0.00 | 0.00 | 93 | 1015.4 |
| 20260505111459 | 74 | 306 | 0.9 | 4.3 | 0.00 | 0.12 | 0.01 | 90 | 1011.6 |
| 20260505111453 | 60 | 237 | 0.0 | 0.0 | 0.00 | 0.00 | 0.00 | 94 | 1015.6 |
| 20260505111448 | 73 | 265 | 1.7 | 6.1 | 0.00 | 0.12 | 0.01 | 91 | 1011.7 |
| 20260505111441 | 61 | 126 | 0.0 | 0.0 | 0.00 | 0.00 | 0.00 | 91 | 1014.8 |
| 20260505111435 | 62 | 126 | 0.0 | 0.0 | 0.00 | 0.00 | 0.00 | 91 | 1014.6 |
| 20260505111430 | 64 | 100 | 0.9 | 3.5 | 0.00 | 0.00 | 0.00 | 87 | 1015.3 |
| 20260505111424 | 61 | 236 | 2.6 | 3.5 | 0.00 | 0.00 | 0.00 | 93 | 1015.3 |
| 20260505111420 | 61 | 126 | 0.0 | 0.0 | 0.00 | 0.00 | 0.00 | 91 | 1014.7 |
| 20260505111415 | 61 | 126 | 0.0 | 0.0 | 0.00 | 0.00 | 0.00 | 92 | 1014.9 |
| 20260505111409 | 61 | 126 | 0.0 | 0.0 | 0.00 | 0.00 | 0.00 | 92 | 1014.9 |
| 20260505111404 | 61 | 126 | 0.0 | 0.0 | 0.00 | 0.00 | 0.00 | 92 | 1014.8 |
| 20260505111359 | 61 | 126 | 0.0 | 0.0 | 0.00 | 0.00 | 0.00 | 93 | 1015.0 |
| 20260505111354 | 61 | 206 | 0.0 | 2.6 | 0.00 | 0.00 | 0.00 | 93 | 1015.3 |
| 20260505111350 | 62 | 126 | 0.0 | 0.0 | 0.00 | 0.00 | 0.00 | 93 | 1015.1 |
| 20260505111344 | 60 | 237 | 1.7 | 3.5 | 0.00 | 0.00 | 0.00 | 93 | 1015.3 |
| 20260505111337 | 60 | 237 | 0.0 | 1.7 | 0.00 | 0.00 | 0.00 | 94 | 1015.3 |
| 20260505111333 | 60 | 237 | 0.0 | 0.0 | 0.00 | 0.00 | 0.00 | 93 | 1015.7 |
| 20260505111327 | 60 | 238 | 0.0 | 0.0 | 0.00 | 0.00 | 0.00 | 94 | 1015.9 |
| 20260505111204 | 65 | 100 | 0.0 | 1.7 | 0.00 | 0.00 | 0.00 | 87 | 1015.3 |
| 20260505111158 | 60 | 257 | 1.7 | 3.5 | 0.00 | 0.00 | 0.00 | 94 | 1016.0 |
| 20260505111153 | 61 | 126 | 0.0 | 0.0 | 0.00 | 0.00 | 0.00 | 93 | 1015.1 |
| 20260505111148 | 62 | 121 | 0.9 | 1.7 | 0.00 | 0.00 | 0.00 | 90 | 1015.0 |
| 20260505111143 | 63 | 121 | 0.9 | 3.5 | 0.00 | 0.00 | 0.00 | 89 | 1015.3 |
| 20260505111136 | 64 | 121 | 1.7 | 3.5 | 0.00 | 0.00 | 0.00 | 88 | 1015.3 |
| 20260505111131 | 62 | 126 | 0.0 | 1.7 | 0.00 | 0.00 | 0.00 | 91 | 1014.9 |
| 20260505111006 | 60 | 237 | 0.0 | 1.7 | 0.00 | 0.00 | 0.00 | 93 | 1015.4 |
| 20260505111001 | 62 | 121 | 0.9 | 1.7 | 0.00 | 0.00 | 0.00 | 90 | 1015.0 |
| 20260505110957 | 61 | 126 | 0.0 | 0.0 | 0.00 | 0.00 | 0.00 | 91 | 1014.8 |
| 20260505110951 | 62 | 126 | 0.0 | 0.0 | 0.00 | 0.00 | 0.00 | 91 | 1014.6 |
| 20260505110947 | 60 | 237 | 0.0 | 0.0 | 0.00 | 0.00 | 0.00 | 94 | 1015.6 |
| 20260505110940 | 61 | 126 | 0.0 | 0.0 | 0.00 | 0.00 | 0.00 | 91 | 1014.8 |
| 20260505110934 | 61 | 236 | 2.6 | 3.5 | 0.00 | 0.00 | 0.00 | 93 | 1015.3 |
| 20260505110811 | 61 | 126 | 0.0 | 0.0 | 0.00 | 0.00 | 0.00 | 92 | 1014.9 |
| 20260505110805 | 61 | 126 | 0.0 | 0.0 | 0.00 | 0.00 | 0.00 | 92 | 1014.9 |
| 20260505110800 | 61 | 126 | 0.0 | 0.0 | 0.00 | 0.00 | 0.00 | 92 | 1014.8 |
| 20260505110755 | 61 | 206 | 0.0 | 2.6 | 0.00 | 0.00 | 0.00 | 93 | 1015.3 |
| 20260505110750 | 60 | 237 | 0.0 | 1.7 | 0.00 | 0.00 | 0.00 | 94 | 1015.3 |
| 20260505110744 | 61 | 126 | 0.0 | 0.0 | 0.00 | 0.00 | 0.00 | 93 | 1015.0 |
| 20260505110740 | 60 | 237 | 0.0 | 0.0 | 0.00 | 0.00 | 0.00 | 93 | 1015.7 |
| 20260505110733 | 60 | 237 | 1.7 | 3.5 | 0.00 | 0.00 | 0.00 | 93 | 1015.3 |
| 20260505110727 | 65 | 100 | 0.9 | 4.3 | 0.00 | 0.00 | 0.00 | 85 | 1015.4 |
| 20260505110722 | 62 | 126 | 0.0 | 0.0 | 0.00 | 0.00 | 0.00 | 93 | 1015.1 |
| 20260505110716 | 61 | 126 | 0.0 | 0.0 | 0.00 | 0.00 | 0.00 | 93 | 1015.1 |
| 20260505110711 | 60 | 237 | 0.0 | 0.0 | 0.00 | 0.00 | 0.00 | 94 | 1015.7 |
| 20260505110706 | 60 | 238 | 0.0 | 0.0 | 0.00 | 0.00 | 0.00 | 94 | 1015.9 |
| 20260505110650 | 60 | 257 | 1.7 | 3.5 | 0.00 | 0.00 | 0.00 | 94 | 1016.0 |
| 20260505110534 | 62 | 121 | 0.9 | 1.7 | 0.00 | 0.00 | 0.00 | 90 | 1015.0 |
| 20260505110529 | 65 | 100 | 0.0 | 1.7 | 0.00 | 0.00 | 0.00 | 87 | 1015.3 |
| 20260505110524 | 60 | 237 | 0.0 | 1.7 | 0.00 | 0.00 | 0.00 | 93 | 1015.4 |
| 20260505110518 | 63 | 121 | 0.9 | 3.5 | 0.00 | 0.00 | 0.00 | 89 | 1015.3 |
| 20260505110512 | 64 | 121 | 1.7 | 3.5 | 0.00 | 0.00 | 0.00 | 88 | 1015.3 |
| 20260505110508 | 60 | 237 | 0.0 | 0.0 | 0.00 | 0.00 | 0.00 | 94 | 1015.6 |
| 20260505110503 | 62 | 126 | 0.0 | 1.7 | 0.00 | 0.00 | 0.00 | 91 | 1014.9 |
| 20260505110458 | 62 | 121 | 0.9 | 1.7 | 0.00 | 0.00 | 0.00 | 90 | 1015.0 |
| 20260505110453 | 62 | 126 | 0.9 | 1.7 | 0.00 | 0.00 | 0.00 | 90 | 1015.0 |
| 20260505110448 | 61 | 126 | 0.0 | 0.0 | 0.00 | 0.00 | 0.00 | 91 | 1014.8 |
| 20260505110321 | 61 | 126 | 0.0 | 0.0 | 0.00 | 0.00 | 0.00 | 91 | 1014.7 |
| 20260505110315 | 61 | 126 | 0.0 | 0.0 | 0.00 | 0.00 | 0.00 | 91 | 1014.8 |
| 20260505110311 | 61 | 206 | 0.0 | 2.6 | 0.00 | 0.00 | 0.00 | 93 | 1015.3 |
| 20260505110306 | 61 | 236 | 2.6 | 3.5 | 0.00 | 0.00 | 0.00 | 93 | 1015.3 |
| 20260505110300 | 60 | 237 | 0.0 | 1.7 | 0.00 | 0.00 | 0.00 | 94 | 1015.3 |
| 20260505110255 | 60 | 237 | 0.0 | 0.0 | 0.00 | 0.00 | 0.00 | 93 | 1015.7 |
| 20260505110251 | 61 | 126 | 0.0 | 0.0 | 0.00 | 0.00 | 0.00 | 92 | 1014.9 |
| 20260505110245 | 61 | 126 | 0.0 | 0.0 | 0.00 | 0.00 | 0.00 | 92 | 1014.9 |
| 20260505110240 | 61 | 126 | 0.0 | 0.0 | 0.00 | 0.00 | 0.00 | 92 | 1014.8 |
| 20260505110232 | 61 | 126 | 0.0 | 0.0 | 0.00 | 0.00 | 0.00 | 93 | 1015.0 |
| 20260505110228 | 61 | 126 | 0.0 | 0.0 | 0.00 | 0.00 | 0.00 | 93 | 1015.1 |
| 20260505110223 | 62 | 126 | 0.0 | 0.0 | 0.00 | 0.00 | 0.00 | 93 | 1015.1 |
| 20260505110217 | 60 | 237 | 1.7 | 3.5 | 0.00 | 0.00 | 0.00 | 93 | 1015.3 |
| 20260505110212 | 60 | 237 | 0.0 | 0.0 | 0.00 | 0.00 | 0.00 | 94 | 1015.7 |
| 20260505110206 | 60 | 238 | 0.0 | 0.0 | 0.00 | 0.00 | 0.00 | 94 | 1015.9 |
| 20260505102055 | 62 | 121 | 0.9 | 1.7 | 0.00 | 0.00 | 0.00 | 90 | 1015.0 |
| 20260505102051 | 62 | 126 | 0.0 | 1.7 | 0.00 | 0.00 | 0.00 | 91 | 1014.9 |
| 20260505102045 | 62 | 126 | 0.9 | 1.7 | 0.00 | 0.00 | 0.00 | 90 | 1015.0 |
| 20260505102040 | 62 | 121 | 0.9 | 1.7 | 0.00 | 0.00 | 0.00 | 90 | 1015.0 |
| 20260505101922 | 62 | 126 | 0.0 | 0.0 | 0.00 | 0.00 | 0.00 | 91 | 1014.6 |
| 20260505101914 | 61 | 126 | 0.0 | 0.0 | 0.00 | 0.00 | 0.00 | 91 | 1014.7 |
| 20260505101908 | 61 | 126 | 0.0 | 0.0 | 0.00 | 0.00 | 0.00 | 91 | 1014.8 |
| 20260505101902 | 61 | 126 | 0.0 | 0.0 | 0.00 | 0.00 | 0.00 | 92 | 1014.9 |
| 20260505101857 | 61 | 126 | 0.0 | 0.0 | 0.00 | 0.00 | 0.00 | 92 | 1014.9 |
| 20260505101853 | 61 | 126 | 0.0 | 0.0 | 0.00 | 0.00 | 0.00 | 92 | 1014.8 |
| 20260505101847 | 61 | 126 | 0.0 | 0.0 | 0.00 | 0.00 | 0.00 | 93 | 1015.0 |
| 20260505101843 | 61 | 126 | 0.0 | 0.0 | 0.00 | 0.00 | 0.00 | 93 | 1015.1 |
| 20260505101837 | 62 | 126 | 0.0 | 0.0 | 0.00 | 0.00 | 0.00 | 93 | 1015.1 |
| 20260505101832 | 61 | 206 | 0.0 | 2.6 | 0.00 | 0.00 | 0.00 | 93 | 1015.3 |
| 20260505101825 | 60 | 237 | 1.7 | 3.5 | 0.00 | 0.00 | 0.00 | 93 | 1015.3 |
| 20260505101700 | 60 | 237 | 0.0 | 1.7 | 0.00 | 0.00 | 0.00 | 93 | 1015.4 |
| 20260505101646 | 60 | 237 | 0.0 | 1.7 | 0.00 | 0.00 | 0.00 | 94 | 1015.3 |
| 20260505101412 | 68 | 300 | 0.9 | 4.3 | 0.00 | 0.12 | 0.01 | 97 | 1010.7 |
| 20260505101407 | 68 | 287 | 0.0 | 0.0 | 0.00 | 0.12 | 0.01 | 97 | 1010.5 |
| 20260505101403 | 68 | 287 | 0.0 | 0.0 | 0.00 | 0.12 | 0.01 | 97 | 1010.3 |
| 20260505101357 | 68 | 340 | 0.0 | 1.7 | 0.00 | 0.12 | 0.01 | 97 | 1010.1 |
| 20260505101352 | 68 | 340 | 0.0 | 2.6 | 0.00 | 0.12 | 0.01 | 97 | 1010.2 |
| 20260505101347 | 69 | 100 | 4.3 | 7.0 | 0.00 | 0.00 | 0.00 | 79 | 1016.0 |
| 20260505101342 | 70 | 107 | 4.3 | 7.0 | 0.00 | 0.00 | 0.00 | 79 | 1016.1 |
| 20260505101337 | 70 | 106 | 5.2 | 7.0 | 0.00 | 0.00 | 0.00 | 79 | 1016.3 |
| 20260505101332 | 61 | 126 | 0.0 | 0.0 | 0.00 | 0.00 | 0.00 | 91 | 1014.8 |
| 20260505101325 | 70 | 115 | 5.2 | 7.8 | 0.00 | 0.00 | 0.00 | 77 | 1016.5 |
| 20260505101319 | 61 | 126 | 0.0 | 0.0 | 0.00 | 0.00 | 0.00 | 91 | 1014.7 |
| 20260505101315 | 60 | 237 | 1.7 | 3.5 | 0.00 | 0.00 | 0.00 | 93 | 1015.3 |
| 20260505101310 | 68 | 99 | 3.5 | 5.2 | 0.00 | 0.00 | 0.00 | 82 | 1015.7 |
| 20260505101304 | 62 | 126 | 0.0 | 0.0 | 0.00 | 0.00 | 0.00 | 91 | 1014.6 |
| 20260505101300 | 61 | 206 | 0.0 | 2.6 | 0.00 | 0.00 | 0.00 | 93 | 1015.3 |
| 20260505101255 | 68 | 98 | 3.5 | 5.2 | 0.00 | 0.00 | 0.00 | 80 | 1015.7 |
| 20260505101249 | 69 | 98 | 4.3 | 6.1 | 0.00 | 0.00 | 0.00 | 80 | 1015.8 |
| 20260505101245 | 66 | 99 | 2.6 | 4.3 | 0.00 | 0.00 | 0.00 | 83 | 1015.6 |
| 20260505101239 | 65 | 100 | 0.9 | 4.3 | 0.00 | 0.00 | 0.00 | 85 | 1015.4 |
| 20260505101235 | 65 | 100 | 0.0 | 1.7 | 0.00 | 0.00 | 0.00 | 87 | 1015.3 |
| 20260505101228 | 64 | 121 | 1.7 | 3.5 | 0.00 | 0.00 | 0.00 | 88 | 1015.3 |
| 20260505101222 | 64 | 100 | 0.9 | 3.5 | 0.00 | 0.00 | 0.00 | 87 | 1015.3 |
| 20260505101217 | 63 | 121 | 0.9 | 3.5 | 0.00 | 0.00 | 0.00 | 89 | 1015.3 |
| 20260505101212 | 62 | 121 | 0.9 | 1.7 | 0.00 | 0.00 | 0.00 | 90 | 1015.0 |
| 20260505101207 | 62 | 126 | 0.9 | 1.7 | 0.00 | 0.00 | 0.00 | 90 | 1015.0 |
| 20260505101203 | 61 | 126 | 0.0 | 0.0 | 0.00 | 0.00 | 0.00 | 91 | 1014.8 |
| 20260505101157 | 61 | 126 | 0.0 | 0.0 | 0.00 | 0.00 | 0.00 | 92 | 1014.9 |
| 20260505101152 | 61 | 126 | 0.0 | 0.0 | 0.00 | 0.00 | 0.00 | 92 | 1014.9 |
| 20260505101147 | 61 | 126 | 0.0 | 0.0 | 0.00 | 0.00 | 0.00 | 92 | 1014.8 |
| 20260505101142 | 61 | 126 | 0.0 | 0.0 | 0.00 | 0.00 | 0.00 | 93 | 1015.0 |
| 20260505101137 | 61 | 236 | 2.6 | 3.5 | 0.00 | 0.00 | 0.00 | 93 | 1015.3 |
| 20260505101132 | 61 | 126 | 0.0 | 0.0 | 0.00 | 0.00 | 0.00 | 93 | 1015.1 |
| 20260505101125 | 60 | 237 | 0.0 | 1.7 | 0.00 | 0.00 | 0.00 | 93 | 1015.4 |
| 20260505101119 | 62 | 126 | 0.0 | 0.0 | 0.00 | 0.00 | 0.00 | 93 | 1015.1 |
| 20260505100955 | 62 | 126 | 0.0 | 1.7 | 0.00 | 0.00 | 0.00 | 91 | 1014.9 |
| 20260505100831 | 62 | 126 | 0.0 | 0.0 | 0.00 | 0.00 | 0.00 | 91 | 1014.6 |
| 20260505100823 | 61 | 126 | 0.0 | 0.0 | 0.00 | 0.00 | 0.00 | 91 | 1014.7 |
| 20260505100819 | 61 | 206 | 0.0 | 2.6 | 0.00 | 0.00 | 0.00 | 93 | 1015.3 |
| 20260505100814 | 60 | 237 | 1.7 | 3.5 | 0.00 | 0.00 | 0.00 | 93 | 1015.3 |
| 20260505100640 | 60 | 237 | 0.0 | 1.7 | 0.00 | 0.00 | 0.00 | 93 | 1015.4 |
| 20260505100523 | 61 | 126 | 0.0 | 0.0 | 0.00 | 0.00 | 0.00 | 93 | 1015.0 |
| 20260505100518 | 61 | 126 | 0.0 | 0.0 | 0.00 | 0.00 | 0.00 | 92 | 1014.9 |
| 20260505100513 | 61 | 126 | 0.0 | 0.0 | 0.00 | 0.00 | 0.00 | 92 | 1014.8 |
| 20260505100507 | 61 | 126 | 0.0 | 0.0 | 0.00 | 0.00 | 0.00 | 91 | 1014.8 |
| 20260505100503 | 61 | 126 | 0.0 | 0.0 | 0.00 | 0.00 | 0.00 | 92 | 1014.9 |
| 20260505100457 | 61 | 126 | 0.0 | 0.0 | 0.00 | 0.00 | 0.00 | 93 | 1015.1 |
| 20260505100452 | 62 | 126 | 0.0 | 0.0 | 0.00 | 0.00 | 0.00 | 93 | 1015.1 |
| 20260505100205 | 61 | 236 | 2.6 | 3.5 | 0.00 | 0.00 | 0.00 | 93 | 1015.3 |
| 20260505100159 | 60 | 237 | 1.7 | 3.5 | 0.00 | 0.00 | 0.00 | 93 | 1015.3 |
| 20260505100035 | 62 | 126 | 0.0 | 0.0 | 0.00 | 0.00 | 0.00 | 91 | 1014.6 |
| 20260505100030 | 61 | 126 | 0.0 | 0.0 | 0.00 | 0.00 | 0.00 | 91 | 1014.7 |
| 20260505100023 | 61 | 126 | 0.0 | 0.0 | 0.00 | 0.00 | 0.00 | 91 | 1014.8 |
| 20260505100018 | 61 | 126 | 0.0 | 0.0 | 0.00 | 0.00 | 0.00 | 92 | 1014.9 |
| 20260505100013 | 61 | 126 | 0.0 | 0.0 | 0.00 | 0.00 | 0.00 | 93 | 1015.0 |
| 20260505100007 | 61 | 126 | 0.0 | 0.0 | 0.00 | 0.00 | 0.00 | 92 | 1014.9 |
| 20260505100003 | 61 | 126 | 0.0 | 0.0 | 0.00 | 0.00 | 0.00 | 92 | 1014.8 |
| 20260505095958 | 61 | 126 | 0.0 | 0.0 | 0.00 | 0.00 | 0.00 | 93 | 1015.1 |
| 20260505095715 | 64 | 100 | 0.9 | 3.5 | 0.00 | 0.00 | 0.00 | 87 | 1015.3 |
| 20260505095710 | 61 | 206 | 0.0 | 2.6 | 0.00 | 0.00 | 0.00 | 93 | 1015.3 |
| 20260505095704 | 63 | 121 | 0.9 | 3.5 | 0.00 | 0.00 | 0.00 | 89 | 1015.3 |
| 20260505095700 | 62 | 121 | 0.9 | 1.7 | 0.00 | 0.00 | 0.00 | 90 | 1015.0 |
| 20260505095655 | 62 | 121 | 0.9 | 1.7 | 0.00 | 0.00 | 0.00 | 90 | 1015.0 |
| 20260505095649 | 62 | 126 | 0.9 | 1.7 | 0.00 | 0.00 | 0.00 | 90 | 1015.0 |
| 20260505095643 | 61 | 236 | 2.6 | 3.5 | 0.00 | 0.00 | 0.00 | 93 | 1015.3 |
| 20260505095631 | 60 | 237 | 1.7 | 3.5 | 0.00 | 0.00 | 0.00 | 93 | 1015.3 |
| 20260505095513 | 61 | 126 | 0.0 | 0.0 | 0.00 | 0.00 | 0.00 | 91 | 1014.8 |
| 20260505095507 | 62 | 126 | 0.0 | 0.0 | 0.00 | 0.00 | 0.00 | 91 | 1014.6 |
| 20260505095502 | 61 | 126 | 0.0 | 0.0 | 0.00 | 0.00 | 0.00 | 91 | 1014.7 |
| 20260505095456 | 61 | 126 | 0.0 | 0.0 | 0.00 | 0.00 | 0.00 | 93 | 1015.0 |
| 20260505095452 | 61 | 126 | 0.0 | 0.0 | 0.00 | 0.00 | 0.00 | 91 | 1014.8 |
| 20260505095329 | 61 | 126 | 0.0 | 0.0 | 0.00 | 0.00 | 0.00 | 92 | 1014.9 |
| 20260505095321 | 61 | 126 | 0.0 | 0.0 | 0.00 | 0.00 | 0.00 | 92 | 1014.8 |
| 20260505095317 | 61 | 126 | 0.0 | 0.0 | 0.00 | 0.00 | 0.00 | 93 | 1015.1 |
| 20260505095311 | 62 | 126 | 0.0 | 0.0 | 0.00 | 0.00 | 0.00 | 93 | 1015.1 |
| 20260505095147 | 61 | 236 | 2.6 | 3.5 | 0.00 | 0.00 | 0.00 | 93 | 1015.3 |
| 20260505095022 | 68 | 98 | 3.5 | 5.2 | 0.00 | 0.00 | 0.00 | 80 | 1015.7 |
| 20260505095014 | 66 | 99 | 2.6 | 4.3 | 0.00 | 0.00 | 0.00 | 83 | 1015.6 |
| 20260505095009 | 65 | 100 | 0.9 | 4.3 | 0.00 | 0.00 | 0.00 | 85 | 1015.4 |
| 20260505095005 | 65 | 100 | 0.0 | 1.7 | 0.00 | 0.00 | 0.00 | 87 | 1015.3 |
| 20260505094959 | 64 | 121 | 1.7 | 3.5 | 0.00 | 0.00 | 0.00 | 88 | 1015.3 |
| 20260505094954 | 62 | 126 | 0.0 | 0.0 | 0.00 | 0.00 | 0.00 | 91 | 1014.6 |
| 20260505094948 | 64 | 100 | 0.9 | 3.5 | 0.00 | 0.00 | 0.00 | 87 | 1015.3 |
| 20260505094942 | 61 | 126 | 0.0 | 0.0 | 0.00 | 0.00 | 0.00 | 93 | 1015.0 |
| 20260505094938 | 63 | 121 | 0.9 | 3.5 | 0.00 | 0.00 | 0.00 | 89 | 1015.3 |
| 20260505094811 | 62 | 121 | 0.9 | 1.7 | 0.00 | 0.00 | 0.00 | 90 | 1015.0 |
| 20260505094805 | 62 | 126 | 0.9 | 1.7 | 0.00 | 0.00 | 0.00 | 90 | 1015.0 |
| 20260505094801 | 62 | 126 | 0.0 | 1.7 | 0.00 | 0.00 | 0.00 | 91 | 1014.9 |
| 20260505094755 | 62 | 126 | 0.0 | 0.0 | 0.00 | 0.00 | 0.00 | 93 | 1015.1 |
| 20260505094751 | 61 | 126 | 0.0 | 0.0 | 0.00 | 0.00 | 0.00 | 91 | 1014.7 |
| 20260505094745 | 61 | 126 | 0.0 | 0.0 | 0.00 | 0.00 | 0.00 | 92 | 1014.9 |
| 20260505094740 | 61 | 126 | 0.0 | 0.0 | 0.00 | 0.00 | 0.00 | 91 | 1014.8 |
| 20260505094616 | 61 | 126 | 0.0 | 0.0 | 0.00 | 0.00 | 0.00 | 91 | 1014.8 |
| 20260505094609 | 61 | 126 | 0.0 | 0.0 | 0.00 | 0.00 | 0.00 | 92 | 1014.9 |
| 20260505094603 | 61 | 236 | 2.6 | 3.5 | 0.00 | 0.00 | 0.00 | 93 | 1015.3 |
| 20260505094558 | 61 | 126 | 0.0 | 0.0 | 0.00 | 0.00 | 0.00 | 92 | 1014.8 |
| 20260505094552 | 61 | 126 | 0.0 | 0.0 | 0.00 | 0.00 | 0.00 | 93 | 1015.1 |
| 20260505094428 | 61 | 126 | 0.0 | 0.0 | 0.00 | 0.00 | 0.00 | 93 | 1015.0 |
| 20260505094302 | 62 | 126 | 0.0 | 0.0 | 0.00 | 0.00 | 0.00 | 93 | 1015.1 |
| 20260505094137 | 61 | 126 | 0.0 | 0.0 | 0.00 | 0.00 | 0.00 | 91 | 1014.7 |
| 20260505094131 | 61 | 206 | 0.0 | 2.6 | 0.00 | 0.00 | 0.00 | 93 | 1015.3 |
| 20260505094126 | 61 | 126 | 0.0 | 0.0 | 0.00 | 0.00 | 0.00 | 91 | 1014.8 |
| 20260505093958 | 61 | 126 | 0.0 | 0.0 | 0.00 | 0.00 | 0.00 | 92 | 1014.8 |
| 20260505093952 | 61 | 126 | 0.0 | 0.0 | 0.00 | 0.00 | 0.00 | 93 | 1015.0 |
| 20260505093947 | 61 | 126 | 0.0 | 0.0 | 0.00 | 0.00 | 0.00 | 93 | 1015.1 |
| 20260505093822 | 70 | 107 | 4.3 | 7.0 | 0.00 | 0.00 | 0.00 | 79 | 1016.1 |
| 20260505093816 | 70 | 106 | 5.2 | 7.0 | 0.00 | 0.00 | 0.00 | 79 | 1016.3 |
| 20260505093811 | 68 | 99 | 3.5 | 5.2 | 0.00 | 0.00 | 0.00 | 82 | 1015.7 |
| 20260505093806 | 68 | 98 | 3.5 | 5.2 | 0.00 | 0.00 | 0.00 | 80 | 1015.7 |
| 20260505093759 | 66 | 99 | 2.6 | 4.3 | 0.00 | 0.00 | 0.00 | 83 | 1015.6 |
| 20260505093754 | 65 | 100 | 0.9 | 4.3 | 0.00 | 0.00 | 0.00 | 85 | 1015.4 |
| 20260505093748 | 65 | 100 | 0.0 | 1.7 | 0.00 | 0.00 | 0.00 | 87 | 1015.3 |
| 20260505093744 | 62 | 121 | 0.9 | 1.7 | 0.00 | 0.00 | 0.00 | 90 | 1015.0 |
| 20260505093738 | 61 | 126 | 0.0 | 0.0 | 0.00 | 0.00 | 0.00 | 91 | 1014.8 |
| 20260505093733 | 62 | 126 | 0.0 | 0.0 | 0.00 | 0.00 | 0.00 | 91 | 1014.6 |
| 20260505093727 | 61 | 126 | 0.0 | 0.0 | 0.00 | 0.00 | 0.00 | 92 | 1014.9 |
| 20260505093723 | 62 | 126 | 0.0 | 0.0 | 0.00 | 0.00 | 0.00 | 93 | 1015.1 |
| 20260505093555 | 61 | 126 | 0.0 | 0.0 | 0.00 | 0.00 | 0.00 | 91 | 1014.7 |
| 20260505093432 | 64 | 121 | 1.7 | 3.5 | 0.00 | 0.00 | 0.00 | 88 | 1015.3 |
| 20260505093427 | 64 | 100 | 0.9 | 3.5 | 0.00 | 0.00 | 0.00 | 87 | 1015.3 |
| 20260505093422 | 63 | 121 | 0.9 | 3.5 | 0.00 | 0.00 | 0.00 | 89 | 1015.3 |
| 20260505093417 | 62 | 126 | 0.9 | 1.7 | 0.00 | 0.00 | 0.00 | 90 | 1015.0 |
| 20260505093412 | 62 | 126 | 0.0 | 1.7 | 0.00 | 0.00 | 0.00 | 91 | 1014.9 |
| 20260505093406 | 61 | 126 | 0.0 | 0.0 | 0.00 | 0.00 | 0.00 | 91 | 1014.8 |
| 20260505093401 | 61 | 126 | 0.0 | 0.0 | 0.00 | 0.00 | 0.00 | 92 | 1014.9 |
| 20260505093353 | 61 | 126 | 0.0 | 0.0 | 0.00 | 0.00 | 0.00 | 92 | 1014.8 |
| 20260505093348 | 61 | 126 | 0.0 | 0.0 | 0.00 | 0.00 | 0.00 | 93 | 1015.0 |
| 20260505093342 | 61 | 126 | 0.0 | 0.0 | 0.00 | 0.00 | 0.00 | 93 | 1015.1 |
| 20260505093218 | 62 | 121 | 0.9 | 1.7 | 0.00 | 0.00 | 0.00 | 90 | 1015.0 |
| 20260505093213 | 62 | 126 | 0.0 | 0.0 | 0.00 | 0.00 | 0.00 | 93 | 1015.1 |
| 20260505093045 | 62 | 126 | 0.0 | 0.0 | 0.00 | 0.00 | 0.00 | 91 | 1014.6 |
| 20260505093041 | 61 | 126 | 0.0 | 0.0 | 0.00 | 0.00 | 0.00 | 91 | 1014.7 |
| 20260505092916 | 62 | 126 | 0.9 | 1.7 | 0.00 | 0.00 | 0.00 | 90 | 1015.0 |
| 20260505092749 | 61 | 126 | 0.0 | 0.0 | 0.00 | 0.00 | 0.00 | 91 | 1014.8 |
| 20260505092745 | 61 | 126 | 0.0 | 0.0 | 0.00 | 0.00 | 0.00 | 92 | 1014.9 |
| 20260505092739 | 62 | 126 | 0.0 | 1.7 | 0.00 | 0.00 | 0.00 | 91 | 1014.9 |
| 20260505092734 | 69 | 98 | 4.3 | 6.1 | 0.00 | 0.00 | 0.00 | 80 | 1015.8 |
| 20260505092729 | 61 | 126 | 0.0 | 0.0 | 0.00 | 0.00 | 0.00 | 92 | 1014.8 |
| 20260505092724 | 61 | 126 | 0.0 | 0.0 | 0.00 | 0.00 | 0.00 | 93 | 1015.0 |
| 20260505092718 | 61 | 126 | 0.0 | 0.0 | 0.00 | 0.00 | 0.00 | 93 | 1015.1 |
| 20260505092659 | 62 | 126 | 0.0 | 0.0 | 0.00 | 0.00 | 0.00 | 93 | 1015.1 |
| 20260505092546 | 70 | 107 | 4.3 | 7.0 | 0.00 | 0.00 | 0.00 | 79 | 1016.1 |
| 20260505092541 | 68 | 99 | 3.5 | 5.2 | 0.00 | 0.00 | 0.00 | 82 | 1015.7 |
| 20260505092535 | 68 | 98 | 3.5 | 5.2 | 0.00 | 0.00 | 0.00 | 80 | 1015.7 |
| 20260505092530 | 66 | 99 | 2.6 | 4.3 | 0.00 | 0.00 | 0.00 | 83 | 1015.6 |
| 20260505092525 | 61 | 126 | 0.0 | 0.0 | 0.00 | 0.00 | 0.00 | 91 | 1014.8 |
| 20260505092520 | 62 | 126 | 0.0 | 0.0 | 0.00 | 0.00 | 0.00 | 91 | 1014.6 |
| 20260505092514 | 61 | 126 | 0.0 | 0.0 | 0.00 | 0.00 | 0.00 | 91 | 1014.7 |
| 20260505092348 | 65 | 100 | 0.0 | 1.7 | 0.00 | 0.00 | 0.00 | 87 | 1015.3 |
| 20260505092342 | 64 | 121 | 1.7 | 3.5 | 0.00 | 0.00 | 0.00 | 88 | 1015.3 |
| 20260505092337 | 64 | 100 | 0.9 | 3.5 | 0.00 | 0.00 | 0.00 | 87 | 1015.3 |
| 20260505092333 | 63 | 121 | 0.9 | 3.5 | 0.00 | 0.00 | 0.00 | 89 | 1015.3 |
| 20260505092327 | 62 | 121 | 0.9 | 1.7 | 0.00 | 0.00 | 0.00 | 90 | 1015.0 |
| 20260505092321 | 62 | 121 | 0.9 | 1.7 | 0.00 | 0.00 | 0.00 | 90 | 1015.0 |
| 20260505092316 | 62 | 126 | 0.9 | 1.7 | 0.00 | 0.00 | 0.00 | 90 | 1015.0 |
| 20260505092312 | 61 | 126 | 0.0 | 0.0 | 0.00 | 0.00 | 0.00 | 91 | 1014.8 |
| 20260505092306 | 61 | 126 | 0.0 | 0.0 | 0.00 | 0.00 | 0.00 | 92 | 1014.9 |
| 20260505092301 | 61 | 126 | 0.0 | 0.0 | 0.00 | 0.00 | 0.00 | 92 | 1014.9 |
| 20260505092257 | 62 | 126 | 0.0 | 1.7 | 0.00 | 0.00 | 0.00 | 91 | 1014.9 |
| 20260505092127 | 61 | 126 | 0.0 | 0.0 | 0.00 | 0.00 | 0.00 | 93 | 1015.0 |
| 20260505092123 | 61 | 126 | 0.0 | 0.0 | 0.00 | 0.00 | 0.00 | 93 | 1015.1 |
| 20260505091957 | 69 | 276 | 0.9 | 2.6 | 0.00 | 0.12 | 0.01 | 97 | 1010.0 |
| 20260505091952 | 61 | 126 | 0.0 | 0.0 | 0.00 | 0.00 | 0.00 | 91 | 1014.8 |
| 20260505091945 | 69 | 267 | 0.9 | 2.6 | 0.00 | 0.12 | 0.01 | 97 | 1010.1 |
| 20260505091940 | 62 | 126 | 0.0 | 0.0 | 0.00 | 0.00 | 0.00 | 91 | 1014.6 |
| 20260505091935 | 61 | 126 | 0.0 | 0.0 | 0.00 | 0.00 | 0.00 | 91 | 1014.7 |
| 20260505091812 | 69 | 267 | 0.0 | 1.7 | 0.00 | 0.12 | 0.01 | 97 | 1010.2 |
| 20260505091807 | 69 | 267 | 0.0 | 0.0 | 0.00 | 0.12 | 0.01 | 97 | 1010.1 |
| 20260505091802 | 69 | 267 | 0.0 | 0.9 | 0.00 | 0.12 | 0.01 | 97 | 1010.0 |
| 20260505091757 | 69 | 267 | 0.9 | 2.6 | 0.00 | 0.12 | 0.01 | 97 | 1009.9 |
| 20260505091752 | 61 | 126 | 0.0 | 0.0 | 0.00 | 0.00 | 0.00 | 92 | 1014.9 |
| 20260505091747 | 61 | 126 | 0.0 | 0.0 | 0.00 | 0.00 | 0.00 | 91 | 1014.8 |
| 20260505091740 | 69 | 267 | 0.9 | 2.6 | 0.00 | 0.12 | 0.01 | 97 | 1009.9 |
| 20260505091735 | 70 | 112 | 5.2 | 7.8 | 0.00 | 0.00 | 0.00 | 78 | 1016.4 |
| 20260505091731 | 61 | 126 | 0.0 | 0.0 | 0.00 | 0.00 | 0.00 | 92 | 1014.9 |
| 20260505091725 | 70 | 115 | 5.2 | 7.8 | 0.00 | 0.00 | 0.00 | 77 | 1016.5 |
| 20260505091720 | 70 | 106 | 5.2 | 7.0 | 0.00 | 0.00 | 0.00 | 79 | 1016.3 |
| 20260505091715 | 69 | 98 | 4.3 | 6.1 | 0.00 | 0.00 | 0.00 | 80 | 1015.8 |
| 20260505091710 | 69 | 100 | 4.3 | 7.0 | 0.00 | 0.00 | 0.00 | 79 | 1016.0 |
| 20260505091704 | 70 | 107 | 4.3 | 7.0 | 0.00 | 0.00 | 0.00 | 79 | 1016.1 |
| 20260505091700 | 68 | 99 | 3.5 | 5.2 | 0.00 | 0.00 | 0.00 | 82 | 1015.7 |
| 20260505091655 | 68 | 98 | 3.5 | 5.2 | 0.00 | 0.00 | 0.00 | 80 | 1015.7 |
| 20260505091649 | 66 | 99 | 2.6 | 4.3 | 0.00 | 0.00 | 0.00 | 83 | 1015.6 |
| 20260505091645 | 65 | 100 | 0.9 | 4.3 | 0.00 | 0.00 | 0.00 | 85 | 1015.4 |
| 20260505091638 | 61 | 126 | 0.0 | 0.0 | 0.00 | 0.00 | 0.00 | 92 | 1014.8 |
| 20260505091632 | 61 | 126 | 0.0 | 0.0 | 0.00 | 0.00 | 0.00 | 93 | 1015.0 |
| 20260505091627 | 65 | 100 | 0.0 | 1.7 | 0.00 | 0.00 | 0.00 | 87 | 1015.3 |
| 20260505091621 | 64 | 121 | 1.7 | 3.5 | 0.00 | 0.00 | 0.00 | 88 | 1015.3 |
| 20260505091617 | 64 | 100 | 0.9 | 3.5 | 0.00 | 0.00 | 0.00 | 87 | 1015.3 |
| 20260505091611 | 63 | 121 | 0.9 | 3.5 | 0.00 | 0.00 | 0.00 | 89 | 1015.3 |
| 20260505091606 | 62 | 121 | 0.9 | 1.7 | 0.00 | 0.00 | 0.00 | 90 | 1015.0 |
| 20260505091600 | 61 | 126 | 0.0 | 0.0 | 0.00 | 0.00 | 0.00 | 93 | 1015.1 |
| 20260505091556 | 62 | 121 | 0.9 | 1.7 | 0.00 | 0.00 | 0.00 | 90 | 1015.0 |
| 20260505091550 | 62 | 126 | 0.9 | 1.7 | 0.00 | 0.00 | 0.00 | 90 | 1015.0 |
| 20260505091545 | 62 | 126 | 0.0 | 1.7 | 0.00 | 0.00 | 0.00 | 91 | 1014.9 |
| 20260505091420 | 61 | 126 | 0.0 | 0.0 | 0.00 | 0.00 | 0.00 | 91 | 1014.7 |
| 20260505091414 | 62 | 126 | 0.0 | 0.0 | 0.00 | 0.00 | 0.00 | 91 | 1014.6 |
| 20260505091250 | 61 | 126 | 0.0 | 0.0 | 0.00 | 0.00 | 0.00 | 92 | 1014.9 |
| 20260505091244 | 61 | 126 | 0.0 | 0.0 | 0.00 | 0.00 | 0.00 | 92 | 1014.9 |
| 20260505091117 | 61 | 126 | 0.0 | 0.0 | 0.00 | 0.00 | 0.00 | 92 | 1014.8 |
| 20260505090952 | 69 | 267 | 0.9 | 3.5 | 0.00 | 0.12 | 0.01 | 96 | 1010.1 |
| 20260505090947 | 70 | 258 | 1.7 | 4.3 | 0.00 | 0.12 | 0.01 | 97 | 1010.0 |
| 20260505090943 | 70 | 252 | 1.7 | 4.3 | 0.00 | 0.12 | 0.01 | 97 | 1010.1 |
| 20260505090937 | 70 | 250 | 1.7 | 4.3 | 0.01 | 0.12 | 0.01 | 97 | 1010.1 |
| 20260505090930 | 70 | 247 | 1.7 | 3.5 | 0.01 | 0.12 | 0.01 | 96 | 1010.0 |
| 20260505090926 | 70 | 255 | 2.6 | 4.3 | 0.01 | 0.12 | 0.01 | 96 | 1009.9 |
| 20260505090920 | 70 | 238 | 1.7 | 4.3 | 0.01 | 0.12 | 0.01 | 96 | 1009.7 |
| 20260505090915 | 70 | 263 | 2.6 | 5.2 | 0.01 | 0.12 | 0.01 | 96 | 1009.8 |
| 20260505090909 | 70 | 252 | 2.6 | 5.2 | 0.01 | 0.12 | 0.01 | 97 | 1009.7 |
| 20260505090905 | 61 | 126 | 0.0 | 0.0 | 0.00 | 0.00 | 0.00 | 91 | 1014.7 |
| 20260505090859 | 69 | 98 | 4.3 | 6.1 | 0.00 | 0.00 | 0.00 | 80 | 1015.8 |
| 20260505090854 | 68 | 99 | 3.5 | 5.2 | 0.00 | 0.00 | 0.00 | 82 | 1015.7 |
| 20260505090729 | 66 | 99 | 2.6 | 4.3 | 0.00 | 0.00 | 0.00 | 83 | 1015.6 |
| 20260505090723 | 64 | 100 | 0.9 | 3.5 | 0.00 | 0.00 | 0.00 | 87 | 1015.3 |
| 20260505090719 | 64 | 121 | 1.7 | 3.5 | 0.00 | 0.00 | 0.00 | 88 | 1015.3 |
| 20260505090713 | 71 | 263 | 2.6 | 6.1 | 0.00 | 0.11 | 0.01 | 97 | 1009.9 |
| 20260505090708 | 63 | 121 | 0.9 | 3.5 | 0.00 | 0.00 | 0.00 | 89 | 1015.3 |
| 20260505090702 | 65 | 100 | 0.0 | 1.7 | 0.00 | 0.00 | 0.00 | 87 | 1015.3 |
| 20260505090657 | 62 | 121 | 0.9 | 1.7 | 0.00 | 0.00 | 0.00 | 90 | 1015.0 |
| 20260505090653 | 70 | 127 | 6.1 | 8.7 | 0.00 | 0.00 | 0.00 | 77 | 1016.5 |
| 20260505090647 | 62 | 126 | 0.9 | 1.7 | 0.00 | 0.00 | 0.00 | 90 | 1015.0 |
| 20260505090642 | 70 | 112 | 5.2 | 7.8 | 0.00 | 0.00 | 0.00 | 78 | 1016.4 |
| 20260505090636 | 61 | 126 | 0.0 | 0.0 | 0.00 | 0.00 | 0.00 | 92 | 1014.9 |
| 20260505090629 | 70 | 115 | 5.2 | 7.8 | 0.00 | 0.00 | 0.00 | 77 | 1016.5 |
| 20260505090625 | 61 | 126 | 0.0 | 0.0 | 0.00 | 0.00 | 0.00 | 91 | 1014.8 |
| 20260505090619 | 70 | 106 | 5.2 | 7.0 | 0.00 | 0.00 | 0.00 | 79 | 1016.3 |
| 20260505090615 | 61 | 126 | 0.0 | 0.0 | 0.00 | 0.00 | 0.00 | 92 | 1014.9 |
| 20260505090609 | 62 | 121 | 0.9 | 1.7 | 0.00 | 0.00 | 0.00 | 90 | 1015.0 |
| 20260505090604 | 61 | 126 | 0.0 | 0.0 | 0.00 | 0.00 | 0.00 | 91 | 1014.8 |
| 20260505090600 | 61 | 126 | 0.0 | 0.0 | 0.00 | 0.00 | 0.00 | 93 | 1015.0 |
| 20260505090554 | 69 | 100 | 4.3 | 7.0 | 0.00 | 0.00 | 0.00 | 79 | 1016.0 |
| 20260505090550 | 62 | 126 | 0.0 | 1.7 | 0.00 | 0.00 | 0.00 | 91 | 1014.9 |
| 20260505090544 | 61 | 126 | 0.0 | 0.0 | 0.00 | 0.00 | 0.00 | 92 | 1014.8 |
| 20260505090539 | 70 | 107 | 4.3 | 7.0 | 0.00 | 0.00 | 0.00 | 79 | 1016.1 |
| 20260505090533 | 68 | 98 | 3.5 | 5.2 | 0.00 | 0.00 | 0.00 | 80 | 1015.7 |
| 20260505090526 | 62 | 126 | 0.0 | 0.0 | 0.00 | 0.00 | 0.00 | 91 | 1014.6 |
| 20260505090240 | 68 | 99 | 3.5 | 5.2 | 0.00 | 0.00 | 0.00 | 82 | 1015.7 |
| 20260505090235 | 66 | 99 | 2.6 | 4.3 | 0.00 | 0.00 | 0.00 | 83 | 1015.6 |
| 20260505090231 | 65 | 100 | 0.9 | 4.3 | 0.00 | 0.00 | 0.00 | 85 | 1015.4 |
| 20260505090225 | 64 | 100 | 0.9 | 3.5 | 0.00 | 0.00 | 0.00 | 87 | 1015.3 |
| 20260505090218 | 71 | 249 | 4.3 | 6.1 | 0.00 | 0.11 | 0.00 | 96 | 1010.1 |
| 20260505090214 | 64 | 121 | 1.7 | 3.5 | 0.00 | 0.00 | 0.00 | 88 | 1015.3 |
| 20260505090209 | 63 | 121 | 0.9 | 3.5 | 0.00 | 0.00 | 0.00 | 89 | 1015.3 |
| 20260505090203 | 65 | 100 | 0.0 | 1.7 | 0.00 | 0.00 | 0.00 | 87 | 1015.3 |
| 20260505090159 | 62 | 121 | 0.9 | 1.7 | 0.00 | 0.00 | 0.00 | 90 | 1015.0 |
| 20260505090153 | 62 | 126 | 0.9 | 1.7 | 0.00 | 0.00 | 0.00 | 90 | 1015.0 |
| 20260505090149 | 71 | 239 | 3.5 | 5.2 | 0.00 | 0.11 | 0.00 | 96 | 1010.1 |
| 20260505090143 | 61 | 126 | 0.0 | 0.0 | 0.00 | 0.00 | 0.00 | 92 | 1014.9 |
| 20260505090138 | 61 | 126 | 0.0 | 0.0 | 0.00 | 0.00 | 0.00 | 91 | 1014.8 |
| 20260505090133 | 62 | 121 | 0.9 | 1.7 | 0.00 | 0.00 | 0.00 | 90 | 1015.0 |
| 20260505090127 | 70 | 113 | 6.1 | 9.6 | 0.00 | 0.00 | 0.00 | 78 | 1016.5 |
| 20260505090123 | 61 | 126 | 0.0 | 0.0 | 0.00 | 0.00 | 0.00 | 92 | 1014.9 |
| 20260505090115 | 70 | 127 | 6.1 | 8.7 | 0.00 | 0.00 | 0.00 | 77 | 1016.5 |
| 20260505090110 | 70 | 112 | 5.2 | 7.8 | 0.00 | 0.00 | 0.00 | 78 | 1016.4 |
| 20260505090105 | 70 | 115 | 5.2 | 7.8 | 0.00 | 0.00 | 0.00 | 77 | 1016.5 |
| 20260505090059 | 61 | 126 | 0.0 | 0.0 | 0.00 | 0.00 | 0.00 | 92 | 1014.8 |
| 20260505090055 | 70 | 106 | 5.2 | 7.0 | 0.00 | 0.00 | 0.00 | 79 | 1016.3 |
| 20260505090049 | 62 | 126 | 0.0 | 1.7 | 0.00 | 0.00 | 0.00 | 91 | 1014.9 |
| 20260505090045 | 61 | 126 | 0.0 | 0.0 | 0.00 | 0.00 | 0.00 | 91 | 1014.8 |
| 20260505090039 | 62 | 126 | 0.0 | 0.0 | 0.00 | 0.00 | 0.00 | 91 | 1014.6 |
| 20260505085753 | 70 | 107 | 4.3 | 7.0 | 0.00 | 0.00 | 0.00 | 79 | 1016.1 |
| 20260505085748 | 69 | 98 | 4.3 | 6.1 | 0.00 | 0.00 | 0.00 | 80 | 1015.8 |
| 20260505085744 | 68 | 98 | 3.5 | 5.2 | 0.00 | 0.00 | 0.00 | 80 | 1015.7 |
| 20260505085738 | 68 | 99 | 3.5 | 5.2 | 0.00 | 0.00 | 0.00 | 82 | 1015.7 |
| 20260505085733 | 66 | 99 | 2.6 | 4.3 | 0.00 | 0.00 | 0.00 | 83 | 1015.6 |
| 20260505085727 | 65 | 100 | 0.9 | 4.3 | 0.00 | 0.00 | 0.00 | 85 | 1015.4 |
| 20260505085723 | 65 | 100 | 0.0 | 1.7 | 0.00 | 0.00 | 0.00 | 87 | 1015.3 |
| 20260505085718 | 64 | 121 | 1.7 | 3.5 | 0.00 | 0.00 | 0.00 | 88 | 1015.3 |
| 20260505085710 | 64 | 100 | 0.9 | 3.5 | 0.00 | 0.00 | 0.00 | 87 | 1015.3 |
| 20260505085705 | 61 | 126 | 0.0 | 0.0 | 0.00 | 0.00 | 0.00 | 91 | 1014.8 |
| 20260505085659 | 63 | 121 | 0.9 | 3.5 | 0.00 | 0.00 | 0.00 | 89 | 1015.3 |
| 20260505085655 | 62 | 121 | 0.9 | 1.7 | 0.00 | 0.00 | 0.00 | 90 | 1015.0 |
| 20260505085649 | 62 | 121 | 0.9 | 1.7 | 0.00 | 0.00 | 0.00 | 90 | 1015.0 |
| 20260505085645 | 62 | 126 | 0.9 | 1.7 | 0.00 | 0.00 | 0.00 | 90 | 1015.0 |
| 20260505085640 | 61 | 126 | 0.0 | 0.0 | 0.00 | 0.00 | 0.00 | 92 | 1014.9 |
| 20260505085634 | 61 | 126 | 0.0 | 0.0 | 0.00 | 0.00 | 0.00 | 92 | 1014.9 |
| 20260505085621 | 61 | 126 | 0.0 | 0.0 | 0.00 | 0.00 | 0.00 | 92 | 1014.8 |
| 20260505085501 | 61 | 126 | 0.0 | 0.0 | 0.00 | 0.00 | 0.00 | 91 | 1014.8 |
| 20260505085335 | 61 | 126 | 0.0 | 0.0 | 0.00 | 0.00 | 0.00 | 91 | 1014.7 |
| 20260505085211 | 61 | 126 | 0.0 | 0.0 | 0.00 | 0.00 | 0.00 | 91 | 1014.8 |
| 20260505085203 | 70 | 127 | 6.1 | 8.7 | 0.00 | 0.00 | 0.00 | 77 | 1016.5 |
| 20260505085159 | 70 | 121 | 7.0 | 9.6 | 0.00 | 0.00 | 0.00 | 78 | 1016.6 |
| 20260505085154 | 71 | 252 | 3.5 | 6.1 | 0.00 | 0.11 | 0.00 | 96 | 1010.2 |
| 20260505085148 | 71 | 250 | 3.5 | 6.1 | 0.00 | 0.11 | 0.00 | 96 | 1010.1 |
| 20260505085143 | 71 | 240 | 2.6 | 5.2 | 0.00 | 0.11 | 0.00 | 96 | 1010.1 |
| 20260505085137 | 70 | 115 | 5.2 | 7.8 | 0.00 | 0.00 | 0.00 | 77 | 1016.5 |
| 20260505085133 | 61 | 126 | 0.0 | 0.0 | 0.00 | 0.00 | 0.00 | 92 | 1014.9 |
| 20260505085127 | 71 | 257 | 2.6 | 7.0 | 0.00 | 0.11 | 0.00 | 96 | 1010.3 |
| 20260505085122 | 69 | 100 | 4.3 | 7.0 | 0.00 | 0.00 | 0.00 | 79 | 1016.0 |
| 20260505085117 | 71 | 232 | 2.6 | 7.0 | 0.00 | 0.11 | 0.00 | 96 | 1010.2 |
| 20260505085112 | 70 | 113 | 7.0 | 9.6 | 0.00 | 0.00 | 0.00 | 78 | 1016.6 |
| 20260505085105 | 61 | 126 | 0.0 | 0.0 | 0.00 | 0.00 | 0.00 | 92 | 1014.9 |
| 20260505085100 | 70 | 116 | 7.8 | 10.4 | 0.00 | 0.00 | 0.00 | 80 | 1016.7 |
| 20260505085055 | 70 | 124 | 7.0 | 10.4 | 0.00 | 0.00 | 0.00 | 78 | 1016.6 |
| 20260505085050 | 70 | 131 | 7.8 | 12.2 | 0.00 | 0.00 | 0.00 | 79 | 1016.6 |
| 20260505085044 | 70 | 113 | 9.6 | 13.0 | 0.00 | 0.00 | 0.00 | 80 | 1016.6 |
| 20260505085040 | 70 | 113 | 10.4 | 13.0 | 0.00 | 0.00 | 0.00 | 79 | 1016.5 |
| 20260505085035 | 70 | 111 | 10.4 | 13.9 | 0.00 | 0.00 | 0.00 | 79 | 1016.6 |
| 20260505085029 | 71 | 126 | 11.3 | 13.9 | 0.00 | 0.00 | 0.00 | 81 | 1016.5 |
| 20260505085025 | 71 | 124 | 11.3 | 13.0 | 0.00 | 0.00 | 0.00 | 80 | 1016.5 |
| 20260505085019 | 70 | 113 | 11.3 | 13.0 | 0.00 | 0.00 | 0.00 | 81 | 1016.5 |
| 20260505085015 | 62 | 126 | 0.0 | 1.7 | 0.00 | 0.00 | 0.00 | 91 | 1014.9 |
| 20260505085009 | 70 | 106 | 5.2 | 7.0 | 0.00 | 0.00 | 0.00 | 79 | 1016.3 |
| 20260505085002 | 64 | 121 | 1.7 | 3.5 | 0.00 | 0.00 | 0.00 | 88 | 1015.3 |
| 20260505084957 | 70 | 107 | 4.3 | 7.0 | 0.00 | 0.00 | 0.00 | 79 | 1016.1 |
| 20260505084951 | 69 | 98 | 4.3 | 6.1 | 0.00 | 0.00 | 0.00 | 80 | 1015.8 |
| 20260505084947 | 68 | 98 | 3.5 | 5.2 | 0.00 | 0.00 | 0.00 | 80 | 1015.7 |
| 20260505084942 | 62 | 126 | 0.9 | 1.7 | 0.00 | 0.00 | 0.00 | 90 | 1015.0 |
| 20260505084936 | 61 | 126 | 0.0 | 0.0 | 0.00 | 0.00 | 0.00 | 91 | 1014.8 |
| 20260505084930 | 66 | 99 | 2.6 | 4.3 | 0.00 | 0.00 | 0.00 | 83 | 1015.6 |
| 20260505084925 | 68 | 99 | 3.5 | 5.2 | 0.00 | 0.00 | 0.00 | 82 | 1015.7 |
| 20260505084921 | 70 | 115 | 11.3 | 13.9 | 0.00 | 0.00 | 0.00 | 79 | 1016.4 |
| 20260505084915 | 65 | 100 | 0.9 | 4.3 | 0.00 | 0.00 | 0.00 | 85 | 1015.4 |
| 20260505084911 | 65 | 100 | 0.0 | 1.7 | 0.00 | 0.00 | 0.00 | 87 | 1015.3 |
| 20260505084902 | 62 | 126 | 0.0 | 0.0 | 0.00 | 0.00 | 0.00 | 91 | 1014.6 |
| 20260505084858 | 64 | 100 | 0.9 | 3.5 | 0.00 | 0.00 | 0.00 | 87 | 1015.3 |
| 20260505084853 | 63 | 121 | 0.9 | 3.5 | 0.00 | 0.00 | 0.00 | 89 | 1015.3 |
| 20260505084847 | 62 | 121 | 0.9 | 1.7 | 0.00 | 0.00 | 0.00 | 90 | 1015.0 |
| 20260505084843 | 62 | 121 | 0.9 | 1.7 | 0.00 | 0.00 | 0.00 | 90 | 1015.0 |
| 20260505084838 | 61 | 126 | 0.0 | 0.0 | 0.00 | 0.00 | 0.00 | 91 | 1014.7 |
| 20260505084712 | 61 | 126 | 0.0 | 0.0 | 0.00 | 0.00 | 0.00 | 91 | 1014.8 |
| 20260505084707 | 70 | 121 | 7.0 | 9.6 | 0.00 | 0.00 | 0.00 | 78 | 1016.6 |
| 20260505084700 | 70 | 127 | 6.1 | 8.7 | 0.00 | 0.00 | 0.00 | 77 | 1016.5 |
| 20260505084655 | 70 | 112 | 5.2 | 7.8 | 0.00 | 0.00 | 0.00 | 78 | 1016.4 |
| 20260505084650 | 70 | 115 | 5.2 | 7.8 | 0.00 | 0.00 | 0.00 | 77 | 1016.5 |
| 20260505084645 | 69 | 100 | 4.3 | 7.0 | 0.00 | 0.00 | 0.00 | 79 | 1016.0 |
| 20260505084639 | 61 | 126 | 0.0 | 0.0 | 0.00 | 0.00 | 0.00 | 92 | 1014.9 |
| 20260505084626 | 61 | 126 | 0.0 | 0.0 | 0.00 | 0.00 | 0.00 | 92 | 1014.9 |
| 20260505084510 | 62 | 126 | 0.0 | 1.7 | 0.00 | 0.00 | 0.00 | 91 | 1014.9 |
| 20260505084502 | 70 | 113 | 7.0 | 9.6 | 0.00 | 0.00 | 0.00 | 78 | 1016.6 |
| 20260505084457 | 61 | 126 | 0.0 | 0.0 | 0.00 | 0.00 | 0.00 | 91 | 1014.8 |
| 20260505084451 | 62 | 126 | 0.9 | 1.7 | 0.00 | 0.00 | 0.00 | 90 | 1015.0 |
| 20260505084446 | 70 | 106 | 5.2 | 7.0 | 0.00 | 0.00 | 0.00 | 79 | 1016.3 |
| 20260505084441 | 70 | 107 | 4.3 | 7.0 | 0.00 | 0.00 | 0.00 | 79 | 1016.1 |
| 20260505084436 | 69 | 98 | 4.3 | 6.1 | 0.00 | 0.00 | 0.00 | 80 | 1015.8 |
| 20260505084430 | 68 | 98 | 3.5 | 5.2 | 0.00 | 0.00 | 0.00 | 80 | 1015.7 |
| 20260505084426 | 68 | 99 | 3.5 | 5.2 | 0.00 | 0.00 | 0.00 | 82 | 1015.7 |
| 20260505084421 | 66 | 99 | 2.6 | 4.3 | 0.00 | 0.00 | 0.00 | 83 | 1015.6 |
| 20260505084415 | 62 | 126 | 0.0 | 0.0 | 0.00 | 0.00 | 0.00 | 91 | 1014.6 |
| 20260505084248 | 65 | 100 | 0.0 | 1.7 | 0.00 | 0.00 | 0.00 | 87 | 1015.3 |
| 20260505084243 | 64 | 100 | 0.9 | 3.5 | 0.00 | 0.00 | 0.00 | 87 | 1015.3 |
| 20260505084238 | 63 | 121 | 0.9 | 3.5 | 0.00 | 0.00 | 0.00 | 89 | 1015.3 |
| 20260505084232 | 62 | 121 | 0.9 | 1.7 | 0.00 | 0.00 | 0.00 | 90 | 1015.0 |
| 20260505084227 | 62 | 121 | 0.9 | 1.7 | 0.00 | 0.00 | 0.00 | 90 | 1015.0 |
| 20260505084221 | 61 | 126 | 0.0 | 0.0 | 0.00 | 0.00 | 0.00 | 91 | 1014.7 |
| 20260505084217 | 61 | 126 | 0.0 | 0.0 | 0.00 | 0.00 | 0.00 | 91 | 1014.8 |
| 20260505084050 | 70 | 116 | 7.8 | 10.4 | 0.00 | 0.00 | 0.00 | 80 | 1016.7 |
| 20260505084045 | 70 | 124 | 7.0 | 10.4 | 0.00 | 0.00 | 0.00 | 78 | 1016.6 |
| 20260505084041 | 70 | 131 | 7.8 | 12.2 | 0.00 | 0.00 | 0.00 | 79 | 1016.6 |
| 20260505084035 | 70 | 127 | 6.1 | 8.7 | 0.00 | 0.00 | 0.00 | 77 | 1016.5 |
| 20260505084029 | 70 | 112 | 5.2 | 7.8 | 0.00 | 0.00 | 0.00 | 78 | 1016.4 |
| 20260505084025 | 70 | 115 | 5.2 | 7.8 | 0.00 | 0.00 | 0.00 | 77 | 1016.5 |
| 20260505084020 | 69 | 100 | 4.3 | 7.0 | 0.00 | 0.00 | 0.00 | 79 | 1016.0 |
| 20260505084014 | 64 | 121 | 1.7 | 3.5 | 0.00 | 0.00 | 0.00 | 88 | 1015.3 |
| 20260505084010 | 62 | 126 | 0.9 | 1.7 | 0.00 | 0.00 | 0.00 | 90 | 1015.0 |
| 20260505084004 | 62 | 126 | 0.0 | 1.7 | 0.00 | 0.00 | 0.00 | 91 | 1014.9 |
| 20260505083957 | 61 | 126 | 0.0 | 0.0 | 0.00 | 0.00 | 0.00 | 91 | 1014.8 |
| 20260505083832 | 70 | 107 | 4.3 | 7.0 | 0.00 | 0.00 | 0.00 | 79 | 1016.1 |
| 20260505083827 | 68 | 98 | 3.5 | 5.2 | 0.00 | 0.00 | 0.00 | 80 | 1015.7 |
| 20260505083821 | 68 | 99 | 3.5 | 5.2 | 0.00 | 0.00 | 0.00 | 82 | 1015.7 |
| 20260505083655 | 66 | 99 | 2.6 | 4.3 | 0.00 | 0.00 | 0.00 | 83 | 1015.6 |
| 20260505083650 | 63 | 121 | 0.9 | 3.5 | 0.00 | 0.00 | 0.00 | 89 | 1015.3 |
| 20260505083645 | 70 | 106 | 5.2 | 7.0 | 0.00 | 0.00 | 0.00 | 79 | 1016.3 |
| 20260505083639 | 61 | 126 | 0.0 | 0.0 | 0.00 | 0.00 | 0.00 | 91 | 1014.7 |
| 20260505083634 | 69 | 98 | 4.3 | 6.1 | 0.00 | 0.00 | 0.00 | 80 | 1015.8 |
| 20260505083630 | 62 | 121 | 0.9 | 1.7 | 0.00 | 0.00 | 0.00 | 90 | 1015.0 |
| 20260505083624 | 61 | 126 | 0.0 | 0.0 | 0.00 | 0.00 | 0.00 | 91 | 1014.8 |
| 20260505083618 | 65 | 100 | 0.9 | 4.3 | 0.00 | 0.00 | 0.00 | 85 | 1015.4 |
| 20260505083613 | 65 | 100 | 0.0 | 1.7 | 0.00 | 0.00 | 0.00 | 87 | 1015.3 |
| 20260505083607 | 64 | 100 | 0.9 | 3.5 | 0.00 | 0.00 | 0.00 | 87 | 1015.3 |
| 20260505083559 | 61 | 126 | 0.0 | 0.0 | 0.00 | 0.00 | 0.00 | 92 | 1014.9 |
| 20260505083435 | 70 | 121 | 7.0 | 9.6 | 0.00 | 0.00 | 0.00 | 78 | 1016.6 |
| 20260505083429 | 70 | 113 | 7.0 | 9.6 | 0.00 | 0.00 | 0.00 | 78 | 1016.6 |
| 20260505083424 | 70 | 116 | 7.8 | 10.4 | 0.00 | 0.00 | 0.00 | 80 | 1016.7 |
| 20260505083420 | 69 | 100 | 4.3 | 7.0 | 0.00 | 0.00 | 0.00 | 79 | 1016.0 |
| 20260505083414 | 64 | 121 | 1.7 | 3.5 | 0.00 | 0.00 | 0.00 | 88 | 1015.3 |
| 20260505083408 | 62 | 126 | 0.9 | 1.7 | 0.00 | 0.00 | 0.00 | 90 | 1015.0 |
| 20260505083403 | 62 | 126 | 0.0 | 1.7 | 0.00 | 0.00 | 0.00 | 91 | 1014.9 |
| 20260505083359 | 61 | 126 | 0.0 | 0.0 | 0.00 | 0.00 | 0.00 | 91 | 1014.8 |
| 20260505083352 | 62 | 126 | 0.0 | 0.0 | 0.00 | 0.00 | 0.00 | 91 | 1014.6 |
| 20260505083228 | 70 | 112 | 5.2 | 7.8 | 0.00 | 0.00 | 0.00 | 78 | 1016.4 |
| 20260505083222 | 70 | 107 | 4.3 | 7.0 | 0.00 | 0.00 | 0.00 | 79 | 1016.1 |
| 20260505083217 | 68 | 98 | 3.5 | 5.2 | 0.00 | 0.00 | 0.00 | 80 | 1015.7 |
| 20260505083211 | 68 | 99 | 3.5 | 5.2 | 0.00 | 0.00 | 0.00 | 82 | 1015.7 |
| 20260505083207 | 66 | 99 | 2.6 | 4.3 | 0.00 | 0.00 | 0.00 | 83 | 1015.6 |
| 20260505083201 | 63 | 121 | 0.9 | 3.5 | 0.00 | 0.00 | 0.00 | 89 | 1015.3 |
| 20260505083156 | 62 | 121 | 0.9 | 1.7 | 0.00 | 0.00 | 0.00 | 90 | 1015.0 |
| 20260505083149 | 62 | 121 | 0.9 | 1.7 | 0.00 | 0.00 | 0.00 | 90 | 1015.0 |
| 20260505083145 | 61 | 126 | 0.0 | 0.0 | 0.00 | 0.00 | 0.00 | 91 | 1014.7 |
| 20260505083139 | 61 | 126 | 0.0 | 0.0 | 0.00 | 0.00 | 0.00 | 91 | 1014.8 |
| 20260505083016 | 70 | 106 | 5.2 | 7.0 | 0.00 | 0.00 | 0.00 | 79 | 1016.3 |
| 20260505083011 | 69 | 98 | 4.3 | 6.1 | 0.00 | 0.00 | 0.00 | 80 | 1015.8 |
| 20260505083007 | 65 | 100 | 0.9 | 4.3 | 0.00 | 0.00 | 0.00 | 85 | 1015.4 |
| 20260505083002 | 65 | 100 | 0.0 | 1.7 | 0.00 | 0.00 | 0.00 | 87 | 1015.3 |
| 20260505082956 | 64 | 100 | 0.9 | 3.5 | 0.00 | 0.00 | 0.00 | 87 | 1015.3 |
| 20260505082829 | 64 | 121 | 1.7 | 3.5 | 0.00 | 0.00 | 0.00 | 88 | 1015.3 |
| 20260505082825 | 62 | 126 | 0.9 | 1.7 | 0.00 | 0.00 | 0.00 | 90 | 1015.0 |
| 20260505082820 | 62 | 126 | 0.0 | 1.7 | 0.00 | 0.00 | 0.00 | 91 | 1014.9 |
| 20260505082814 | 61 | 126 | 0.0 | 0.0 | 0.00 | 0.00 | 0.00 | 91 | 1014.8 |
| 20260505082809 | 62 | 126 | 0.0 | 0.0 | 0.00 | 0.00 | 0.00 | 91 | 1014.6 |
| 20260505082643 | 68 | 99 | 3.5 | 5.2 | 0.00 | 0.00 | 0.00 | 82 | 1015.7 |
| 20260505082638 | 66 | 99 | 2.6 | 4.3 | 0.00 | 0.00 | 0.00 | 83 | 1015.6 |
| 20260505082633 | 63 | 121 | 0.9 | 3.5 | 0.00 | 0.00 | 0.00 | 89 | 1015.3 |
| 20260505082628 | 62 | 121 | 0.9 | 1.7 | 0.00 | 0.00 | 0.00 | 90 | 1015.0 |
| 20260505082623 | 62 | 121 | 0.9 | 1.7 | 0.00 | 0.00 | 0.00 | 90 | 1015.0 |
| 20260505082618 | 61 | 126 | 0.0 | 0.0 | 0.00 | 0.00 | 0.00 | 91 | 1014.7 |
| 20260505082613 | 70 | 107 | 4.3 | 7.0 | 0.00 | 0.00 | 0.00 | 79 | 1016.1 |
| 20260505082605 | 61 | 126 | 0.0 | 0.0 | 0.00 | 0.00 | 0.00 | 91 | 1014.8 |
| 20260505082442 | 65 | 100 | 0.9 | 4.3 | 0.00 | 0.00 | 0.00 | 85 | 1015.4 |
| 20260505082437 | 65 | 100 | 0.0 | 1.7 | 0.00 | 0.00 | 0.00 | 87 | 1015.3 |
| 20260505082432 | 64 | 100 | 0.9 | 3.5 | 0.00 | 0.00 | 0.00 | 87 | 1015.3 |
| 20260505082310 | 62 | 126 | 0.9 | 1.7 | 0.00 | 0.00 | 0.00 | 90 | 1015.0 |
| 20260505082305 | 62 | 126 | 0.0 | 1.7 | 0.00 | 0.00 | 0.00 | 91 | 1014.9 |
| 20260505082259 | 61 | 126 | 0.0 | 0.0 | 0.00 | 0.00 | 0.00 | 91 | 1014.8 |
| 20260505082255 | 62 | 126 | 0.0 | 0.0 | 0.00 | 0.00 | 0.00 | 91 | 1014.6 |
| 20260505082129 | 68 | 99 | 3.5 | 5.2 | 0.00 | 0.00 | 0.00 | 82 | 1015.7 |
| 20260505082125 | 66 | 99 | 2.6 | 4.3 | 0.00 | 0.00 | 0.00 | 83 | 1015.6 |
| 20260505082119 | 63 | 121 | 0.9 | 3.5 | 0.00 | 0.00 | 0.00 | 89 | 1015.3 |
| 20260505082114 | 62 | 121 | 0.9 | 1.7 | 0.00 | 0.00 | 0.00 | 90 | 1015.0 |
| 20260505082110 | 62 | 121 | 0.9 | 1.7 | 0.00 | 0.00 | 0.00 | 90 | 1015.0 |
| 20260505082104 | 61 | 126 | 0.0 | 0.0 | 0.00 | 0.00 | 0.00 | 91 | 1014.7 |
| 20260505081940 | 71 | 120 | 11.3 | 13.9 | 0.00 | 0.00 | 0.00 | 81 | 1016.5 |
| 20260505081933 | 65 | 100 | 0.9 | 4.3 | 0.00 | 0.00 | 0.00 | 85 | 1015.4 |
| 20260505081928 | 70 | 114 | 11.3 | 13.0 | 0.00 | 0.00 | 0.00 | 81 | 1016.5 |
| 20260505081924 | 71 | 118 | 10.4 | 13.9 | 0.00 | 0.00 | 0.00 | 80 | 1016.5 |
| 20260505081918 | 71 | 116 | 11.3 | 13.9 | 0.00 | 0.00 | 0.00 | 78 | 1016.4 |
| 20260505081913 | 71 | 121 | 10.4 | 13.0 | 0.00 | 0.00 | 0.00 | 79 | 1016.4 |
| 20260505081908 | 70 | 113 | 9.6 | 13.0 | 0.00 | 0.00 | 0.00 | 80 | 1016.6 |
| 20260505081903 | 70 | 113 | 10.4 | 13.0 | 0.00 | 0.00 | 0.00 | 79 | 1016.5 |
| 20260505081857 | 70 | 111 | 10.4 | 13.9 | 0.00 | 0.00 | 0.00 | 79 | 1016.6 |
| 20260505081853 | 71 | 126 | 11.3 | 13.9 | 0.00 | 0.00 | 0.00 | 81 | 1016.5 |
| 20260505081847 | 71 | 124 | 11.3 | 13.0 | 0.00 | 0.00 | 0.00 | 80 | 1016.5 |
| 20260505081843 | 70 | 124 | 7.0 | 10.4 | 0.00 | 0.00 | 0.00 | 78 | 1016.6 |
| 20260505081836 | 70 | 113 | 6.1 | 9.6 | 0.00 | 0.00 | 0.00 | 78 | 1016.5 |
| 20260505081830 | 70 | 121 | 7.0 | 9.6 | 0.00 | 0.00 | 0.00 | 78 | 1016.6 |
| 20260505081825 | 62 | 126 | 0.9 | 1.7 | 0.00 | 0.00 | 0.00 | 90 | 1015.0 |
| 20260505081821 | 70 | 113 | 7.0 | 9.6 | 0.00 | 0.00 | 0.00 | 78 | 1016.6 |
| 20260505081815 | 70 | 116 | 7.8 | 10.4 | 0.00 | 0.00 | 0.00 | 80 | 1016.7 |
| 20260505081811 | 70 | 127 | 6.1 | 8.7 | 0.00 | 0.00 | 0.00 | 77 | 1016.5 |
| 20260505081806 | 65 | 100 | 0.0 | 1.7 | 0.00 | 0.00 | 0.00 | 87 | 1015.3 |
| 20260505081800 | 70 | 112 | 5.2 | 7.8 | 0.00 | 0.00 | 0.00 | 78 | 1016.4 |
| 20260505081756 | 70 | 115 | 5.2 | 7.8 | 0.00 | 0.00 | 0.00 | 77 | 1016.5 |
| 20260505081750 | 64 | 100 | 0.9 | 3.5 | 0.00 | 0.00 | 0.00 | 87 | 1015.3 |
| 20260505081745 | 64 | 121 | 1.7 | 3.5 | 0.00 | 0.00 | 0.00 | 88 | 1015.3 |
| 20260505081740 | 62 | 126 | 0.0 | 1.7 | 0.00 | 0.00 | 0.00 | 91 | 1014.9 |
| 20260505081733 | 61 | 126 | 0.0 | 0.0 | 0.00 | 0.00 | 0.00 | 91 | 1014.8 |
| 20260505081728 | 62 | 126 | 0.0 | 0.0 | 0.00 | 0.00 | 0.00 | 91 | 1014.6 |
| 20260505081603 | 70 | 115 | 11.3 | 13.9 | 0.00 | 0.00 | 0.00 | 79 | 1016.4 |
| 20260505081557 | 70 | 131 | 7.8 | 12.2 | 0.00 | 0.00 | 0.00 | 79 | 1016.6 |
| 20260505081553 | 70 | 106 | 5.2 | 7.0 | 0.00 | 0.00 | 0.00 | 79 | 1016.3 |
| 20260505081547 | 61 | 126 | 0.0 | 0.0 | 0.00 | 0.00 | 0.00 | 91 | 1014.7 |
| 20260505081542 | 69 | 100 | 4.3 | 7.0 | 0.00 | 0.00 | 0.00 | 79 | 1016.0 |
| 20260505081538 | 62 | 121 | 0.9 | 1.7 | 0.00 | 0.00 | 0.00 | 90 | 1015.0 |
| 20260505081531 | 63 | 121 | 0.9 | 3.5 | 0.00 | 0.00 | 0.00 | 89 | 1015.3 |
| 20260505081525 | 70 | 107 | 4.3 | 7.0 | 0.00 | 0.00 | 0.00 | 79 | 1016.1 |
| 20260505081521 | 69 | 98 | 4.3 | 6.1 | 0.00 | 0.00 | 0.00 | 80 | 1015.8 |
| 20260505081515 | 68 | 98 | 3.5 | 5.2 | 0.00 | 0.00 | 0.00 | 80 | 1015.7 |
| 20260505081510 | 62 | 121 | 0.9 | 1.7 | 0.00 | 0.00 | 0.00 | 90 | 1015.0 |
| 20260505081504 | 68 | 99 | 3.5 | 5.2 | 0.00 | 0.00 | 0.00 | 82 | 1015.7 |
| 20260505081459 | 66 | 99 | 2.6 | 4.3 | 0.00 | 0.00 | 0.00 | 83 | 1015.6 |
| 20260505081454 | 65 | 100 | 0.9 | 4.3 | 0.00 | 0.00 | 0.00 | 85 | 1015.4 |
| 20260505081328 | 62 | 126 | 0.9 | 1.7 | 0.00 | 0.00 | 0.00 | 90 | 1015.0 |
| 20260505081322 | 65 | 100 | 0.0 | 1.7 | 0.00 | 0.00 | 0.00 | 87 | 1015.3 |
| 20260505081318 | 64 | 100 | 0.9 | 3.5 | 0.00 | 0.00 | 0.00 | 87 | 1015.3 |
| 20260505081312 | 70 | 113 | 10.4 | 13.0 | 0.00 | 0.00 | 0.00 | 79 | 1016.5 |
| 20260505081307 | 70 | 124 | 7.0 | 10.4 | 0.00 | 0.00 | 0.00 | 78 | 1016.6 |
| 20260505081301 | 70 | 113 | 6.1 | 9.6 | 0.00 | 0.00 | 0.00 | 78 | 1016.5 |
| 20260505081257 | 70 | 121 | 7.0 | 9.6 | 0.00 | 0.00 | 0.00 | 78 | 1016.6 |
| 20260505081251 | 70 | 113 | 7.0 | 9.6 | 0.00 | 0.00 | 0.00 | 78 | 1016.6 |
| 20260505081247 | 70 | 116 | 7.8 | 10.4 | 0.00 | 0.00 | 0.00 | 80 | 1016.7 |
| 20260505081242 | 70 | 127 | 6.1 | 8.7 | 0.00 | 0.00 | 0.00 | 77 | 1016.5 |
| 20260505081236 | 70 | 112 | 5.2 | 7.8 | 0.00 | 0.00 | 0.00 | 78 | 1016.4 |
| 20260505081229 | 70 | 115 | 5.2 | 7.8 | 0.00 | 0.00 | 0.00 | 77 | 1016.5 |
| 20260505081225 | 62 | 126 | 0.0 | 1.7 | 0.00 | 0.00 | 0.00 | 91 | 1014.9 |
| 20260505081219 | 64 | 121 | 1.7 | 3.5 | 0.00 | 0.00 | 0.00 | 88 | 1015.3 |
| 20260505081214 | 61 | 126 | 0.0 | 0.0 | 0.00 | 0.00 | 0.00 | 91 | 1014.8 |
| 20260505081208 | 62 | 126 | 0.0 | 0.0 | 0.00 | 0.00 | 0.00 | 91 | 1014.6 |
| 20260505081043 | 69 | 100 | 4.3 | 7.0 | 0.00 | 0.00 | 0.00 | 79 | 1016.0 |
| 20260505081038 | 63 | 121 | 0.9 | 3.5 | 0.00 | 0.00 | 0.00 | 89 | 1015.3 |
| 20260505081032 | 62 | 121 | 0.9 | 1.7 | 0.00 | 0.00 | 0.00 | 90 | 1015.0 |
| 20260505081025 | 62 | 121 | 0.9 | 1.7 | 0.00 | 0.00 | 0.00 | 90 | 1015.0 |
| 20260505080902 | 68 | 98 | 3.5 | 5.2 | 0.00 | 0.00 | 0.00 | 80 | 1015.7 |
| 20260505080856 | 69 | 98 | 4.3 | 6.1 | 0.00 | 0.00 | 0.00 | 80 | 1015.8 |
| 20260505080852 | 68 | 99 | 3.5 | 5.2 | 0.00 | 0.00 | 0.00 | 82 | 1015.7 |
| 20260505080846 | 66 | 99 | 2.6 | 4.3 | 0.00 | 0.00 | 0.00 | 83 | 1015.6 |
| 20260505080841 | 65 | 100 | 0.9 | 4.3 | 0.00 | 0.00 | 0.00 | 85 | 1015.4 |
| 20260505080836 | 62 | 126 | 0.9 | 1.7 | 0.00 | 0.00 | 0.00 | 90 | 1015.0 |
| 20260505080831 | 65 | 100 | 0.0 | 1.7 | 0.00 | 0.00 | 0.00 | 87 | 1015.3 |
| 20260505080824 | 64 | 100 | 0.9 | 3.5 | 0.00 | 0.00 | 0.00 | 87 | 1015.3 |
| 20260505080701 | 64 | 121 | 1.7 | 3.5 | 0.00 | 0.00 | 0.00 | 88 | 1015.3 |
| 20260505080656 | 61 | 126 | 0.0 | 0.0 | 0.00 | 0.00 | 0.00 | 91 | 1014.8 |
| 20260505080639 | 62 | 126 | 0.0 | 0.0 | 0.00 | 0.00 | 0.00 | 91 | 1014.6 |
| 20260505080525 | 62 | 121 | 0.9 | 1.7 | 0.00 | 0.00 | 0.00 | 90 | 1015.0 |
| 20260505080520 | 62 | 121 | 0.9 | 1.7 | 0.00 | 0.00 | 0.00 | 90 | 1015.0 |
| 20260505080356 | 69 | 98 | 4.3 | 6.1 | 0.00 | 0.00 | 0.00 | 80 | 1015.8 |
| 20260505080350 | 68 | 98 | 3.5 | 5.2 | 0.00 | 0.00 | 0.00 | 80 | 1015.7 |
| 20260505080346 | 68 | 99 | 3.5 | 5.2 | 0.00 | 0.00 | 0.00 | 82 | 1015.7 |
| 20260505080341 | 66 | 99 | 2.6 | 4.3 | 0.00 | 0.00 | 0.00 | 83 | 1015.6 |
| 20260505080335 | 62 | 126 | 0.9 | 1.7 | 0.00 | 0.00 | 0.00 | 90 | 1015.0 |
| 20260505080209 | 65 | 100 | 0.0 | 1.7 | 0.00 | 0.00 | 0.00 | 87 | 1015.3 |
| 20260505080203 | 62 | 126 | 0.0 | 1.7 | 0.00 | 0.00 | 0.00 | 91 | 1014.9 |
| 20260505080159 | 61 | 126 | 0.0 | 0.0 | 0.00 | 0.00 | 0.00 | 91 | 1014.8 |
| 20260505080034 | 70 | 114 | 11.3 | 13.0 | 0.00 | 0.00 | 0.00 | 81 | 1016.5 |
| 20260505080029 | 71 | 118 | 10.4 | 13.9 | 0.00 | 0.00 | 0.00 | 80 | 1016.5 |
| 20260505080024 | 71 | 116 | 11.3 | 13.9 | 0.00 | 0.00 | 0.00 | 78 | 1016.4 |
| 20260505080018 | 71 | 121 | 10.4 | 13.0 | 0.00 | 0.00 | 0.00 | 79 | 1016.4 |
| 20260505080012 | 70 | 111 | 10.4 | 13.9 | 0.00 | 0.00 | 0.00 | 79 | 1016.6 |
| 20260505080007 | 71 | 126 | 11.3 | 13.9 | 0.00 | 0.00 | 0.00 | 81 | 1016.5 |
| 20260505080002 | 71 | 124 | 11.3 | 13.0 | 0.00 | 0.00 | 0.00 | 80 | 1016.5 |
| 20260505075957 | 70 | 113 | 11.3 | 13.0 | 0.00 | 0.00 | 0.00 | 81 | 1016.5 |
| 20260505075952 | 64 | 121 | 1.7 | 3.5 | 0.00 | 0.00 | 0.00 | 88 | 1015.3 |
| 20260505075946 | 62 | 121 | 0.9 | 1.7 | 0.00 | 0.00 | 0.00 | 90 | 1015.0 |
| 20260505075942 | 70 | 115 | 11.3 | 13.9 | 0.00 | 0.00 | 0.00 | 79 | 1016.4 |
| 20260505075937 | 64 | 100 | 0.9 | 3.5 | 0.00 | 0.00 | 0.00 | 87 | 1015.3 |
| 20260505075931 | 63 | 121 | 0.9 | 3.5 | 0.00 | 0.00 | 0.00 | 89 | 1015.3 |
| 20260505075927 | 62 | 121 | 0.9 | 1.7 | 0.00 | 0.00 | 0.00 | 90 | 1015.0 |
| 20260505075923 | 70 | 113 | 6.1 | 9.6 | 0.00 | 0.00 | 0.00 | 78 | 1016.5 |
| 20260505075917 | 70 | 116 | 7.8 | 10.4 | 0.00 | 0.00 | 0.00 | 80 | 1016.7 |
| 20260505075750 | 69 | 98 | 4.3 | 6.1 | 0.00 | 0.00 | 0.00 | 80 | 1015.8 |
| 20260505075746 | 70 | 121 | 7.0 | 9.6 | 0.00 | 0.00 | 0.00 | 78 | 1016.6 |
| 20260505075740 | 66 | 99 | 2.6 | 4.3 | 0.00 | 0.00 | 0.00 | 83 | 1015.6 |
| 20260505075735 | 70 | 131 | 7.8 | 12.2 | 0.00 | 0.00 | 0.00 | 79 | 1016.6 |
| 20260505075730 | 68 | 98 | 3.5 | 5.2 | 0.00 | 0.00 | 0.00 | 80 | 1015.7 |
| 20260505075725 | 70 | 113 | 9.6 | 13.0 | 0.00 | 0.00 | 0.00 | 80 | 1016.6 |
| 20260505075719 | 70 | 113 | 10.4 | 13.0 | 0.00 | 0.00 | 0.00 | 79 | 1016.5 |
| 20260505075715 | 62 | 126 | 0.9 | 1.7 | 0.00 | 0.00 | 0.00 | 90 | 1015.0 |
| 20260505075708 | 70 | 124 | 7.0 | 10.4 | 0.00 | 0.00 | 0.00 | 78 | 1016.6 |
| 20260505075703 | 70 | 113 | 7.0 | 9.6 | 0.00 | 0.00 | 0.00 | 78 | 1016.6 |
| 20260505075658 | 70 | 112 | 5.2 | 7.8 | 0.00 | 0.00 | 0.00 | 78 | 1016.4 |
| 20260505075653 | 70 | 115 | 5.2 | 7.8 | 0.00 | 0.00 | 0.00 | 77 | 1016.5 |
| 20260505075647 | 70 | 106 | 5.2 | 7.0 | 0.00 | 0.00 | 0.00 | 79 | 1016.3 |
| 20260505075643 | 70 | 107 | 4.3 | 7.0 | 0.00 | 0.00 | 0.00 | 79 | 1016.1 |
| 20260505075637 | 69 | 100 | 4.3 | 7.0 | 0.00 | 0.00 | 0.00 | 79 | 1016.0 |
| 20260505075633 | 68 | 99 | 3.5 | 5.2 | 0.00 | 0.00 | 0.00 | 82 | 1015.7 |
| 20260505075628 | 62 | 126 | 0.0 | 1.7 | 0.00 | 0.00 | 0.00 | 91 | 1014.9 |
| 20260505075622 | 65 | 100 | 0.9 | 4.3 | 0.00 | 0.00 | 0.00 | 85 | 1015.4 |
| 20260505075618 | 65 | 100 | 0.0 | 1.7 | 0.00 | 0.00 | 0.00 | 87 | 1015.3 |
| 20260505075607 | 61 | 126 | 0.0 | 0.0 | 0.00 | 0.00 | 0.00 | 91 | 1014.8 |
| 20260505075447 | 64 | 121 | 1.7 | 3.5 | 0.00 | 0.00 | 0.00 | 88 | 1015.3 |
| 20260505075443 | 63 | 121 | 0.9 | 3.5 | 0.00 | 0.00 | 0.00 | 89 | 1015.3 |
| 20260505075437 | 62 | 121 | 0.9 | 1.7 | 0.00 | 0.00 | 0.00 | 90 | 1015.0 |
| 20260505075432 | 62 | 121 | 0.9 | 1.7 | 0.00 | 0.00 | 0.00 | 90 | 1015.0 |
| 20260505075304 | 70 | 121 | 7.0 | 9.6 | 0.00 | 0.00 | 0.00 | 78 | 1016.6 |
| 20260505075259 | 70 | 116 | 7.8 | 10.4 | 0.00 | 0.00 | 0.00 | 80 | 1016.7 |
| 20260505075254 | 70 | 127 | 6.1 | 8.7 | 0.00 | 0.00 | 0.00 | 77 | 1016.5 |
| 20260505075249 | 69 | 98 | 4.3 | 6.1 | 0.00 | 0.00 | 0.00 | 80 | 1015.8 |
| 20260505075243 | 68 | 98 | 3.5 | 5.2 | 0.00 | 0.00 | 0.00 | 80 | 1015.7 |
| 20260505075239 | 62 | 126 | 0.9 | 1.7 | 0.00 | 0.00 | 0.00 | 90 | 1015.0 |
| 20260505075234 | 66 | 99 | 2.6 | 4.3 | 0.00 | 0.00 | 0.00 | 83 | 1015.6 |
| 20260505075109 | 62 | 126 | 0.0 | 1.7 | 0.00 | 0.00 | 0.00 | 91 | 1014.9 |
| 20260505074943 | 70 | 115 | 5.2 | 7.8 | 0.00 | 0.00 | 0.00 | 77 | 1016.5 |
| 20260505074937 | 70 | 106 | 5.2 | 7.0 | 0.00 | 0.00 | 0.00 | 79 | 1016.3 |
| 20260505074931 | 70 | 107 | 4.3 | 7.0 | 0.00 | 0.00 | 0.00 | 79 | 1016.1 |
| 20260505074926 | 69 | 100 | 4.3 | 7.0 | 0.00 | 0.00 | 0.00 | 79 | 1016.0 |
| 20260505074920 | 68 | 99 | 3.5 | 5.2 | 0.00 | 0.00 | 0.00 | 82 | 1015.7 |
| 20260505074916 | 65 | 100 | 0.0 | 1.7 | 0.00 | 0.00 | 0.00 | 87 | 1015.3 |
| 20260505074911 | 64 | 121 | 1.7 | 3.5 | 0.00 | 0.00 | 0.00 | 88 | 1015.3 |
| 20260505074905 | 64 | 100 | 0.9 | 3.5 | 0.00 | 0.00 | 0.00 | 87 | 1015.3 |
| 20260505074858 | 63 | 121 | 0.9 | 3.5 | 0.00 | 0.00 | 0.00 | 89 | 1015.3 |
| 20260505074853 | 62 | 121 | 0.9 | 1.7 | 0.00 | 0.00 | 0.00 | 90 | 1015.0 |
| 20260505074848 | 62 | 121 | 0.9 | 1.7 | 0.00 | 0.00 | 0.00 | 90 | 1015.0 |
| 20260505074602 | 68 | 98 | 3.5 | 5.2 | 0.00 | 0.00 | 0.00 | 80 | 1015.7 |
| 20260505074555 | 66 | 99 | 2.6 | 4.3 | 0.00 | 0.00 | 0.00 | 83 | 1015.6 |
| 20260505074549 | 62 | 126 | 0.0 | 1.7 | 0.00 | 0.00 | 0.00 | 91 | 1014.9 |
| 20260505074545 | 65 | 100 | 0.9 | 4.3 | 0.00 | 0.00 | 0.00 | 85 | 1015.4 |
| 20260505074420 | 64 | 121 | 1.7 | 3.5 | 0.00 | 0.00 | 0.00 | 88 | 1015.3 |
| 20260505074414 | 70 | 113 | 9.6 | 13.0 | 0.00 | 0.00 | 0.00 | 80 | 1016.6 |
| 20260505074410 | 70 | 113 | 10.4 | 13.0 | 0.00 | 0.00 | 0.00 | 79 | 1016.5 |
| 20260505074405 | 70 | 124 | 7.0 | 10.4 | 0.00 | 0.00 | 0.00 | 78 | 1016.6 |
| 20260505074400 | 70 | 113 | 7.0 | 9.6 | 0.00 | 0.00 | 0.00 | 78 | 1016.6 |
| 20260505074351 | 70 | 113 | 6.1 | 9.6 | 0.00 | 0.00 | 0.00 | 78 | 1016.5 |
| 20260505074347 | 70 | 121 | 7.0 | 9.6 | 0.00 | 0.00 | 0.00 | 78 | 1016.6 |
| 20260505074341 | 70 | 116 | 7.8 | 10.4 | 0.00 | 0.00 | 0.00 | 80 | 1016.7 |
| 20260505074337 | 70 | 127 | 6.1 | 8.7 | 0.00 | 0.00 | 0.00 | 77 | 1016.5 |
| 20260505074332 | 70 | 112 | 5.2 | 7.8 | 0.00 | 0.00 | 0.00 | 78 | 1016.4 |
| 20260505074326 | 63 | 121 | 0.9 | 3.5 | 0.00 | 0.00 | 0.00 | 89 | 1015.3 |
| 20260505074322 | 68 | 99 | 3.5 | 5.2 | 0.00 | 0.00 | 0.00 | 82 | 1015.7 |
| 20260505074316 | 62 | 121 | 0.9 | 1.7 | 0.00 | 0.00 | 0.00 | 90 | 1015.0 |
| 20260505074148 | 65 | 100 | 0.0 | 1.7 | 0.00 | 0.00 | 0.00 | 87 | 1015.3 |
| 20260505074144 | 62 | 121 | 0.9 | 1.7 | 0.00 | 0.00 | 0.00 | 90 | 1015.0 |
| 20260505074139 | 64 | 100 | 0.9 | 3.5 | 0.00 | 0.00 | 0.00 | 87 | 1015.3 |
| 20260505074133 | 62 | 126 | 0.9 | 1.7 | 0.00 | 0.00 | 0.00 | 90 | 1015.0 |
| 20260505074008 | 70 | 107 | 4.3 | 7.0 | 0.00 | 0.00 | 0.00 | 79 | 1016.1 |
| 20260505074003 | 69 | 100 | 4.3 | 7.0 | 0.00 | 0.00 | 0.00 | 79 | 1016.0 |
| 20260505073958 | 69 | 98 | 4.3 | 6.1 | 0.00 | 0.00 | 0.00 | 80 | 1015.8 |
| 20260505073953 | 68 | 98 | 3.5 | 5.2 | 0.00 | 0.00 | 0.00 | 80 | 1015.7 |
| 20260505073946 | 66 | 99 | 2.6 | 4.3 | 0.00 | 0.00 | 0.00 | 83 | 1015.6 |
| 20260505073942 | 65 | 100 | 0.9 | 4.3 | 0.00 | 0.00 | 0.00 | 85 | 1015.4 |
| 20260505073936 | 64 | 121 | 1.7 | 3.5 | 0.00 | 0.00 | 0.00 | 88 | 1015.3 |
| 20260505073812 | 68 | 99 | 3.5 | 5.2 | 0.00 | 0.00 | 0.00 | 82 | 1015.7 |
| 20260505073808 | 62 | 121 | 0.9 | 1.7 | 0.00 | 0.00 | 0.00 | 90 | 1015.0 |
| 20260505073803 | 71 | 120 | 11.3 | 13.9 | 0.00 | 0.00 | 0.00 | 81 | 1016.5 |
| 20260505073636 | 70 | 111 | 10.4 | 13.9 | 0.00 | 0.00 | 0.00 | 79 | 1016.6 |
| 20260505073631 | 70 | 131 | 7.8 | 12.2 | 0.00 | 0.00 | 0.00 | 79 | 1016.6 |
| 20260505073627 | 70 | 113 | 9.6 | 13.0 | 0.00 | 0.00 | 0.00 | 80 | 1016.6 |
| 20260505073621 | 65 | 100 | 0.0 | 1.7 | 0.00 | 0.00 | 0.00 | 87 | 1015.3 |
| 20260505073615 | 64 | 100 | 0.9 | 3.5 | 0.00 | 0.00 | 0.00 | 87 | 1015.3 |
| 20260505073606 | 62 | 126 | 0.9 | 1.7 | 0.00 | 0.00 | 0.00 | 90 | 1015.0 |
| 20260505073443 | 70 | 124 | 7.0 | 10.4 | 0.00 | 0.00 | 0.00 | 78 | 1016.6 |
| 20260505073438 | 70 | 113 | 7.0 | 9.6 | 0.00 | 0.00 | 0.00 | 78 | 1016.6 |
| 20260505073432 | 70 | 113 | 6.1 | 9.6 | 0.00 | 0.00 | 0.00 | 78 | 1016.5 |
| 20260505073428 | 70 | 121 | 7.0 | 9.6 | 0.00 | 0.00 | 0.00 | 78 | 1016.6 |
| 20260505073423 | 70 | 116 | 7.8 | 10.4 | 0.00 | 0.00 | 0.00 | 80 | 1016.7 |
| 20260505073417 | 70 | 127 | 6.1 | 8.7 | 0.00 | 0.00 | 0.00 | 77 | 1016.5 |
| 20260505073413 | 70 | 112 | 5.2 | 7.8 | 0.00 | 0.00 | 0.00 | 78 | 1016.4 |
| 20260505073407 | 70 | 115 | 5.2 | 7.8 | 0.00 | 0.00 | 0.00 | 77 | 1016.5 |
| 20260505073402 | 70 | 106 | 5.2 | 7.0 | 0.00 | 0.00 | 0.00 | 79 | 1016.3 |
| 20260505073357 | 70 | 107 | 4.3 | 7.0 | 0.00 | 0.00 | 0.00 | 79 | 1016.1 |
| 20260505073353 | 69 | 100 | 4.3 | 7.0 | 0.00 | 0.00 | 0.00 | 79 | 1016.0 |
| 20260505073348 | 69 | 98 | 4.3 | 6.1 | 0.00 | 0.00 | 0.00 | 80 | 1015.8 |
| 20260505073341 | 64 | 121 | 1.7 | 3.5 | 0.00 | 0.00 | 0.00 | 88 | 1015.3 |
| 20260505073335 | 68 | 98 | 3.5 | 5.2 | 0.00 | 0.00 | 0.00 | 80 | 1015.7 |
| 20260505073331 | 68 | 99 | 3.5 | 5.2 | 0.00 | 0.00 | 0.00 | 82 | 1015.7 |
| 20260505073325 | 66 | 99 | 2.6 | 4.3 | 0.00 | 0.00 | 0.00 | 83 | 1015.6 |
| 20260505073321 | 63 | 121 | 0.9 | 3.5 | 0.00 | 0.00 | 0.00 | 89 | 1015.3 |
| 20260505073316 | 65 | 100 | 0.9 | 4.3 | 0.00 | 0.00 | 0.00 | 85 | 1015.4 |
| 20260505073310 | 62 | 121 | 0.9 | 1.7 | 0.00 | 0.00 | 0.00 | 90 | 1015.0 |
| 20260505073027 | 64 | 100 | 0.9 | 3.5 | 0.00 | 0.00 | 0.00 | 87 | 1015.3 |
| 20260505072901 | 71 | 118 | 10.4 | 13.9 | 0.00 | 0.00 | 0.00 | 80 | 1016.5 |
| 20260505072856 | 71 | 116 | 11.3 | 13.9 | 0.00 | 0.00 | 0.00 | 78 | 1016.4 |
| 20260505072852 | 71 | 126 | 11.3 | 13.9 | 0.00 | 0.00 | 0.00 | 81 | 1016.5 |
| 20260505072847 | 64 | 121 | 1.7 | 3.5 | 0.00 | 0.00 | 0.00 | 88 | 1015.3 |
| 20260505072842 | 63 | 121 | 0.9 | 3.5 | 0.00 | 0.00 | 0.00 | 89 | 1015.3 |
| 20260505072714 | 66 | 99 | 2.6 | 4.3 | 0.00 | 0.00 | 0.00 | 83 | 1015.6 |
| 20260505072710 | 70 | 131 | 7.8 | 12.2 | 0.00 | 0.00 | 0.00 | 79 | 1016.6 |
| 20260505072705 | 70 | 111 | 10.4 | 13.9 | 0.00 | 0.00 | 0.00 | 79 | 1016.6 |
| 20260505072700 | 70 | 113 | 9.6 | 13.0 | 0.00 | 0.00 | 0.00 | 80 | 1016.6 |
| 20260505072654 | 70 | 113 | 7.0 | 9.6 | 0.00 | 0.00 | 0.00 | 78 | 1016.6 |
| 20260505072650 | 70 | 124 | 7.0 | 10.4 | 0.00 | 0.00 | 0.00 | 78 | 1016.6 |
| 20260505072645 | 70 | 127 | 6.1 | 8.7 | 0.00 | 0.00 | 0.00 | 77 | 1016.5 |
| 20260505072639 | 70 | 113 | 10.4 | 13.0 | 0.00 | 0.00 | 0.00 | 79 | 1016.5 |
| 20260505072632 | 70 | 112 | 5.2 | 7.8 | 0.00 | 0.00 | 0.00 | 78 | 1016.4 |
| 20260505072627 | 70 | 115 | 5.2 | 7.8 | 0.00 | 0.00 | 0.00 | 77 | 1016.5 |
| 20260505072622 | 70 | 113 | 6.1 | 9.6 | 0.00 | 0.00 | 0.00 | 78 | 1016.5 |
| 20260505072617 | 70 | 121 | 7.0 | 9.6 | 0.00 | 0.00 | 0.00 | 78 | 1016.6 |
| 20260505072611 | 70 | 116 | 7.8 | 10.4 | 0.00 | 0.00 | 0.00 | 80 | 1016.7 |
| 20260505072606 | 70 | 106 | 5.2 | 7.0 | 0.00 | 0.00 | 0.00 | 79 | 1016.3 |
| 20260505072602 | 65 | 100 | 0.9 | 4.3 | 0.00 | 0.00 | 0.00 | 85 | 1015.4 |
| 20260505072556 | 70 | 107 | 4.3 | 7.0 | 0.00 | 0.00 | 0.00 | 79 | 1016.1 |
| 20260505072550 | 62 | 121 | 0.9 | 1.7 | 0.00 | 0.00 | 0.00 | 90 | 1015.0 |
| 20260505072545 | 69 | 100 | 4.3 | 7.0 | 0.00 | 0.00 | 0.00 | 79 | 1016.0 |
| 20260505072541 | 62 | 121 | 0.9 | 1.7 | 0.00 | 0.00 | 0.00 | 90 | 1015.0 |
| 20260505072532 | 69 | 98 | 4.3 | 6.1 | 0.00 | 0.00 | 0.00 | 80 | 1015.8 |
| 20260505072528 | 68 | 98 | 3.5 | 5.2 | 0.00 | 0.00 | 0.00 | 80 | 1015.7 |
| 20260505072524 | 68 | 99 | 3.5 | 5.2 | 0.00 | 0.00 | 0.00 | 82 | 1015.7 |
| 20260505072519 | 65 | 100 | 0.0 | 1.7 | 0.00 | 0.00 | 0.00 | 87 | 1015.3 |
| 20260505072513 | 64 | 100 | 0.9 | 3.5 | 0.00 | 0.00 | 0.00 | 87 | 1015.3 |
| 20260505072226 | 66 | 99 | 2.6 | 4.3 | 0.00 | 0.00 | 0.00 | 83 | 1015.6 |
| 20260505072220 | 70 | 113 | 11.3 | 13.0 | 0.00 | 0.00 | 0.00 | 81 | 1016.5 |
| 20260505072215 | 70 | 115 | 11.3 | 13.9 | 0.00 | 0.00 | 0.00 | 79 | 1016.4 |
| 20260505072211 | 71 | 126 | 11.3 | 13.9 | 0.00 | 0.00 | 0.00 | 81 | 1016.5 |
| 20260505072205 | 71 | 124 | 11.3 | 13.0 | 0.00 | 0.00 | 0.00 | 80 | 1016.5 |
| 20260505072201 | 70 | 111 | 10.4 | 13.9 | 0.00 | 0.00 | 0.00 | 79 | 1016.6 |
| 20260505072156 | 70 | 131 | 7.8 | 12.2 | 0.00 | 0.00 | 0.00 | 79 | 1016.6 |
| 20260505072150 | 70 | 124 | 7.0 | 10.4 | 0.00 | 0.00 | 0.00 | 78 | 1016.6 |
| 20260505072144 | 70 | 113 | 7.0 | 9.6 | 0.00 | 0.00 | 0.00 | 78 | 1016.6 |
| 20260505072140 | 70 | 113 | 6.1 | 9.6 | 0.00 | 0.00 | 0.00 | 78 | 1016.5 |
| 20260505072135 | 70 | 127 | 6.1 | 8.7 | 0.00 | 0.00 | 0.00 | 77 | 1016.5 |
| 20260505072128 | 70 | 112 | 5.2 | 7.8 | 0.00 | 0.00 | 0.00 | 78 | 1016.4 |
| 20260505072122 | 70 | 115 | 5.2 | 7.8 | 0.00 | 0.00 | 0.00 | 77 | 1016.5 |
| 20260505072117 | 65 | 100 | 0.9 | 4.3 | 0.00 | 0.00 | 0.00 | 85 | 1015.4 |
| 20260505072111 | 62 | 121 | 0.9 | 1.7 | 0.00 | 0.00 | 0.00 | 90 | 1015.0 |
| 20260505071945 | 70 | 107 | 4.3 | 7.0 | 0.00 | 0.00 | 0.00 | 79 | 1016.1 |
| 20260505071939 | 69 | 100 | 4.3 | 7.0 | 0.00 | 0.00 | 0.00 | 79 | 1016.0 |
| 20260505071935 | 69 | 98 | 4.3 | 6.1 | 0.00 | 0.00 | 0.00 | 80 | 1015.8 |
| 20260505071929 | 68 | 99 | 3.5 | 5.2 | 0.00 | 0.00 | 0.00 | 82 | 1015.7 |
| 20260505071922 | 65 | 100 | 0.0 | 1.7 | 0.00 | 0.00 | 0.00 | 87 | 1015.3 |
| 20260505071918 | 64 | 100 | 0.9 | 3.5 | 0.00 | 0.00 | 0.00 | 87 | 1015.3 |
| 20260505071753 | 70 | 113 | 10.4 | 13.0 | 0.00 | 0.00 | 0.00 | 79 | 1016.5 |
| 20260505071749 | 70 | 121 | 7.0 | 9.6 | 0.00 | 0.00 | 0.00 | 78 | 1016.6 |
| 20260505071743 | 70 | 116 | 7.8 | 10.4 | 0.00 | 0.00 | 0.00 | 80 | 1016.7 |
| 20260505071739 | 68 | 98 | 3.5 | 5.2 | 0.00 | 0.00 | 0.00 | 80 | 1015.7 |
| 20260505071733 | 66 | 99 | 2.6 | 4.3 | 0.00 | 0.00 | 0.00 | 83 | 1015.6 |
| 20260505071728 | 64 | 121 | 1.7 | 3.5 | 0.00 | 0.00 | 0.00 | 88 | 1015.3 |
| 20260505071721 | 63 | 121 | 0.9 | 3.5 | 0.00 | 0.00 | 0.00 | 89 | 1015.3 |
| 20260505071556 | 70 | 124 | 7.0 | 10.4 | 0.00 | 0.00 | 0.00 | 78 | 1016.6 |
| 20260505071551 | 65 | 100 | 0.9 | 4.3 | 0.00 | 0.00 | 0.00 | 85 | 1015.4 |
| 20260505071545 | 62 | 121 | 0.9 | 1.7 | 0.00 | 0.00 | 0.00 | 90 | 1015.0 |
| 20260505071419 | 70 | 113 | 6.1 | 9.6 | 0.00 | 0.00 | 0.00 | 78 | 1016.5 |
| 20260505071415 | 70 | 127 | 6.1 | 8.7 | 0.00 | 0.00 | 0.00 | 77 | 1016.5 |
| 20260505071410 | 70 | 112 | 5.2 | 7.8 | 0.00 | 0.00 | 0.00 | 78 | 1016.4 |
| 20260505071404 | 70 | 115 | 5.2 | 7.8 | 0.00 | 0.00 | 0.00 | 77 | 1016.5 |
| 20260505071358 | 70 | 106 | 5.2 | 7.0 | 0.00 | 0.00 | 0.00 | 79 | 1016.3 |
| 20260505071353 | 70 | 107 | 4.3 | 7.0 | 0.00 | 0.00 | 0.00 | 79 | 1016.1 |
| 20260505071348 | 69 | 100 | 4.3 | 7.0 | 0.00 | 0.00 | 0.00 | 79 | 1016.0 |
| 20260505071343 | 69 | 98 | 4.3 | 6.1 | 0.00 | 0.00 | 0.00 | 80 | 1015.8 |
| 20260505071337 | 68 | 99 | 3.5 | 5.2 | 0.00 | 0.00 | 0.00 | 82 | 1015.7 |
| 20260505071333 | 64 | 100 | 0.9 | 3.5 | 0.00 | 0.00 | 0.00 | 87 | 1015.3 |
| 20260505071328 | 65 | 100 | 0.0 | 1.7 | 0.00 | 0.00 | 0.00 | 87 | 1015.3 |
| 20260505071201 | 70 | 116 | 7.8 | 10.4 | 0.00 | 0.00 | 0.00 | 80 | 1016.7 |
| 20260505071155 | 68 | 98 | 3.5 | 5.2 | 0.00 | 0.00 | 0.00 | 80 | 1015.7 |
| 20260505071151 | 66 | 99 | 2.6 | 4.3 | 0.00 | 0.00 | 0.00 | 83 | 1015.6 |
| 20260505071145 | 64 | 121 | 1.7 | 3.5 | 0.00 | 0.00 | 0.00 | 88 | 1015.3 |
| 20260505071140 | 63 | 121 | 0.9 | 3.5 | 0.00 | 0.00 | 0.00 | 89 | 1015.3 |
| 20260505070856 | 70 | 127 | 6.1 | 8.7 | 0.00 | 0.00 | 0.00 | 77 | 1016.5 |
| 20260505070851 | 70 | 112 | 5.2 | 7.8 | 0.00 | 0.00 | 0.00 | 78 | 1016.4 |
| 20260505070845 | 70 | 115 | 5.2 | 7.8 | 0.00 | 0.00 | 0.00 | 77 | 1016.5 |
| 20260505070841 | 70 | 106 | 5.2 | 7.0 | 0.00 | 0.00 | 0.00 | 79 | 1016.3 |
| 20260505070835 | 70 | 107 | 4.3 | 7.0 | 0.00 | 0.00 | 0.00 | 79 | 1016.1 |
| 20260505070830 | 69 | 100 | 4.3 | 7.0 | 0.00 | 0.00 | 0.00 | 79 | 1016.0 |
| 20260505070826 | 69 | 98 | 4.3 | 6.1 | 0.00 | 0.00 | 0.00 | 80 | 1015.8 |
| 20260505070820 | 68 | 99 | 3.5 | 5.2 | 0.00 | 0.00 | 0.00 | 82 | 1015.7 |
| 20260505070813 | 65 | 100 | 0.0 | 1.7 | 0.00 | 0.00 | 0.00 | 87 | 1015.3 |
| 20260505070807 | 64 | 100 | 0.9 | 3.5 | 0.00 | 0.00 | 0.00 | 87 | 1015.3 |
| 20260505070642 | 72 | 109 | 11.3 | 15.6 | 0.00 | 0.00 | 0.00 | 79 | 1016.4 |
| 20260505070637 | 71 | 121 | 10.4 | 13.0 | 0.00 | 0.00 | 0.00 | 79 | 1016.4 |
| 20260505070631 | 71 | 120 | 11.3 | 13.9 | 0.00 | 0.00 | 0.00 | 81 | 1016.5 |
| 20260505070627 | 70 | 114 | 11.3 | 13.0 | 0.00 | 0.00 | 0.00 | 81 | 1016.5 |
| 20260505070622 | 64 | 121 | 1.7 | 3.5 | 0.00 | 0.00 | 0.00 | 88 | 1015.3 |
| 20260505070616 | 71 | 126 | 11.3 | 13.9 | 0.00 | 0.00 | 0.00 | 81 | 1016.5 |
| 20260505070609 | 68 | 98 | 3.5 | 5.2 | 0.00 | 0.00 | 0.00 | 80 | 1015.7 |
| 20260505070559 | 63 | 121 | 0.9 | 3.5 | 0.00 | 0.00 | 0.00 | 89 | 1015.3 |
| 20260505070439 | 66 | 99 | 2.6 | 4.3 | 0.00 | 0.00 | 0.00 | 83 | 1015.6 |
| 20260505070434 | 70 | 113 | 9.6 | 13.0 | 0.00 | 0.00 | 0.00 | 80 | 1016.6 |
| 20260505070428 | 71 | 116 | 11.3 | 13.9 | 0.00 | 0.00 | 0.00 | 78 | 1016.4 |
| 20260505070423 | 65 | 100 | 0.9 | 4.3 | 0.00 | 0.00 | 0.00 | 85 | 1015.4 |
| 20260505070417 | 70 | 113 | 11.3 | 13.0 | 0.00 | 0.00 | 0.00 | 81 | 1016.5 |
| 20260505070413 | 70 | 115 | 11.3 | 13.9 | 0.00 | 0.00 | 0.00 | 79 | 1016.4 |
| 20260505070405 | 71 | 124 | 11.3 | 13.0 | 0.00 | 0.00 | 0.00 | 80 | 1016.5 |
| 20260505070400 | 70 | 111 | 10.4 | 13.9 | 0.00 | 0.00 | 0.00 | 79 | 1016.6 |
| 20260505070355 | 70 | 113 | 10.4 | 13.0 | 0.00 | 0.00 | 0.00 | 79 | 1016.5 |
| 20260505070349 | 70 | 131 | 7.8 | 12.2 | 0.00 | 0.00 | 0.00 | 79 | 1016.6 |
| 20260505070345 | 70 | 124 | 7.0 | 10.4 | 0.00 | 0.00 | 0.00 | 78 | 1016.6 |
| 20260505070339 | 70 | 113 | 7.0 | 9.6 | 0.00 | 0.00 | 0.00 | 78 | 1016.6 |
| 20260505070335 | 70 | 121 | 7.0 | 9.6 | 0.00 | 0.00 | 0.00 | 78 | 1016.6 |
| 20260505070330 | 70 | 116 | 7.8 | 10.4 | 0.00 | 0.00 | 0.00 | 80 | 1016.7 |
| 20260505070324 | 70 | 113 | 6.1 | 9.6 | 0.00 | 0.00 | 0.00 | 78 | 1016.5 |
| 20260505070320 | 70 | 127 | 6.1 | 8.7 | 0.00 | 0.00 | 0.00 | 77 | 1016.5 |
| 20260505070314 | 70 | 112 | 5.2 | 7.8 | 0.00 | 0.00 | 0.00 | 78 | 1016.4 |
| 20260505070307 | 70 | 115 | 5.2 | 7.8 | 0.00 | 0.00 | 0.00 | 77 | 1016.5 |
| 20260505070303 | 70 | 106 | 5.2 | 7.0 | 0.00 | 0.00 | 0.00 | 79 | 1016.3 |
| 20260505070257 | 70 | 107 | 4.3 | 7.0 | 0.00 | 0.00 | 0.00 | 79 | 1016.1 |
| 20260505070252 | 69 | 100 | 4.3 | 7.0 | 0.00 | 0.00 | 0.00 | 79 | 1016.0 |
| 20260505070247 | 69 | 98 | 4.3 | 6.1 | 0.00 | 0.00 | 0.00 | 80 | 1015.8 |
| 20260505070242 | 68 | 99 | 3.5 | 5.2 | 0.00 | 0.00 | 0.00 | 82 | 1015.7 |
| 20260505070237 | 65 | 100 | 0.0 | 1.7 | 0.00 | 0.00 | 0.00 | 87 | 1015.3 |
| 20260505070231 | 64 | 100 | 0.9 | 3.5 | 0.00 | 0.00 | 0.00 | 87 | 1015.3 |
| 20260505065948 | 70 | 113 | 9.6 | 13.0 | 0.00 | 0.00 | 0.00 | 80 | 1016.6 |
| 20260505065942 | 68 | 98 | 3.5 | 5.2 | 0.00 | 0.00 | 0.00 | 80 | 1015.7 |
| 20260505065938 | 66 | 99 | 2.6 | 4.3 | 0.00 | 0.00 | 0.00 | 83 | 1015.6 |
| 20260505065932 | 65 | 100 | 0.9 | 4.3 | 0.00 | 0.00 | 0.00 | 85 | 1015.4 |
| 20260505065808 | 70 | 131 | 7.8 | 12.2 | 0.00 | 0.00 | 0.00 | 79 | 1016.6 |
| 20260505065801 | 70 | 124 | 7.0 | 10.4 | 0.00 | 0.00 | 0.00 | 78 | 1016.6 |
| 20260505065756 | 70 | 113 | 7.0 | 9.6 | 0.00 | 0.00 | 0.00 | 78 | 1016.6 |
| 20260505065751 | 70 | 121 | 7.0 | 9.6 | 0.00 | 0.00 | 0.00 | 78 | 1016.6 |
| 20260505065746 | 70 | 116 | 7.8 | 10.4 | 0.00 | 0.00 | 0.00 | 80 | 1016.7 |
| 20260505065740 | 70 | 113 | 6.1 | 9.6 | 0.00 | 0.00 | 0.00 | 78 | 1016.5 |
| 20260505065736 | 70 | 127 | 6.1 | 8.7 | 0.00 | 0.00 | 0.00 | 77 | 1016.5 |
| 20260505065730 | 70 | 112 | 5.2 | 7.8 | 0.00 | 0.00 | 0.00 | 78 | 1016.4 |
| 20260505065725 | 70 | 115 | 5.2 | 7.8 | 0.00 | 0.00 | 0.00 | 77 | 1016.5 |
| 20260505065721 | 70 | 106 | 5.2 | 7.0 | 0.00 | 0.00 | 0.00 | 79 | 1016.3 |
| 20260505065715 | 65 | 100 | 0.0 | 1.7 | 0.00 | 0.00 | 0.00 | 87 | 1015.3 |
| 20260505065711 | 64 | 100 | 0.9 | 3.5 | 0.00 | 0.00 | 0.00 | 87 | 1015.3 |
| 20260505065543 | 64 | 121 | 1.7 | 3.5 | 0.00 | 0.00 | 0.00 | 88 | 1015.3 |
| 20260505065537 | 69 | 100 | 4.3 | 7.0 | 0.00 | 0.00 | 0.00 | 79 | 1016.0 |
| 20260505065533 | 69 | 98 | 4.3 | 6.1 | 0.00 | 0.00 | 0.00 | 80 | 1015.8 |
| 20260505065528 | 68 | 99 | 3.5 | 5.2 | 0.00 | 0.00 | 0.00 | 82 | 1015.7 |
| 20260505065404 | 70 | 113 | 11.3 | 13.0 | 0.00 | 0.00 | 0.00 | 81 | 1016.5 |
| 20260505065359 | 68 | 98 | 3.5 | 5.2 | 0.00 | 0.00 | 0.00 | 80 | 1015.7 |
| 20260505065352 | 66 | 99 | 2.6 | 4.3 | 0.00 | 0.00 | 0.00 | 83 | 1015.6 |
| 20260505065347 | 65 | 100 | 0.9 | 4.3 | 0.00 | 0.00 | 0.00 | 85 | 1015.4 |
| 20260505065224 | 71 | 124 | 11.3 | 13.0 | 0.00 | 0.00 | 0.00 | 80 | 1016.5 |
| 20260505065218 | 70 | 111 | 10.4 | 13.9 | 0.00 | 0.00 | 0.00 | 79 | 1016.6 |
| 20260505065212 | 71 | 126 | 11.3 | 13.9 | 0.00 | 0.00 | 0.00 | 81 | 1016.5 |
| 20260505065207 | 70 | 113 | 9.6 | 13.0 | 0.00 | 0.00 | 0.00 | 80 | 1016.6 |
| 20260505065203 | 70 | 113 | 10.4 | 13.0 | 0.00 | 0.00 | 0.00 | 79 | 1016.5 |
| 20260505065154 | 70 | 131 | 7.8 | 12.2 | 0.00 | 0.00 | 0.00 | 79 | 1016.6 |
| 20260505065150 | 70 | 124 | 7.0 | 10.4 | 0.00 | 0.00 | 0.00 | 78 | 1016.6 |
| 20260505065145 | 70 | 113 | 7.0 | 9.6 | 0.00 | 0.00 | 0.00 | 78 | 1016.6 |
| 20260505065139 | 70 | 121 | 7.0 | 9.6 | 0.00 | 0.00 | 0.00 | 78 | 1016.6 |
| 20260505065135 | 70 | 116 | 7.8 | 10.4 | 0.00 | 0.00 | 0.00 | 80 | 1016.7 |
| 20260505065129 | 70 | 113 | 6.1 | 9.6 | 0.00 | 0.00 | 0.00 | 78 | 1016.5 |
| 20260505065125 | 70 | 127 | 6.1 | 8.7 | 0.00 | 0.00 | 0.00 | 77 | 1016.5 |
| 20260505065120 | 70 | 112 | 5.2 | 7.8 | 0.00 | 0.00 | 0.00 | 78 | 1016.4 |
| 20260505065114 | 65 | 100 | 0.0 | 1.7 | 0.00 | 0.00 | 0.00 | 87 | 1015.3 |
| 20260505065109 | 64 | 100 | 0.9 | 3.5 | 0.00 | 0.00 | 0.00 | 87 | 1015.3 |
| 20260505065103 | 70 | 106 | 5.2 | 7.0 | 0.00 | 0.00 | 0.00 | 79 | 1016.3 |
| 20260505064935 | 70 | 107 | 4.3 | 7.0 | 0.00 | 0.00 | 0.00 | 79 | 1016.1 |
| 20260505064931 | 69 | 100 | 4.3 | 7.0 | 0.00 | 0.00 | 0.00 | 79 | 1016.0 |
| 20260505064925 | 69 | 98 | 4.3 | 6.1 | 0.00 | 0.00 | 0.00 | 80 | 1015.8 |
| 20260505064921 | 68 | 99 | 3.5 | 5.2 | 0.00 | 0.00 | 0.00 | 82 | 1015.7 |
| 20260505064756 | 66 | 99 | 2.6 | 4.3 | 0.00 | 0.00 | 0.00 | 83 | 1015.6 |
| 20260505064749 | 65 | 100 | 0.9 | 4.3 | 0.00 | 0.00 | 0.00 | 85 | 1015.4 |
| 20260505064624 | 71 | 126 | 11.3 | 13.9 | 0.00 | 0.00 | 0.00 | 81 | 1016.5 |
| 20260505064619 | 70 | 113 | 9.6 | 13.0 | 0.00 | 0.00 | 0.00 | 80 | 1016.6 |
| 20260505064613 | 70 | 113 | 10.4 | 13.0 | 0.00 | 0.00 | 0.00 | 79 | 1016.5 |
| 20260505064609 | 70 | 106 | 5.2 | 7.0 | 0.00 | 0.00 | 0.00 | 79 | 1016.3 |
| 20260505064604 | 65 | 100 | 0.0 | 1.7 | 0.00 | 0.00 | 0.00 | 87 | 1015.3 |
| 20260505064553 | 64 | 100 | 0.9 | 3.5 | 0.00 | 0.00 | 0.00 | 87 | 1015.3 |
| 20260505064432 | 70 | 124 | 7.0 | 10.4 | 0.00 | 0.00 | 0.00 | 78 | 1016.6 |
| 20260505064425 | 70 | 113 | 7.0 | 9.6 | 0.00 | 0.00 | 0.00 | 78 | 1016.6 |
| 20260505064420 | 70 | 121 | 7.0 | 9.6 | 0.00 | 0.00 | 0.00 | 78 | 1016.6 |
| 20260505064416 | 70 | 116 | 7.8 | 10.4 | 0.00 | 0.00 | 0.00 | 80 | 1016.7 |
| 20260505064410 | 70 | 107 | 4.3 | 7.0 | 0.00 | 0.00 | 0.00 | 79 | 1016.1 |
| 20260505064245 | 70 | 113 | 6.1 | 9.6 | 0.00 | 0.00 | 0.00 | 78 | 1016.5 |
| 20260505064238 | 70 | 114 | 11.3 | 13.0 | 0.00 | 0.00 | 0.00 | 81 | 1016.5 |
| 20260505064234 | 70 | 127 | 6.1 | 8.7 | 0.00 | 0.00 | 0.00 | 77 | 1016.5 |
| 20260505064228 | 70 | 112 | 5.2 | 7.8 | 0.00 | 0.00 | 0.00 | 78 | 1016.4 |
| 20260505064223 | 70 | 115 | 5.2 | 7.8 | 0.00 | 0.00 | 0.00 | 77 | 1016.5 |
| 20260505064219 | 69 | 100 | 4.3 | 7.0 | 0.00 | 0.00 | 0.00 | 79 | 1016.0 |
| 20260505064213 | 69 | 98 | 4.3 | 6.1 | 0.00 | 0.00 | 0.00 | 80 | 1015.8 |
| 20260505064207 | 68 | 98 | 3.5 | 5.2 | 0.00 | 0.00 | 0.00 | 80 | 1015.7 |
| 20260505064202 | 66 | 99 | 2.6 | 4.3 | 0.00 | 0.00 | 0.00 | 83 | 1015.6 |
| 20260505064158 | 65 | 100 | 0.9 | 4.3 | 0.00 | 0.00 | 0.00 | 85 | 1015.4 |
| 20260505064031 | 70 | 113 | 11.3 | 13.0 | 0.00 | 0.00 | 0.00 | 81 | 1016.5 |
| 20260505064026 | 65 | 100 | 0.0 | 1.7 | 0.00 | 0.00 | 0.00 | 87 | 1015.3 |
| 20260505064020 | 70 | 115 | 11.3 | 13.9 | 0.00 | 0.00 | 0.00 | 79 | 1016.4 |
| 20260505064015 | 71 | 124 | 11.3 | 13.0 | 0.00 | 0.00 | 0.00 | 80 | 1016.5 |
| 20260505064009 | 70 | 111 | 10.4 | 13.9 | 0.00 | 0.00 | 0.00 | 79 | 1016.6 |
| 20260505064004 | 71 | 126 | 11.3 | 13.9 | 0.00 | 0.00 | 0.00 | 81 | 1016.5 |
| 20260505063959 | 70 | 113 | 9.6 | 13.0 | 0.00 | 0.00 | 0.00 | 80 | 1016.6 |
| 20260505063954 | 70 | 106 | 5.2 | 7.0 | 0.00 | 0.00 | 0.00 | 79 | 1016.3 |
| 20260505063826 | 70 | 131 | 7.8 | 12.2 | 0.00 | 0.00 | 0.00 | 79 | 1016.6 |
| 20260505063820 | 70 | 124 | 7.0 | 10.4 | 0.00 | 0.00 | 0.00 | 78 | 1016.6 |
| 20260505063815 | 70 | 113 | 7.0 | 9.6 | 0.00 | 0.00 | 0.00 | 78 | 1016.6 |
| 20260505063809 | 70 | 121 | 7.0 | 9.6 | 0.00 | 0.00 | 0.00 | 78 | 1016.6 |
| 20260505063805 | 70 | 116 | 7.8 | 10.4 | 0.00 | 0.00 | 0.00 | 80 | 1016.7 |
| 20260505063800 | 70 | 113 | 6.1 | 9.6 | 0.00 | 0.00 | 0.00 | 78 | 1016.5 |
| 20260505063754 | 70 | 107 | 4.3 | 7.0 | 0.00 | 0.00 | 0.00 | 79 | 1016.1 |
| 20260505063750 | 68 | 99 | 3.5 | 5.2 | 0.00 | 0.00 | 0.00 | 82 | 1015.7 |
| 20260505063623 | 70 | 127 | 6.1 | 8.7 | 0.00 | 0.00 | 0.00 | 77 | 1016.5 |
| 20260505063618 | 65 | 100 | 0.9 | 4.3 | 0.00 | 0.00 | 0.00 | 85 | 1015.4 |
| 20260505063612 | 70 | 112 | 5.2 | 7.8 | 0.00 | 0.00 | 0.00 | 78 | 1016.4 |
| 20260505063608 | 70 | 115 | 5.2 | 7.8 | 0.00 | 0.00 | 0.00 | 77 | 1016.5 |
| 20260505063603 | 69 | 100 | 4.3 | 7.0 | 0.00 | 0.00 | 0.00 | 79 | 1016.0 |
| 20260505063557 | 69 | 98 | 4.3 | 6.1 | 0.00 | 0.00 | 0.00 | 80 | 1015.8 |
| 20260505063553 | 68 | 98 | 3.5 | 5.2 | 0.00 | 0.00 | 0.00 | 80 | 1015.7 |
| 20260505063546 | 65 | 100 | 0.0 | 1.7 | 0.00 | 0.00 | 0.00 | 87 | 1015.3 |
| 20260505063140 | 66 | 99 | 2.6 | 4.3 | 0.00 | 0.00 | 0.00 | 83 | 1015.6 |
| 20260505063134 | 65 | 100 | 0.9 | 4.3 | 0.00 | 0.00 | 0.00 | 85 | 1015.4 |
| 20260505063009 | 71 | 265 | 3.5 | 6.1 | 0.00 | 0.11 | 0.00 | 96 | 1010.3 |
| 20260505063003 | 69 | 100 | 4.3 | 7.0 | 0.00 | 0.00 | 0.00 | 79 | 1016.0 |
| 20260505062958 | 71 | 250 | 4.3 | 7.0 | 0.01 | 0.11 | 0.00 | 96 | 1010.4 |
| 20260505062953 | 71 | 0 | 4.3 | 6.1 | 0.01 | 0.11 | 0.00 | 96 | 1010.7 |
| 20260505062947 | 70 | 235 | 3.5 | 6.1 | 0.01 | 0.11 | 0.00 | 96 | 1010.6 |
| 20260505062943 | 69 | 98 | 4.3 | 6.1 | 0.00 | 0.00 | 0.00 | 80 | 1015.8 |
| 20260505062937 | 68 | 98 | 3.5 | 5.2 | 0.00 | 0.00 | 0.00 | 80 | 1015.7 |
| 20260505062932 | 70 | 246 | 3.5 | 5.2 | 0.01 | 0.11 | 0.00 | 96 | 1010.7 |
| 20260505062924 | 70 | 250 | 2.6 | 4.3 | 0.01 | 0.11 | 0.11 | 96 | 1010.8 |
| 20260505062920 | 70 | 242 | 1.7 | 3.5 | 0.01 | 0.11 | 0.11 | 96 | 1010.7 |
| 20260505062915 | 70 | 234 | 1.7 | 3.5 | 0.00 | 0.10 | 0.10 | 96 | 1010.7 |
| 20260505062909 | 70 | 234 | 1.7 | 2.6 | 0.00 | 0.10 | 0.10 | 96 | 1010.9 |
| 20260505062905 | 72 | 113 | 11.3 | 15.6 | 0.00 | 0.00 | 0.00 | 78 | 1016.3 |
| 20260505062859 | 72 | 113 | 12.2 | 15.6 | 0.00 | 0.00 | 0.00 | 77 | 1016.2 |
| 20260505062854 | 72 | 108 | 12.2 | 16.5 | 0.00 | 0.00 | 0.00 | 77 | 1016.1 |
| 20260505062848 | 72 | 118 | 13.0 | 16.5 | 0.00 | 0.00 | 0.00 | 75 | 1016.0 |
| 20260505062843 | 72 | 105 | 13.0 | 17.4 | 0.00 | 0.00 | 0.00 | 76 | 1015.9 |
| 20260505062837 | 72 | 109 | 11.3 | 15.6 | 0.00 | 0.00 | 0.00 | 79 | 1016.4 |
| 20260505062833 | 71 | 121 | 10.4 | 13.0 | 0.00 | 0.00 | 0.00 | 79 | 1016.4 |
| 20260505062828 | 71 | 118 | 10.4 | 13.9 | 0.00 | 0.00 | 0.00 | 80 | 1016.5 |
| 20260505062821 | 71 | 116 | 11.3 | 13.9 | 0.00 | 0.00 | 0.00 | 78 | 1016.4 |
| 20260505062815 | 70 | 114 | 11.3 | 13.0 | 0.00 | 0.00 | 0.00 | 81 | 1016.5 |
| 20260505062811 | 71 | 120 | 11.3 | 13.9 | 0.00 | 0.00 | 0.00 | 81 | 1016.5 |
| 20260505062805 | 70 | 113 | 11.3 | 13.0 | 0.00 | 0.00 | 0.00 | 81 | 1016.5 |
| 20260505062801 | 70 | 115 | 11.3 | 13.9 | 0.00 | 0.00 | 0.00 | 79 | 1016.4 |
| 20260505062755 | 71 | 124 | 11.3 | 13.0 | 0.00 | 0.00 | 0.00 | 80 | 1016.5 |
| 20260505062750 | 70 | 111 | 10.4 | 13.9 | 0.00 | 0.00 | 0.00 | 79 | 1016.6 |
| 20260505062744 | 71 | 126 | 11.3 | 13.9 | 0.00 | 0.00 | 0.00 | 81 | 1016.5 |
| 20260505062740 | 70 | 113 | 9.6 | 13.0 | 0.00 | 0.00 | 0.00 | 80 | 1016.6 |
| 20260505062736 | 68 | 99 | 3.5 | 5.2 | 0.00 | 0.00 | 0.00 | 82 | 1015.7 |
| 20260505062730 | 70 | 113 | 10.4 | 13.0 | 0.00 | 0.00 | 0.00 | 79 | 1016.5 |
| 20260505062725 | 70 | 131 | 7.8 | 12.2 | 0.00 | 0.00 | 0.00 | 79 | 1016.6 |
| 20260505062719 | 70 | 124 | 7.0 | 10.4 | 0.00 | 0.00 | 0.00 | 78 | 1016.6 |
| 20260505062714 | 70 | 113 | 7.0 | 9.6 | 0.00 | 0.00 | 0.00 | 78 | 1016.6 |
| 20260505062708 | 70 | 121 | 7.0 | 9.6 | 0.00 | 0.00 | 0.00 | 78 | 1016.6 |
| 20260505062704 | 70 | 116 | 7.8 | 10.4 | 0.00 | 0.00 | 0.00 | 80 | 1016.7 |
| 20260505062658 | 70 | 113 | 6.1 | 9.6 | 0.00 | 0.00 | 0.00 | 78 | 1016.5 |
| 20260505062653 | 70 | 127 | 6.1 | 8.7 | 0.00 | 0.00 | 0.00 | 77 | 1016.5 |
| 20260505062648 | 70 | 112 | 5.2 | 7.8 | 0.00 | 0.00 | 0.00 | 78 | 1016.4 |
| 20260505062643 | 70 | 115 | 5.2 | 7.8 | 0.00 | 0.00 | 0.00 | 77 | 1016.5 |
| 20260505062637 | 70 | 106 | 5.2 | 7.0 | 0.00 | 0.00 | 0.00 | 79 | 1016.3 |
| 20260505062633 | 70 | 107 | 4.3 | 7.0 | 0.00 | 0.00 | 0.00 | 79 | 1016.1 |
| 20260505062627 | 66 | 99 | 2.6 | 4.3 | 0.00 | 0.00 | 0.00 | 83 | 1015.6 |
| 20260505062615 | 65 | 100 | 0.9 | 4.3 | 0.00 | 0.00 | 0.00 | 85 | 1015.4 |
| 20260505062455 | 69 | 98 | 4.3 | 6.1 | 0.00 | 0.00 | 0.00 | 80 | 1015.8 |
| 20260505062449 | 68 | 98 | 3.5 | 5.2 | 0.00 | 0.00 | 0.00 | 80 | 1015.7 |
| 20260505062325 | 72 | 113 | 11.3 | 15.6 | 0.00 | 0.00 | 0.00 | 78 | 1016.3 |
| 20260505062318 | 72 | 113 | 12.2 | 15.6 | 0.00 | 0.00 | 0.00 | 77 | 1016.2 |
| 20260505062312 | 72 | 108 | 12.2 | 16.5 | 0.00 | 0.00 | 0.00 | 77 | 1016.1 |
| 20260505062307 | 72 | 118 | 13.0 | 16.5 | 0.00 | 0.00 | 0.00 | 75 | 1016.0 |
| 20260505062301 | 72 | 105 | 13.0 | 17.4 | 0.00 | 0.00 | 0.00 | 76 | 1015.9 |
| 20260505062257 | 72 | 109 | 11.3 | 15.6 | 0.00 | 0.00 | 0.00 | 79 | 1016.4 |
| 20260505062252 | 71 | 121 | 10.4 | 13.0 | 0.00 | 0.00 | 0.00 | 79 | 1016.4 |
| 20260505062247 | 71 | 118 | 10.4 | 13.9 | 0.00 | 0.00 | 0.00 | 80 | 1016.5 |
| 20260505062242 | 68 | 99 | 3.5 | 5.2 | 0.00 | 0.00 | 0.00 | 82 | 1015.7 |
| 20260505062236 | 71 | 116 | 11.3 | 13.9 | 0.00 | 0.00 | 0.00 | 78 | 1016.4 |
| 20260505062232 | 70 | 114 | 11.3 | 13.0 | 0.00 | 0.00 | 0.00 | 81 | 1016.5 |
| 20260505062226 | 71 | 120 | 11.3 | 13.9 | 0.00 | 0.00 | 0.00 | 81 | 1016.5 |
| 20260505062220 | 70 | 113 | 11.3 | 13.0 | 0.00 | 0.00 | 0.00 | 81 | 1016.5 |
| 20260505062215 | 70 | 115 | 11.3 | 13.9 | 0.00 | 0.00 | 0.00 | 79 | 1016.4 |
| 20260505062210 | 71 | 124 | 11.3 | 13.0 | 0.00 | 0.00 | 0.00 | 80 | 1016.5 |
| 20260505062204 | 70 | 111 | 10.4 | 13.9 | 0.00 | 0.00 | 0.00 | 79 | 1016.6 |
| 20260505062159 | 71 | 126 | 11.3 | 13.9 | 0.00 | 0.00 | 0.00 | 81 | 1016.5 |
| 20260505062154 | 70 | 113 | 9.6 | 13.0 | 0.00 | 0.00 | 0.00 | 80 | 1016.6 |
| 20260505062149 | 70 | 113 | 10.4 | 13.0 | 0.00 | 0.00 | 0.00 | 79 | 1016.5 |
| 20260505062143 | 70 | 131 | 7.8 | 12.2 | 0.00 | 0.00 | 0.00 | 79 | 1016.6 |
| 20260505062139 | 70 | 124 | 7.0 | 10.4 | 0.00 | 0.00 | 0.00 | 78 | 1016.6 |
| 20260505062133 | 70 | 113 | 7.0 | 9.6 | 0.00 | 0.00 | 0.00 | 78 | 1016.6 |
| 20260505062128 | 66 | 99 | 2.6 | 4.3 | 0.00 | 0.00 | 0.00 | 83 | 1015.6 |
| 20260505062122 | 70 | 121 | 7.0 | 9.6 | 0.00 | 0.00 | 0.00 | 78 | 1016.6 |
| 20260505062117 | 70 | 113 | 6.1 | 9.6 | 0.00 | 0.00 | 0.00 | 78 | 1016.5 |
| 20260505062111 | 70 | 127 | 6.1 | 8.7 | 0.00 | 0.00 | 0.00 | 77 | 1016.5 |
| 20260505062106 | 70 | 112 | 5.2 | 7.8 | 0.00 | 0.00 | 0.00 | 78 | 1016.4 |
| 20260505062100 | 70 | 115 | 5.2 | 7.8 | 0.00 | 0.00 | 0.00 | 77 | 1016.5 |
| 20260505062055 | 70 | 106 | 5.2 | 7.0 | 0.00 | 0.00 | 0.00 | 79 | 1016.3 |
| 20260505061928 | 70 | 107 | 4.3 | 7.0 | 0.00 | 0.00 | 0.00 | 79 | 1016.1 |
| 20260505061924 | 69 | 100 | 4.3 | 7.0 | 0.00 | 0.00 | 0.00 | 79 | 1016.0 |
| 20260505061919 | 69 | 98 | 4.3 | 6.1 | 0.00 | 0.00 | 0.00 | 80 | 1015.8 |
| 20260505061912 | 68 | 98 | 3.5 | 5.2 | 0.00 | 0.00 | 0.00 | 80 | 1015.7 |
| 20260505061504 | 70 | 127 | 6.1 | 8.7 | 0.00 | 0.00 | 0.00 | 77 | 1016.5 |
| 20260505061458 | 70 | 112 | 5.2 | 7.8 | 0.00 | 0.00 | 0.00 | 78 | 1016.4 |
| 20260505061454 | 70 | 115 | 5.2 | 7.8 | 0.00 | 0.00 | 0.00 | 77 | 1016.5 |
| 20260505061449 | 70 | 106 | 5.2 | 7.0 | 0.00 | 0.00 | 0.00 | 79 | 1016.3 |
| 20260505061324 | 69 | 100 | 4.3 | 7.0 | 0.00 | 0.00 | 0.00 | 79 | 1016.0 |
| 20260505061318 | 70 | 107 | 4.3 | 7.0 | 0.00 | 0.00 | 0.00 | 79 | 1016.1 |
| 20260505061313 | 69 | 98 | 4.3 | 6.1 | 0.00 | 0.00 | 0.00 | 80 | 1015.8 |
| 20260505061305 | 68 | 98 | 3.5 | 5.2 | 0.00 | 0.00 | 0.00 | 80 | 1015.7 |
| 20260505061019 | 70 | 116 | 7.8 | 10.4 | 0.00 | 0.00 | 0.00 | 80 | 1016.7 |
| 20260505060854 | 70 | 127 | 6.1 | 8.7 | 0.00 | 0.00 | 0.00 | 77 | 1016.5 |
| 20260505060849 | 69 | 100 | 4.3 | 7.0 | 0.00 | 0.00 | 0.00 | 79 | 1016.0 |
| 20260505060843 | 70 | 115 | 5.2 | 7.8 | 0.00 | 0.00 | 0.00 | 77 | 1016.5 |
| 20260505060839 | 70 | 112 | 5.2 | 7.8 | 0.00 | 0.00 | 0.00 | 78 | 1016.4 |
| 20260505060833 | 70 | 106 | 5.2 | 7.0 | 0.00 | 0.00 | 0.00 | 79 | 1016.3 |
| 20260505060709 | 70 | 107 | 4.3 | 7.0 | 0.00 | 0.00 | 0.00 | 79 | 1016.1 |
| 20260505060704 | 68 | 98 | 3.5 | 5.2 | 0.00 | 0.00 | 0.00 | 80 | 1015.7 |
| 20260505060416 | 70 | 121 | 7.0 | 9.6 | 0.00 | 0.00 | 0.00 | 78 | 1016.6 |
| 20260505060411 | 70 | 113 | 7.0 | 9.6 | 0.00 | 0.00 | 0.00 | 78 | 1016.6 |
| 20260505060406 | 70 | 124 | 7.0 | 10.4 | 0.00 | 0.00 | 0.00 | 78 | 1016.6 |
| 20260505060400 | 70 | 113 | 6.1 | 9.6 | 0.00 | 0.00 | 0.00 | 78 | 1016.5 |
| 20260505060353 | 69 | 100 | 4.3 | 7.0 | 0.00 | 0.00 | 0.00 | 79 | 1016.0 |
| 20260505060349 | 70 | 127 | 6.1 | 8.7 | 0.00 | 0.00 | 0.00 | 77 | 1016.5 |
| 20260505060343 | 70 | 112 | 5.2 | 7.8 | 0.00 | 0.00 | 0.00 | 78 | 1016.4 |
| 20260505060338 | 70 | 115 | 5.2 | 7.8 | 0.00 | 0.00 | 0.00 | 77 | 1016.5 |
| 20260505060212 | 70 | 106 | 5.2 | 7.0 | 0.00 | 0.00 | 0.00 | 79 | 1016.3 |
| 20260505060206 | 68 | 98 | 3.5 | 5.2 | 0.00 | 0.00 | 0.00 | 80 | 1015.7 |
| 20260505055919 | 70 | 116 | 7.8 | 10.4 | 0.00 | 0.00 | 0.00 | 80 | 1016.7 |
| 20260505055913 | 70 | 121 | 7.0 | 9.6 | 0.00 | 0.00 | 0.00 | 78 | 1016.6 |
| 20260505055908 | 70 | 113 | 6.1 | 9.6 | 0.00 | 0.00 | 0.00 | 78 | 1016.5 |
| 20260505055902 | 69 | 100 | 4.3 | 7.0 | 0.00 | 0.00 | 0.00 | 79 | 1016.0 |
| 20260505055734 | 70 | 127 | 6.1 | 8.7 | 0.00 | 0.00 | 0.00 | 77 | 1016.5 |
| 20260505055603 | 68 | 98 | 3.5 | 5.2 | 0.00 | 0.00 | 0.00 | 80 | 1015.7 |
| 20260505055443 | 70 | 106 | 5.2 | 7.0 | 0.00 | 0.00 | 0.00 | 79 | 1016.3 |
| 20260505055439 | 70 | 107 | 4.3 | 7.0 | 0.00 | 0.00 | 0.00 | 79 | 1016.1 |
| 20260505055315 | 72 | 113 | 12.2 | 15.6 | 0.00 | 0.00 | 0.00 | 77 | 1016.2 |
| 20260505055311 | 72 | 108 | 12.2 | 16.5 | 0.00 | 0.00 | 0.00 | 77 | 1016.1 |
| 20260505055306 | 72 | 109 | 11.3 | 15.6 | 0.00 | 0.00 | 0.00 | 79 | 1016.4 |
| 20260505055300 | 70 | 113 | 6.1 | 9.6 | 0.00 | 0.00 | 0.00 | 78 | 1016.5 |
| 20260505055255 | 69 | 100 | 4.3 | 7.0 | 0.00 | 0.00 | 0.00 | 79 | 1016.0 |
| 20260505055249 | 69 | 98 | 4.3 | 6.1 | 0.00 | 0.00 | 0.00 | 80 | 1015.8 |
| 20260505055124 | 70 | 234 | 0.9 | 4.3 | 0.01 | 0.10 | 0.10 | 96 | 1010.9 |
| 20260505055118 | 70 | 234 | 2.6 | 4.3 | 0.01 | 0.10 | 0.10 | 96 | 1011.0 |
| 20260505055114 | 71 | 234 | 1.7 | 4.3 | 0.01 | 0.10 | 0.10 | 96 | 1010.9 |
| 20260505055109 | 71 | 36 | 0.0 | 0.0 | 0.01 | 0.10 | 0.10 | 96 | 1010.8 |
| 20260505055103 | 71 | 36 | 0.0 | 0.0 | 0.02 | 0.10 | 0.10 | 96 | 1010.9 |
| 20260505055059 | 71 | 36 | 0.0 | 0.0 | 0.02 | 0.10 | 0.10 | 96 | 1010.9 |
| 20260505055053 | 71 | 36 | 0.0 | 0.0 | 0.01 | 0.09 | 0.09 | 95 | 1010.7 |
| 20260505055048 | 71 | 118 | 10.4 | 13.9 | 0.00 | 0.00 | 0.00 | 80 | 1016.5 |
| 20260505055042 | 71 | 116 | 11.3 | 13.9 | 0.00 | 0.00 | 0.00 | 78 | 1016.4 |
| 20260505055035 | 70 | 114 | 11.3 | 13.0 | 0.00 | 0.00 | 0.00 | 81 | 1016.5 |
| 20260505055030 | 71 | 120 | 11.3 | 13.9 | 0.00 | 0.00 | 0.00 | 81 | 1016.5 |
| 20260505055025 | 70 | 113 | 11.3 | 13.0 | 0.00 | 0.00 | 0.00 | 81 | 1016.5 |
| 20260505055020 | 70 | 115 | 11.3 | 13.9 | 0.00 | 0.00 | 0.00 | 79 | 1016.4 |
| 20260505055014 | 71 | 124 | 11.3 | 13.0 | 0.00 | 0.00 | 0.00 | 80 | 1016.5 |
| 20260505055010 | 70 | 111 | 10.4 | 13.9 | 0.00 | 0.00 | 0.00 | 79 | 1016.6 |
| 20260505055005 | 71 | 126 | 11.3 | 13.9 | 0.00 | 0.00 | 0.00 | 81 | 1016.5 |
| 20260505054959 | 70 | 113 | 9.6 | 13.0 | 0.00 | 0.00 | 0.00 | 80 | 1016.6 |
| 20260505054954 | 70 | 113 | 10.4 | 13.0 | 0.00 | 0.00 | 0.00 | 79 | 1016.5 |
| 20260505054949 | 70 | 131 | 7.8 | 12.2 | 0.00 | 0.00 | 0.00 | 79 | 1016.6 |
| 20260505054944 | 70 | 124 | 7.0 | 10.4 | 0.00 | 0.00 | 0.00 | 78 | 1016.6 |
| 20260505054936 | 70 | 113 | 7.0 | 9.6 | 0.00 | 0.00 | 0.00 | 78 | 1016.6 |
| 20260505054932 | 70 | 116 | 7.8 | 10.4 | 0.00 | 0.00 | 0.00 | 80 | 1016.7 |
| 20260505054927 | 70 | 121 | 7.0 | 9.6 | 0.00 | 0.00 | 0.00 | 78 | 1016.6 |
| 20260505054921 | 70 | 127 | 6.1 | 8.7 | 0.00 | 0.00 | 0.00 | 77 | 1016.5 |
| 20260505054916 | 70 | 112 | 5.2 | 7.8 | 0.00 | 0.00 | 0.00 | 78 | 1016.4 |
| 20260505054911 | 70 | 115 | 5.2 | 7.8 | 0.00 | 0.00 | 0.00 | 77 | 1016.5 |
| 20260505054906 | 70 | 106 | 5.2 | 7.0 | 0.00 | 0.00 | 0.00 | 79 | 1016.3 |
| 20260505054901 | 70 | 107 | 4.3 | 7.0 | 0.00 | 0.00 | 0.00 | 79 | 1016.1 |
| 20260505054734 | 73 | 117 | 13.0 | 16.5 | 0.00 | 0.00 | 0.00 | 76 | 1015.8 |
| 20260505054728 | 73 | 114 | 12.2 | 16.5 | 0.00 | 0.00 | 0.00 | 76 | 1015.9 |
| 20260505054723 | 72 | 118 | 13.0 | 16.5 | 0.00 | 0.00 | 0.00 | 75 | 1016.0 |
| 20260505054717 | 72 | 105 | 13.0 | 17.4 | 0.00 | 0.00 | 0.00 | 76 | 1015.9 |
| 20260505054713 | 72 | 113 | 11.3 | 15.6 | 0.00 | 0.00 | 0.00 | 78 | 1016.3 |
| 20260505054708 | 72 | 113 | 12.2 | 15.6 | 0.00 | 0.00 | 0.00 | 77 | 1016.2 |
| 20260505054702 | 72 | 108 | 12.2 | 16.5 | 0.00 | 0.00 | 0.00 | 77 | 1016.1 |
| 20260505054656 | 69 | 100 | 4.3 | 7.0 | 0.00 | 0.00 | 0.00 | 79 | 1016.0 |
| 20260505054651 | 72 | 109 | 11.3 | 15.6 | 0.00 | 0.00 | 0.00 | 79 | 1016.4 |
| 20260505054647 | 71 | 121 | 10.4 | 13.0 | 0.00 | 0.00 | 0.00 | 79 | 1016.4 |
| 20260505054641 | 70 | 113 | 6.1 | 9.6 | 0.00 | 0.00 | 0.00 | 78 | 1016.5 |
| 20260505054623 | 69 | 98 | 4.3 | 6.1 | 0.00 | 0.00 | 0.00 | 80 | 1015.8 |
| 20260505054508 | 71 | 116 | 11.3 | 13.9 | 0.00 | 0.00 | 0.00 | 78 | 1016.4 |
| 20260505054504 | 70 | 114 | 11.3 | 13.0 | 0.00 | 0.00 | 0.00 | 81 | 1016.5 |
| 20260505054458 | 71 | 120 | 11.3 | 13.9 | 0.00 | 0.00 | 0.00 | 81 | 1016.5 |
| 20260505054453 | 70 | 113 | 11.3 | 13.0 | 0.00 | 0.00 | 0.00 | 81 | 1016.5 |
| 20260505054447 | 70 | 115 | 11.3 | 13.9 | 0.00 | 0.00 | 0.00 | 79 | 1016.4 |
| 20260505054443 | 71 | 124 | 11.3 | 13.0 | 0.00 | 0.00 | 0.00 | 80 | 1016.5 |
| 20260505054438 | 70 | 131 | 7.8 | 12.2 | 0.00 | 0.00 | 0.00 | 79 | 1016.6 |
| 20260505054431 | 70 | 111 | 10.4 | 13.9 | 0.00 | 0.00 | 0.00 | 79 | 1016.6 |
| 20260505054426 | 71 | 126 | 11.3 | 13.9 | 0.00 | 0.00 | 0.00 | 81 | 1016.5 |
| 20260505054421 | 70 | 113 | 9.6 | 13.0 | 0.00 | 0.00 | 0.00 | 80 | 1016.6 |
| 20260505054415 | 70 | 112 | 5.2 | 7.8 | 0.00 | 0.00 | 0.00 | 78 | 1016.4 |
| 20260505054411 | 70 | 113 | 10.4 | 13.0 | 0.00 | 0.00 | 0.00 | 79 | 1016.5 |
| 20260505054406 | 70 | 115 | 5.2 | 7.8 | 0.00 | 0.00 | 0.00 | 77 | 1016.5 |
| 20260505054400 | 70 | 124 | 7.0 | 10.4 | 0.00 | 0.00 | 0.00 | 78 | 1016.6 |
| 20260505054355 | 70 | 113 | 7.0 | 9.6 | 0.00 | 0.00 | 0.00 | 78 | 1016.6 |
| 20260505054349 | 70 | 116 | 7.8 | 10.4 | 0.00 | 0.00 | 0.00 | 80 | 1016.7 |
| 20260505054344 | 70 | 121 | 7.0 | 9.6 | 0.00 | 0.00 | 0.00 | 78 | 1016.6 |
| 20260505054339 | 70 | 127 | 6.1 | 8.7 | 0.00 | 0.00 | 0.00 | 77 | 1016.5 |
| 20260505054334 | 70 | 106 | 5.2 | 7.0 | 0.00 | 0.00 | 0.00 | 79 | 1016.3 |
| 20260505054327 | 70 | 107 | 4.3 | 7.0 | 0.00 | 0.00 | 0.00 | 79 | 1016.1 |
| 20260505053919 | 70 | 112 | 5.2 | 7.8 | 0.00 | 0.00 | 0.00 | 78 | 1016.4 |
| 20260505053913 | 70 | 115 | 5.2 | 7.8 | 0.00 | 0.00 | 0.00 | 77 | 1016.5 |
| 20260505053749 | 70 | 115 | 11.3 | 13.9 | 0.00 | 0.00 | 0.00 | 79 | 1016.4 |
| 20260505053744 | 71 | 124 | 11.3 | 13.0 | 0.00 | 0.00 | 0.00 | 80 | 1016.5 |
| 20260505053738 | 70 | 111 | 10.4 | 13.9 | 0.00 | 0.00 | 0.00 | 79 | 1016.6 |
| 20260505053733 | 71 | 126 | 11.3 | 13.9 | 0.00 | 0.00 | 0.00 | 81 | 1016.5 |
| 20260505053727 | 70 | 121 | 7.0 | 9.6 | 0.00 | 0.00 | 0.00 | 78 | 1016.6 |
| 20260505053723 | 70 | 113 | 9.6 | 13.0 | 0.00 | 0.00 | 0.00 | 80 | 1016.6 |
| 20260505053715 | 70 | 113 | 10.4 | 13.0 | 0.00 | 0.00 | 0.00 | 79 | 1016.5 |
| 20260505053709 | 70 | 124 | 7.0 | 10.4 | 0.00 | 0.00 | 0.00 | 78 | 1016.6 |
| 20260505053704 | 70 | 113 | 7.0 | 9.6 | 0.00 | 0.00 | 0.00 | 78 | 1016.6 |
| 20260505053659 | 70 | 127 | 6.1 | 8.7 | 0.00 | 0.00 | 0.00 | 77 | 1016.5 |
| 20260505053654 | 70 | 106 | 5.2 | 7.0 | 0.00 | 0.00 | 0.00 | 79 | 1016.3 |
| 20260505053650 | 70 | 107 | 4.3 | 7.0 | 0.00 | 0.00 | 0.00 | 79 | 1016.1 |
| 20260505053631 | 69 | 100 | 4.3 | 7.0 | 0.00 | 0.00 | 0.00 | 79 | 1016.0 |
| 20260505053517 | 71 | 36 | 1.7 | 4.3 | 0.02 | 0.09 | 0.09 | 95 | 1010.3 |
| 20260505053513 | 71 | 244 | 0.9 | 3.5 | 0.02 | 0.08 | 0.08 | 95 | 1010.0 |
| 20260505053507 | 71 | 232 | 2.6 | 5.2 | 0.02 | 0.08 | 0.08 | 94 | 1009.6 |
| 20260505053502 | 73 | 120 | 13.0 | 17.4 | 0.00 | 0.00 | 0.00 | 75 | 1015.8 |
| 20260505053456 | 73 | 117 | 13.0 | 16.5 | 0.00 | 0.00 | 0.00 | 76 | 1015.8 |
| 20260505053452 | 73 | 114 | 12.2 | 16.5 | 0.00 | 0.00 | 0.00 | 76 | 1015.9 |
| 20260505053447 | 70 | 113 | 6.1 | 9.6 | 0.00 | 0.00 | 0.00 | 78 | 1016.5 |
| 20260505053442 | 72 | 118 | 13.0 | 16.5 | 0.00 | 0.00 | 0.00 | 75 | 1016.0 |
| 20260505053437 | 72 | 105 | 13.0 | 17.4 | 0.00 | 0.00 | 0.00 | 76 | 1015.9 |
| 20260505053431 | 70 | 131 | 7.8 | 12.2 | 0.00 | 0.00 | 0.00 | 79 | 1016.6 |
| 20260505053427 | 70 | 116 | 7.8 | 10.4 | 0.00 | 0.00 | 0.00 | 80 | 1016.7 |
| 20260505053300 | 70 | 115 | 5.2 | 7.8 | 0.00 | 0.00 | 0.00 | 77 | 1016.5 |
| 20260505053254 | 72 | 113 | 11.3 | 15.6 | 0.00 | 0.00 | 0.00 | 78 | 1016.3 |
| 20260505053248 | 72 | 113 | 12.2 | 15.6 | 0.00 | 0.00 | 0.00 | 77 | 1016.2 |
| 20260505053243 | 70 | 121 | 7.0 | 9.6 | 0.00 | 0.00 | 0.00 | 78 | 1016.6 |
| 20260505053239 | 72 | 108 | 12.2 | 16.5 | 0.00 | 0.00 | 0.00 | 77 | 1016.1 |
| 20260505053233 | 72 | 109 | 11.3 | 15.6 | 0.00 | 0.00 | 0.00 | 79 | 1016.4 |
| 20260505053228 | 71 | 121 | 10.4 | 13.0 | 0.00 | 0.00 | 0.00 | 79 | 1016.4 |
| 20260505053222 | 71 | 118 | 10.4 | 13.9 | 0.00 | 0.00 | 0.00 | 80 | 1016.5 |
| 20260505053215 | 71 | 116 | 11.3 | 13.9 | 0.00 | 0.00 | 0.00 | 78 | 1016.4 |
| 20260505053211 | 70 | 114 | 11.3 | 13.0 | 0.00 | 0.00 | 0.00 | 81 | 1016.5 |
| 20260505053206 | 71 | 120 | 11.3 | 13.9 | 0.00 | 0.00 | 0.00 | 81 | 1016.5 |
| 20260505053200 | 70 | 113 | 11.3 | 13.0 | 0.00 | 0.00 | 0.00 | 81 | 1016.5 |
| 20260505053155 | 70 | 115 | 11.3 | 13.9 | 0.00 | 0.00 | 0.00 | 79 | 1016.4 |
| 20260505053149 | 71 | 124 | 11.3 | 13.0 | 0.00 | 0.00 | 0.00 | 80 | 1016.5 |
| 20260505053145 | 70 | 111 | 10.4 | 13.9 | 0.00 | 0.00 | 0.00 | 79 | 1016.6 |
| 20260505053140 | 71 | 126 | 11.3 | 13.9 | 0.00 | 0.00 | 0.00 | 81 | 1016.5 |
| 20260505053134 | 70 | 106 | 5.2 | 7.0 | 0.00 | 0.00 | 0.00 | 79 | 1016.3 |
| 20260505053130 | 70 | 113 | 9.6 | 13.0 | 0.00 | 0.00 | 0.00 | 80 | 1016.6 |
| 20260505053124 | 70 | 113 | 10.4 | 13.0 | 0.00 | 0.00 | 0.00 | 79 | 1016.5 |
| 20260505053119 | 70 | 124 | 7.0 | 10.4 | 0.00 | 0.00 | 0.00 | 78 | 1016.6 |
| 20260505053113 | 70 | 113 | 7.0 | 9.6 | 0.00 | 0.00 | 0.00 | 78 | 1016.6 |
| 20260505053107 | 70 | 127 | 6.1 | 8.7 | 0.00 | 0.00 | 0.00 | 77 | 1016.5 |
| 20260505053102 | 70 | 107 | 4.3 | 7.0 | 0.00 | 0.00 | 0.00 | 79 | 1016.1 |
| 20260505052938 | 70 | 113 | 6.1 | 9.6 | 0.00 | 0.00 | 0.00 | 78 | 1016.5 |
| 20260505052809 | 70 | 121 | 7.0 | 9.6 | 0.00 | 0.00 | 0.00 | 78 | 1016.6 |
| 20260505052805 | 70 | 112 | 5.2 | 7.8 | 0.00 | 0.00 | 0.00 | 78 | 1016.4 |
| 20260505052759 | 70 | 115 | 5.2 | 7.8 | 0.00 | 0.00 | 0.00 | 77 | 1016.5 |
| 20260505052633 | 70 | 106 | 5.2 | 7.0 | 0.00 | 0.00 | 0.00 | 79 | 1016.3 |
| 20260505052627 | 72 | 105 | 13.0 | 17.4 | 0.00 | 0.00 | 0.00 | 76 | 1015.9 |
| 20260505052623 | 72 | 113 | 11.3 | 15.6 | 0.00 | 0.00 | 0.00 | 78 | 1016.3 |
| 20260505052617 | 72 | 113 | 12.2 | 15.6 | 0.00 | 0.00 | 0.00 | 77 | 1016.2 |
| 20260505052613 | 72 | 108 | 12.2 | 16.5 | 0.00 | 0.00 | 0.00 | 77 | 1016.1 |
| 20260505052604 | 72 | 109 | 11.3 | 15.6 | 0.00 | 0.00 | 0.00 | 79 | 1016.4 |
| 20260505052559 | 71 | 121 | 10.4 | 13.0 | 0.00 | 0.00 | 0.00 | 79 | 1016.4 |
| 20260505052555 | 71 | 118 | 10.4 | 13.9 | 0.00 | 0.00 | 0.00 | 80 | 1016.5 |
| 20260505052549 | 71 | 116 | 11.3 | 13.9 | 0.00 | 0.00 | 0.00 | 78 | 1016.4 |
| 20260505052544 | 70 | 114 | 11.3 | 13.0 | 0.00 | 0.00 | 0.00 | 81 | 1016.5 |
| 20260505052540 | 71 | 120 | 11.3 | 13.9 | 0.00 | 0.00 | 0.00 | 81 | 1016.5 |
| 20260505052534 | 70 | 107 | 4.3 | 7.0 | 0.00 | 0.00 | 0.00 | 79 | 1016.1 |
| 20260505052529 | 70 | 111 | 10.4 | 13.9 | 0.00 | 0.00 | 0.00 | 79 | 1016.6 |
| 20260505052523 | 70 | 113 | 9.6 | 13.0 | 0.00 | 0.00 | 0.00 | 80 | 1016.6 |
| 20260505052518 | 70 | 113 | 7.0 | 9.6 | 0.00 | 0.00 | 0.00 | 78 | 1016.6 |
| 20260505052513 | 70 | 124 | 7.0 | 10.4 | 0.00 | 0.00 | 0.00 | 78 | 1016.6 |
| 20260505052505 | 70 | 127 | 6.1 | 8.7 | 0.00 | 0.00 | 0.00 | 77 | 1016.5 |
| 20260505052340 | 70 | 115 | 11.3 | 13.9 | 0.00 | 0.00 | 0.00 | 79 | 1016.4 |
| 20260505052335 | 71 | 124 | 11.3 | 13.0 | 0.00 | 0.00 | 0.00 | 80 | 1016.5 |
| 20260505052329 | 70 | 121 | 7.0 | 9.6 | 0.00 | 0.00 | 0.00 | 78 | 1016.6 |
| 20260505052324 | 70 | 113 | 6.1 | 9.6 | 0.00 | 0.00 | 0.00 | 78 | 1016.5 |
| 20260505052157 | 70 | 113 | 10.4 | 13.0 | 0.00 | 0.00 | 0.00 | 79 | 1016.5 |
| 20260505052152 | 70 | 131 | 7.8 | 12.2 | 0.00 | 0.00 | 0.00 | 79 | 1016.6 |
| 20260505052147 | 70 | 112 | 5.2 | 7.8 | 0.00 | 0.00 | 0.00 | 78 | 1016.4 |
| 20260505052142 | 70 | 116 | 7.8 | 10.4 | 0.00 | 0.00 | 0.00 | 80 | 1016.7 |
| 20260505052136 | 70 | 115 | 5.2 | 7.8 | 0.00 | 0.00 | 0.00 | 77 | 1016.5 |
| 20260505052132 | 70 | 106 | 5.2 | 7.0 | 0.00 | 0.00 | 0.00 | 79 | 1016.3 |
| 20260505052003 | 70 | 111 | 10.4 | 13.9 | 0.00 | 0.00 | 0.00 | 79 | 1016.6 |
| 20260505051959 | 70 | 113 | 9.6 | 13.0 | 0.00 | 0.00 | 0.00 | 80 | 1016.6 |
| 20260505051834 | 70 | 127 | 6.1 | 8.7 | 0.00 | 0.00 | 0.00 | 77 | 1016.5 |
| 20260505051828 | 70 | 121 | 7.0 | 9.6 | 0.00 | 0.00 | 0.00 | 78 | 1016.6 |
| 20260505051823 | 70 | 113 | 6.1 | 9.6 | 0.00 | 0.00 | 0.00 | 78 | 1016.5 |
| 20260505051817 | 70 | 215 | 3.5 | 5.2 | 0.03 | 0.08 | 0.08 | 94 | 1009.5 |
| 20260505051813 | 70 | 254 | 3.5 | 8.7 | 0.04 | 0.08 | 0.08 | 94 | 1009.7 |
| 20260505051808 | 70 | 233 | 5.2 | 8.7 | 0.06 | 0.07 | 0.07 | 93 | 1009.6 |
| 20260505051802 | 71 | 252 | 5.2 | 8.7 | 0.06 | 0.07 | 0.07 | 93 | 1009.5 |
| 20260505051755 | 71 | 241 | 5.2 | 9.6 | 0.05 | 0.06 | 0.06 | 93 | 1009.0 |
| 20260505051749 | 72 | 234 | 4.3 | 9.6 | 0.05 | 0.06 | 0.06 | 91 | 1009.0 |
| 20260505051745 | 74 | 346 | 5.2 | 14.8 | 0.04 | 0.05 | 0.05 | 90 | 1008.9 |
| 20260505051740 | 77 | 248 | 7.0 | 17.4 | 0.03 | 0.04 | 0.04 | 81 | 1008.7 |
| 20260505051734 | 83 | 333 | 1.7 | 6.1 | 0.00 | 0.01 | 0.01 | 69 | 1008.2 |
| 20260505051729 | 84 | 229 | 1.7 | 6.1 | 0.00 | 0.01 | 0.01 | 64 | 1007.8 |
| 20260505051723 | 73 | 113 | 13.9 | 17.4 | 0.00 | 0.00 | 0.00 | 74 | 1015.8 |
| 20260505051719 | 73 | 120 | 13.0 | 17.4 | 0.00 | 0.00 | 0.00 | 75 | 1015.8 |
| 20260505051713 | 73 | 117 | 13.0 | 16.5 | 0.00 | 0.00 | 0.00 | 76 | 1015.8 |
| 20260505051708 | 73 | 114 | 12.2 | 16.5 | 0.00 | 0.00 | 0.00 | 76 | 1015.9 |
| 20260505051702 | 72 | 118 | 13.0 | 16.5 | 0.00 | 0.00 | 0.00 | 75 | 1016.0 |
| 20260505051655 | 72 | 105 | 13.0 | 17.4 | 0.00 | 0.00 | 0.00 | 76 | 1015.9 |
| 20260505051651 | 70 | 131 | 7.8 | 12.2 | 0.00 | 0.00 | 0.00 | 79 | 1016.6 |
| 20260505051646 | 70 | 112 | 5.2 | 7.8 | 0.00 | 0.00 | 0.00 | 78 | 1016.4 |
| 20260505051640 | 72 | 113 | 11.3 | 15.6 | 0.00 | 0.00 | 0.00 | 78 | 1016.3 |
| 20260505051635 | 72 | 113 | 12.2 | 15.6 | 0.00 | 0.00 | 0.00 | 77 | 1016.2 |
| 20260505051629 | 70 | 115 | 5.2 | 7.8 | 0.00 | 0.00 | 0.00 | 77 | 1016.5 |
| 20260505051625 | 70 | 116 | 7.8 | 10.4 | 0.00 | 0.00 | 0.00 | 80 | 1016.7 |
| 20260505051619 | 72 | 108 | 12.2 | 16.5 | 0.00 | 0.00 | 0.00 | 77 | 1016.1 |
| 20260505051614 | 72 | 109 | 11.3 | 15.6 | 0.00 | 0.00 | 0.00 | 79 | 1016.4 |
| 20260505051609 | 71 | 121 | 10.4 | 13.0 | 0.00 | 0.00 | 0.00 | 79 | 1016.4 |
| 20260505051604 | 71 | 118 | 10.4 | 13.9 | 0.00 | 0.00 | 0.00 | 80 | 1016.5 |
| 20260505051557 | 71 | 116 | 11.3 | 13.9 | 0.00 | 0.00 | 0.00 | 78 | 1016.4 |
| 20260505051552 | 70 | 114 | 11.3 | 13.0 | 0.00 | 0.00 | 0.00 | 81 | 1016.5 |
| 20260505051546 | 71 | 120 | 11.3 | 13.9 | 0.00 | 0.00 | 0.00 | 81 | 1016.5 |
| 20260505051541 | 70 | 113 | 11.3 | 13.0 | 0.00 | 0.00 | 0.00 | 81 | 1016.5 |
| 20260505051536 | 70 | 106 | 5.2 | 7.0 | 0.00 | 0.00 | 0.00 | 79 | 1016.3 |
| 20260505051531 | 70 | 115 | 11.3 | 13.9 | 0.00 | 0.00 | 0.00 | 79 | 1016.4 |
| 20260505051525 | 71 | 124 | 11.3 | 13.0 | 0.00 | 0.00 | 0.00 | 80 | 1016.5 |
| 20260505051521 | 71 | 126 | 11.3 | 13.9 | 0.00 | 0.00 | 0.00 | 81 | 1016.5 |
| 20260505051516 | 70 | 111 | 10.4 | 13.9 | 0.00 | 0.00 | 0.00 | 79 | 1016.6 |
| 20260505051510 | 70 | 113 | 7.0 | 9.6 | 0.00 | 0.00 | 0.00 | 78 | 1016.6 |
| 20260505051505 | 70 | 113 | 10.4 | 13.0 | 0.00 | 0.00 | 0.00 | 79 | 1016.5 |
| 20260505051337 | 70 | 113 | 9.6 | 13.0 | 0.00 | 0.00 | 0.00 | 80 | 1016.6 |
| 20260505051331 | 70 | 127 | 6.1 | 8.7 | 0.00 | 0.00 | 0.00 | 77 | 1016.5 |
| 20260505051326 | 70 | 113 | 6.1 | 9.6 | 0.00 | 0.00 | 0.00 | 78 | 1016.5 |
| 20260505051322 | 70 | 124 | 7.0 | 10.4 | 0.00 | 0.00 | 0.00 | 78 | 1016.6 |
| 20260505051145 | 70 | 116 | 7.8 | 10.4 | 0.00 | 0.00 | 0.00 | 80 | 1016.7 |
| 20260505051141 | 70 | 112 | 5.2 | 7.8 | 0.00 | 0.00 | 0.00 | 78 | 1016.4 |
| 20260505051136 | 70 | 115 | 5.2 | 7.8 | 0.00 | 0.00 | 0.00 | 77 | 1016.5 |
| 20260505050850 | 70 | 113 | 6.1 | 9.6 | 0.00 | 0.00 | 0.00 | 78 | 1016.5 |
| 20260505050843 | 70 | 127 | 6.1 | 8.7 | 0.00 | 0.00 | 0.00 | 77 | 1016.5 |
| 20260505050718 | 72 | 113 | 11.3 | 15.6 | 0.00 | 0.00 | 0.00 | 78 | 1016.3 |
| 20260505050713 | 72 | 109 | 11.3 | 15.6 | 0.00 | 0.00 | 0.00 | 79 | 1016.4 |
| 20260505050707 | 71 | 121 | 10.4 | 13.0 | 0.00 | 0.00 | 0.00 | 79 | 1016.4 |
| 20260505050702 | 71 | 118 | 10.4 | 13.9 | 0.00 | 0.00 | 0.00 | 80 | 1016.5 |
| 20260505050657 | 70 | 112 | 5.2 | 7.8 | 0.00 | 0.00 | 0.00 | 78 | 1016.4 |
| 20260505050531 | 71 | 116 | 11.3 | 13.9 | 0.00 | 0.00 | 0.00 | 78 | 1016.4 |
| 20260505050525 | 70 | 114 | 11.3 | 13.0 | 0.00 | 0.00 | 0.00 | 81 | 1016.5 |
| 20260505050519 | 71 | 120 | 11.3 | 13.9 | 0.00 | 0.00 | 0.00 | 81 | 1016.5 |
| 20260505050515 | 70 | 113 | 11.3 | 13.0 | 0.00 | 0.00 | 0.00 | 81 | 1016.5 |
| 20260505050510 | 70 | 115 | 11.3 | 13.9 | 0.00 | 0.00 | 0.00 | 79 | 1016.4 |
| 20260505050504 | 71 | 124 | 11.3 | 13.0 | 0.00 | 0.00 | 0.00 | 80 | 1016.5 |
| 20260505050339 | 70 | 111 | 10.4 | 13.9 | 0.00 | 0.00 | 0.00 | 79 | 1016.6 |
| 20260505050334 | 70 | 113 | 10.4 | 13.0 | 0.00 | 0.00 | 0.00 | 79 | 1016.5 |
| 20260505050328 | 70 | 113 | 9.6 | 13.0 | 0.00 | 0.00 | 0.00 | 80 | 1016.6 |
| 20260505050323 | 70 | 124 | 7.0 | 10.4 | 0.00 | 0.00 | 0.00 | 78 | 1016.6 |
| 20260505050317 | 70 | 131 | 7.8 | 12.2 | 0.00 | 0.00 | 0.00 | 79 | 1016.6 |
| 20260505050313 | 70 | 116 | 7.8 | 10.4 | 0.00 | 0.00 | 0.00 | 80 | 1016.7 |
| 20260505050307 | 70 | 113 | 7.0 | 9.6 | 0.00 | 0.00 | 0.00 | 78 | 1016.6 |
| 20260505050302 | 70 | 113 | 6.1 | 9.6 | 0.00 | 0.00 | 0.00 | 78 | 1016.5 |
| 20260505050256 | 70 | 121 | 7.0 | 9.6 | 0.00 | 0.00 | 0.00 | 78 | 1016.6 |
| 20260505050251 | 70 | 127 | 6.1 | 8.7 | 0.00 | 0.00 | 0.00 | 77 | 1016.5 |
| 20260505041533 | 70 | 113 | 7.0 | 9.6 | 0.00 | 0.00 | 0.00 | 78 | 1016.6 |
| 20260505041528 | 71 | 120 | 11.3 | 13.9 | 0.00 | 0.00 | 0.00 | 81 | 1016.5 |
| 20260505041522 | 71 | 124 | 11.3 | 13.0 | 0.00 | 0.00 | 0.00 | 80 | 1016.5 |
| 20260505041517 | 71 | 126 | 11.3 | 13.9 | 0.00 | 0.00 | 0.00 | 81 | 1016.5 |
| 20260505041511 | 70 | 113 | 9.6 | 13.0 | 0.00 | 0.00 | 0.00 | 80 | 1016.6 |
| 20260505041507 | 70 | 124 | 7.0 | 10.4 | 0.00 | 0.00 | 0.00 | 78 | 1016.6 |
| 20260505041339 | 71 | 118 | 10.4 | 13.9 | 0.00 | 0.00 | 0.00 | 80 | 1016.5 |
| 20260505041333 | 71 | 116 | 11.3 | 13.9 | 0.00 | 0.00 | 0.00 | 78 | 1016.4 |
| 20260505041328 | 70 | 114 | 11.3 | 13.0 | 0.00 | 0.00 | 0.00 | 81 | 1016.5 |
| 20260505041322 | 70 | 115 | 11.3 | 13.9 | 0.00 | 0.00 | 0.00 | 79 | 1016.4 |
| 20260505041158 | 70 | 111 | 10.4 | 13.9 | 0.00 | 0.00 | 0.00 | 79 | 1016.6 |
| 20260505041153 | 70 | 131 | 7.8 | 12.2 | 0.00 | 0.00 | 0.00 | 79 | 1016.6 |
| 20260505041147 | 70 | 116 | 7.8 | 10.4 | 0.00 | 0.00 | 0.00 | 80 | 1016.7 |
| 20260505041021 | 71 | 120 | 11.3 | 13.9 | 0.00 | 0.00 | 0.00 | 81 | 1016.5 |
| 20260505041015 | 79 | 121 | 10.4 | 13.9 | 0.00 | 0.00 | 0.00 | 64 | 1015.5 |
| 20260505041010 | 70 | 124 | 7.0 | 10.4 | 0.00 | 0.00 | 0.00 | 78 | 1016.6 |
| 20260505041004 | 71 | 126 | 11.3 | 13.9 | 0.00 | 0.00 | 0.00 | 81 | 1016.5 |
| 20260505040959 | 73 | 121 | 13.0 | 17.4 | 0.00 | 0.00 | 0.00 | 75 | 1015.5 |
| 20260505040954 | 71 | 124 | 11.3 | 13.0 | 0.00 | 0.00 | 0.00 | 80 | 1016.5 |
| 20260505040950 | 80 | 123 | 8.7 | 15.6 | 0.00 | 0.00 | 0.00 | 62 | 1015.6 |
| 20260505040944 | 80 | 109 | 10.4 | 15.6 | 0.00 | 0.00 | 0.00 | 62 | 1015.7 |
| 20260505040938 | 81 | 123 | 9.6 | 13.9 | 0.00 | 0.00 | 0.00 | 60 | 1015.7 |
| 20260505040932 | 81 | 117 | 7.8 | 12.2 | 0.00 | 0.00 | 0.00 | 59 | 1015.7 |
| 20260505040927 | 80 | 109 | 9.6 | 12.2 | 0.00 | 0.00 | 0.00 | 61 | 1015.7 |
| 20260505040922 | 80 | 123 | 9.6 | 12.2 | 0.00 | 0.00 | 0.00 | 59 | 1015.9 |
| 20260505040917 | 80 | 129 | 8.7 | 11.3 | 0.00 | 0.00 | 0.00 | 62 | 1015.9 |
| 20260505040911 | 79 | 120 | 8.7 | 13.0 | 0.00 | 0.00 | 0.00 | 59 | 1016.1 |
| 20260505040907 | 79 | 124 | 9.6 | 13.0 | 0.00 | 0.00 | 0.00 | 61 | 1016.1 |
| 20260505040902 | 74 | 117 | 13.9 | 17.4 | 0.00 | 0.00 | 0.00 | 73 | 1015.3 |
| 20260505040856 | 70 | 113 | 10.4 | 13.0 | 0.00 | 0.00 | 0.00 | 79 | 1016.5 |
| 20260505040851 | 70 | 113 | 9.6 | 13.0 | 0.00 | 0.00 | 0.00 | 80 | 1016.6 |
| 20260505040725 | 79 | 130 | 9.6 | 13.0 | 0.00 | 0.00 | 0.00 | 62 | 1016.2 |
| 20260505040720 | 73 | 117 | 13.0 | 16.5 | 0.00 | 0.00 | 0.00 | 76 | 1015.8 |
| 20260505040714 | 78 | 132 | 9.6 | 12.2 | 0.00 | 0.00 | 0.00 | 59 | 1016.3 |
| 20260505040709 | 73 | 120 | 13.0 | 17.4 | 0.00 | 0.00 | 0.00 | 75 | 1015.8 |
| 20260505040703 | 79 | 132 | 8.7 | 12.2 | 0.00 | 0.00 | 0.00 | 60 | 1016.5 |
| 20260505040658 | 73 | 114 | 12.2 | 16.5 | 0.00 | 0.00 | 0.00 | 76 | 1015.9 |
| 20260505040652 | 72 | 105 | 13.0 | 17.4 | 0.00 | 0.00 | 0.00 | 76 | 1015.9 |
| 20260505040647 | 72 | 113 | 12.2 | 15.6 | 0.00 | 0.00 | 0.00 | 77 | 1016.2 |
| 20260505040641 | 72 | 108 | 12.2 | 16.5 | 0.00 | 0.00 | 0.00 | 77 | 1016.1 |
| 20260505040634 | 72 | 118 | 13.0 | 16.5 | 0.00 | 0.00 | 0.00 | 75 | 1016.0 |
| 20260505040630 | 72 | 113 | 11.3 | 15.6 | 0.00 | 0.00 | 0.00 | 78 | 1016.3 |
| 20260505040624 | 72 | 109 | 11.3 | 15.6 | 0.00 | 0.00 | 0.00 | 79 | 1016.4 |
| 20260505040619 | 71 | 118 | 10.4 | 13.9 | 0.00 | 0.00 | 0.00 | 80 | 1016.5 |
| 20260505040613 | 70 | 113 | 11.3 | 13.0 | 0.00 | 0.00 | 0.00 | 81 | 1016.5 |
| 20260505040608 | 71 | 116 | 11.3 | 13.9 | 0.00 | 0.00 | 0.00 | 78 | 1016.4 |
| 20260505040603 | 70 | 111 | 10.4 | 13.9 | 0.00 | 0.00 | 0.00 | 79 | 1016.6 |
| 20260505040558 | 71 | 121 | 10.4 | 13.0 | 0.00 | 0.00 | 0.00 | 79 | 1016.4 |
| 20260505040552 | 70 | 114 | 11.3 | 13.0 | 0.00 | 0.00 | 0.00 | 81 | 1016.5 |
| 20260505040548 | 70 | 115 | 11.3 | 13.9 | 0.00 | 0.00 | 0.00 | 79 | 1016.4 |
| 20260505040540 | 70 | 131 | 7.8 | 12.2 | 0.00 | 0.00 | 0.00 | 79 | 1016.6 |
| 20260505040534 | 70 | 116 | 7.8 | 10.4 | 0.00 | 0.00 | 0.00 | 80 | 1016.7 |
| 20260505040527 | 70 | 124 | 7.0 | 10.4 | 0.00 | 0.00 | 0.00 | 78 | 1016.6 |
| 20260505040523 | 71 | 120 | 11.3 | 13.9 | 0.00 | 0.00 | 0.00 | 81 | 1016.5 |
| 20260505040518 | 74 | 119 | 13.0 | 16.5 | 0.00 | 0.00 | 0.00 | 72 | 1015.3 |
| 20260505040513 | 71 | 124 | 11.3 | 13.0 | 0.00 | 0.00 | 0.00 | 80 | 1016.5 |
| 20260505040508 | 73 | 121 | 13.0 | 17.4 | 0.00 | 0.00 | 0.00 | 75 | 1015.5 |
| 20260505040502 | 71 | 126 | 11.3 | 13.9 | 0.00 | 0.00 | 0.00 | 81 | 1016.5 |
| 20260505040337 | 70 | 113 | 10.4 | 13.0 | 0.00 | 0.00 | 0.00 | 79 | 1016.5 |
| 20260505040329 | 70 | 113 | 9.6 | 13.0 | 0.00 | 0.00 | 0.00 | 80 | 1016.6 |
| 20260505040201 | 73 | 120 | 13.0 | 17.4 | 0.00 | 0.00 | 0.00 | 75 | 1015.8 |
| 20260505040157 | 73 | 117 | 13.0 | 16.5 | 0.00 | 0.00 | 0.00 | 76 | 1015.8 |
| 20260505040152 | 73 | 114 | 12.2 | 16.5 | 0.00 | 0.00 | 0.00 | 76 | 1015.9 |
| 20260505040146 | 72 | 105 | 13.0 | 17.4 | 0.00 | 0.00 | 0.00 | 76 | 1015.9 |
| 20260505040141 | 72 | 113 | 12.2 | 15.6 | 0.00 | 0.00 | 0.00 | 77 | 1016.2 |
| 20260505040135 | 72 | 108 | 12.2 | 16.5 | 0.00 | 0.00 | 0.00 | 77 | 1016.1 |
| 20260505040128 | 72 | 118 | 13.0 | 16.5 | 0.00 | 0.00 | 0.00 | 75 | 1016.0 |
| 20260505040124 | 72 | 113 | 11.3 | 15.6 | 0.00 | 0.00 | 0.00 | 78 | 1016.3 |
| 20260505040118 | 72 | 109 | 11.3 | 15.6 | 0.00 | 0.00 | 0.00 | 79 | 1016.4 |
| 20260505040113 | 70 | 113 | 11.3 | 13.0 | 0.00 | 0.00 | 0.00 | 81 | 1016.5 |
| 20260505040109 | 71 | 121 | 10.4 | 13.0 | 0.00 | 0.00 | 0.00 | 79 | 1016.4 |
| 20260505040103 | 70 | 111 | 10.4 | 13.9 | 0.00 | 0.00 | 0.00 | 79 | 1016.6 |
| 20260505040058 | 71 | 118 | 10.4 | 13.9 | 0.00 | 0.00 | 0.00 | 80 | 1016.5 |
| 20260505040052 | 71 | 116 | 11.3 | 13.9 | 0.00 | 0.00 | 0.00 | 78 | 1016.4 |
| 20260505040048 | 70 | 131 | 7.8 | 12.2 | 0.00 | 0.00 | 0.00 | 79 | 1016.6 |
| 20260505040042 | 70 | 114 | 11.3 | 13.0 | 0.00 | 0.00 | 0.00 | 81 | 1016.5 |
| 20260505040037 | 71 | 120 | 11.3 | 13.9 | 0.00 | 0.00 | 0.00 | 81 | 1016.5 |
| 20260505040031 | 70 | 115 | 11.3 | 13.9 | 0.00 | 0.00 | 0.00 | 79 | 1016.4 |
| 20260505040024 | 71 | 124 | 11.3 | 13.0 | 0.00 | 0.00 | 0.00 | 80 | 1016.5 |
| 20260505040020 | 70 | 124 | 7.0 | 10.4 | 0.00 | 0.00 | 0.00 | 78 | 1016.6 |
| 20260505035852 | 70 | 113 | 10.4 | 13.0 | 0.00 | 0.00 | 0.00 | 79 | 1016.5 |
| 20260505035603 | 70 | 111 | 10.4 | 13.9 | 0.00 | 0.00 | 0.00 | 79 | 1016.6 |
| 20260505035557 | 73 | 121 | 13.0 | 17.4 | 0.00 | 0.00 | 0.00 | 75 | 1015.5 |
| 20260505035552 | 73 | 113 | 13.9 | 17.4 | 0.00 | 0.00 | 0.00 | 74 | 1015.8 |
| 20260505035546 | 70 | 131 | 7.8 | 12.2 | 0.00 | 0.00 | 0.00 | 79 | 1016.6 |
| 20260505035542 | 73 | 120 | 13.0 | 17.4 | 0.00 | 0.00 | 0.00 | 75 | 1015.8 |
| 20260505035537 | 73 | 117 | 13.0 | 16.5 | 0.00 | 0.00 | 0.00 | 76 | 1015.8 |
| 20260505035531 | 70 | 124 | 7.0 | 10.4 | 0.00 | 0.00 | 0.00 | 78 | 1016.6 |
| 20260505035525 | 73 | 114 | 12.2 | 16.5 | 0.00 | 0.00 | 0.00 | 76 | 1015.9 |
| 20260505035520 | 72 | 105 | 13.0 | 17.4 | 0.00 | 0.00 | 0.00 | 76 | 1015.9 |
| 20260505035513 | 72 | 113 | 12.2 | 15.6 | 0.00 | 0.00 | 0.00 | 77 | 1016.2 |
| 20260505035507 | 72 | 108 | 12.2 | 16.5 | 0.00 | 0.00 | 0.00 | 77 | 1016.1 |
| 20260505035502 | 71 | 124 | 11.3 | 13.0 | 0.00 | 0.00 | 0.00 | 80 | 1016.5 |
| 20260505035337 | 72 | 113 | 11.3 | 15.6 | 0.00 | 0.00 | 0.00 | 78 | 1016.3 |
| 20260505035331 | 72 | 109 | 11.3 | 15.6 | 0.00 | 0.00 | 0.00 | 79 | 1016.4 |
| 20260505035326 | 71 | 121 | 10.4 | 13.0 | 0.00 | 0.00 | 0.00 | 79 | 1016.4 |
| 20260505035320 | 71 | 118 | 10.4 | 13.9 | 0.00 | 0.00 | 0.00 | 80 | 1016.5 |
| 20260505035313 | 71 | 116 | 11.3 | 13.9 | 0.00 | 0.00 | 0.00 | 78 | 1016.4 |
| 20260505035308 | 70 | 114 | 11.3 | 13.0 | 0.00 | 0.00 | 0.00 | 81 | 1016.5 |
| 20260505035304 | 71 | 120 | 11.3 | 13.9 | 0.00 | 0.00 | 0.00 | 81 | 1016.5 |
| 20260505035258 | 70 | 115 | 11.3 | 13.9 | 0.00 | 0.00 | 0.00 | 79 | 1016.4 |
| 20260505035252 | 71 | 126 | 11.3 | 13.9 | 0.00 | 0.00 | 0.00 | 81 | 1016.5 |
| 20260505035248 | 70 | 113 | 10.4 | 13.0 | 0.00 | 0.00 | 0.00 | 79 | 1016.5 |
| 20260505035243 | 70 | 113 | 9.6 | 13.0 | 0.00 | 0.00 | 0.00 | 80 | 1016.6 |
| 20260505035112 | 70 | 111 | 10.4 | 13.9 | 0.00 | 0.00 | 0.00 | 79 | 1016.6 |
| 20260505035108 | 70 | 131 | 7.8 | 12.2 | 0.00 | 0.00 | 0.00 | 79 | 1016.6 |
| 20260505034941 | 71 | 124 | 11.3 | 13.0 | 0.00 | 0.00 | 0.00 | 80 | 1016.5 |
| 20260505034815 | 72 | 108 | 12.2 | 16.5 | 0.00 | 0.00 | 0.00 | 77 | 1016.1 |
| 20260505034806 | 72 | 113 | 11.3 | 15.6 | 0.00 | 0.00 | 0.00 | 78 | 1016.3 |
| 20260505034802 | 72 | 109 | 11.3 | 15.6 | 0.00 | 0.00 | 0.00 | 79 | 1016.4 |
| 20260505034756 | 71 | 121 | 10.4 | 13.0 | 0.00 | 0.00 | 0.00 | 79 | 1016.4 |
| 20260505034751 | 71 | 118 | 10.4 | 13.9 | 0.00 | 0.00 | 0.00 | 80 | 1016.5 |
| 20260505034745 | 71 | 116 | 11.3 | 13.9 | 0.00 | 0.00 | 0.00 | 78 | 1016.4 |
| 20260505034741 | 71 | 120 | 11.3 | 13.9 | 0.00 | 0.00 | 0.00 | 81 | 1016.5 |
| 20260505034736 | 70 | 115 | 11.3 | 13.9 | 0.00 | 0.00 | 0.00 | 79 | 1016.4 |
| 20260505034730 | 71 | 126 | 11.3 | 13.9 | 0.00 | 0.00 | 0.00 | 81 | 1016.5 |
| 20260505034724 | 70 | 113 | 10.4 | 13.0 | 0.00 | 0.00 | 0.00 | 79 | 1016.5 |
| 20260505034719 | 70 | 113 | 9.6 | 13.0 | 0.00 | 0.00 | 0.00 | 80 | 1016.6 |
| 20260505034552 | 73 | 120 | 13.0 | 17.4 | 0.00 | 0.00 | 0.00 | 75 | 1015.8 |
| 20260505034546 | 73 | 117 | 13.0 | 16.5 | 0.00 | 0.00 | 0.00 | 76 | 1015.8 |
| 20260505034541 | 73 | 114 | 12.2 | 16.5 | 0.00 | 0.00 | 0.00 | 76 | 1015.9 |
| 20260505034537 | 70 | 114 | 11.3 | 13.0 | 0.00 | 0.00 | 0.00 | 81 | 1016.5 |
| 20260505034532 | 70 | 131 | 7.8 | 12.2 | 0.00 | 0.00 | 0.00 | 79 | 1016.6 |
| 20260505034526 | 70 | 113 | 11.3 | 13.0 | 0.00 | 0.00 | 0.00 | 81 | 1016.5 |
| 20260505034521 | 70 | 111 | 10.4 | 13.9 | 0.00 | 0.00 | 0.00 | 79 | 1016.6 |
| 20260505034354 | 71 | 124 | 11.3 | 13.0 | 0.00 | 0.00 | 0.00 | 80 | 1016.5 |
| 20260505034350 | 72 | 118 | 13.0 | 16.5 | 0.00 | 0.00 | 0.00 | 75 | 1016.0 |
| 20260505034344 | 72 | 113 | 12.2 | 15.6 | 0.00 | 0.00 | 0.00 | 77 | 1016.2 |
| 20260505034339 | 72 | 108 | 12.2 | 16.5 | 0.00 | 0.00 | 0.00 | 77 | 1016.1 |
| 20260505034214 | 72 | 109 | 11.3 | 15.6 | 0.00 | 0.00 | 0.00 | 79 | 1016.4 |
| 20260505034208 | 71 | 121 | 10.4 | 13.0 | 0.00 | 0.00 | 0.00 | 79 | 1016.4 |
| 20260505034201 | 71 | 118 | 10.4 | 13.9 | 0.00 | 0.00 | 0.00 | 80 | 1016.5 |
| 20260505034155 | 71 | 116 | 11.3 | 13.9 | 0.00 | 0.00 | 0.00 | 78 | 1016.4 |
| 20260505034150 | 71 | 120 | 11.3 | 13.9 | 0.00 | 0.00 | 0.00 | 81 | 1016.5 |
| 20260505034144 | 70 | 115 | 11.3 | 13.9 | 0.00 | 0.00 | 0.00 | 79 | 1016.4 |
| 20260505034140 | 71 | 126 | 11.3 | 13.9 | 0.00 | 0.00 | 0.00 | 81 | 1016.5 |
| 20260505034134 | 70 | 113 | 10.4 | 13.0 | 0.00 | 0.00 | 0.00 | 79 | 1016.5 |
| 20260505034129 | 70 | 113 | 9.6 | 13.0 | 0.00 | 0.00 | 0.00 | 80 | 1016.6 |
| 20260505034003 | 78 | 132 | 7.0 | 10.4 | 0.00 | 0.00 | 0.00 | 57 | 1016.8 |
| 20260505033958 | 77 | 138 | 7.0 | 10.4 | 0.00 | 0.00 | 0.00 | 53 | 1016.9 |
| 20260505033953 | 78 | 140 | 7.8 | 11.3 | 0.00 | 0.00 | 0.00 | 60 | 1017.0 |
| 20260505033947 | 78 | 141 | 8.7 | 12.2 | 0.00 | 0.09 | 0.00 | 57 | 1017.0 |
| 20260505033941 | 74 | 109 | 13.9 | 18.2 | 0.00 | 0.00 | 0.00 | 74 | 1015.2 |
| 20260505033936 | 74 | 119 | 13.0 | 16.5 | 0.00 | 0.00 | 0.00 | 72 | 1015.3 |
| 20260505033930 | 70 | 114 | 11.3 | 13.0 | 0.00 | 0.00 | 0.00 | 81 | 1016.5 |
| 20260505033926 | 74 | 117 | 13.9 | 17.4 | 0.00 | 0.00 | 0.00 | 73 | 1015.3 |
| 20260505033921 | 70 | 113 | 11.3 | 13.0 | 0.00 | 0.00 | 0.00 | 81 | 1016.5 |
| 20260505033915 | 71 | 124 | 11.3 | 13.0 | 0.00 | 0.00 | 0.00 | 80 | 1016.5 |
| 20260505033909 | 70 | 111 | 10.4 | 13.9 | 0.00 | 0.00 | 0.00 | 79 | 1016.6 |
| 20260505033743 | 73 | 113 | 13.9 | 17.4 | 0.00 | 0.00 | 0.00 | 74 | 1015.8 |
| 20260505033737 | 73 | 120 | 13.0 | 17.4 | 0.00 | 0.00 | 0.00 | 75 | 1015.8 |
| 20260505033731 | 73 | 117 | 13.0 | 16.5 | 0.00 | 0.00 | 0.00 | 76 | 1015.8 |
| 20260505033725 | 73 | 114 | 12.2 | 16.5 | 0.00 | 0.00 | 0.00 | 76 | 1015.9 |
| 20260505033719 | 72 | 105 | 13.0 | 17.4 | 0.00 | 0.00 | 0.00 | 76 | 1015.9 |
| 20260505033713 | 72 | 118 | 13.0 | 16.5 | 0.00 | 0.00 | 0.00 | 75 | 1016.0 |
| 20260505033708 | 72 | 113 | 12.2 | 15.6 | 0.00 | 0.00 | 0.00 | 77 | 1016.2 |
| 20260505033659 | 72 | 108 | 12.2 | 16.5 | 0.00 | 0.00 | 0.00 | 77 | 1016.1 |
| 20260505033653 | 72 | 113 | 11.3 | 15.6 | 0.00 | 0.00 | 0.00 | 78 | 1016.3 |
| 20260505033649 | 72 | 109 | 11.3 | 15.6 | 0.00 | 0.00 | 0.00 | 79 | 1016.4 |
| 20260505033643 | 71 | 121 | 10.4 | 13.0 | 0.00 | 0.00 | 0.00 | 79 | 1016.4 |
| 20260505033637 | 71 | 116 | 11.3 | 13.9 | 0.00 | 0.00 | 0.00 | 78 | 1016.4 |
| 20260505033631 | 71 | 118 | 10.4 | 13.9 | 0.00 | 0.00 | 0.00 | 80 | 1016.5 |
| 20260505033625 | 71 | 120 | 11.3 | 13.9 | 0.00 | 0.00 | 0.00 | 81 | 1016.5 |
| 20260505033619 | 70 | 115 | 11.3 | 13.9 | 0.00 | 0.00 | 0.00 | 79 | 1016.4 |
| 20260505033613 | 71 | 126 | 11.3 | 13.9 | 0.00 | 0.00 | 0.00 | 81 | 1016.5 |
| 20260505033607 | 70 | 113 | 10.4 | 13.0 | 0.00 | 0.00 | 0.00 | 79 | 1016.5 |
| 20260505033553 | 70 | 113 | 9.6 | 13.0 | 0.00 | 0.00 | 0.00 | 80 | 1016.6 |
| 20260505033427 | 70 | 113 | 11.3 | 13.0 | 0.00 | 0.00 | 0.00 | 81 | 1016.5 |
| 20260505033421 | 71 | 124 | 11.3 | 13.0 | 0.00 | 0.00 | 0.00 | 80 | 1016.5 |
| 20260505033126 | 72 | 109 | 11.3 | 15.6 | 0.00 | 0.00 | 0.00 | 79 | 1016.4 |
| 20260505033120 | 72 | 113 | 11.3 | 15.6 | 0.00 | 0.00 | 0.00 | 78 | 1016.3 |
| 20260505033114 | 71 | 121 | 10.4 | 13.0 | 0.00 | 0.00 | 0.00 | 79 | 1016.4 |
| 20260505033110 | 71 | 118 | 10.4 | 13.9 | 0.00 | 0.00 | 0.00 | 80 | 1016.5 |
| 20260505033104 | 71 | 116 | 11.3 | 13.9 | 0.00 | 0.00 | 0.00 | 78 | 1016.4 |
| 20260505033056 | 71 | 126 | 11.3 | 13.9 | 0.00 | 0.00 | 0.00 | 81 | 1016.5 |
| 20260505033052 | 71 | 120 | 11.3 | 13.9 | 0.00 | 0.00 | 0.00 | 81 | 1016.5 |
| 20260505033046 | 74 | 130 | 13.0 | 18.2 | 0.00 | 0.00 | 0.00 | 73 | 1015.1 |
| 20260505033041 | 74 | 111 | 13.9 | 16.5 | 0.00 | 0.00 | 0.00 | 71 | 1014.9 |
| 20260505033037 | 70 | 113 | 10.4 | 13.0 | 0.00 | 0.00 | 0.00 | 79 | 1016.5 |
| 20260505033031 | 74 | 106 | 13.0 | 17.4 | 0.00 | 0.00 | 0.00 | 72 | 1015.0 |
| 20260505033027 | 74 | 109 | 13.9 | 18.2 | 0.00 | 0.00 | 0.00 | 74 | 1015.2 |
| 20260505033021 | 70 | 115 | 11.3 | 13.9 | 0.00 | 0.00 | 0.00 | 79 | 1016.4 |
| 20260505033016 | 74 | 119 | 13.0 | 16.5 | 0.00 | 0.00 | 0.00 | 72 | 1015.3 |
| 20260505033010 | 74 | 117 | 13.9 | 17.4 | 0.00 | 0.00 | 0.00 | 73 | 1015.3 |
| 20260505033005 | 73 | 121 | 13.0 | 17.4 | 0.00 | 0.00 | 0.00 | 75 | 1015.5 |
| 20260505032959 | 73 | 113 | 13.9 | 17.4 | 0.00 | 0.00 | 0.00 | 74 | 1015.8 |
| 20260505032952 | 73 | 120 | 13.0 | 17.4 | 0.00 | 0.00 | 0.00 | 75 | 1015.8 |
| 20260505032948 | 73 | 117 | 13.0 | 16.5 | 0.00 | 0.00 | 0.00 | 76 | 1015.8 |
| 20260505032943 | 73 | 114 | 12.2 | 16.5 | 0.00 | 0.00 | 0.00 | 76 | 1015.9 |
| 20260505032937 | 72 | 105 | 13.0 | 17.4 | 0.00 | 0.00 | 0.00 | 76 | 1015.9 |
| 20260505032932 | 72 | 118 | 13.0 | 16.5 | 0.00 | 0.00 | 0.00 | 75 | 1016.0 |
| 20260505032927 | 72 | 108 | 12.2 | 16.5 | 0.00 | 0.00 | 0.00 | 77 | 1016.1 |
| 20260505032922 | 70 | 113 | 11.3 | 13.0 | 0.00 | 0.00 | 0.00 | 81 | 1016.5 |
| 20260505032916 | 70 | 114 | 11.3 | 13.0 | 0.00 | 0.00 | 0.00 | 81 | 1016.5 |
| 20260505032912 | 71 | 124 | 11.3 | 13.0 | 0.00 | 0.00 | 0.00 | 80 | 1016.5 |
| 20260505032622 | 72 | 113 | 11.3 | 15.6 | 0.00 | 0.00 | 0.00 | 78 | 1016.3 |
| 20260505032617 | 72 | 109 | 11.3 | 15.6 | 0.00 | 0.00 | 0.00 | 79 | 1016.4 |
| 20260505032612 | 71 | 126 | 11.3 | 13.9 | 0.00 | 0.00 | 0.00 | 81 | 1016.5 |
| 20260505032606 | 71 | 121 | 10.4 | 13.0 | 0.00 | 0.00 | 0.00 | 79 | 1016.4 |
| 20260505032601 | 71 | 118 | 10.4 | 13.9 | 0.00 | 0.00 | 0.00 | 80 | 1016.5 |
| 20260505032554 | 71 | 116 | 11.3 | 13.9 | 0.00 | 0.00 | 0.00 | 78 | 1016.4 |
| 20260505032548 | 71 | 120 | 11.3 | 13.9 | 0.00 | 0.00 | 0.00 | 81 | 1016.5 |
| 20260505032544 | 70 | 115 | 11.3 | 13.9 | 0.00 | 0.00 | 0.00 | 79 | 1016.4 |
| 20260505032537 | 70 | 113 | 10.4 | 13.0 | 0.00 | 0.00 | 0.00 | 79 | 1016.5 |
| 20260505032238 | 71 | 124 | 11.3 | 13.0 | 0.00 | 0.00 | 0.00 | 80 | 1016.5 |
| 20260505032233 | 70 | 111 | 10.4 | 13.9 | 0.00 | 0.00 | 0.00 | 79 | 1016.6 |
| 20260505031943 | 72 | 109 | 11.3 | 15.6 | 0.00 | 0.00 | 0.00 | 79 | 1016.4 |
| 20260505031937 | 71 | 118 | 10.4 | 13.9 | 0.00 | 0.00 | 0.00 | 80 | 1016.5 |
| 20260505031932 | 71 | 120 | 11.3 | 13.9 | 0.00 | 0.00 | 0.00 | 81 | 1016.5 |
| 20260505031806 | 70 | 113 | 11.3 | 13.0 | 0.00 | 0.00 | 0.00 | 81 | 1016.5 |
| 20260505031638 | 72 | 113 | 11.3 | 15.6 | 0.00 | 0.00 | 0.00 | 78 | 1016.3 |
| 20260505031634 | 71 | 124 | 11.3 | 13.0 | 0.00 | 0.00 | 0.00 | 80 | 1016.5 |
| 20260505031628 | 71 | 121 | 10.4 | 13.0 | 0.00 | 0.00 | 0.00 | 79 | 1016.4 |
| 20260505031623 | 71 | 126 | 11.3 | 13.9 | 0.00 | 0.00 | 0.00 | 81 | 1016.5 |
| 20260505031606 | 70 | 111 | 10.4 | 13.9 | 0.00 | 0.00 | 0.00 | 79 | 1016.6 |
| 20260505031449 | 70 | 114 | 11.3 | 13.0 | 0.00 | 0.00 | 0.00 | 81 | 1016.5 |
| 20260505031321 | 77 | 144 | 7.8 | 10.4 | 0.00 | 0.21 | 0.00 | 59 | 1017.0 |
| 20260505031315 | 72 | 109 | 11.3 | 15.6 | 0.00 | 0.00 | 0.00 | 79 | 1016.4 |
| 20260505031309 | 78 | 132 | 8.7 | 11.3 | 0.00 | 0.21 | 0.00 | 57 | 1017.1 |
| 20260505031304 | 77 | 130 | 7.8 | 12.2 | 0.00 | 0.21 | 0.00 | 60 | 1017.2 |
| 20260505031259 | 70 | 115 | 11.3 | 13.9 | 0.00 | 0.00 | 0.00 | 79 | 1016.4 |
| 20260505031253 | 71 | 118 | 10.4 | 13.9 | 0.00 | 0.00 | 0.00 | 80 | 1016.5 |
| 20260505031248 | 76 | 149 | 8.7 | 12.2 | 0.00 | 0.21 | 0.00 | 56 | 1017.4 |
| 20260505031242 | 77 | 0.0 | 0.0 | 0.00 | 0.21 | 0.00 | 57 | 1017.4 | |
| 20260505031238 | 70 | 113 | 11.3 | 13.0 | 0.00 | 0.00 | 0.00 | 81 | 1016.5 |
| 20260505031231 | 78 | 0.0 | 0.0 | 0.00 | 0.21 | 0.00 | 52 | 1017.5 | |
| 20260505031225 | 80 | 0.0 | 0.0 | 0.00 | 0.21 | 0.00 | 56 | 1017.6 | |
| 20260505031220 | 78 | 0.0 | 0.0 | 0.00 | 0.21 | 0.00 | 51 | 1017.8 | |
| 20260505031214 | 77 | 0.0 | 0.0 | 0.00 | 0.21 | 0.00 | 54 | 1017.9 | |
| 20260505031210 | 76 | 0.0 | 0.0 | 0.00 | 0.21 | 0.00 | 49 | 1017.9 | |
| 20260505031204 | 76 | 0.0 | 0.0 | 0.00 | 0.21 | 0.00 | 50 | 1017.8 | |
| 20260505031158 | 76 | 0.0 | 0.0 | 0.00 | 0.21 | 0.00 | 49 | 1017.9 | |
| 20260505031153 | 76 | 0.0 | 2.6 | 0.00 | 0.21 | 0.00 | 49 | 1017.9 | |
| 20260505031148 | 76 | 256 | 2.6 | 4.3 | 0.00 | 0.21 | 0.00 | 47 | 1018.0 |
| 20260505031143 | 78 | 256 | 2.6 | 4.3 | 0.00 | 0.21 | 0.00 | 51 | 1018.1 |
| 20260505031139 | 71 | 124 | 11.3 | 13.0 | 0.00 | 0.00 | 0.00 | 80 | 1016.5 |
| 20260505031132 | 79 | 59 | 0.9 | 4.3 | 0.00 | 0.21 | 0.00 | 44 | 1018.0 |
| 20260505031126 | 80 | 59 | 2.6 | 5.2 | 0.00 | 0.21 | 0.00 | 50 | 1018.0 |
| 20260505031121 | 79 | 17 | 3.5 | 8.7 | 0.00 | 0.21 | 0.00 | 48 | 1018.0 |
| 20260505031115 | 79 | 22 | 6.1 | 8.7 | 0.00 | 0.21 | 0.00 | 48 | 1018.0 |
| 20260505031110 | 79 | 13 | 6.1 | 8.7 | 0.00 | 0.21 | 0.00 | 48 | 1018.0 |
| 20260505031104 | 71 | 126 | 11.3 | 13.9 | 0.00 | 0.00 | 0.00 | 81 | 1016.5 |
| 20260505031059 | 79 | 22 | 4.3 | 8.7 | 0.00 | 0.21 | 0.00 | 50 | 1018.1 |
| 20260505031054 | 78 | 28 | 5.2 | 9.6 | 0.00 | 0.21 | 0.00 | 46 | 1018.1 |
| 20260505031049 | 78 | 31 | 7.8 | 9.6 | 0.00 | 0.21 | 0.00 | 49 | 1018.1 |
| 20260505031043 | 77 | 36 | 4.3 | 8.7 | 0.00 | 0.21 | 0.00 | 51 | 1018.2 |
| 20260505031037 | 77 | 54 | 5.2 | 9.6 | 0.00 | 0.21 | 0.00 | 53 | 1018.3 |
| 20260505031030 | 75 | 122 | 13.9 | 17.4 | 0.00 | 0.00 | 0.00 | 73 | 1015.1 |
| 20260505031025 | 75 | 111 | 13.0 | 15.6 | 0.00 | 0.00 | 0.00 | 71 | 1015.1 |
| 20260505031020 | 76 | 117 | 13.0 | 17.4 | 0.00 | 0.00 | 0.00 | 70 | 1015.2 |
| 20260505031014 | 78 | 123 | 11.3 | 15.6 | 0.00 | 0.00 | 0.00 | 67 | 1015.2 |
| 20260505031010 | 74 | 130 | 13.0 | 18.2 | 0.00 | 0.00 | 0.00 | 73 | 1015.1 |
| 20260505031005 | 74 | 111 | 13.9 | 16.5 | 0.00 | 0.00 | 0.00 | 71 | 1014.9 |
| 20260505031000 | 74 | 106 | 13.0 | 17.4 | 0.00 | 0.00 | 0.00 | 72 | 1015.0 |
| 20260505030954 | 74 | 109 | 13.9 | 18.2 | 0.00 | 0.00 | 0.00 | 74 | 1015.2 |
| 20260505030949 | 74 | 119 | 13.0 | 16.5 | 0.00 | 0.00 | 0.00 | 72 | 1015.3 |
| 20260505030943 | 74 | 117 | 13.9 | 17.4 | 0.00 | 0.00 | 0.00 | 73 | 1015.3 |
| 20260505030938 | 73 | 121 | 13.0 | 17.4 | 0.00 | 0.00 | 0.00 | 75 | 1015.5 |
| 20260505030931 | 73 | 113 | 13.9 | 17.4 | 0.00 | 0.00 | 0.00 | 74 | 1015.8 |
| 20260505030925 | 73 | 120 | 13.0 | 17.4 | 0.00 | 0.00 | 0.00 | 75 | 1015.8 |
| 20260505030920 | 73 | 117 | 13.0 | 16.5 | 0.00 | 0.00 | 0.00 | 76 | 1015.8 |
| 20260505030914 | 73 | 114 | 12.2 | 16.5 | 0.00 | 0.00 | 0.00 | 76 | 1015.9 |
| 20260505030910 | 70 | 114 | 11.3 | 13.0 | 0.00 | 0.00 | 0.00 | 81 | 1016.5 |
| 20260505030904 | 72 | 105 | 13.0 | 17.4 | 0.00 | 0.00 | 0.00 | 76 | 1015.9 |
| 20260505030859 | 72 | 108 | 12.2 | 16.5 | 0.00 | 0.00 | 0.00 | 77 | 1016.1 |
| 20260505030853 | 72 | 118 | 13.0 | 16.5 | 0.00 | 0.00 | 0.00 | 75 | 1016.0 |
| 20260505030848 | 72 | 113 | 12.2 | 15.6 | 0.00 | 0.00 | 0.00 | 77 | 1016.2 |
| 20260505030842 | 72 | 113 | 11.3 | 15.6 | 0.00 | 0.00 | 0.00 | 78 | 1016.3 |
| 20260505030837 | 72 | 109 | 11.3 | 15.6 | 0.00 | 0.00 | 0.00 | 79 | 1016.4 |
| 20260505030830 | 71 | 121 | 10.4 | 13.0 | 0.00 | 0.00 | 0.00 | 79 | 1016.4 |
| 20260505030826 | 71 | 116 | 11.3 | 13.9 | 0.00 | 0.00 | 0.00 | 78 | 1016.4 |
| 20260505030820 | 71 | 118 | 10.4 | 13.9 | 0.00 | 0.00 | 0.00 | 80 | 1016.5 |
| 20260505030814 | 71 | 120 | 11.3 | 13.9 | 0.00 | 0.00 | 0.00 | 81 | 1016.5 |
| 20260505030809 | 70 | 115 | 11.3 | 13.9 | 0.00 | 0.00 | 0.00 | 79 | 1016.4 |
| 20260505030803 | 70 | 113 | 11.3 | 13.0 | 0.00 | 0.00 | 0.00 | 81 | 1016.5 |
| 20260505030621 | 71 | 126 | 11.3 | 13.9 | 0.00 | 0.00 | 0.00 | 81 | 1016.5 |
| 20260505030507 | 78 | 113 | 10.4 | 15.6 | 0.00 | 0.00 | 0.00 | 65 | 1015.2 |
| 20260505030502 | 78 | 132 | 11.3 | 15.6 | 0.00 | 0.00 | 0.00 | 64 | 1015.2 |
| 20260505030458 | 79 | 103 | 11.3 | 17.4 | 0.00 | 0.00 | 0.00 | 64 | 1015.2 |
| 20260505030453 | 78 | 117 | 11.3 | 17.4 | 0.00 | 0.00 | 0.00 | 68 | 1015.3 |
| 20260505030447 | 79 | 123 | 10.4 | 13.9 | 0.00 | 0.00 | 0.00 | 64 | 1015.3 |
| 20260505030441 | 79 | 111 | 10.4 | 13.0 | 0.00 | 0.00 | 0.00 | 64 | 1015.4 |
| 20260505030436 | 79 | 121 | 10.4 | 13.9 | 0.00 | 0.00 | 0.00 | 64 | 1015.5 |
| 20260505030432 | 70 | 114 | 11.3 | 13.0 | 0.00 | 0.00 | 0.00 | 81 | 1016.5 |
| 20260505030424 | 80 | 123 | 8.7 | 15.6 | 0.00 | 0.00 | 0.00 | 62 | 1015.6 |
| 20260505030418 | 74 | 130 | 13.0 | 18.2 | 0.00 | 0.00 | 0.00 | 73 | 1015.1 |
| 20260505030414 | 74 | 111 | 13.9 | 16.5 | 0.00 | 0.00 | 0.00 | 71 | 1014.9 |
| 20260505030408 | 74 | 106 | 13.0 | 17.4 | 0.00 | 0.00 | 0.00 | 72 | 1015.0 |
| 20260505030403 | 74 | 109 | 13.9 | 18.2 | 0.00 | 0.00 | 0.00 | 74 | 1015.2 |
| 20260505030357 | 74 | 119 | 13.0 | 16.5 | 0.00 | 0.00 | 0.00 | 72 | 1015.3 |
| 20260505030352 | 74 | 117 | 13.9 | 17.4 | 0.00 | 0.00 | 0.00 | 73 | 1015.3 |
| 20260505030348 | 73 | 121 | 13.0 | 17.4 | 0.00 | 0.00 | 0.00 | 75 | 1015.5 |
| 20260505030342 | 73 | 113 | 13.9 | 17.4 | 0.00 | 0.00 | 0.00 | 74 | 1015.8 |
| 20260505030336 | 73 | 120 | 13.0 | 17.4 | 0.00 | 0.00 | 0.00 | 75 | 1015.8 |
| 20260505030331 | 73 | 117 | 13.0 | 16.5 | 0.00 | 0.00 | 0.00 | 76 | 1015.8 |
| 20260505030324 | 73 | 114 | 12.2 | 16.5 | 0.00 | 0.00 | 0.00 | 76 | 1015.9 |
| 20260505030320 | 72 | 105 | 13.0 | 17.4 | 0.00 | 0.00 | 0.00 | 76 | 1015.9 |
| 20260505030314 | 72 | 113 | 12.2 | 15.6 | 0.00 | 0.00 | 0.00 | 77 | 1016.2 |
| 20260505030310 | 71 | 118 | 10.4 | 13.9 | 0.00 | 0.00 | 0.00 | 80 | 1016.5 |
| 20260505030305 | 72 | 108 | 12.2 | 16.5 | 0.00 | 0.00 | 0.00 | 77 | 1016.1 |
| 20260505030259 | 72 | 118 | 13.0 | 16.5 | 0.00 | 0.00 | 0.00 | 75 | 1016.0 |
| 20260505030253 | 72 | 113 | 11.3 | 15.6 | 0.00 | 0.00 | 0.00 | 78 | 1016.3 |
| 20260505030248 | 72 | 109 | 11.3 | 15.6 | 0.00 | 0.00 | 0.00 | 79 | 1016.4 |
| 20260505030242 | 71 | 121 | 10.4 | 13.0 | 0.00 | 0.00 | 0.00 | 79 | 1016.4 |
| 20260505030237 | 71 | 116 | 11.3 | 13.9 | 0.00 | 0.00 | 0.00 | 78 | 1016.4 |
| 20260505030231 | 71 | 120 | 11.3 | 13.9 | 0.00 | 0.00 | 0.00 | 81 | 1016.5 |
| 20260505030226 | 70 | 115 | 11.3 | 13.9 | 0.00 | 0.00 | 0.00 | 79 | 1016.4 |
| 20260505030058 | 71 | 124 | 11.3 | 13.0 | 0.00 | 0.00 | 0.00 | 80 | 1016.5 |
| 20260505025811 | 71 | 118 | 10.4 | 13.9 | 0.00 | 0.00 | 0.00 | 80 | 1016.5 |
| 20260505025643 | 70 | 115 | 11.3 | 13.9 | 0.00 | 0.00 | 0.00 | 79 | 1016.4 |
| 20260505025638 | 71 | 120 | 11.3 | 13.9 | 0.00 | 0.00 | 0.00 | 81 | 1016.5 |
| 20260505025634 | 80 | 109 | 10.4 | 15.6 | 0.00 | 0.00 | 0.00 | 62 | 1015.7 |
| 20260505025628 | 81 | 123 | 9.6 | 13.9 | 0.00 | 0.00 | 0.00 | 60 | 1015.7 |
| 20260505025624 | 81 | 117 | 7.8 | 12.2 | 0.00 | 0.00 | 0.00 | 59 | 1015.7 |
| 20260505025616 | 80 | 109 | 9.6 | 12.2 | 0.00 | 0.00 | 0.00 | 61 | 1015.7 |
| 20260505025610 | 80 | 123 | 9.6 | 12.2 | 0.00 | 0.00 | 0.00 | 59 | 1015.9 |
| 20260505025606 | 80 | 129 | 8.7 | 11.3 | 0.00 | 0.00 | 0.00 | 62 | 1015.9 |
| 20260505025600 | 79 | 120 | 8.7 | 13.0 | 0.00 | 0.00 | 0.00 | 59 | 1016.1 |
| 20260505025555 | 79 | 124 | 9.6 | 13.0 | 0.00 | 0.00 | 0.00 | 61 | 1016.1 |
| 20260505025550 | 79 | 130 | 9.6 | 13.0 | 0.00 | 0.00 | 0.00 | 62 | 1016.2 |
| 20260505025543 | 78 | 132 | 9.6 | 12.2 | 0.00 | 0.00 | 0.00 | 59 | 1016.3 |
| 20260505025538 | 79 | 132 | 8.7 | 12.2 | 0.00 | 0.00 | 0.00 | 60 | 1016.5 |
| 20260505025533 | 79 | 139 | 7.8 | 12.2 | 0.00 | 0.00 | 0.00 | 58 | 1016.6 |
| 20260505025528 | 71 | 124 | 11.3 | 13.0 | 0.00 | 0.00 | 0.00 | 80 | 1016.5 |
| 20260505025523 | 75 | 122 | 13.9 | 17.4 | 0.00 | 0.00 | 0.00 | 73 | 1015.1 |
| 20260505025516 | 75 | 111 | 13.0 | 15.6 | 0.00 | 0.00 | 0.00 | 71 | 1015.1 |
| 20260505025510 | 76 | 117 | 13.0 | 17.4 | 0.00 | 0.00 | 0.00 | 70 | 1015.2 |
| 20260505025505 | 70 | 113 | 11.3 | 13.0 | 0.00 | 0.00 | 0.00 | 81 | 1016.5 |
| 20260505025459 | 74 | 130 | 13.0 | 18.2 | 0.00 | 0.00 | 0.00 | 73 | 1015.1 |
| 20260505025454 | 72 | 105 | 13.0 | 17.4 | 0.00 | 0.00 | 0.00 | 76 | 1015.9 |
| 20260505025449 | 72 | 108 | 12.2 | 16.5 | 0.00 | 0.00 | 0.00 | 77 | 1016.1 |
| 20260505025444 | 72 | 109 | 11.3 | 15.6 | 0.00 | 0.00 | 0.00 | 79 | 1016.4 |
| 20260505025438 | 71 | 121 | 10.4 | 13.0 | 0.00 | 0.00 | 0.00 | 79 | 1016.4 |
| 20260505025434 | 71 | 116 | 11.3 | 13.9 | 0.00 | 0.00 | 0.00 | 78 | 1016.4 |
| 20260505025429 | 70 | 114 | 11.3 | 13.0 | 0.00 | 0.00 | 0.00 | 81 | 1016.5 |
| 20260505025300 | 74 | 106 | 13.0 | 17.4 | 0.00 | 0.00 | 0.00 | 72 | 1015.0 |
| 20260505025255 | 74 | 109 | 13.9 | 18.2 | 0.00 | 0.00 | 0.00 | 74 | 1015.2 |
| 20260505025249 | 74 | 119 | 13.0 | 16.5 | 0.00 | 0.00 | 0.00 | 72 | 1015.3 |
| 20260505025244 | 74 | 117 | 13.9 | 17.4 | 0.00 | 0.00 | 0.00 | 73 | 1015.3 |
| 20260505025238 | 73 | 121 | 13.0 | 17.4 | 0.00 | 0.00 | 0.00 | 75 | 1015.5 |
| 20260505025234 | 73 | 113 | 13.9 | 17.4 | 0.00 | 0.00 | 0.00 | 74 | 1015.8 |
| 20260505025228 | 73 | 120 | 13.0 | 17.4 | 0.00 | 0.00 | 0.00 | 75 | 1015.8 |
| 20260505025223 | 73 | 117 | 13.0 | 16.5 | 0.00 | 0.00 | 0.00 | 76 | 1015.8 |
| 20260505025217 | 73 | 114 | 12.2 | 16.5 | 0.00 | 0.00 | 0.00 | 76 | 1015.9 |
| 20260505025210 | 72 | 118 | 13.0 | 16.5 | 0.00 | 0.00 | 0.00 | 75 | 1016.0 |
| 20260505025205 | 71 | 118 | 10.4 | 13.9 | 0.00 | 0.00 | 0.00 | 80 | 1016.5 |
| 20260505025200 | 72 | 113 | 12.2 | 15.6 | 0.00 | 0.00 | 0.00 | 77 | 1016.2 |
| 20260505025154 | 72 | 113 | 11.3 | 15.6 | 0.00 | 0.00 | 0.00 | 78 | 1016.3 |
| 20260505025150 | 71 | 120 | 11.3 | 13.9 | 0.00 | 0.00 | 0.00 | 81 | 1016.5 |
| 20260505025144 | 70 | 115 | 11.3 | 13.9 | 0.00 | 0.00 | 0.00 | 79 | 1016.4 |
| 20260505024854 | 72 | 108 | 12.2 | 16.5 | 0.00 | 0.00 | 0.00 | 77 | 1016.1 |
| 20260505024849 | 71 | 121 | 10.4 | 13.0 | 0.00 | 0.00 | 0.00 | 79 | 1016.4 |
| 20260505024843 | 72 | 109 | 11.3 | 15.6 | 0.00 | 0.00 | 0.00 | 79 | 1016.4 |
| 20260505024838 | 78 | 132 | 7.0 | 10.4 | 0.00 | 0.00 | 0.00 | 57 | 1016.8 |
| 20260505024832 | 71 | 116 | 11.3 | 13.9 | 0.00 | 0.00 | 0.00 | 78 | 1016.4 |
| 20260505024827 | 70 | 114 | 11.3 | 13.0 | 0.00 | 0.00 | 0.00 | 81 | 1016.5 |
| 20260505024658 | 71 | 118 | 10.4 | 13.9 | 0.00 | 0.00 | 0.00 | 80 | 1016.5 |
| 20260505024654 | 78 | 140 | 7.8 | 11.3 | 0.00 | 0.00 | 0.00 | 60 | 1017.0 |
| 20260505024648 | 78 | 141 | 8.7 | 12.2 | 0.00 | 0.09 | 0.00 | 57 | 1017.0 |
| 20260505024643 | 77 | 144 | 7.8 | 10.4 | 0.00 | 0.21 | 0.00 | 59 | 1017.0 |
| 20260505024637 | 78 | 132 | 8.7 | 11.3 | 0.00 | 0.21 | 0.00 | 57 | 1017.1 |
| 20260505024632 | 77 | 130 | 7.8 | 12.2 | 0.00 | 0.21 | 0.00 | 60 | 1017.2 |
| 20260505024626 | 76 | 149 | 8.7 | 12.2 | 0.00 | 0.21 | 0.00 | 56 | 1017.4 |
| 20260505024622 | 78 | 123 | 11.3 | 15.6 | 0.00 | 0.00 | 0.00 | 67 | 1015.2 |
| 20260505024616 | 78 | 111 | 10.4 | 15.6 | 0.00 | 0.00 | 0.00 | 66 | 1015.3 |
| 20260505024612 | 78 | 113 | 10.4 | 15.6 | 0.00 | 0.00 | 0.00 | 65 | 1015.2 |
| 20260505024607 | 78 | 132 | 11.3 | 15.6 | 0.00 | 0.00 | 0.00 | 64 | 1015.2 |
| 20260505024558 | 79 | 103 | 11.3 | 17.4 | 0.00 | 0.00 | 0.00 | 64 | 1015.2 |
| 20260505024554 | 78 | 117 | 11.3 | 17.4 | 0.00 | 0.00 | 0.00 | 68 | 1015.3 |
| 20260505024548 | 75 | 122 | 13.9 | 17.4 | 0.00 | 0.00 | 0.00 | 73 | 1015.1 |
| 20260505024543 | 75 | 111 | 13.0 | 15.6 | 0.00 | 0.00 | 0.00 | 71 | 1015.1 |
| 20260505024538 | 76 | 117 | 13.0 | 17.4 | 0.00 | 0.00 | 0.00 | 70 | 1015.2 |
| 20260505024532 | 72 | 113 | 11.3 | 15.6 | 0.00 | 0.00 | 0.00 | 78 | 1016.3 |
| 20260505024528 | 70 | 113 | 11.3 | 13.0 | 0.00 | 0.00 | 0.00 | 81 | 1016.5 |
| 20260505024522 | 71 | 120 | 11.3 | 13.9 | 0.00 | 0.00 | 0.00 | 81 | 1016.5 |
| 20260505024517 | 74 | 130 | 13.0 | 18.2 | 0.00 | 0.00 | 0.00 | 73 | 1015.1 |
| 20260505024511 | 74 | 106 | 13.0 | 17.4 | 0.00 | 0.00 | 0.00 | 72 | 1015.0 |
| 20260505024506 | 70 | 115 | 11.3 | 13.9 | 0.00 | 0.00 | 0.00 | 79 | 1016.4 |
| 20260505024459 | 74 | 111 | 13.9 | 16.5 | 0.00 | 0.00 | 0.00 | 71 | 1014.9 |
| 20260505024453 | 74 | 109 | 13.9 | 18.2 | 0.00 | 0.00 | 0.00 | 74 | 1015.2 |
| 20260505024448 | 74 | 119 | 13.0 | 16.5 | 0.00 | 0.00 | 0.00 | 72 | 1015.3 |
| 20260505024442 | 74 | 117 | 13.9 | 17.4 | 0.00 | 0.00 | 0.00 | 73 | 1015.3 |
| 20260505024438 | 73 | 121 | 13.0 | 17.4 | 0.00 | 0.00 | 0.00 | 75 | 1015.5 |
| 20260505024432 | 73 | 113 | 13.9 | 17.4 | 0.00 | 0.00 | 0.00 | 74 | 1015.8 |
| 20260505024427 | 73 | 120 | 13.0 | 17.4 | 0.00 | 0.00 | 0.00 | 75 | 1015.8 |
| 20260505024421 | 73 | 114 | 12.2 | 16.5 | 0.00 | 0.00 | 0.00 | 76 | 1015.9 |
| 20260505024416 | 73 | 117 | 13.0 | 16.5 | 0.00 | 0.00 | 0.00 | 76 | 1015.8 |
| 20260505024410 | 72 | 105 | 13.0 | 17.4 | 0.00 | 0.00 | 0.00 | 76 | 1015.9 |
| 20260505024406 | 72 | 118 | 13.0 | 16.5 | 0.00 | 0.00 | 0.00 | 75 | 1016.0 |
| 20260505024358 | 72 | 113 | 12.2 | 15.6 | 0.00 | 0.00 | 0.00 | 77 | 1016.2 |
| 20260505024352 | 72 | 109 | 11.3 | 15.6 | 0.00 | 0.00 | 0.00 | 79 | 1016.4 |
| 20260505024348 | 72 | 108 | 12.2 | 16.5 | 0.00 | 0.00 | 0.00 | 77 | 1016.1 |
| 20260505024343 | 71 | 121 | 10.4 | 13.0 | 0.00 | 0.00 | 0.00 | 79 | 1016.4 |
| 20260505024215 | 70 | 114 | 11.3 | 13.0 | 0.00 | 0.00 | 0.00 | 81 | 1016.5 |
| 20260505024209 | 71 | 118 | 10.4 | 13.9 | 0.00 | 0.00 | 0.00 | 80 | 1016.5 |
| 20260505024040 | 72 | 113 | 11.3 | 15.6 | 0.00 | 0.00 | 0.00 | 78 | 1016.3 |
| 20260505024034 | 78 | 123 | 11.3 | 15.6 | 0.00 | 0.00 | 0.00 | 67 | 1015.2 |
| 20260505024028 | 75 | 122 | 13.9 | 17.4 | 0.00 | 0.00 | 0.00 | 73 | 1015.1 |
| 20260505024024 | 71 | 120 | 11.3 | 13.9 | 0.00 | 0.00 | 0.00 | 81 | 1016.5 |
| 20260505024019 | 70 | 115 | 11.3 | 13.9 | 0.00 | 0.00 | 0.00 | 79 | 1016.4 |
| 20260505024013 | 75 | 111 | 13.0 | 15.6 | 0.00 | 0.00 | 0.00 | 71 | 1015.1 |
| 20260505024008 | 76 | 117 | 13.0 | 17.4 | 0.00 | 0.00 | 0.00 | 70 | 1015.2 |
| 20260505024002 | 74 | 130 | 13.0 | 18.2 | 0.00 | 0.00 | 0.00 | 73 | 1015.1 |
| 20260505023955 | 74 | 111 | 13.9 | 16.5 | 0.00 | 0.00 | 0.00 | 71 | 1014.9 |
| 20260505023950 | 74 | 106 | 13.0 | 17.4 | 0.00 | 0.00 | 0.00 | 72 | 1015.0 |
| 20260505023944 | 74 | 109 | 13.9 | 18.2 | 0.00 | 0.00 | 0.00 | 74 | 1015.2 |
| 20260505023940 | 74 | 119 | 13.0 | 16.5 | 0.00 | 0.00 | 0.00 | 72 | 1015.3 |
| 20260505023934 | 74 | 117 | 13.9 | 17.4 | 0.00 | 0.00 | 0.00 | 73 | 1015.3 |
| 20260505023930 | 73 | 121 | 13.0 | 17.4 | 0.00 | 0.00 | 0.00 | 75 | 1015.5 |
| 20260505023925 | 73 | 113 | 13.9 | 17.4 | 0.00 | 0.00 | 0.00 | 74 | 1015.8 |
| 20260505023919 | 73 | 120 | 13.0 | 17.4 | 0.00 | 0.00 | 0.00 | 75 | 1015.8 |
| 20260505023913 | 73 | 117 | 13.0 | 16.5 | 0.00 | 0.00 | 0.00 | 76 | 1015.8 |
| 20260505023908 | 73 | 114 | 12.2 | 16.5 | 0.00 | 0.00 | 0.00 | 76 | 1015.9 |
| 20260505023904 | 72 | 105 | 13.0 | 17.4 | 0.00 | 0.00 | 0.00 | 76 | 1015.9 |
| 20260505023858 | 72 | 109 | 11.3 | 15.6 | 0.00 | 0.00 | 0.00 | 79 | 1016.4 |
| 20260505023851 | 71 | 121 | 10.4 | 13.0 | 0.00 | 0.00 | 0.00 | 79 | 1016.4 |
| 20260505023846 | 72 | 118 | 13.0 | 16.5 | 0.00 | 0.00 | 0.00 | 75 | 1016.0 |
| 20260505023840 | 72 | 108 | 12.2 | 16.5 | 0.00 | 0.00 | 0.00 | 77 | 1016.1 |
| 20260505023836 | 72 | 113 | 12.2 | 15.6 | 0.00 | 0.00 | 0.00 | 77 | 1016.2 |
| 20260505023709 | 71 | 116 | 11.3 | 13.9 | 0.00 | 0.00 | 0.00 | 78 | 1016.4 |
| 20260505023703 | 70 | 114 | 11.3 | 13.0 | 0.00 | 0.00 | 0.00 | 81 | 1016.5 |
| 20260505023534 | 71 | 120 | 11.3 | 13.9 | 0.00 | 0.00 | 0.00 | 81 | 1016.5 |
| 20260505023529 | 70 | 115 | 11.3 | 13.9 | 0.00 | 0.00 | 0.00 | 79 | 1016.4 |
| 20260505023404 | 71 | 121 | 10.4 | 13.0 | 0.00 | 0.00 | 0.00 | 79 | 1016.4 |
| 20260505023236 | 74 | 109 | 13.9 | 18.2 | 0.00 | 0.00 | 0.00 | 74 | 1015.2 |
| 20260505023231 | 74 | 119 | 13.0 | 16.5 | 0.00 | 0.00 | 0.00 | 72 | 1015.3 |
| 20260505023225 | 74 | 117 | 13.9 | 17.4 | 0.00 | 0.00 | 0.00 | 73 | 1015.3 |
| 20260505023220 | 73 | 121 | 13.0 | 17.4 | 0.00 | 0.00 | 0.00 | 75 | 1015.5 |
| 20260505023214 | 73 | 113 | 13.9 | 17.4 | 0.00 | 0.00 | 0.00 | 74 | 1015.8 |
| 20260505023210 | 73 | 120 | 13.0 | 17.4 | 0.00 | 0.00 | 0.00 | 75 | 1015.8 |
| 20260505023205 | 71 | 118 | 10.4 | 13.9 | 0.00 | 0.00 | 0.00 | 80 | 1016.5 |
| 20260505023159 | 73 | 117 | 13.0 | 16.5 | 0.00 | 0.00 | 0.00 | 76 | 1015.8 |
| 20260505023154 | 70 | 114 | 11.3 | 13.0 | 0.00 | 0.00 | 0.00 | 81 | 1016.5 |
| 20260505023148 | 71 | 116 | 11.3 | 13.9 | 0.00 | 0.00 | 0.00 | 78 | 1016.4 |
| 20260505023021 | 72 | 108 | 12.2 | 16.5 | 0.00 | 0.00 | 0.00 | 77 | 1016.1 |
| 20260505023015 | 72 | 113 | 12.2 | 15.6 | 0.00 | 0.00 | 0.00 | 77 | 1016.2 |
| 20260505023010 | 71 | 120 | 11.3 | 13.9 | 0.00 | 0.00 | 0.00 | 81 | 1016.5 |
| 20260505023004 | 72 | 113 | 11.3 | 15.6 | 0.00 | 0.00 | 0.00 | 78 | 1016.3 |
| 20260505022836 | 72 | 118 | 13.0 | 16.5 | 0.00 | 0.00 | 0.00 | 75 | 1016.0 |
| 20260505022832 | 72 | 109 | 11.3 | 15.6 | 0.00 | 0.00 | 0.00 | 79 | 1016.4 |
| 20260505022827 | 71 | 121 | 10.4 | 13.0 | 0.00 | 0.00 | 0.00 | 79 | 1016.4 |
| 20260505022700 | 71 | 118 | 10.4 | 13.9 | 0.00 | 0.00 | 0.00 | 80 | 1016.5 |
| 20260505022655 | 70 | 114 | 11.3 | 13.0 | 0.00 | 0.00 | 0.00 | 81 | 1016.5 |
| 20260505022527 | 71 | 120 | 11.3 | 13.9 | 0.00 | 0.00 | 0.00 | 81 | 1016.5 |
| 20260505022522 | 75 | 111 | 13.0 | 15.6 | 0.00 | 0.00 | 0.00 | 71 | 1015.1 |
| 20260505022518 | 74 | 111 | 13.9 | 16.5 | 0.00 | 0.00 | 0.00 | 71 | 1014.9 |
| 20260505022512 | 74 | 106 | 13.0 | 17.4 | 0.00 | 0.00 | 0.00 | 72 | 1015.0 |
| 20260505022507 | 74 | 130 | 13.0 | 18.2 | 0.00 | 0.00 | 0.00 | 73 | 1015.1 |
| 20260505022501 | 74 | 117 | 13.9 | 17.4 | 0.00 | 0.00 | 0.00 | 73 | 1015.3 |
| 20260505022456 | 72 | 108 | 12.2 | 16.5 | 0.00 | 0.00 | 0.00 | 77 | 1016.1 |
| 20260505022450 | 72 | 113 | 12.2 | 15.6 | 0.00 | 0.00 | 0.00 | 77 | 1016.2 |
| 20260505022446 | 72 | 113 | 11.3 | 15.6 | 0.00 | 0.00 | 0.00 | 78 | 1016.3 |
| 20260505022318 | 79 | 121 | 10.4 | 13.9 | 0.00 | 0.00 | 0.00 | 64 | 1015.5 |
| 20260505022313 | 80 | 123 | 8.7 | 15.6 | 0.00 | 0.00 | 0.00 | 62 | 1015.6 |
| 20260505022307 | 80 | 109 | 10.4 | 15.6 | 0.00 | 0.00 | 0.00 | 62 | 1015.7 |
| 20260505022304 | 81 | 123 | 9.6 | 13.9 | 0.00 | 0.00 | 0.00 | 60 | 1015.7 |
| 20260505022258 | 81 | 117 | 7.8 | 12.2 | 0.00 | 0.00 | 0.00 | 59 | 1015.7 |
| 20260505022252 | 80 | 109 | 9.6 | 12.2 | 0.00 | 0.00 | 0.00 | 61 | 1015.7 |
| 20260505022247 | 80 | 123 | 9.6 | 12.2 | 0.00 | 0.00 | 0.00 | 59 | 1015.9 |
| 20260505022241 | 74 | 109 | 13.9 | 18.2 | 0.00 | 0.00 | 0.00 | 74 | 1015.2 |
| 20260505022234 | 74 | 119 | 13.0 | 16.5 | 0.00 | 0.00 | 0.00 | 72 | 1015.3 |
| 20260505022230 | 73 | 121 | 13.0 | 17.4 | 0.00 | 0.00 | 0.00 | 75 | 1015.5 |
| 20260505022224 | 73 | 113 | 13.9 | 17.4 | 0.00 | 0.00 | 0.00 | 74 | 1015.8 |
| 20260505022219 | 73 | 120 | 13.0 | 17.4 | 0.00 | 0.00 | 0.00 | 75 | 1015.8 |
| 20260505022213 | 73 | 117 | 13.0 | 16.5 | 0.00 | 0.00 | 0.00 | 76 | 1015.8 |
| 20260505022209 | 73 | 114 | 12.2 | 16.5 | 0.00 | 0.00 | 0.00 | 76 | 1015.9 |
| 20260505022203 | 72 | 109 | 11.3 | 15.6 | 0.00 | 0.00 | 0.00 | 79 | 1016.4 |
| 20260505022158 | 71 | 121 | 10.4 | 13.0 | 0.00 | 0.00 | 0.00 | 79 | 1016.4 |
| 20260505022152 | 72 | 105 | 13.0 | 17.4 | 0.00 | 0.00 | 0.00 | 76 | 1015.9 |
| 20260505022147 | 72 | 118 | 13.0 | 16.5 | 0.00 | 0.00 | 0.00 | 75 | 1016.0 |
| 20260505022141 | 71 | 116 | 11.3 | 13.9 | 0.00 | 0.00 | 0.00 | 78 | 1016.4 |
| 20260505022134 | 71 | 118 | 10.4 | 13.9 | 0.00 | 0.00 | 0.00 | 80 | 1016.5 |
| 20260505022129 | 70 | 114 | 11.3 | 13.0 | 0.00 | 0.00 | 0.00 | 81 | 1016.5 |
| 20260505022002 | 78 | 113 | 10.4 | 15.6 | 0.00 | 0.00 | 0.00 | 65 | 1015.2 |
| 20260505021957 | 78 | 132 | 11.3 | 15.6 | 0.00 | 0.00 | 0.00 | 64 | 1015.2 |
| 20260505021952 | 78 | 123 | 11.3 | 15.6 | 0.00 | 0.00 | 0.00 | 67 | 1015.2 |
| 20260505021946 | 76 | 117 | 13.0 | 17.4 | 0.00 | 0.00 | 0.00 | 70 | 1015.2 |
| 20260505021942 | 72 | 108 | 12.2 | 16.5 | 0.00 | 0.00 | 0.00 | 77 | 1016.1 |
| 20260505021935 | 75 | 122 | 13.9 | 17.4 | 0.00 | 0.00 | 0.00 | 73 | 1015.1 |
| 20260505021929 | 75 | 111 | 13.0 | 15.6 | 0.00 | 0.00 | 0.00 | 71 | 1015.1 |
| 20260505021924 | 72 | 113 | 12.2 | 15.6 | 0.00 | 0.00 | 0.00 | 77 | 1016.2 |
| 20260505021918 | 74 | 111 | 13.9 | 16.5 | 0.00 | 0.00 | 0.00 | 71 | 1014.9 |
| 20260505021913 | 74 | 106 | 13.0 | 17.4 | 0.00 | 0.00 | 0.00 | 72 | 1015.0 |
| 20260505021909 | 74 | 130 | 13.0 | 18.2 | 0.00 | 0.00 | 0.00 | 73 | 1015.1 |
| 20260505021903 | 74 | 117 | 13.9 | 17.4 | 0.00 | 0.00 | 0.00 | 73 | 1015.3 |
| 20260505021858 | 72 | 113 | 11.3 | 15.6 | 0.00 | 0.00 | 0.00 | 78 | 1016.3 |
| 20260505021729 | 74 | 109 | 13.9 | 18.2 | 0.00 | 0.00 | 0.00 | 74 | 1015.2 |
| 20260505021723 | 74 | 119 | 13.0 | 16.5 | 0.00 | 0.00 | 0.00 | 72 | 1015.3 |
| 20260505021718 | 78 | 117 | 11.3 | 17.4 | 0.00 | 0.00 | 0.00 | 68 | 1015.3 |
| 20260505021712 | 73 | 121 | 13.0 | 17.4 | 0.00 | 0.00 | 0.00 | 75 | 1015.5 |
| 20260505021708 | 73 | 113 | 13.9 | 17.4 | 0.00 | 0.00 | 0.00 | 74 | 1015.8 |
| 20260505021702 | 72 | 109 | 11.3 | 15.6 | 0.00 | 0.00 | 0.00 | 79 | 1016.4 |
| 20260505021657 | 73 | 114 | 12.2 | 16.5 | 0.00 | 0.00 | 0.00 | 76 | 1015.9 |
| 20260505021652 | 71 | 121 | 10.4 | 13.0 | 0.00 | 0.00 | 0.00 | 79 | 1016.4 |
| 20260505021646 | 73 | 120 | 13.0 | 17.4 | 0.00 | 0.00 | 0.00 | 75 | 1015.8 |
| 20260505021642 | 73 | 117 | 13.0 | 16.5 | 0.00 | 0.00 | 0.00 | 76 | 1015.8 |
| 20260505021636 | 72 | 105 | 13.0 | 17.4 | 0.00 | 0.00 | 0.00 | 76 | 1015.9 |
| 20260505021628 | 72 | 118 | 13.0 | 16.5 | 0.00 | 0.00 | 0.00 | 75 | 1016.0 |
| 20260505021624 | 71 | 116 | 11.3 | 13.9 | 0.00 | 0.00 | 0.00 | 78 | 1016.4 |
| 20260505021618 | 71 | 118 | 10.4 | 13.9 | 0.00 | 0.00 | 0.00 | 80 | 1016.5 |
| 20260505021604 | 70 | 114 | 11.3 | 13.0 | 0.00 | 0.00 | 0.00 | 81 | 1016.5 |
| 20260505021447 | 72 | 113 | 12.2 | 15.6 | 0.00 | 0.00 | 0.00 | 77 | 1016.2 |
| 20260505021317 | 72 | 113 | 11.3 | 15.6 | 0.00 | 0.00 | 0.00 | 78 | 1016.3 |
| 20260505021312 | 78 | 123 | 11.3 | 15.6 | 0.00 | 0.00 | 0.00 | 67 | 1015.2 |
| 20260505021306 | 76 | 117 | 13.0 | 17.4 | 0.00 | 0.00 | 0.00 | 70 | 1015.2 |
| 20260505021302 | 75 | 122 | 13.9 | 17.4 | 0.00 | 0.00 | 0.00 | 73 | 1015.1 |
| 20260505021256 | 75 | 111 | 13.0 | 15.6 | 0.00 | 0.00 | 0.00 | 71 | 1015.1 |
| 20260505021251 | 74 | 111 | 13.9 | 16.5 | 0.00 | 0.00 | 0.00 | 71 | 1014.9 |
| 20260505021246 | 74 | 106 | 13.0 | 17.4 | 0.00 | 0.00 | 0.00 | 72 | 1015.0 |
| 20260505021240 | 74 | 130 | 13.0 | 18.2 | 0.00 | 0.00 | 0.00 | 73 | 1015.1 |
| 20260505021236 | 74 | 109 | 13.9 | 18.2 | 0.00 | 0.00 | 0.00 | 74 | 1015.2 |
| 20260505021230 | 74 | 119 | 13.0 | 16.5 | 0.00 | 0.00 | 0.00 | 72 | 1015.3 |
| 20260505021223 | 74 | 117 | 13.9 | 17.4 | 0.00 | 0.00 | 0.00 | 73 | 1015.3 |
| 20260505021218 | 73 | 121 | 13.0 | 17.4 | 0.00 | 0.00 | 0.00 | 75 | 1015.5 |
| 20260505021212 | 73 | 114 | 12.2 | 16.5 | 0.00 | 0.00 | 0.00 | 76 | 1015.9 |
| 20260505021208 | 72 | 109 | 11.3 | 15.6 | 0.00 | 0.00 | 0.00 | 79 | 1016.4 |
| 20260505021202 | 71 | 121 | 10.4 | 13.0 | 0.00 | 0.00 | 0.00 | 79 | 1016.4 |
| 20260505021036 | 71 | 116 | 11.3 | 13.9 | 0.00 | 0.00 | 0.00 | 78 | 1016.4 |
| 20260505021030 | 73 | 113 | 13.9 | 17.4 | 0.00 | 0.00 | 0.00 | 74 | 1015.8 |
| 20260505021026 | 73 | 120 | 13.0 | 17.4 | 0.00 | 0.00 | 0.00 | 75 | 1015.8 |
| 20260505021018 | 71 | 118 | 10.4 | 13.9 | 0.00 | 0.00 | 0.00 | 80 | 1016.5 |
| 20260505021012 | 73 | 117 | 13.0 | 16.5 | 0.00 | 0.00 | 0.00 | 76 | 1015.8 |
| 20260505021008 | 72 | 105 | 13.0 | 17.4 | 0.00 | 0.00 | 0.00 | 76 | 1015.9 |
| 20260505020842 | 72 | 113 | 12.2 | 15.6 | 0.00 | 0.00 | 0.00 | 77 | 1016.2 |
| 20260505020836 | 72 | 113 | 11.3 | 15.6 | 0.00 | 0.00 | 0.00 | 78 | 1016.3 |
| 20260505020710 | 72 | 109 | 11.3 | 15.6 | 0.00 | 0.00 | 0.00 | 79 | 1016.4 |
| 20260505020541 | 72 | 118 | 13.0 | 16.5 | 0.00 | 0.00 | 0.00 | 75 | 1016.0 |
| 20260505020535 | 71 | 116 | 11.3 | 13.9 | 0.00 | 0.00 | 0.00 | 78 | 1016.4 |
| 20260505020530 | 71 | 118 | 10.4 | 13.9 | 0.00 | 0.00 | 0.00 | 80 | 1016.5 |
| 20260505020401 | 79 | 111 | 10.4 | 13.0 | 0.00 | 0.00 | 0.00 | 64 | 1015.4 |
| 20260505020356 | 78 | 111 | 10.4 | 15.6 | 0.00 | 0.00 | 0.00 | 66 | 1015.3 |
| 20260505020352 | 74 | 111 | 13.9 | 16.5 | 0.00 | 0.00 | 0.00 | 71 | 1014.9 |
| 20260505020347 | 78 | 113 | 10.4 | 15.6 | 0.00 | 0.00 | 0.00 | 65 | 1015.2 |
| 20260505020342 | 78 | 132 | 11.3 | 15.6 | 0.00 | 0.00 | 0.00 | 64 | 1015.2 |
| 20260505020336 | 74 | 130 | 13.0 | 18.2 | 0.00 | 0.00 | 0.00 | 73 | 1015.1 |
| 20260505020331 | 72 | 108 | 12.2 | 16.5 | 0.00 | 0.00 | 0.00 | 77 | 1016.1 |
| 20260505020325 | 78 | 123 | 11.3 | 15.6 | 0.00 | 0.00 | 0.00 | 67 | 1015.2 |
| 20260505020320 | 76 | 117 | 13.0 | 17.4 | 0.00 | 0.00 | 0.00 | 70 | 1015.2 |
| 20260505020313 | 75 | 111 | 13.0 | 15.6 | 0.00 | 0.00 | 0.00 | 71 | 1015.1 |
| 20260505020307 | 74 | 109 | 13.9 | 18.2 | 0.00 | 0.00 | 0.00 | 74 | 1015.2 |
| 20260505020303 | 74 | 119 | 13.0 | 16.5 | 0.00 | 0.00 | 0.00 | 72 | 1015.3 |
| 20260505020257 | 74 | 117 | 13.9 | 17.4 | 0.00 | 0.00 | 0.00 | 73 | 1015.3 |
| 20260505020252 | 73 | 121 | 13.0 | 17.4 | 0.00 | 0.00 | 0.00 | 75 | 1015.5 |
| 20260505020247 | 73 | 113 | 13.9 | 17.4 | 0.00 | 0.00 | 0.00 | 74 | 1015.8 |
| 20260505020241 | 73 | 120 | 13.0 | 17.4 | 0.00 | 0.00 | 0.00 | 75 | 1015.8 |
| 20260505020235 | 73 | 117 | 13.0 | 16.5 | 0.00 | 0.00 | 0.00 | 76 | 1015.8 |
| 20260505020231 | 72 | 105 | 13.0 | 17.4 | 0.00 | 0.00 | 0.00 | 76 | 1015.9 |
| 20260505020226 | 72 | 113 | 12.2 | 15.6 | 0.00 | 0.00 | 0.00 | 77 | 1016.2 |
| 20260505020220 | 72 | 113 | 11.3 | 15.6 | 0.00 | 0.00 | 0.00 | 78 | 1016.3 |
| 20260505020213 | 71 | 121 | 10.4 | 13.0 | 0.00 | 0.00 | 0.00 | 79 | 1016.4 |
| 20260505020208 | 72 | 109 | 11.3 | 15.6 | 0.00 | 0.00 | 0.00 | 79 | 1016.4 |
| 20260505020041 | 71 | 116 | 11.3 | 13.9 | 0.00 | 0.00 | 0.00 | 78 | 1016.4 |
| 20260505020035 | 72 | 118 | 13.0 | 16.5 | 0.00 | 0.00 | 0.00 | 75 | 1016.0 |
| 20260505015908 | 74 | 106 | 13.0 | 17.4 | 0.00 | 0.00 | 0.00 | 72 | 1015.0 |
| 20260505015902 | 74 | 111 | 13.9 | 16.5 | 0.00 | 0.00 | 0.00 | 71 | 1014.9 |
| 20260505015858 | 74 | 130 | 13.0 | 18.2 | 0.00 | 0.00 | 0.00 | 73 | 1015.1 |
| 20260505015853 | 72 | 108 | 12.2 | 16.5 | 0.00 | 0.00 | 0.00 | 77 | 1016.1 |
| 20260505015726 | 74 | 117 | 13.9 | 17.4 | 0.00 | 0.00 | 0.00 | 73 | 1015.3 |
| 20260505015721 | 73 | 113 | 13.9 | 17.4 | 0.00 | 0.00 | 0.00 | 74 | 1015.8 |
| 20260505015717 | 72 | 105 | 13.0 | 17.4 | 0.00 | 0.00 | 0.00 | 76 | 1015.9 |
| 20260505015711 | 72 | 113 | 11.3 | 15.6 | 0.00 | 0.00 | 0.00 | 78 | 1016.3 |
| 20260505015704 | 72 | 109 | 11.3 | 15.6 | 0.00 | 0.00 | 0.00 | 79 | 1016.4 |
| 20260505015700 | 72 | 113 | 12.2 | 15.6 | 0.00 | 0.00 | 0.00 | 77 | 1016.2 |
| 20260505015654 | 71 | 121 | 10.4 | 13.0 | 0.00 | 0.00 | 0.00 | 79 | 1016.4 |
| 20260505015525 | 74 | 119 | 13.0 | 16.5 | 0.00 | 0.00 | 0.00 | 72 | 1015.3 |
| 20260505015521 | 73 | 121 | 13.0 | 17.4 | 0.00 | 0.00 | 0.00 | 75 | 1015.5 |
| 20260505015516 | 73 | 120 | 13.0 | 17.4 | 0.00 | 0.00 | 0.00 | 75 | 1015.8 |
| 20260505015510 | 73 | 117 | 13.0 | 16.5 | 0.00 | 0.00 | 0.00 | 76 | 1015.8 |
| 20260505015503 | 73 | 114 | 12.2 | 16.5 | 0.00 | 0.00 | 0.00 | 76 | 1015.9 |
| 20260505015457 | 72 | 118 | 13.0 | 16.5 | 0.00 | 0.00 | 0.00 | 75 | 1016.0 |
| 20260505015211 | 72 | 109 | 11.3 | 15.6 | 0.00 | 0.00 | 0.00 | 79 | 1016.4 |
| 20260505015205 | 79 | 103 | 11.3 | 17.4 | 0.00 | 0.00 | 0.00 | 64 | 1015.2 |
| 20260505015158 | 72 | 113 | 11.3 | 15.6 | 0.00 | 0.00 | 0.00 | 78 | 1016.3 |
| 20260505015154 | 72 | 113 | 12.2 | 15.6 | 0.00 | 0.00 | 0.00 | 77 | 1016.2 |
| 20260505015148 | 78 | 111 | 10.4 | 15.6 | 0.00 | 0.00 | 0.00 | 66 | 1015.3 |
| 20260505015143 | 78 | 113 | 10.4 | 15.6 | 0.00 | 0.00 | 0.00 | 65 | 1015.2 |
| 20260505015137 | 74 | 130 | 13.0 | 18.2 | 0.00 | 0.00 | 0.00 | 73 | 1015.1 |
| 20260505015132 | 74 | 117 | 13.9 | 17.4 | 0.00 | 0.00 | 0.00 | 73 | 1015.3 |
| 20260505015128 | 73 | 113 | 13.9 | 17.4 | 0.00 | 0.00 | 0.00 | 74 | 1015.8 |
| 20260505015122 | 71 | 121 | 10.4 | 13.0 | 0.00 | 0.00 | 0.00 | 79 | 1016.4 |
| 20260505014954 | 73 | 117 | 13.0 | 16.5 | 0.00 | 0.00 | 0.00 | 76 | 1015.8 |
| 20260505014949 | 78 | 123 | 11.3 | 15.6 | 0.00 | 0.00 | 0.00 | 67 | 1015.2 |
| 20260505014943 | 76 | 117 | 13.0 | 17.4 | 0.00 | 0.00 | 0.00 | 70 | 1015.2 |
| 20260505014938 | 75 | 111 | 13.0 | 15.6 | 0.00 | 0.00 | 0.00 | 71 | 1015.1 |
| 20260505014932 | 75 | 122 | 13.9 | 17.4 | 0.00 | 0.00 | 0.00 | 73 | 1015.1 |
| 20260505014927 | 74 | 106 | 13.0 | 17.4 | 0.00 | 0.00 | 0.00 | 72 | 1015.0 |
| 20260505014921 | 74 | 111 | 13.9 | 16.5 | 0.00 | 0.00 | 0.00 | 71 | 1014.9 |
| 20260505014915 | 74 | 109 | 13.9 | 18.2 | 0.00 | 0.00 | 0.00 | 74 | 1015.2 |
| 20260505014910 | 74 | 119 | 13.0 | 16.5 | 0.00 | 0.00 | 0.00 | 72 | 1015.3 |
| 20260505014904 | 73 | 121 | 13.0 | 17.4 | 0.00 | 0.00 | 0.00 | 75 | 1015.5 |
| 20260505014859 | 73 | 120 | 13.0 | 17.4 | 0.00 | 0.00 | 0.00 | 75 | 1015.8 |
| 20260505014731 | 73 | 114 | 12.2 | 16.5 | 0.00 | 0.00 | 0.00 | 76 | 1015.9 |
| 20260505014726 | 72 | 118 | 13.0 | 16.5 | 0.00 | 0.00 | 0.00 | 75 | 1016.0 |
| 20260505014720 | 72 | 108 | 12.2 | 16.5 | 0.00 | 0.00 | 0.00 | 77 | 1016.1 |
| 20260505014716 | 72 | 113 | 12.2 | 15.6 | 0.00 | 0.00 | 0.00 | 77 | 1016.2 |
| 20260505014710 | 72 | 113 | 11.3 | 15.6 | 0.00 | 0.00 | 0.00 | 78 | 1016.3 |
| 20260505014705 | 72 | 109 | 11.3 | 15.6 | 0.00 | 0.00 | 0.00 | 79 | 1016.4 |
| 20260505014534 | 74 | 117 | 13.9 | 17.4 | 0.00 | 0.00 | 0.00 | 73 | 1015.3 |
| 20260505014530 | 73 | 113 | 13.9 | 17.4 | 0.00 | 0.00 | 0.00 | 74 | 1015.8 |
| 20260505014525 | 71 | 121 | 10.4 | 13.0 | 0.00 | 0.00 | 0.00 | 79 | 1016.4 |
| 20260505014519 | 73 | 117 | 13.0 | 16.5 | 0.00 | 0.00 | 0.00 | 76 | 1015.8 |
| 20260505014231 | 80 | 123 | 8.7 | 15.6 | 0.00 | 0.00 | 0.00 | 62 | 1015.6 |
| 20260505014226 | 72 | 105 | 13.0 | 17.4 | 0.00 | 0.00 | 0.00 | 76 | 1015.9 |
| 20260505014221 | 74 | 119 | 13.0 | 16.5 | 0.00 | 0.00 | 0.00 | 72 | 1015.3 |
| 20260505014215 | 78 | 117 | 11.3 | 17.4 | 0.00 | 0.00 | 0.00 | 68 | 1015.3 |
| 20260505014210 | 73 | 121 | 13.0 | 17.4 | 0.00 | 0.00 | 0.00 | 75 | 1015.5 |
| 20260505014204 | 73 | 114 | 12.2 | 16.5 | 0.00 | 0.00 | 0.00 | 76 | 1015.9 |
| 20260505014200 | 72 | 108 | 12.2 | 16.5 | 0.00 | 0.00 | 0.00 | 77 | 1016.1 |
| 20260505014154 | 72 | 118 | 13.0 | 16.5 | 0.00 | 0.00 | 0.00 | 75 | 1016.0 |
| 20260505014147 | 79 | 103 | 11.3 | 17.4 | 0.00 | 0.00 | 0.00 | 64 | 1015.2 |
| 20260505014143 | 72 | 113 | 12.2 | 15.6 | 0.00 | 0.00 | 0.00 | 77 | 1016.2 |
| 20260505014138 | 78 | 111 | 10.4 | 15.6 | 0.00 | 0.00 | 0.00 | 66 | 1015.3 |
| 20260505014133 | 78 | 113 | 10.4 | 15.6 | 0.00 | 0.00 | 0.00 | 65 | 1015.2 |
| 20260505014128 | 72 | 113 | 11.3 | 15.6 | 0.00 | 0.00 | 0.00 | 78 | 1016.3 |
| 20260505014122 | 78 | 132 | 11.3 | 15.6 | 0.00 | 0.00 | 0.00 | 64 | 1015.2 |
| 20260505014116 | 78 | 123 | 11.3 | 15.6 | 0.00 | 0.00 | 0.00 | 67 | 1015.2 |
| 20260505014112 | 76 | 117 | 13.0 | 17.4 | 0.00 | 0.00 | 0.00 | 70 | 1015.2 |
| 20260505014107 | 72 | 109 | 11.3 | 15.6 | 0.00 | 0.00 | 0.00 | 79 | 1016.4 |
| 20260505013939 | 75 | 122 | 13.9 | 17.4 | 0.00 | 0.00 | 0.00 | 73 | 1015.1 |
| 20260505013933 | 74 | 106 | 13.0 | 17.4 | 0.00 | 0.00 | 0.00 | 72 | 1015.0 |
| 20260505013928 | 74 | 111 | 13.9 | 16.5 | 0.00 | 0.00 | 0.00 | 71 | 1014.9 |
| 20260505013923 | 74 | 109 | 13.9 | 18.2 | 0.00 | 0.00 | 0.00 | 74 | 1015.2 |
| 20260505013917 | 74 | 130 | 13.0 | 18.2 | 0.00 | 0.00 | 0.00 | 73 | 1015.1 |
| 20260505013911 | 74 | 117 | 13.9 | 17.4 | 0.00 | 0.00 | 0.00 | 73 | 1015.3 |
| 20260505013906 | 73 | 117 | 13.0 | 16.5 | 0.00 | 0.00 | 0.00 | 76 | 1015.8 |
| 20260505013900 | 73 | 113 | 13.9 | 17.4 | 0.00 | 0.00 | 0.00 | 74 | 1015.8 |
| 20260505013733 | 73 | 121 | 13.0 | 17.4 | 0.00 | 0.00 | 0.00 | 75 | 1015.5 |
| 20260505013727 | 73 | 120 | 13.0 | 17.4 | 0.00 | 0.00 | 0.00 | 75 | 1015.8 |
| 20260505013721 | 73 | 114 | 12.2 | 16.5 | 0.00 | 0.00 | 0.00 | 76 | 1015.9 |
| 20260505013717 | 72 | 108 | 12.2 | 16.5 | 0.00 | 0.00 | 0.00 | 77 | 1016.1 |
| 20260505013712 | 72 | 105 | 13.0 | 17.4 | 0.00 | 0.00 | 0.00 | 76 | 1015.9 |
| 20260505013706 | 72 | 118 | 13.0 | 16.5 | 0.00 | 0.00 | 0.00 | 75 | 1016.0 |
| 20260505013701 | 72 | 113 | 12.2 | 15.6 | 0.00 | 0.00 | 0.00 | 77 | 1016.2 |
| 20260505013655 | 72 | 113 | 11.3 | 15.6 | 0.00 | 0.00 | 0.00 | 78 | 1016.3 |
| 20260505013405 | 74 | 117 | 13.9 | 17.4 | 0.00 | 0.00 | 0.00 | 73 | 1015.3 |
| 20260505013238 | 73 | 120 | 13.0 | 17.4 | 0.00 | 0.00 | 0.00 | 75 | 1015.8 |
| 20260505013232 | 73 | 113 | 13.9 | 17.4 | 0.00 | 0.00 | 0.00 | 74 | 1015.8 |
| 20260505013228 | 73 | 114 | 12.2 | 16.5 | 0.00 | 0.00 | 0.00 | 76 | 1015.9 |
| 20260505013222 | 72 | 118 | 13.0 | 16.5 | 0.00 | 0.00 | 0.00 | 75 | 1016.0 |
| 20260505013217 | 72 | 108 | 12.2 | 16.5 | 0.00 | 0.00 | 0.00 | 77 | 1016.1 |
| 20260505013211 | 79 | 123 | 10.4 | 13.9 | 0.00 | 0.00 | 0.00 | 64 | 1015.3 |
| 20260505013206 | 79 | 111 | 10.4 | 13.0 | 0.00 | 0.00 | 0.00 | 64 | 1015.4 |
| 20260505013200 | 79 | 121 | 10.4 | 13.9 | 0.00 | 0.00 | 0.00 | 64 | 1015.5 |
| 20260505013156 | 78 | 117 | 11.3 | 17.4 | 0.00 | 0.00 | 0.00 | 68 | 1015.3 |
| 20260505013150 | 79 | 103 | 11.3 | 17.4 | 0.00 | 0.00 | 0.00 | 64 | 1015.2 |
| 20260505013146 | 78 | 111 | 10.4 | 15.6 | 0.00 | 0.00 | 0.00 | 66 | 1015.3 |
| 20260505013138 | 78 | 113 | 10.4 | 15.6 | 0.00 | 0.00 | 0.00 | 65 | 1015.2 |
| 20260505013134 | 78 | 132 | 11.3 | 15.6 | 0.00 | 0.00 | 0.00 | 64 | 1015.2 |
| 20260505013128 | 78 | 123 | 11.3 | 15.6 | 0.00 | 0.00 | 0.00 | 67 | 1015.2 |
| 20260505013124 | 76 | 117 | 13.0 | 17.4 | 0.00 | 0.00 | 0.00 | 70 | 1015.2 |
| 20260505013118 | 75 | 111 | 13.0 | 15.6 | 0.00 | 0.00 | 0.00 | 71 | 1015.1 |
| 20260505013113 | 72 | 105 | 13.0 | 17.4 | 0.00 | 0.00 | 0.00 | 76 | 1015.9 |
| 20260505013107 | 75 | 122 | 13.9 | 17.4 | 0.00 | 0.00 | 0.00 | 73 | 1015.1 |
| 20260505013102 | 74 | 106 | 13.0 | 17.4 | 0.00 | 0.00 | 0.00 | 72 | 1015.0 |
| 20260505013056 | 72 | 113 | 12.2 | 15.6 | 0.00 | 0.00 | 0.00 | 77 | 1016.2 |
| 20260505013051 | 72 | 113 | 11.3 | 15.6 | 0.00 | 0.00 | 0.00 | 78 | 1016.3 |
| 20260505012923 | 73 | 117 | 13.0 | 16.5 | 0.00 | 0.00 | 0.00 | 76 | 1015.8 |
| 20260505012918 | 74 | 111 | 13.9 | 16.5 | 0.00 | 0.00 | 0.00 | 71 | 1014.9 |
| 20260505012912 | 74 | 119 | 13.0 | 16.5 | 0.00 | 0.00 | 0.00 | 72 | 1015.3 |
| 20260505012746 | 74 | 117 | 13.9 | 17.4 | 0.00 | 0.00 | 0.00 | 73 | 1015.3 |
| 20260505012741 | 73 | 121 | 13.0 | 17.4 | 0.00 | 0.00 | 0.00 | 75 | 1015.5 |
| 20260505012733 | 73 | 113 | 13.9 | 17.4 | 0.00 | 0.00 | 0.00 | 74 | 1015.8 |
| 20260505012728 | 73 | 120 | 13.0 | 17.4 | 0.00 | 0.00 | 0.00 | 75 | 1015.8 |
| 20260505012723 | 73 | 114 | 12.2 | 16.5 | 0.00 | 0.00 | 0.00 | 76 | 1015.9 |
| 20260505012717 | 72 | 118 | 13.0 | 16.5 | 0.00 | 0.00 | 0.00 | 75 | 1016.0 |
| 20260505012713 | 72 | 108 | 12.2 | 16.5 | 0.00 | 0.00 | 0.00 | 77 | 1016.1 |
| 20260505012547 | 72 | 113 | 12.2 | 15.6 | 0.00 | 0.00 | 0.00 | 77 | 1016.2 |
| 20260505012537 | 72 | 113 | 11.3 | 15.6 | 0.00 | 0.00 | 0.00 | 78 | 1016.3 |
| 20260505012413 | 74 | 109 | 13.9 | 18.2 | 0.00 | 0.00 | 0.00 | 74 | 1015.2 |
| 20260505012408 | 77 | 0.0 | 0.0 | 0.00 | 0.21 | 0.00 | 57 | 1017.4 | |
| 20260505012402 | 73 | 117 | 13.0 | 16.5 | 0.00 | 0.00 | 0.00 | 76 | 1015.8 |
| 20260505012358 | 74 | 106 | 13.0 | 17.4 | 0.00 | 0.00 | 0.00 | 72 | 1015.0 |
| 20260505012353 | 78 | 0.0 | 0.0 | 0.00 | 0.21 | 0.00 | 52 | 1017.5 | |
| 20260505012347 | 74 | 119 | 13.0 | 16.5 | 0.00 | 0.00 | 0.00 | 72 | 1015.3 |
| 20260505012341 | 80 | 0.0 | 0.0 | 0.00 | 0.21 | 0.00 | 56 | 1017.6 | |
| 20260505012336 | 78 | 0.0 | 0.0 | 0.00 | 0.21 | 0.00 | 51 | 1017.8 | |
| 20260505012330 | 77 | 0.0 | 0.0 | 0.00 | 0.21 | 0.00 | 54 | 1017.9 | |
| 20260505012323 | 76 | 0.0 | 0.0 | 0.00 | 0.21 | 0.00 | 49 | 1017.9 | |
| 20260505012318 | 80 | 109 | 10.4 | 15.6 | 0.00 | 0.00 | 0.00 | 62 | 1015.7 |
| 20260505012312 | 81 | 123 | 9.6 | 13.9 | 0.00 | 0.00 | 0.00 | 60 | 1015.7 |
| 20260505012307 | 81 | 117 | 7.8 | 12.2 | 0.00 | 0.00 | 0.00 | 59 | 1015.7 |
| 20260505012304 | 80 | 109 | 9.6 | 12.2 | 0.00 | 0.00 | 0.00 | 61 | 1015.7 |
| 20260505012257 | 80 | 123 | 9.6 | 12.2 | 0.00 | 0.00 | 0.00 | 59 | 1015.9 |
| 20260505012251 | 80 | 123 | 8.7 | 15.6 | 0.00 | 0.00 | 0.00 | 62 | 1015.6 |
| 20260505012246 | 79 | 123 | 10.4 | 13.9 | 0.00 | 0.00 | 0.00 | 64 | 1015.3 |
| 20260505012241 | 79 | 111 | 10.4 | 13.0 | 0.00 | 0.00 | 0.00 | 64 | 1015.4 |
| 20260505012235 | 72 | 118 | 13.0 | 16.5 | 0.00 | 0.00 | 0.00 | 75 | 1016.0 |
| 20260505012228 | 79 | 121 | 10.4 | 13.9 | 0.00 | 0.00 | 0.00 | 64 | 1015.5 |
| 20260505012224 | 78 | 117 | 11.3 | 17.4 | 0.00 | 0.00 | 0.00 | 68 | 1015.3 |
| 20260505012218 | 74 | 117 | 13.9 | 17.4 | 0.00 | 0.00 | 0.00 | 73 | 1015.3 |
| 20260505012213 | 79 | 103 | 11.3 | 17.4 | 0.00 | 0.00 | 0.00 | 64 | 1015.2 |
| 20260505012207 | 78 | 111 | 10.4 | 15.6 | 0.00 | 0.00 | 0.00 | 66 | 1015.3 |
| 20260505012202 | 78 | 113 | 10.4 | 15.6 | 0.00 | 0.00 | 0.00 | 65 | 1015.2 |
| 20260505012156 | 78 | 132 | 11.3 | 15.6 | 0.00 | 0.00 | 0.00 | 64 | 1015.2 |
| 20260505012151 | 78 | 123 | 11.3 | 15.6 | 0.00 | 0.00 | 0.00 | 67 | 1015.2 |
| 20260505012146 | 76 | 117 | 13.0 | 17.4 | 0.00 | 0.00 | 0.00 | 70 | 1015.2 |
| 20260505012141 | 75 | 111 | 13.0 | 15.6 | 0.00 | 0.00 | 0.00 | 71 | 1015.1 |
| 20260505012135 | 74 | 111 | 13.9 | 16.5 | 0.00 | 0.00 | 0.00 | 71 | 1014.9 |
| 20260505012130 | 74 | 130 | 13.0 | 18.2 | 0.00 | 0.00 | 0.00 | 73 | 1015.1 |
| 20260505012123 | 73 | 121 | 13.0 | 17.4 | 0.00 | 0.00 | 0.00 | 75 | 1015.5 |
| 20260505012117 | 73 | 113 | 13.9 | 17.4 | 0.00 | 0.00 | 0.00 | 74 | 1015.8 |
| 20260505012112 | 73 | 120 | 13.0 | 17.4 | 0.00 | 0.00 | 0.00 | 75 | 1015.8 |
| 20260505012106 | 73 | 114 | 12.2 | 16.5 | 0.00 | 0.00 | 0.00 | 76 | 1015.9 |
| 20260505012101 | 72 | 108 | 12.2 | 16.5 | 0.00 | 0.00 | 0.00 | 77 | 1016.1 |
| 20260505012056 | 72 | 113 | 12.2 | 15.6 | 0.00 | 0.00 | 0.00 | 77 | 1016.2 |
| 20260505011930 | 76 | 0.0 | 0.0 | 0.00 | 0.21 | 0.00 | 50 | 1017.8 | |
| 20260505011923 | 73 | 117 | 13.0 | 16.5 | 0.00 | 0.00 | 0.00 | 76 | 1015.8 |
| 20260505011918 | 75 | 122 | 13.9 | 17.4 | 0.00 | 0.00 | 0.00 | 73 | 1015.1 |
| 20260505011912 | 74 | 109 | 13.9 | 18.2 | 0.00 | 0.00 | 0.00 | 74 | 1015.2 |
| 20260505011908 | 74 | 106 | 13.0 | 17.4 | 0.00 | 0.00 | 0.00 | 72 | 1015.0 |
| 20260505011902 | 74 | 119 | 13.0 | 16.5 | 0.00 | 0.00 | 0.00 | 72 | 1015.3 |
| 20260505011736 | 72 | 118 | 13.0 | 16.5 | 0.00 | 0.00 | 0.00 | 75 | 1016.0 |
| 20260505011731 | 74 | 117 | 13.9 | 17.4 | 0.00 | 0.00 | 0.00 | 73 | 1015.3 |
| 20260505011726 | 79 | 120 | 8.7 | 13.0 | 0.00 | 0.00 | 0.00 | 59 | 1016.1 |
| 20260505011719 | 79 | 124 | 9.6 | 13.0 | 0.00 | 0.00 | 0.00 | 61 | 1016.1 |
| 20260505011713 | 79 | 130 | 9.6 | 13.0 | 0.00 | 0.00 | 0.00 | 62 | 1016.2 |
| 20260505011707 | 78 | 132 | 9.6 | 12.2 | 0.00 | 0.00 | 0.00 | 59 | 1016.3 |
| 20260505011702 | 79 | 132 | 8.7 | 12.2 | 0.00 | 0.00 | 0.00 | 60 | 1016.5 |
| 20260505011656 | 80 | 109 | 10.4 | 15.6 | 0.00 | 0.00 | 0.00 | 62 | 1015.7 |
| 20260505011652 | 81 | 123 | 9.6 | 13.9 | 0.00 | 0.00 | 0.00 | 60 | 1015.7 |
| 20260505011646 | 81 | 117 | 7.8 | 12.2 | 0.00 | 0.00 | 0.00 | 59 | 1015.7 |
| 20260505011641 | 80 | 109 | 9.6 | 12.2 | 0.00 | 0.00 | 0.00 | 61 | 1015.7 |
| 20260505011635 | 80 | 123 | 9.6 | 12.2 | 0.00 | 0.00 | 0.00 | 59 | 1015.9 |
| 20260505011630 | 74 | 111 | 13.9 | 16.5 | 0.00 | 0.00 | 0.00 | 71 | 1014.9 |
| 20260505011624 | 80 | 123 | 8.7 | 15.6 | 0.00 | 0.00 | 0.00 | 62 | 1015.6 |
| 20260505011617 | 73 | 121 | 13.0 | 17.4 | 0.00 | 0.00 | 0.00 | 75 | 1015.5 |
| 20260505011612 | 79 | 123 | 10.4 | 13.9 | 0.00 | 0.00 | 0.00 | 64 | 1015.3 |
| 20260505011606 | 79 | 111 | 10.4 | 13.0 | 0.00 | 0.00 | 0.00 | 64 | 1015.4 |
| 20260505011602 | 74 | 130 | 13.0 | 18.2 | 0.00 | 0.00 | 0.00 | 73 | 1015.1 |
| 20260505011556 | 72 | 108 | 12.2 | 16.5 | 0.00 | 0.00 | 0.00 | 77 | 1016.1 |
| 20260505011551 | 79 | 121 | 10.4 | 13.9 | 0.00 | 0.00 | 0.00 | 64 | 1015.5 |
| 20260505011545 | 78 | 117 | 11.3 | 17.4 | 0.00 | 0.00 | 0.00 | 68 | 1015.3 |
| 20260505011540 | 79 | 103 | 11.3 | 17.4 | 0.00 | 0.00 | 0.00 | 64 | 1015.2 |
| 20260505011534 | 78 | 111 | 10.4 | 15.6 | 0.00 | 0.00 | 0.00 | 66 | 1015.3 |
| 20260505011530 | 78 | 113 | 10.4 | 15.6 | 0.00 | 0.00 | 0.00 | 65 | 1015.2 |
| 20260505011523 | 72 | 113 | 12.2 | 15.6 | 0.00 | 0.00 | 0.00 | 77 | 1016.2 |
| 20260505011517 | 78 | 132 | 11.3 | 15.6 | 0.00 | 0.00 | 0.00 | 64 | 1015.2 |
| 20260505011512 | 78 | 123 | 11.3 | 15.6 | 0.00 | 0.00 | 0.00 | 67 | 1015.2 |
| 20260505011507 | 76 | 117 | 13.0 | 17.4 | 0.00 | 0.00 | 0.00 | 70 | 1015.2 |
| 20260505011501 | 75 | 111 | 13.0 | 15.6 | 0.00 | 0.00 | 0.00 | 71 | 1015.1 |
| 20260505011455 | 73 | 113 | 13.9 | 17.4 | 0.00 | 0.00 | 0.00 | 74 | 1015.8 |
| 20260505011450 | 73 | 120 | 13.0 | 17.4 | 0.00 | 0.00 | 0.00 | 75 | 1015.8 |
| 20260505011444 | 72 | 105 | 13.0 | 17.4 | 0.00 | 0.00 | 0.00 | 76 | 1015.9 |
| 20260505011440 | 73 | 114 | 12.2 | 16.5 | 0.00 | 0.00 | 0.00 | 76 | 1015.9 |
| 20260505011435 | 73 | 117 | 13.0 | 16.5 | 0.00 | 0.00 | 0.00 | 76 | 1015.8 |
| 20260505011430 | 74 | 109 | 13.9 | 18.2 | 0.00 | 0.00 | 0.00 | 74 | 1015.2 |
| 20260505011301 | 74 | 106 | 13.0 | 17.4 | 0.00 | 0.00 | 0.00 | 72 | 1015.0 |
| 20260505011256 | 72 | 118 | 13.0 | 16.5 | 0.00 | 0.00 | 0.00 | 75 | 1016.0 |
| 20260505011251 | 74 | 119 | 13.0 | 16.5 | 0.00 | 0.00 | 0.00 | 72 | 1015.3 |
| 20260505011246 | 74 | 117 | 13.9 | 17.4 | 0.00 | 0.00 | 0.00 | 73 | 1015.3 |
| 20260505011120 | 74 | 130 | 13.0 | 18.2 | 0.00 | 0.00 | 0.00 | 73 | 1015.1 |
| 20260505011113 | 73 | 121 | 13.0 | 17.4 | 0.00 | 0.00 | 0.00 | 75 | 1015.5 |
| 20260505011108 | 72 | 108 | 12.2 | 16.5 | 0.00 | 0.00 | 0.00 | 77 | 1016.1 |
| 20260505010942 | 73 | 113 | 13.9 | 17.4 | 0.00 | 0.00 | 0.00 | 74 | 1015.8 |
| 20260505010936 | 73 | 120 | 13.0 | 17.4 | 0.00 | 0.00 | 0.00 | 75 | 1015.8 |
| 20260505010931 | 73 | 117 | 13.0 | 16.5 | 0.00 | 0.00 | 0.00 | 76 | 1015.8 |
| 20260505010927 | 72 | 105 | 13.0 | 17.4 | 0.00 | 0.00 | 0.00 | 76 | 1015.9 |
| 20260505010759 | 72 | 118 | 13.0 | 16.5 | 0.00 | 0.00 | 0.00 | 75 | 1016.0 |
| 20260505010631 | 74 | 117 | 13.9 | 17.4 | 0.00 | 0.00 | 0.00 | 73 | 1015.3 |
| 20260505010613 | 72 | 108 | 12.2 | 16.5 | 0.00 | 0.00 | 0.00 | 77 | 1016.1 |
| 20260505010458 | 73 | 114 | 12.2 | 16.5 | 0.00 | 0.00 | 0.00 | 76 | 1015.9 |
| 20260505010452 | 73 | 113 | 13.9 | 17.4 | 0.00 | 0.00 | 0.00 | 74 | 1015.8 |
| 20260505010327 | 73 | 120 | 13.0 | 17.4 | 0.00 | 0.00 | 0.00 | 75 | 1015.8 |
| 20260505010321 | 72 | 105 | 13.0 | 17.4 | 0.00 | 0.00 | 0.00 | 76 | 1015.9 |
| 20260505010035 | 78 | 123 | 11.3 | 15.6 | 0.00 | 0.00 | 0.00 | 67 | 1015.2 |
| 20260505010029 | 75 | 111 | 13.0 | 15.6 | 0.00 | 0.00 | 0.00 | 71 | 1015.1 |
| 20260505010025 | 73 | 114 | 12.2 | 16.5 | 0.00 | 0.00 | 0.00 | 76 | 1015.9 |
| 20260505005854 | 75 | 122 | 13.9 | 17.4 | 0.00 | 0.00 | 0.00 | 73 | 1015.1 |
| 20260505005850 | 74 | 106 | 13.0 | 17.4 | 0.00 | 0.00 | 0.00 | 72 | 1015.0 |
| 20260505005845 | 74 | 111 | 13.9 | 16.5 | 0.00 | 0.00 | 0.00 | 71 | 1014.9 |
| 20260505005839 | 74 | 130 | 13.0 | 18.2 | 0.00 | 0.00 | 0.00 | 73 | 1015.1 |
| 20260505005834 | 74 | 109 | 13.9 | 18.2 | 0.00 | 0.00 | 0.00 | 74 | 1015.2 |
| 20260505005828 | 74 | 119 | 13.0 | 16.5 | 0.00 | 0.00 | 0.00 | 72 | 1015.3 |
| 20260505005822 | 74 | 117 | 13.9 | 17.4 | 0.00 | 0.00 | 0.00 | 73 | 1015.3 |
| 20260505005818 | 73 | 120 | 13.0 | 17.4 | 0.00 | 0.00 | 0.00 | 75 | 1015.8 |
| 20260505005812 | 73 | 117 | 13.0 | 16.5 | 0.00 | 0.00 | 0.00 | 76 | 1015.8 |
| 20260505005644 | 73 | 113 | 13.9 | 17.4 | 0.00 | 0.00 | 0.00 | 74 | 1015.8 |
| 20260505005638 | 72 | 105 | 13.0 | 17.4 | 0.00 | 0.00 | 0.00 | 76 | 1015.9 |
| 20260505005618 | 72 | 118 | 13.0 | 16.5 | 0.00 | 0.00 | 0.00 | 75 | 1016.0 |
| 20260505005507 | 80 | 123 | 8.7 | 15.6 | 0.00 | 0.00 | 0.00 | 62 | 1015.6 |
| 20260505005501 | 79 | 123 | 10.4 | 13.9 | 0.00 | 0.00 | 0.00 | 64 | 1015.3 |
| 20260505005454 | 79 | 111 | 10.4 | 13.0 | 0.00 | 0.00 | 0.00 | 64 | 1015.4 |
| 20260505005448 | 79 | 121 | 10.4 | 13.9 | 0.00 | 0.00 | 0.00 | 64 | 1015.5 |
| 20260505005443 | 78 | 117 | 11.3 | 17.4 | 0.00 | 0.00 | 0.00 | 68 | 1015.3 |
| 20260505005438 | 79 | 103 | 11.3 | 17.4 | 0.00 | 0.00 | 0.00 | 64 | 1015.2 |
| 20260505005432 | 78 | 113 | 10.4 | 15.6 | 0.00 | 0.00 | 0.00 | 65 | 1015.2 |
| 20260505005426 | 75 | 111 | 13.0 | 15.6 | 0.00 | 0.00 | 0.00 | 71 | 1015.1 |
| 20260505005422 | 78 | 132 | 11.3 | 15.6 | 0.00 | 0.00 | 0.00 | 64 | 1015.2 |
| 20260505005416 | 78 | 111 | 10.4 | 15.6 | 0.00 | 0.00 | 0.00 | 66 | 1015.3 |
| 20260505005411 | 78 | 123 | 11.3 | 15.6 | 0.00 | 0.00 | 0.00 | 67 | 1015.2 |
| 20260505005243 | 75 | 122 | 13.9 | 17.4 | 0.00 | 0.00 | 0.00 | 73 | 1015.1 |
| 20260505005238 | 74 | 106 | 13.0 | 17.4 | 0.00 | 0.00 | 0.00 | 72 | 1015.0 |
| 20260505005233 | 74 | 111 | 13.9 | 16.5 | 0.00 | 0.00 | 0.00 | 71 | 1014.9 |
| 20260505005228 | 73 | 120 | 13.0 | 17.4 | 0.00 | 0.00 | 0.00 | 75 | 1015.8 |
| 20260505005223 | 74 | 130 | 13.0 | 18.2 | 0.00 | 0.00 | 0.00 | 73 | 1015.1 |
| 20260505005217 | 73 | 117 | 13.0 | 16.5 | 0.00 | 0.00 | 0.00 | 76 | 1015.8 |
| 20260505005211 | 74 | 109 | 13.9 | 18.2 | 0.00 | 0.00 | 0.00 | 74 | 1015.2 |
| 20260505005206 | 74 | 119 | 13.0 | 16.5 | 0.00 | 0.00 | 0.00 | 72 | 1015.3 |
| 20260505005041 | 73 | 121 | 13.0 | 17.4 | 0.00 | 0.00 | 0.00 | 75 | 1015.5 |
| 20260505005035 | 73 | 114 | 12.2 | 16.5 | 0.00 | 0.00 | 0.00 | 76 | 1015.9 |
| 20260505005030 | 73 | 113 | 13.9 | 17.4 | 0.00 | 0.00 | 0.00 | 74 | 1015.8 |
| 20260505005024 | 72 | 105 | 13.0 | 17.4 | 0.00 | 0.00 | 0.00 | 76 | 1015.9 |
| 20260505004735 | 73 | 120 | 13.0 | 17.4 | 0.00 | 0.00 | 0.00 | 75 | 1015.8 |
| 20260505004607 | 80 | 123 | 8.7 | 15.6 | 0.00 | 0.00 | 0.00 | 62 | 1015.6 |
| 20260505004602 | 73 | 114 | 12.2 | 16.5 | 0.00 | 0.00 | 0.00 | 76 | 1015.9 |
| 20260505004556 | 79 | 123 | 10.4 | 13.9 | 0.00 | 0.00 | 0.00 | 64 | 1015.3 |
| 20260505004551 | 79 | 111 | 10.4 | 13.0 | 0.00 | 0.00 | 0.00 | 64 | 1015.4 |
| 20260505004544 | 79 | 121 | 10.4 | 13.9 | 0.00 | 0.00 | 0.00 | 64 | 1015.5 |
| 20260505004539 | 78 | 117 | 11.3 | 17.4 | 0.00 | 0.00 | 0.00 | 68 | 1015.3 |
| 20260505004533 | 79 | 103 | 11.3 | 17.4 | 0.00 | 0.00 | 0.00 | 64 | 1015.2 |
| 20260505004528 | 78 | 113 | 10.4 | 15.6 | 0.00 | 0.00 | 0.00 | 65 | 1015.2 |
| 20260505004522 | 72 | 105 | 13.0 | 17.4 | 0.00 | 0.00 | 0.00 | 76 | 1015.9 |
| 20260505004518 | 78 | 132 | 11.3 | 15.6 | 0.00 | 0.00 | 0.00 | 64 | 1015.2 |
| 20260505004512 | 74 | 106 | 13.0 | 17.4 | 0.00 | 0.00 | 0.00 | 72 | 1015.0 |
| 20260505004507 | 74 | 111 | 13.9 | 16.5 | 0.00 | 0.00 | 0.00 | 71 | 1014.9 |
| 20260505004501 | 75 | 122 | 13.9 | 17.4 | 0.00 | 0.00 | 0.00 | 73 | 1015.1 |
| 20260505004456 | 74 | 109 | 13.9 | 18.2 | 0.00 | 0.00 | 0.00 | 74 | 1015.2 |
| 20260505004450 | 74 | 119 | 13.0 | 16.5 | 0.00 | 0.00 | 0.00 | 72 | 1015.3 |
| 20260505004445 | 78 | 111 | 10.4 | 15.6 | 0.00 | 0.00 | 0.00 | 66 | 1015.3 |
| 20260505004438 | 74 | 130 | 13.0 | 18.2 | 0.00 | 0.00 | 0.00 | 73 | 1015.1 |
| 20260505004432 | 74 | 117 | 13.9 | 17.4 | 0.00 | 0.00 | 0.00 | 73 | 1015.3 |
| 20260505004427 | 73 | 113 | 13.9 | 17.4 | 0.00 | 0.00 | 0.00 | 74 | 1015.8 |
| 20260505004421 | 73 | 121 | 13.0 | 17.4 | 0.00 | 0.00 | 0.00 | 75 | 1015.5 |
| 20260505004256 | 76 | 117 | 13.0 | 17.4 | 0.00 | 0.00 | 0.00 | 70 | 1015.2 |
| 20260505004251 | 75 | 111 | 13.0 | 15.6 | 0.00 | 0.00 | 0.00 | 71 | 1015.1 |
| 20260505004245 | 73 | 120 | 13.0 | 17.4 | 0.00 | 0.00 | 0.00 | 75 | 1015.8 |
| 20260505004238 | 73 | 117 | 13.0 | 16.5 | 0.00 | 0.00 | 0.00 | 76 | 1015.8 |
| 20260505003953 | 74 | 106 | 13.0 | 17.4 | 0.00 | 0.00 | 0.00 | 72 | 1015.0 |
| 20260505003947 | 74 | 111 | 13.9 | 16.5 | 0.00 | 0.00 | 0.00 | 71 | 1014.9 |
| 20260505003942 | 74 | 130 | 13.0 | 18.2 | 0.00 | 0.00 | 0.00 | 73 | 1015.1 |
| 20260505003937 | 74 | 109 | 13.9 | 18.2 | 0.00 | 0.00 | 0.00 | 74 | 1015.2 |
| 20260505003930 | 74 | 119 | 13.0 | 16.5 | 0.00 | 0.00 | 0.00 | 72 | 1015.3 |
| 20260505003924 | 74 | 117 | 13.9 | 17.4 | 0.00 | 0.00 | 0.00 | 73 | 1015.3 |
| 20260505003919 | 73 | 121 | 13.0 | 17.4 | 0.00 | 0.00 | 0.00 | 75 | 1015.5 |
| 20260505003914 | 73 | 113 | 13.9 | 17.4 | 0.00 | 0.00 | 0.00 | 74 | 1015.8 |
| 20260505003612 | 73 | 114 | 12.2 | 16.5 | 0.00 | 0.00 | 0.00 | 76 | 1015.9 |
| 20260505003459 | 81 | 123 | 9.6 | 13.9 | 0.00 | 0.00 | 0.00 | 60 | 1015.7 |
| 20260505003455 | 81 | 117 | 7.8 | 12.2 | 0.00 | 0.00 | 0.00 | 59 | 1015.7 |
| 20260505003448 | 80 | 109 | 9.6 | 12.2 | 0.00 | 0.00 | 0.00 | 61 | 1015.7 |
| 20260505003444 | 80 | 123 | 9.6 | 12.2 | 0.00 | 0.00 | 0.00 | 59 | 1015.9 |
| 20260505003439 | 80 | 109 | 10.4 | 15.6 | 0.00 | 0.00 | 0.00 | 62 | 1015.7 |
| 20260505003433 | 74 | 106 | 13.0 | 17.4 | 0.00 | 0.00 | 0.00 | 72 | 1015.0 |
| 20260505003426 | 74 | 111 | 13.9 | 16.5 | 0.00 | 0.00 | 0.00 | 71 | 1014.9 |
| 20260505003420 | 74 | 130 | 13.0 | 18.2 | 0.00 | 0.00 | 0.00 | 73 | 1015.1 |
| 20260505003254 | 79 | 123 | 10.4 | 13.9 | 0.00 | 0.00 | 0.00 | 64 | 1015.3 |
| 20260505003248 | 79 | 111 | 10.4 | 13.0 | 0.00 | 0.00 | 0.00 | 64 | 1015.4 |
| 20260505003243 | 79 | 121 | 10.4 | 13.9 | 0.00 | 0.00 | 0.00 | 64 | 1015.5 |
| 20260505003238 | 78 | 117 | 11.3 | 17.4 | 0.00 | 0.00 | 0.00 | 68 | 1015.3 |
| 20260505003232 | 79 | 103 | 11.3 | 17.4 | 0.00 | 0.00 | 0.00 | 64 | 1015.2 |
| 20260505003225 | 78 | 113 | 10.4 | 15.6 | 0.00 | 0.00 | 0.00 | 65 | 1015.2 |
| 20260505003220 | 78 | 132 | 11.3 | 15.6 | 0.00 | 0.00 | 0.00 | 64 | 1015.2 |
| 20260505003214 | 78 | 111 | 10.4 | 15.6 | 0.00 | 0.00 | 0.00 | 66 | 1015.3 |
| 20260505003210 | 78 | 123 | 11.3 | 15.6 | 0.00 | 0.00 | 0.00 | 67 | 1015.2 |
| 20260505003204 | 76 | 117 | 13.0 | 17.4 | 0.00 | 0.00 | 0.00 | 70 | 1015.2 |
| 20260505003200 | 74 | 109 | 13.9 | 18.2 | 0.00 | 0.00 | 0.00 | 74 | 1015.2 |
| 20260505003154 | 74 | 119 | 13.0 | 16.5 | 0.00 | 0.00 | 0.00 | 72 | 1015.3 |
| 20260505003149 | 74 | 117 | 13.9 | 17.4 | 0.00 | 0.00 | 0.00 | 73 | 1015.3 |
| 20260505003143 | 75 | 111 | 13.0 | 15.6 | 0.00 | 0.00 | 0.00 | 71 | 1015.1 |
| 20260505003139 | 75 | 122 | 13.9 | 17.4 | 0.00 | 0.00 | 0.00 | 73 | 1015.1 |
| 20260505003134 | 73 | 121 | 13.0 | 17.4 | 0.00 | 0.00 | 0.00 | 75 | 1015.5 |
| 20260505003128 | 73 | 120 | 13.0 | 17.4 | 0.00 | 0.00 | 0.00 | 75 | 1015.8 |
| 20260505003121 | 73 | 117 | 13.0 | 16.5 | 0.00 | 0.00 | 0.00 | 76 | 1015.8 |
| 20260505002836 | 74 | 111 | 13.9 | 16.5 | 0.00 | 0.00 | 0.00 | 71 | 1014.9 |
| 20260505002830 | 74 | 130 | 13.0 | 18.2 | 0.00 | 0.00 | 0.00 | 73 | 1015.1 |
| 20260505002704 | 74 | 119 | 13.0 | 16.5 | 0.00 | 0.00 | 0.00 | 72 | 1015.3 |
| 20260505002658 | 74 | 117 | 13.9 | 17.4 | 0.00 | 0.00 | 0.00 | 73 | 1015.3 |
| 20260505002532 | 79 | 103 | 11.3 | 17.4 | 0.00 | 0.00 | 0.00 | 64 | 1015.2 |
| 20260505002526 | 73 | 117 | 13.0 | 16.5 | 0.00 | 0.00 | 0.00 | 76 | 1015.8 |
| 20260505002519 | 78 | 113 | 10.4 | 15.6 | 0.00 | 0.00 | 0.00 | 65 | 1015.2 |
| 20260505002515 | 78 | 132 | 11.3 | 15.6 | 0.00 | 0.00 | 0.00 | 64 | 1015.2 |
| 20260505002509 | 73 | 120 | 13.0 | 17.4 | 0.00 | 0.00 | 0.00 | 75 | 1015.8 |
| 20260505002504 | 73 | 121 | 13.0 | 17.4 | 0.00 | 0.00 | 0.00 | 75 | 1015.5 |
| 20260505002500 | 73 | 113 | 13.9 | 17.4 | 0.00 | 0.00 | 0.00 | 74 | 1015.8 |
| 20260505002333 | 78 | 123 | 11.3 | 15.6 | 0.00 | 0.00 | 0.00 | 67 | 1015.2 |
| 20260505002329 | 76 | 117 | 13.0 | 17.4 | 0.00 | 0.00 | 0.00 | 70 | 1015.2 |
| 20260505002201 | 81 | 123 | 9.6 | 13.9 | 0.00 | 0.00 | 0.00 | 60 | 1015.7 |
| 20260505002156 | 74 | 111 | 13.9 | 16.5 | 0.00 | 0.00 | 0.00 | 71 | 1014.9 |
| 20260505002152 | 74 | 109 | 13.9 | 18.2 | 0.00 | 0.00 | 0.00 | 74 | 1015.2 |
| 20260505002146 | 75 | 122 | 13.9 | 17.4 | 0.00 | 0.00 | 0.00 | 73 | 1015.1 |
| 20260505002142 | 81 | 117 | 7.8 | 12.2 | 0.00 | 0.00 | 0.00 | 59 | 1015.7 |
| 20260505002136 | 74 | 106 | 13.0 | 17.4 | 0.00 | 0.00 | 0.00 | 72 | 1015.0 |
| 20260505002131 | 74 | 130 | 13.0 | 18.2 | 0.00 | 0.00 | 0.00 | 73 | 1015.1 |
| 20260505002127 | 74 | 119 | 13.0 | 16.5 | 0.00 | 0.00 | 0.00 | 72 | 1015.3 |
| 20260505002121 | 74 | 117 | 13.9 | 17.4 | 0.00 | 0.00 | 0.00 | 73 | 1015.3 |
| 20260505001955 | 73 | 120 | 13.0 | 17.4 | 0.00 | 0.00 | 0.00 | 75 | 1015.8 |
| 20260505001949 | 73 | 113 | 13.9 | 17.4 | 0.00 | 0.00 | 0.00 | 74 | 1015.8 |
| 20260505001824 | 78 | 132 | 7.0 | 10.4 | 0.00 | 0.00 | 0.00 | 57 | 1016.8 |
| 20260505001819 | 80 | 109 | 10.4 | 15.6 | 0.00 | 0.00 | 0.00 | 62 | 1015.7 |
| 20260505001810 | 80 | 123 | 8.7 | 15.6 | 0.00 | 0.00 | 0.00 | 62 | 1015.6 |
| 20260505001806 | 80 | 109 | 9.6 | 12.2 | 0.00 | 0.00 | 0.00 | 61 | 1015.7 |
| 20260505001801 | 79 | 121 | 10.4 | 13.9 | 0.00 | 0.00 | 0.00 | 64 | 1015.5 |
| 20260505001755 | 78 | 117 | 11.3 | 17.4 | 0.00 | 0.00 | 0.00 | 68 | 1015.3 |
| 20260505001749 | 79 | 123 | 10.4 | 13.9 | 0.00 | 0.00 | 0.00 | 64 | 1015.3 |
| 20260505001744 | 79 | 103 | 11.3 | 17.4 | 0.00 | 0.00 | 0.00 | 64 | 1015.2 |
| 20260505001739 | 78 | 113 | 10.4 | 15.6 | 0.00 | 0.00 | 0.00 | 65 | 1015.2 |
| 20260505001733 | 79 | 111 | 10.4 | 13.0 | 0.00 | 0.00 | 0.00 | 64 | 1015.4 |
| 20260505001728 | 78 | 132 | 11.3 | 15.6 | 0.00 | 0.00 | 0.00 | 64 | 1015.2 |
| 20260505001722 | 76 | 117 | 13.0 | 17.4 | 0.00 | 0.00 | 0.00 | 70 | 1015.2 |
| 20260505001717 | 78 | 123 | 11.3 | 15.6 | 0.00 | 0.00 | 0.00 | 67 | 1015.2 |
| 20260505001709 | 74 | 111 | 13.9 | 16.5 | 0.00 | 0.00 | 0.00 | 71 | 1014.9 |
| 20260505001704 | 78 | 111 | 10.4 | 15.6 | 0.00 | 0.00 | 0.00 | 66 | 1015.3 |
| 20260505001700 | 75 | 111 | 13.0 | 15.6 | 0.00 | 0.00 | 0.00 | 71 | 1015.1 |
| 20260505001654 | 74 | 109 | 13.9 | 18.2 | 0.00 | 0.00 | 0.00 | 74 | 1015.2 |
| 20260505001649 | 75 | 122 | 13.9 | 17.4 | 0.00 | 0.00 | 0.00 | 73 | 1015.1 |
| 20260505001644 | 74 | 130 | 13.0 | 18.2 | 0.00 | 0.00 | 0.00 | 73 | 1015.1 |
| 20260505001639 | 74 | 117 | 13.9 | 17.4 | 0.00 | 0.00 | 0.00 | 73 | 1015.3 |
| 20260505001513 | 74 | 119 | 13.0 | 16.5 | 0.00 | 0.00 | 0.00 | 72 | 1015.3 |
| 20260505001506 | 73 | 121 | 13.0 | 17.4 | 0.00 | 0.00 | 0.00 | 75 | 1015.5 |
| 20260505001500 | 79 | 120 | 8.7 | 13.0 | 0.00 | 0.00 | 0.00 | 59 | 1016.1 |
| 20260505001456 | 80 | 129 | 8.7 | 11.3 | 0.00 | 0.00 | 0.00 | 62 | 1015.9 |
| 20260505001451 | 73 | 113 | 13.9 | 17.4 | 0.00 | 0.00 | 0.00 | 74 | 1015.8 |
| 20260505001445 | 80 | 123 | 9.6 | 12.2 | 0.00 | 0.00 | 0.00 | 59 | 1015.9 |
| 20260505001439 | 81 | 123 | 9.6 | 13.9 | 0.00 | 0.00 | 0.00 | 60 | 1015.7 |
| 20260505001435 | 81 | 117 | 7.8 | 12.2 | 0.00 | 0.00 | 0.00 | 59 | 1015.7 |
| 20260505001430 | 74 | 106 | 13.0 | 17.4 | 0.00 | 0.00 | 0.00 | 72 | 1015.0 |
| 20260505001302 | 80 | 109 | 9.6 | 12.2 | 0.00 | 0.00 | 0.00 | 61 | 1015.7 |
| 20260505001256 | 80 | 123 | 8.7 | 15.6 | 0.00 | 0.00 | 0.00 | 62 | 1015.6 |
| 20260505001252 | 79 | 111 | 10.4 | 13.0 | 0.00 | 0.00 | 0.00 | 64 | 1015.4 |
| 20260505001247 | 79 | 121 | 10.4 | 13.9 | 0.00 | 0.00 | 0.00 | 64 | 1015.5 |
| 20260505001241 | 78 | 117 | 11.3 | 17.4 | 0.00 | 0.00 | 0.00 | 68 | 1015.3 |
| 20260505001237 | 79 | 123 | 10.4 | 13.9 | 0.00 | 0.00 | 0.00 | 64 | 1015.3 |
| 20260505001232 | 79 | 103 | 11.3 | 17.4 | 0.00 | 0.00 | 0.00 | 64 | 1015.2 |
| 20260505001226 | 78 | 113 | 10.4 | 15.6 | 0.00 | 0.00 | 0.00 | 65 | 1015.2 |
| 20260505001222 | 78 | 132 | 11.3 | 15.6 | 0.00 | 0.00 | 0.00 | 64 | 1015.2 |
| 20260505001216 | 78 | 111 | 10.4 | 15.6 | 0.00 | 0.00 | 0.00 | 66 | 1015.3 |
| 20260505001211 | 78 | 123 | 11.3 | 15.6 | 0.00 | 0.00 | 0.00 | 67 | 1015.2 |
| 20260505001203 | 74 | 109 | 13.9 | 18.2 | 0.00 | 0.00 | 0.00 | 74 | 1015.2 |
| 20260505001158 | 74 | 111 | 13.9 | 16.5 | 0.00 | 0.00 | 0.00 | 71 | 1014.9 |
| 20260505001153 | 76 | 117 | 13.0 | 17.4 | 0.00 | 0.00 | 0.00 | 70 | 1015.2 |
| 20260505001147 | 74 | 130 | 13.0 | 18.2 | 0.00 | 0.00 | 0.00 | 73 | 1015.1 |
| 20260505001142 | 74 | 117 | 13.9 | 17.4 | 0.00 | 0.00 | 0.00 | 73 | 1015.3 |
| 20260505001137 | 75 | 111 | 13.0 | 15.6 | 0.00 | 0.00 | 0.00 | 71 | 1015.1 |
| 20260505001010 | 74 | 119 | 13.0 | 16.5 | 0.00 | 0.00 | 0.00 | 72 | 1015.3 |
| 20260505001002 | 73 | 113 | 13.9 | 17.4 | 0.00 | 0.00 | 0.00 | 74 | 1015.8 |
| 20260505000958 | 73 | 121 | 13.0 | 17.4 | 0.00 | 0.00 | 0.00 | 75 | 1015.5 |
| 20260505000831 | 80 | 109 | 10.4 | 15.6 | 0.00 | 0.00 | 0.00 | 62 | 1015.7 |
| 20260505000826 | 74 | 106 | 13.0 | 17.4 | 0.00 | 0.00 | 0.00 | 72 | 1015.0 |
| 20260505000658 | 74 | 111 | 13.9 | 16.5 | 0.00 | 0.00 | 0.00 | 71 | 1014.9 |
| 20260505000654 | 80 | 123 | 8.7 | 15.6 | 0.00 | 0.00 | 0.00 | 62 | 1015.6 |
| 20260505000648 | 74 | 130 | 13.0 | 18.2 | 0.00 | 0.00 | 0.00 | 73 | 1015.1 |
| 20260505000643 | 74 | 117 | 13.9 | 17.4 | 0.00 | 0.00 | 0.00 | 73 | 1015.3 |
| 20260505000518 | 73 | 113 | 13.9 | 17.4 | 0.00 | 0.00 | 0.00 | 74 | 1015.8 |
| 20260505000513 | 73 | 121 | 13.0 | 17.4 | 0.00 | 0.00 | 0.00 | 75 | 1015.5 |
| 20260505000507 | 79 | 124 | 9.6 | 13.0 | 0.00 | 0.00 | 0.00 | 61 | 1016.1 |
| 20260505000501 | 79 | 120 | 8.7 | 13.0 | 0.00 | 0.00 | 0.00 | 59 | 1016.1 |
| 20260505000454 | 79 | 111 | 10.4 | 13.0 | 0.00 | 0.00 | 0.00 | 64 | 1015.4 |
| 20260505000450 | 79 | 121 | 10.4 | 13.9 | 0.00 | 0.00 | 0.00 | 64 | 1015.5 |
| 20260505000445 | 78 | 117 | 11.3 | 17.4 | 0.00 | 0.00 | 0.00 | 68 | 1015.3 |
| 20260505000439 | 80 | 129 | 8.7 | 11.3 | 0.00 | 0.00 | 0.00 | 62 | 1015.9 |
| 20260505000434 | 79 | 103 | 11.3 | 17.4 | 0.00 | 0.00 | 0.00 | 64 | 1015.2 |
| 20260505000428 | 78 | 113 | 10.4 | 15.6 | 0.00 | 0.00 | 0.00 | 65 | 1015.2 |
| 20260505000422 | 78 | 132 | 11.3 | 15.6 | 0.00 | 0.00 | 0.00 | 64 | 1015.2 |
| 20260505000420 | 76 | 117 | 13.0 | 17.4 | 0.00 | 0.00 | 0.00 | 70 | 1015.2 |
| 20260505000413 | 78 | 111 | 10.4 | 15.6 | 0.00 | 0.00 | 0.00 | 66 | 1015.3 |
| 20260505000407 | 79 | 123 | 10.4 | 13.9 | 0.00 | 0.00 | 0.00 | 64 | 1015.3 |
| 20260505000402 | 78 | 123 | 11.3 | 15.6 | 0.00 | 0.00 | 0.00 | 67 | 1015.2 |
| 20260505000358 | 74 | 119 | 13.0 | 16.5 | 0.00 | 0.00 | 0.00 | 72 | 1015.3 |
| 20260505000351 | 75 | 111 | 13.0 | 15.6 | 0.00 | 0.00 | 0.00 | 71 | 1015.1 |
| 20260505000344 | 75 | 122 | 13.9 | 17.4 | 0.00 | 0.00 | 0.00 | 73 | 1015.1 |
| 20260505000218 | 80 | 123 | 9.6 | 12.2 | 0.00 | 0.00 | 0.00 | 59 | 1015.9 |
| 20260505000211 | 81 | 117 | 7.8 | 12.2 | 0.00 | 0.00 | 0.00 | 59 | 1015.7 |
| 20260505000205 | 74 | 106 | 13.0 | 17.4 | 0.00 | 0.00 | 0.00 | 72 | 1015.0 |
| 20260505000200 | 80 | 109 | 9.6 | 12.2 | 0.00 | 0.00 | 0.00 | 61 | 1015.7 |
| 20260505000154 | 74 | 111 | 13.9 | 16.5 | 0.00 | 0.00 | 0.00 | 71 | 1014.9 |
| 20260505000147 | 81 | 123 | 9.6 | 13.9 | 0.00 | 0.00 | 0.00 | 60 | 1015.7 |
| 20260505000142 | 80 | 109 | 10.4 | 15.6 | 0.00 | 0.00 | 0.00 | 62 | 1015.7 |
| 20260505000137 | 80 | 123 | 8.7 | 15.6 | 0.00 | 0.00 | 0.00 | 62 | 1015.6 |
| 20260505000131 | 74 | 130 | 13.0 | 18.2 | 0.00 | 0.00 | 0.00 | 73 | 1015.1 |
| 20260505000126 | 74 | 117 | 13.9 | 17.4 | 0.00 | 0.00 | 0.00 | 73 | 1015.3 |
| 20260505000000 | 79 | 111 | 10.4 | 13.0 | 0.00 | 0.00 | 0.00 | 64 | 1015.4 |
| 20260504235954 | 79 | 121 | 10.4 | 13.9 | 0.00 | 0.00 | 0.00 | 64 | 1015.5 |
| 20260504235947 | 78 | 117 | 11.3 | 17.4 | 0.00 | 0.00 | 0.00 | 68 | 1015.3 |
| 20260504235941 | 79 | 103 | 11.3 | 17.4 | 0.00 | 0.00 | 0.00 | 64 | 1015.2 |
| 20260504235936 | 78 | 113 | 10.4 | 15.6 | 0.00 | 0.00 | 0.00 | 65 | 1015.2 |
| 20260504235930 | 78 | 132 | 11.3 | 15.6 | 0.00 | 0.00 | 0.00 | 64 | 1015.2 |
| 20260504235926 | 79 | 123 | 10.4 | 13.9 | 0.00 | 0.00 | 0.00 | 64 | 1015.3 |
| 20260504235921 | 78 | 111 | 10.4 | 15.6 | 0.00 | 0.00 | 0.00 | 66 | 1015.3 |
| 20260504235915 | 74 | 119 | 13.0 | 16.5 | 0.00 | 0.00 | 0.00 | 72 | 1015.3 |
| 20260504235909 | 76 | 117 | 13.0 | 17.4 | 0.00 | 0.00 | 0.00 | 70 | 1015.2 |
| 20260504235904 | 78 | 123 | 11.3 | 15.6 | 0.00 | 0.00 | 0.00 | 67 | 1015.2 |
| 20260504235736 | 79 | 130 | 9.6 | 13.0 | 0.00 | 0.00 | 0.00 | 62 | 1016.2 |
| 20260504235731 | 74 | 109 | 13.9 | 18.2 | 0.00 | 0.00 | 0.00 | 74 | 1015.2 |
| 20260504235725 | 78 | 132 | 9.6 | 12.2 | 0.00 | 0.00 | 0.00 | 59 | 1016.3 |
| 20260504235720 | 75 | 111 | 13.0 | 15.6 | 0.00 | 0.00 | 0.00 | 71 | 1015.1 |
| 20260504235714 | 74 | 106 | 13.0 | 17.4 | 0.00 | 0.00 | 0.00 | 72 | 1015.0 |
| 20260504235709 | 74 | 111 | 13.9 | 16.5 | 0.00 | 0.00 | 0.00 | 71 | 1014.9 |
| 20260504235541 | 79 | 120 | 8.7 | 13.0 | 0.00 | 0.00 | 0.00 | 59 | 1016.1 |
| 20260504235535 | 74 | 117 | 13.9 | 17.4 | 0.00 | 0.00 | 0.00 | 73 | 1015.3 |
| 20260504235530 | 80 | 129 | 8.7 | 11.3 | 0.00 | 0.00 | 0.00 | 62 | 1015.9 |
| 20260504235526 | 80 | 123 | 9.6 | 12.2 | 0.00 | 0.00 | 0.00 | 59 | 1015.9 |
| 20260504235520 | 81 | 117 | 7.8 | 12.2 | 0.00 | 0.00 | 0.00 | 59 | 1015.7 |
| 20260504235515 | 73 | 121 | 13.0 | 17.4 | 0.00 | 0.00 | 0.00 | 75 | 1015.5 |
| 20260504235509 | 80 | 109 | 9.6 | 12.2 | 0.00 | 0.00 | 0.00 | 61 | 1015.7 |
| 20260504235504 | 81 | 123 | 9.6 | 13.9 | 0.00 | 0.00 | 0.00 | 60 | 1015.7 |
| 20260504235458 | 80 | 109 | 10.4 | 15.6 | 0.00 | 0.00 | 0.00 | 62 | 1015.7 |
| 20260504235454 | 80 | 123 | 8.7 | 15.6 | 0.00 | 0.00 | 0.00 | 62 | 1015.6 |
| 20260504235448 | 79 | 111 | 10.4 | 13.0 | 0.00 | 0.00 | 0.00 | 64 | 1015.4 |
| 20260504235441 | 79 | 121 | 10.4 | 13.9 | 0.00 | 0.00 | 0.00 | 64 | 1015.5 |
| 20260504235436 | 78 | 117 | 11.3 | 17.4 | 0.00 | 0.00 | 0.00 | 68 | 1015.3 |
| 20260504235432 | 79 | 123 | 10.4 | 13.9 | 0.00 | 0.00 | 0.00 | 64 | 1015.3 |
| 20260504235426 | 79 | 103 | 11.3 | 17.4 | 0.00 | 0.00 | 0.00 | 64 | 1015.2 |
| 20260504235420 | 78 | 113 | 10.4 | 15.6 | 0.00 | 0.00 | 0.00 | 65 | 1015.2 |
| 20260504235416 | 78 | 132 | 11.3 | 15.6 | 0.00 | 0.00 | 0.00 | 64 | 1015.2 |
| 20260504235411 | 78 | 111 | 10.4 | 15.6 | 0.00 | 0.00 | 0.00 | 66 | 1015.3 |
| 20260504235405 | 78 | 123 | 11.3 | 15.6 | 0.00 | 0.00 | 0.00 | 67 | 1015.2 |
| 20260504235400 | 76 | 117 | 13.0 | 17.4 | 0.00 | 0.00 | 0.00 | 70 | 1015.2 |
| 20260504235355 | 74 | 119 | 13.0 | 16.5 | 0.00 | 0.00 | 0.00 | 72 | 1015.3 |
| 20260504235227 | 75 | 111 | 13.0 | 15.6 | 0.00 | 0.00 | 0.00 | 71 | 1015.1 |
| 20260504235221 | 75 | 122 | 13.9 | 17.4 | 0.00 | 0.00 | 0.00 | 73 | 1015.1 |
| 20260504235054 | 74 | 111 | 13.9 | 16.5 | 0.00 | 0.00 | 0.00 | 71 | 1014.9 |
| 20260504235048 | 74 | 130 | 13.0 | 18.2 | 0.00 | 0.00 | 0.00 | 73 | 1015.1 |
| 20260504235043 | 74 | 117 | 13.9 | 17.4 | 0.00 | 0.00 | 0.00 | 73 | 1015.3 |
| 20260504234916 | 78 | 141 | 8.7 | 12.2 | 0.00 | 0.09 | 0.00 | 57 | 1017.0 |
| 20260504234911 | 74 | 119 | 13.0 | 16.5 | 0.00 | 0.00 | 0.00 | 72 | 1015.3 |
| 20260504234906 | 77 | 144 | 7.8 | 10.4 | 0.00 | 0.21 | 0.00 | 59 | 1017.0 |
| 20260504234901 | 78 | 132 | 8.7 | 11.3 | 0.00 | 0.21 | 0.00 | 57 | 1017.1 |
| 20260504234855 | 77 | 130 | 7.8 | 12.2 | 0.00 | 0.21 | 0.00 | 60 | 1017.2 |
| 20260504234850 | 76 | 149 | 8.7 | 12.2 | 0.00 | 0.21 | 0.00 | 56 | 1017.4 |
| 20260504234846 | 77 | 0.0 | 0.0 | 0.00 | 0.21 | 0.00 | 57 | 1017.4 | |
| 20260504234840 | 79 | 132 | 8.7 | 12.2 | 0.00 | 0.00 | 0.00 | 60 | 1016.5 |
| 20260504234833 | 79 | 139 | 7.8 | 12.2 | 0.00 | 0.00 | 0.00 | 58 | 1016.6 |
| 20260504234828 | 78 | 132 | 7.0 | 10.4 | 0.00 | 0.00 | 0.00 | 57 | 1016.8 |
| 20260504234822 | 79 | 124 | 9.6 | 13.0 | 0.00 | 0.00 | 0.00 | 61 | 1016.1 |
| 20260504234818 | 78 | 132 | 11.3 | 15.6 | 0.00 | 0.00 | 0.00 | 64 | 1015.2 |
| 20260504234813 | 78 | 111 | 10.4 | 15.6 | 0.00 | 0.00 | 0.00 | 66 | 1015.3 |
| 20260504234807 | 78 | 113 | 10.4 | 15.6 | 0.00 | 0.00 | 0.00 | 65 | 1015.2 |
| 20260504234802 | 79 | 130 | 9.6 | 13.0 | 0.00 | 0.00 | 0.00 | 62 | 1016.2 |
| 20260504234756 | 78 | 132 | 9.6 | 12.2 | 0.00 | 0.00 | 0.00 | 59 | 1016.3 |
| 20260504234752 | 79 | 120 | 8.7 | 13.0 | 0.00 | 0.00 | 0.00 | 59 | 1016.1 |
| 20260504234747 | 76 | 117 | 13.0 | 17.4 | 0.00 | 0.00 | 0.00 | 70 | 1015.2 |
| 20260504234742 | 80 | 129 | 8.7 | 11.3 | 0.00 | 0.00 | 0.00 | 62 | 1015.9 |
| 20260504234735 | 80 | 123 | 9.6 | 12.2 | 0.00 | 0.00 | 0.00 | 59 | 1015.9 |
| 20260504234730 | 74 | 109 | 13.9 | 18.2 | 0.00 | 0.00 | 0.00 | 74 | 1015.2 |
| 20260504234725 | 81 | 117 | 7.8 | 12.2 | 0.00 | 0.00 | 0.00 | 59 | 1015.7 |
| 20260504234720 | 80 | 109 | 9.6 | 12.2 | 0.00 | 0.00 | 0.00 | 61 | 1015.7 |
| 20260504234553 | 80 | 109 | 10.4 | 15.6 | 0.00 | 0.00 | 0.00 | 62 | 1015.7 |
| 20260504234548 | 80 | 123 | 8.7 | 15.6 | 0.00 | 0.00 | 0.00 | 62 | 1015.6 |
| 20260504234542 | 79 | 111 | 10.4 | 13.0 | 0.00 | 0.00 | 0.00 | 64 | 1015.4 |
| 20260504234537 | 79 | 121 | 10.4 | 13.9 | 0.00 | 0.00 | 0.00 | 64 | 1015.5 |
| 20260504234529 | 78 | 117 | 11.3 | 17.4 | 0.00 | 0.00 | 0.00 | 68 | 1015.3 |
| 20260504234524 | 79 | 123 | 10.4 | 13.9 | 0.00 | 0.00 | 0.00 | 64 | 1015.3 |
| 20260504234519 | 74 | 117 | 13.9 | 17.4 | 0.00 | 0.00 | 0.00 | 73 | 1015.3 |
| 20260504234514 | 79 | 103 | 11.3 | 17.4 | 0.00 | 0.00 | 0.00 | 64 | 1015.2 |
| 20260504234509 | 78 | 123 | 11.3 | 15.6 | 0.00 | 0.00 | 0.00 | 67 | 1015.2 |
| 20260504234503 | 75 | 111 | 13.0 | 15.6 | 0.00 | 0.00 | 0.00 | 71 | 1015.1 |
| 20260504234458 | 75 | 122 | 13.9 | 17.4 | 0.00 | 0.00 | 0.00 | 73 | 1015.1 |
| 20260504234452 | 74 | 106 | 13.0 | 17.4 | 0.00 | 0.00 | 0.00 | 72 | 1015.0 |
| 20260504234448 | 74 | 111 | 13.9 | 16.5 | 0.00 | 0.00 | 0.00 | 71 | 1014.9 |
| 20260504234442 | 74 | 130 | 13.0 | 18.2 | 0.00 | 0.00 | 0.00 | 73 | 1015.1 |
| 20260504234437 | 74 | 119 | 13.0 | 16.5 | 0.00 | 0.00 | 0.00 | 72 | 1015.3 |
| 20260504234311 | 78 | 132 | 11.3 | 15.6 | 0.00 | 0.00 | 0.00 | 64 | 1015.2 |
| 20260504234305 | 78 | 111 | 10.4 | 15.6 | 0.00 | 0.00 | 0.00 | 66 | 1015.3 |
| 20260504234300 | 76 | 117 | 13.0 | 17.4 | 0.00 | 0.00 | 0.00 | 70 | 1015.2 |
| 20260504234254 | 74 | 109 | 13.9 | 18.2 | 0.00 | 0.00 | 0.00 | 74 | 1015.2 |
| 20260504234128 | 80 | 0.0 | 0.0 | 0.00 | 0.21 | 0.00 | 56 | 1017.6 | |
| 20260504234123 | 77 | 138 | 7.0 | 10.4 | 0.00 | 0.00 | 0.00 | 53 | 1016.9 |
| 20260504234118 | 78 | 140 | 7.8 | 11.3 | 0.00 | 0.00 | 0.00 | 60 | 1017.0 |
| 20260504234112 | 78 | 141 | 8.7 | 12.2 | 0.00 | 0.09 | 0.00 | 57 | 1017.0 |
| 20260504234106 | 77 | 144 | 7.8 | 10.4 | 0.00 | 0.21 | 0.00 | 59 | 1017.0 |
| 20260504234102 | 78 | 132 | 8.7 | 11.3 | 0.00 | 0.21 | 0.00 | 57 | 1017.1 |
| 20260504234058 | 77 | 130 | 7.8 | 12.2 | 0.00 | 0.21 | 0.00 | 60 | 1017.2 |
| 20260504234053 | 76 | 149 | 8.7 | 12.2 | 0.00 | 0.21 | 0.00 | 56 | 1017.4 |
| 20260504234047 | 79 | 132 | 8.7 | 12.2 | 0.00 | 0.00 | 0.00 | 60 | 1016.5 |
| 20260504234041 | 79 | 139 | 7.8 | 12.2 | 0.00 | 0.00 | 0.00 | 58 | 1016.6 |
| 20260504234036 | 78 | 132 | 7.0 | 10.4 | 0.00 | 0.00 | 0.00 | 57 | 1016.8 |
| 20260504234031 | 79 | 124 | 9.6 | 13.0 | 0.00 | 0.00 | 0.00 | 61 | 1016.1 |
| 20260504234024 | 79 | 130 | 9.6 | 13.0 | 0.00 | 0.00 | 0.00 | 62 | 1016.2 |
| 20260504234018 | 78 | 132 | 9.6 | 12.2 | 0.00 | 0.00 | 0.00 | 59 | 1016.3 |
| 20260504234013 | 79 | 120 | 8.7 | 13.0 | 0.00 | 0.00 | 0.00 | 59 | 1016.1 |
| 20260504234008 | 80 | 129 | 8.7 | 11.3 | 0.00 | 0.00 | 0.00 | 62 | 1015.9 |
| 20260504234003 | 80 | 123 | 9.6 | 12.2 | 0.00 | 0.00 | 0.00 | 59 | 1015.9 |
| 20260504233957 | 74 | 119 | 13.0 | 16.5 | 0.00 | 0.00 | 0.00 | 72 | 1015.3 |
| 20260504233952 | 81 | 117 | 7.8 | 12.2 | 0.00 | 0.00 | 0.00 | 59 | 1015.7 |
| 20260504233948 | 80 | 109 | 9.6 | 12.2 | 0.00 | 0.00 | 0.00 | 61 | 1015.7 |
| 20260504233942 | 81 | 123 | 9.6 | 13.9 | 0.00 | 0.00 | 0.00 | 60 | 1015.7 |
| 20260504233937 | 80 | 109 | 10.4 | 15.6 | 0.00 | 0.00 | 0.00 | 62 | 1015.7 |
| 20260504233931 | 80 | 123 | 8.7 | 15.6 | 0.00 | 0.00 | 0.00 | 62 | 1015.6 |
| 20260504233925 | 79 | 111 | 10.4 | 13.0 | 0.00 | 0.00 | 0.00 | 64 | 1015.4 |
| 20260504233919 | 79 | 121 | 10.4 | 13.9 | 0.00 | 0.00 | 0.00 | 64 | 1015.5 |
| 20260504233914 | 78 | 117 | 11.3 | 17.4 | 0.00 | 0.00 | 0.00 | 68 | 1015.3 |
| 20260504233909 | 75 | 111 | 13.0 | 15.6 | 0.00 | 0.00 | 0.00 | 71 | 1015.1 |
| 20260504233903 | 74 | 106 | 13.0 | 17.4 | 0.00 | 0.00 | 0.00 | 72 | 1015.0 |
| 20260504233857 | 78 | 123 | 11.3 | 15.6 | 0.00 | 0.00 | 0.00 | 67 | 1015.2 |
| 20260504233853 | 74 | 130 | 13.0 | 18.2 | 0.00 | 0.00 | 0.00 | 73 | 1015.1 |
| 20260504233848 | 75 | 122 | 13.9 | 17.4 | 0.00 | 0.00 | 0.00 | 73 | 1015.1 |
| 20260504233842 | 79 | 123 | 10.4 | 13.9 | 0.00 | 0.00 | 0.00 | 64 | 1015.3 |
| 20260504233837 | 74 | 111 | 13.9 | 16.5 | 0.00 | 0.00 | 0.00 | 71 | 1014.9 |
| 20260504233710 | 76 | 117 | 13.0 | 17.4 | 0.00 | 0.00 | 0.00 | 70 | 1015.2 |
| 20260504233705 | 78 | 113 | 10.4 | 15.6 | 0.00 | 0.00 | 0.00 | 65 | 1015.2 |
| 20260504233659 | 78 | 132 | 11.3 | 15.6 | 0.00 | 0.00 | 0.00 | 64 | 1015.2 |
| 20260504233654 | 78 | 111 | 10.4 | 15.6 | 0.00 | 0.00 | 0.00 | 66 | 1015.3 |
| 20260504233648 | 74 | 109 | 13.9 | 18.2 | 0.00 | 0.00 | 0.00 | 74 | 1015.2 |
| 20260504233359 | 78 | 123 | 11.3 | 15.6 | 0.00 | 0.00 | 0.00 | 67 | 1015.2 |
| 20260504233355 | 75 | 122 | 13.9 | 17.4 | 0.00 | 0.00 | 0.00 | 73 | 1015.1 |
| 20260504233349 | 74 | 106 | 13.0 | 17.4 | 0.00 | 0.00 | 0.00 | 72 | 1015.0 |
| 20260504233344 | 74 | 130 | 13.0 | 18.2 | 0.00 | 0.00 | 0.00 | 73 | 1015.1 |
| 20260504233217 | 74 | 111 | 13.9 | 16.5 | 0.00 | 0.00 | 0.00 | 71 | 1014.9 |
| 20260504233051 | 74 | 109 | 13.9 | 18.2 | 0.00 | 0.00 | 0.00 | 74 | 1015.2 |
| 20260504232925 | 78 | 113 | 10.4 | 15.6 | 0.00 | 0.00 | 0.00 | 65 | 1015.2 |
| 20260504232920 | 78 | 123 | 11.3 | 15.6 | 0.00 | 0.00 | 0.00 | 67 | 1015.2 |
| 20260504232913 | 75 | 111 | 13.0 | 15.6 | 0.00 | 0.00 | 0.00 | 71 | 1015.1 |
| 20260504232747 | 78 | 132 | 11.3 | 15.6 | 0.00 | 0.00 | 0.00 | 64 | 1015.2 |
| 20260504232741 | 78 | 0.0 | 0.0 | 0.00 | 0.21 | 0.00 | 51 | 1017.8 | |
| 20260504232735 | 79 | 123 | 10.4 | 13.9 | 0.00 | 0.00 | 0.00 | 64 | 1015.3 |
| 20260504232730 | 74 | 106 | 13.0 | 17.4 | 0.00 | 0.00 | 0.00 | 72 | 1015.0 |
| 20260504232724 | 78 | 111 | 10.4 | 15.6 | 0.00 | 0.00 | 0.00 | 66 | 1015.3 |
| 20260504232720 | 77 | 0.0 | 0.0 | 0.00 | 0.21 | 0.00 | 54 | 1017.9 | |
| 20260504232715 | 74 | 130 | 13.0 | 18.2 | 0.00 | 0.00 | 0.00 | 73 | 1015.1 |
| 20260504232708 | 74 | 111 | 13.9 | 16.5 | 0.00 | 0.00 | 0.00 | 71 | 1014.9 |
| 20260504232702 | 76 | 117 | 13.0 | 17.4 | 0.00 | 0.00 | 0.00 | 70 | 1015.2 |
| 20260504232536 | 78 | 0.0 | 0.0 | 0.00 | 0.21 | 0.00 | 52 | 1017.5 | |
| 20260504232530 | 77 | 138 | 7.0 | 10.4 | 0.00 | 0.00 | 0.00 | 53 | 1016.9 |
| 20260504232525 | 78 | 140 | 7.8 | 11.3 | 0.00 | 0.00 | 0.00 | 60 | 1017.0 |
| 20260504232520 | 78 | 141 | 8.7 | 12.2 | 0.00 | 0.09 | 0.00 | 57 | 1017.0 |
| 20260504232515 | 74 | 109 | 13.9 | 18.2 | 0.00 | 0.00 | 0.00 | 74 | 1015.2 |
| 20260504232507 | 77 | 144 | 7.8 | 10.4 | 0.00 | 0.21 | 0.00 | 59 | 1017.0 |
| 20260504232502 | 78 | 132 | 8.7 | 11.3 | 0.00 | 0.21 | 0.00 | 57 | 1017.1 |
| 20260504232457 | 77 | 130 | 7.8 | 12.2 | 0.00 | 0.21 | 0.00 | 60 | 1017.2 |
| 20260504232451 | 76 | 149 | 8.7 | 12.2 | 0.00 | 0.21 | 0.00 | 56 | 1017.4 |
| 20260504232446 | 79 | 132 | 8.7 | 12.2 | 0.00 | 0.00 | 0.00 | 60 | 1016.5 |
| 20260504232440 | 79 | 139 | 7.8 | 12.2 | 0.00 | 0.00 | 0.00 | 58 | 1016.6 |
| 20260504232435 | 78 | 132 | 7.0 | 10.4 | 0.00 | 0.00 | 0.00 | 57 | 1016.8 |
| 20260504232430 | 79 | 124 | 9.6 | 13.0 | 0.00 | 0.00 | 0.00 | 61 | 1016.1 |
| 20260504232425 | 79 | 130 | 9.6 | 13.0 | 0.00 | 0.00 | 0.00 | 62 | 1016.2 |
| 20260504232419 | 78 | 132 | 9.6 | 12.2 | 0.00 | 0.00 | 0.00 | 59 | 1016.3 |
| 20260504232414 | 78 | 123 | 11.3 | 15.6 | 0.00 | 0.00 | 0.00 | 67 | 1015.2 |
| 20260504232407 | 79 | 120 | 8.7 | 13.0 | 0.00 | 0.00 | 0.00 | 59 | 1016.1 |
| 20260504232403 | 80 | 129 | 8.7 | 11.3 | 0.00 | 0.00 | 0.00 | 62 | 1015.9 |
| 20260504232357 | 80 | 123 | 9.6 | 12.2 | 0.00 | 0.00 | 0.00 | 59 | 1015.9 |
| 20260504232352 | 81 | 117 | 7.8 | 12.2 | 0.00 | 0.00 | 0.00 | 59 | 1015.7 |
| 20260504232347 | 80 | 109 | 9.6 | 12.2 | 0.00 | 0.00 | 0.00 | 61 | 1015.7 |
| 20260504232342 | 81 | 123 | 9.6 | 13.9 | 0.00 | 0.00 | 0.00 | 60 | 1015.7 |
| 20260504232336 | 80 | 109 | 10.4 | 15.6 | 0.00 | 0.00 | 0.00 | 62 | 1015.7 |
| 20260504232330 | 80 | 123 | 8.7 | 15.6 | 0.00 | 0.00 | 0.00 | 62 | 1015.6 |
| 20260504232325 | 79 | 111 | 10.4 | 13.0 | 0.00 | 0.00 | 0.00 | 64 | 1015.4 |
| 20260504232319 | 79 | 121 | 10.4 | 13.9 | 0.00 | 0.00 | 0.00 | 64 | 1015.5 |
| 20260504232314 | 75 | 122 | 13.9 | 17.4 | 0.00 | 0.00 | 0.00 | 73 | 1015.1 |
| 20260504232307 | 78 | 117 | 11.3 | 17.4 | 0.00 | 0.00 | 0.00 | 68 | 1015.3 |
| 20260504232303 | 75 | 111 | 13.0 | 15.6 | 0.00 | 0.00 | 0.00 | 71 | 1015.1 |
| 20260504232256 | 79 | 123 | 10.4 | 13.9 | 0.00 | 0.00 | 0.00 | 64 | 1015.3 |
| 20260504232250 | 79 | 103 | 11.3 | 17.4 | 0.00 | 0.00 | 0.00 | 64 | 1015.2 |
| 20260504232246 | 78 | 113 | 10.4 | 15.6 | 0.00 | 0.00 | 0.00 | 65 | 1015.2 |
| 20260504232241 | 78 | 132 | 11.3 | 15.6 | 0.00 | 0.00 | 0.00 | 64 | 1015.2 |
| 20260504232235 | 78 | 111 | 10.4 | 15.6 | 0.00 | 0.00 | 0.00 | 66 | 1015.3 |
| 20260504232229 | 74 | 106 | 13.0 | 17.4 | 0.00 | 0.00 | 0.00 | 72 | 1015.0 |
| 20260504232224 | 74 | 111 | 13.9 | 16.5 | 0.00 | 0.00 | 0.00 | 71 | 1014.9 |
| 20260504232218 | 74 | 130 | 13.0 | 18.2 | 0.00 | 0.00 | 0.00 | 73 | 1015.1 |
| 20260504231810 | 75 | 122 | 13.9 | 17.4 | 0.00 | 0.00 | 0.00 | 73 | 1015.1 |
| 20260504231643 | 74 | 106 | 13.0 | 17.4 | 0.00 | 0.00 | 0.00 | 72 | 1015.0 |
| 20260504231637 | 78 | 113 | 10.4 | 15.6 | 0.00 | 0.00 | 0.00 | 65 | 1015.2 |
| 20260504231632 | 78 | 111 | 10.4 | 15.6 | 0.00 | 0.00 | 0.00 | 66 | 1015.3 |
| 20260504231626 | 74 | 111 | 13.9 | 16.5 | 0.00 | 0.00 | 0.00 | 71 | 1014.9 |
| 20260504231608 | 74 | 130 | 13.0 | 18.2 | 0.00 | 0.00 | 0.00 | 73 | 1015.1 |
| 20260504231332 | 78 | 132 | 11.3 | 15.6 | 0.00 | 0.00 | 0.00 | 64 | 1015.2 |
| 20260504231327 | 78 | 123 | 11.3 | 15.6 | 0.00 | 0.00 | 0.00 | 67 | 1015.2 |
| 20260504231322 | 75 | 111 | 13.0 | 15.6 | 0.00 | 0.00 | 0.00 | 71 | 1015.1 |
| 20260504231317 | 75 | 122 | 13.9 | 17.4 | 0.00 | 0.00 | 0.00 | 73 | 1015.1 |
| 20260504231030 | 74 | 111 | 13.9 | 16.5 | 0.00 | 0.00 | 0.00 | 71 | 1014.9 |
| 20260504230901 | 80 | 123 | 8.7 | 15.6 | 0.00 | 0.00 | 0.00 | 62 | 1015.6 |
| 20260504230855 | 78 | 113 | 10.4 | 15.6 | 0.00 | 0.00 | 0.00 | 65 | 1015.2 |
| 20260504230849 | 76 | 117 | 13.0 | 17.4 | 0.00 | 0.00 | 0.00 | 70 | 1015.2 |
| 20260504230845 | 79 | 111 | 10.4 | 13.0 | 0.00 | 0.00 | 0.00 | 64 | 1015.4 |
| 20260504230719 | 78 | 123 | 11.3 | 15.6 | 0.00 | 0.00 | 0.00 | 67 | 1015.2 |
| 20260504230714 | 75 | 111 | 13.0 | 15.6 | 0.00 | 0.00 | 0.00 | 71 | 1015.1 |
| 20260504230708 | 79 | 123 | 10.4 | 13.9 | 0.00 | 0.00 | 0.00 | 64 | 1015.3 |
| 20260504230704 | 78 | 117 | 11.3 | 17.4 | 0.00 | 0.00 | 0.00 | 68 | 1015.3 |
| 20260504230657 | 79 | 103 | 11.3 | 17.4 | 0.00 | 0.00 | 0.00 | 64 | 1015.2 |
| 20260504230651 | 75 | 122 | 13.9 | 17.4 | 0.00 | 0.00 | 0.00 | 73 | 1015.1 |
| 20260504230646 | 74 | 106 | 13.0 | 17.4 | 0.00 | 0.00 | 0.00 | 72 | 1015.0 |
| 20260504230521 | 74 | 111 | 13.9 | 16.5 | 0.00 | 0.00 | 0.00 | 71 | 1014.9 |
| 20260504230354 | 78 | 113 | 10.4 | 15.6 | 0.00 | 0.00 | 0.00 | 65 | 1015.2 |
| 20260504230349 | 76 | 117 | 13.0 | 17.4 | 0.00 | 0.00 | 0.00 | 70 | 1015.2 |
| 20260504230220 | 75 | 111 | 13.0 | 15.6 | 0.00 | 0.00 | 0.00 | 71 | 1015.1 |
| 20260504230052 | 75 | 122 | 13.9 | 17.4 | 0.00 | 0.00 | 0.00 | 73 | 1015.1 |
| 20260504230046 | 74 | 106 | 13.0 | 17.4 | 0.00 | 0.00 | 0.00 | 72 | 1015.0 |
| 20260504230041 | 78 | 140 | 7.8 | 11.3 | 0.00 | 0.00 | 0.00 | 60 | 1017.0 |
| 20260504230035 | 78 | 141 | 8.7 | 12.2 | 0.00 | 0.09 | 0.00 | 57 | 1017.0 |
| 20260504230030 | 77 | 144 | 7.8 | 10.4 | 0.00 | 0.21 | 0.00 | 59 | 1017.0 |
| 20260504230024 | 79 | 124 | 9.6 | 13.0 | 0.00 | 0.00 | 0.00 | 61 | 1016.1 |
| 20260504230020 | 78 | 111 | 10.4 | 15.6 | 0.00 | 0.00 | 0.00 | 66 | 1015.3 |
| 20260504225853 | 78 | 132 | 9.6 | 12.2 | 0.00 | 0.00 | 0.00 | 59 | 1016.3 |
| 20260504225848 | 79 | 120 | 8.7 | 13.0 | 0.00 | 0.00 | 0.00 | 59 | 1016.1 |
| 20260504225843 | 76 | 117 | 13.0 | 17.4 | 0.00 | 0.00 | 0.00 | 70 | 1015.2 |
| 20260504225716 | 80 | 123 | 9.6 | 12.2 | 0.00 | 0.00 | 0.00 | 59 | 1015.9 |
| 20260504225711 | 81 | 117 | 7.8 | 12.2 | 0.00 | 0.00 | 0.00 | 59 | 1015.7 |
| 20260504225705 | 80 | 109 | 9.6 | 12.2 | 0.00 | 0.00 | 0.00 | 61 | 1015.7 |
| 20260504225700 | 81 | 123 | 9.6 | 13.9 | 0.00 | 0.00 | 0.00 | 60 | 1015.7 |
| 20260504225653 | 80 | 109 | 10.4 | 15.6 | 0.00 | 0.00 | 0.00 | 62 | 1015.7 |
| 20260504225649 | 80 | 123 | 8.7 | 15.6 | 0.00 | 0.00 | 0.00 | 62 | 1015.6 |
| 20260504225644 | 79 | 111 | 10.4 | 13.0 | 0.00 | 0.00 | 0.00 | 64 | 1015.4 |
| 20260504225639 | 79 | 121 | 10.4 | 13.9 | 0.00 | 0.00 | 0.00 | 64 | 1015.5 |
| 20260504225633 | 79 | 123 | 10.4 | 13.9 | 0.00 | 0.00 | 0.00 | 64 | 1015.3 |
| 20260504225628 | 75 | 111 | 13.0 | 15.6 | 0.00 | 0.00 | 0.00 | 71 | 1015.1 |
| 20260504225622 | 78 | 117 | 11.3 | 17.4 | 0.00 | 0.00 | 0.00 | 68 | 1015.3 |
| 20260504225618 | 79 | 103 | 11.3 | 17.4 | 0.00 | 0.00 | 0.00 | 64 | 1015.2 |
| 20260504225612 | 78 | 132 | 11.3 | 15.6 | 0.00 | 0.00 | 0.00 | 64 | 1015.2 |
| 20260504225607 | 78 | 113 | 10.4 | 15.6 | 0.00 | 0.00 | 0.00 | 65 | 1015.2 |
| 20260504225602 | 78 | 123 | 11.3 | 15.6 | 0.00 | 0.00 | 0.00 | 67 | 1015.2 |
| 20260504225554 | 75 | 122 | 13.9 | 17.4 | 0.00 | 0.00 | 0.00 | 73 | 1015.1 |
| 20260504225542 | 74 | 106 | 13.0 | 17.4 | 0.00 | 0.00 | 0.00 | 72 | 1015.0 |
| 20260504225017 | 78 | 39 | 7.0 | 10.4 | 0.00 | 0.21 | 0.00 | 51 | 1018.1 |
| 20260504225012 | 79 | 111 | 10.4 | 13.0 | 0.00 | 0.00 | 0.00 | 64 | 1015.4 |
| 20260504225008 | 78 | 117 | 11.3 | 17.4 | 0.00 | 0.00 | 0.00 | 68 | 1015.3 |
| 20260504225002 | 75 | 122 | 13.9 | 17.4 | 0.00 | 0.00 | 0.00 | 73 | 1015.1 |
| 20260504224958 | 78 | 132 | 11.3 | 15.6 | 0.00 | 0.00 | 0.00 | 64 | 1015.2 |
| 20260504224952 | 76 | 0.0 | 0.0 | 0.00 | 0.21 | 0.00 | 49 | 1017.9 | |
| 20260504224945 | 79 | 103 | 11.3 | 17.4 | 0.00 | 0.00 | 0.00 | 64 | 1015.2 |
| 20260504224940 | 78 | 113 | 10.4 | 15.6 | 0.00 | 0.00 | 0.00 | 65 | 1015.2 |
| 20260504224934 | 76 | 0.0 | 2.6 | 0.00 | 0.21 | 0.00 | 49 | 1017.9 | |
| 20260504224930 | 78 | 111 | 10.4 | 15.6 | 0.00 | 0.00 | 0.00 | 66 | 1015.3 |
| 20260504224925 | 78 | 123 | 11.3 | 15.6 | 0.00 | 0.00 | 0.00 | 67 | 1015.2 |
| 20260504224919 | 76 | 0.0 | 0.0 | 0.00 | 0.21 | 0.00 | 49 | 1017.9 | |
| 20260504224913 | 76 | 0.0 | 0.0 | 0.00 | 0.21 | 0.00 | 50 | 1017.8 | |
| 20260504224908 | 80 | 0.0 | 0.0 | 0.00 | 0.21 | 0.00 | 56 | 1017.6 | |
| 20260504224902 | 78 | 0.0 | 0.0 | 0.00 | 0.21 | 0.00 | 51 | 1017.8 | |
| 20260504224858 | 77 | 0.0 | 0.0 | 0.00 | 0.21 | 0.00 | 54 | 1017.9 | |
| 20260504224852 | 77 | 0.0 | 0.0 | 0.00 | 0.21 | 0.00 | 57 | 1017.4 | |
| 20260504224846 | 78 | 0.0 | 0.0 | 0.00 | 0.21 | 0.00 | 52 | 1017.5 | |
| 20260504224840 | 78 | 132 | 8.7 | 11.3 | 0.00 | 0.21 | 0.00 | 57 | 1017.1 |
| 20260504224834 | 77 | 130 | 7.8 | 12.2 | 0.00 | 0.21 | 0.00 | 60 | 1017.2 |
| 20260504224829 | 76 | 149 | 8.7 | 12.2 | 0.00 | 0.21 | 0.00 | 56 | 1017.4 |
| 20260504224823 | 79 | 132 | 8.7 | 12.2 | 0.00 | 0.00 | 0.00 | 60 | 1016.5 |
| 20260504224819 | 78 | 132 | 7.0 | 10.4 | 0.00 | 0.00 | 0.00 | 57 | 1016.8 |
| 20260504224815 | 77 | 138 | 7.0 | 10.4 | 0.00 | 0.00 | 0.00 | 53 | 1016.9 |
| 20260504224809 | 79 | 124 | 9.6 | 13.0 | 0.00 | 0.00 | 0.00 | 61 | 1016.1 |
| 20260504224804 | 76 | 117 | 13.0 | 17.4 | 0.00 | 0.00 | 0.00 | 70 | 1015.2 |
| 20260504224759 | 79 | 130 | 9.6 | 13.0 | 0.00 | 0.00 | 0.00 | 62 | 1016.2 |
| 20260504224753 | 78 | 132 | 9.6 | 12.2 | 0.00 | 0.00 | 0.00 | 59 | 1016.3 |
| 20260504224625 | 80 | 123 | 9.6 | 12.2 | 0.00 | 0.00 | 0.00 | 59 | 1015.9 |
| 20260504224620 | 80 | 109 | 9.6 | 12.2 | 0.00 | 0.00 | 0.00 | 61 | 1015.7 |
| 20260504224614 | 81 | 117 | 7.8 | 12.2 | 0.00 | 0.00 | 0.00 | 59 | 1015.7 |
| 20260504224608 | 80 | 109 | 10.4 | 15.6 | 0.00 | 0.00 | 0.00 | 62 | 1015.7 |
| 20260504224604 | 79 | 120 | 8.7 | 13.0 | 0.00 | 0.00 | 0.00 | 59 | 1016.1 |
| 20260504224559 | 81 | 123 | 9.6 | 13.9 | 0.00 | 0.00 | 0.00 | 60 | 1015.7 |
| 20260504224553 | 78 | 140 | 7.8 | 11.3 | 0.00 | 0.00 | 0.00 | 60 | 1017.0 |
| 20260504224548 | 78 | 141 | 8.7 | 12.2 | 0.00 | 0.09 | 0.00 | 57 | 1017.0 |
| 20260504224542 | 79 | 121 | 10.4 | 13.9 | 0.00 | 0.00 | 0.00 | 64 | 1015.5 |
| 20260504224535 | 75 | 111 | 13.0 | 15.6 | 0.00 | 0.00 | 0.00 | 71 | 1015.1 |
| 20260504224530 | 79 | 123 | 10.4 | 13.9 | 0.00 | 0.00 | 0.00 | 64 | 1015.3 |
| 20260504224524 | 77 | 144 | 7.8 | 10.4 | 0.00 | 0.21 | 0.00 | 59 | 1017.0 |
| 20260504224519 | 79 | 139 | 7.8 | 12.2 | 0.00 | 0.00 | 0.00 | 58 | 1016.6 |
| 20260504224513 | 80 | 123 | 8.7 | 15.6 | 0.00 | 0.00 | 0.00 | 62 | 1015.6 |
| 20260504224509 | 75 | 122 | 13.9 | 17.4 | 0.00 | 0.00 | 0.00 | 73 | 1015.1 |
| 20260504224503 | 79 | 111 | 10.4 | 13.0 | 0.00 | 0.00 | 0.00 | 64 | 1015.4 |
| 20260504224458 | 78 | 117 | 11.3 | 17.4 | 0.00 | 0.00 | 0.00 | 68 | 1015.3 |
| 20260504224454 | 79 | 103 | 11.3 | 17.4 | 0.00 | 0.00 | 0.00 | 64 | 1015.2 |
| 20260504224448 | 78 | 113 | 10.4 | 15.6 | 0.00 | 0.00 | 0.00 | 65 | 1015.2 |
| 20260504224443 | 78 | 132 | 11.3 | 15.6 | 0.00 | 0.00 | 0.00 | 64 | 1015.2 |
| 20260504224435 | 78 | 111 | 10.4 | 15.6 | 0.00 | 0.00 | 0.00 | 66 | 1015.3 |
| 20260504224431 | 78 | 123 | 11.3 | 15.6 | 0.00 | 0.00 | 0.00 | 67 | 1015.2 |
| 20260504224145 | 79 | 130 | 9.6 | 13.0 | 0.00 | 0.00 | 0.00 | 62 | 1016.2 |
| 20260504224136 | 78 | 132 | 9.6 | 12.2 | 0.00 | 0.00 | 0.00 | 59 | 1016.3 |
| 20260504224132 | 79 | 120 | 8.7 | 13.0 | 0.00 | 0.00 | 0.00 | 59 | 1016.1 |
| 20260504224128 | 80 | 129 | 8.7 | 11.3 | 0.00 | 0.00 | 0.00 | 62 | 1015.9 |
| 20260504224122 | 80 | 123 | 9.6 | 12.2 | 0.00 | 0.00 | 0.00 | 59 | 1015.9 |
| 20260504224116 | 81 | 117 | 7.8 | 12.2 | 0.00 | 0.00 | 0.00 | 59 | 1015.7 |
| 20260504224112 | 80 | 109 | 9.6 | 12.2 | 0.00 | 0.00 | 0.00 | 61 | 1015.7 |
| 20260504224107 | 81 | 123 | 9.6 | 13.9 | 0.00 | 0.00 | 0.00 | 60 | 1015.7 |
| 20260504224101 | 80 | 109 | 10.4 | 15.6 | 0.00 | 0.00 | 0.00 | 62 | 1015.7 |
| 20260504224056 | 75 | 111 | 13.0 | 15.6 | 0.00 | 0.00 | 0.00 | 71 | 1015.1 |
| 20260504224050 | 79 | 121 | 10.4 | 13.9 | 0.00 | 0.00 | 0.00 | 64 | 1015.5 |
| 20260504224046 | 79 | 123 | 10.4 | 13.9 | 0.00 | 0.00 | 0.00 | 64 | 1015.3 |
| 20260504223757 | 79 | 111 | 10.4 | 13.0 | 0.00 | 0.00 | 0.00 | 64 | 1015.4 |
| 20260504223751 | 78 | 117 | 11.3 | 17.4 | 0.00 | 0.00 | 0.00 | 68 | 1015.3 |
| 20260504223746 | 78 | 111 | 10.4 | 15.6 | 0.00 | 0.00 | 0.00 | 66 | 1015.3 |
| 20260504223740 | 79 | 103 | 11.3 | 17.4 | 0.00 | 0.00 | 0.00 | 64 | 1015.2 |
| 20260504223734 | 78 | 132 | 11.3 | 15.6 | 0.00 | 0.00 | 0.00 | 64 | 1015.2 |
| 20260504223727 | 78 | 123 | 11.3 | 15.6 | 0.00 | 0.00 | 0.00 | 67 | 1015.2 |
| 20260504223722 | 76 | 117 | 13.0 | 17.4 | 0.00 | 0.00 | 0.00 | 70 | 1015.2 |
| 20260504223435 | 79 | 132 | 8.7 | 12.2 | 0.00 | 0.00 | 0.00 | 60 | 1016.5 |
| 20260504223426 | 79 | 121 | 10.4 | 13.9 | 0.00 | 0.00 | 0.00 | 64 | 1015.5 |
| 20260504223422 | 78 | 132 | 7.0 | 10.4 | 0.00 | 0.00 | 0.00 | 57 | 1016.8 |
| 20260504223417 | 77 | 138 | 7.0 | 10.4 | 0.00 | 0.00 | 0.00 | 53 | 1016.9 |
| 20260504223411 | 79 | 139 | 7.8 | 12.2 | 0.00 | 0.00 | 0.00 | 58 | 1016.6 |
| 20260504223407 | 79 | 124 | 9.6 | 13.0 | 0.00 | 0.00 | 0.00 | 61 | 1016.1 |
| 20260504223402 | 79 | 130 | 9.6 | 13.0 | 0.00 | 0.00 | 0.00 | 62 | 1016.2 |
| 20260504223356 | 79 | 123 | 10.4 | 13.9 | 0.00 | 0.00 | 0.00 | 64 | 1015.3 |
| 20260504223352 | 78 | 113 | 10.4 | 15.6 | 0.00 | 0.00 | 0.00 | 65 | 1015.2 |
| 20260504223224 | 78 | 111 | 10.4 | 15.6 | 0.00 | 0.00 | 0.00 | 66 | 1015.3 |
| 20260504223219 | 79 | 120 | 8.7 | 13.0 | 0.00 | 0.00 | 0.00 | 59 | 1016.1 |
| 20260504223053 | 80 | 123 | 9.6 | 12.2 | 0.00 | 0.00 | 0.00 | 59 | 1015.9 |
| 20260504223047 | 78 | 117 | 11.3 | 17.4 | 0.00 | 0.00 | 0.00 | 68 | 1015.3 |
| 20260504223043 | 81 | 117 | 7.8 | 12.2 | 0.00 | 0.00 | 0.00 | 59 | 1015.7 |
| 20260504223037 | 80 | 109 | 9.6 | 12.2 | 0.00 | 0.00 | 0.00 | 61 | 1015.7 |
| 20260504223032 | 81 | 123 | 9.6 | 13.9 | 0.00 | 0.00 | 0.00 | 60 | 1015.7 |
| 20260504223026 | 79 | 103 | 11.3 | 17.4 | 0.00 | 0.00 | 0.00 | 64 | 1015.2 |
| 20260504223019 | 80 | 109 | 10.4 | 15.6 | 0.00 | 0.00 | 0.00 | 62 | 1015.7 |
| 20260504223014 | 78 | 132 | 11.3 | 15.6 | 0.00 | 0.00 | 0.00 | 64 | 1015.2 |
| 20260504223008 | 76 | 117 | 13.0 | 17.4 | 0.00 | 0.00 | 0.00 | 70 | 1015.2 |
| 20260504223003 | 80 | 123 | 8.7 | 15.6 | 0.00 | 0.00 | 0.00 | 62 | 1015.6 |
| 20260504222958 | 78 | 123 | 11.3 | 15.6 | 0.00 | 0.00 | 0.00 | 67 | 1015.2 |
| 20260504222953 | 79 | 111 | 10.4 | 13.0 | 0.00 | 0.00 | 0.00 | 64 | 1015.4 |
| 20260504222947 | 79 | 121 | 10.4 | 13.9 | 0.00 | 0.00 | 0.00 | 64 | 1015.5 |
| 20260504222821 | 78 | 113 | 10.4 | 15.6 | 0.00 | 0.00 | 0.00 | 65 | 1015.2 |
| 20260504222535 | 79 | 103 | 11.3 | 17.4 | 0.00 | 0.00 | 0.00 | 64 | 1015.2 |
| 20260504222529 | 78 | 132 | 11.3 | 15.6 | 0.00 | 0.00 | 0.00 | 64 | 1015.2 |
| 20260504222523 | 78 | 123 | 11.3 | 15.6 | 0.00 | 0.00 | 0.00 | 67 | 1015.2 |
| 20260504222515 | 76 | 117 | 13.0 | 17.4 | 0.00 | 0.00 | 0.00 | 70 | 1015.2 |
| 20260504222350 | 77 | 130 | 7.8 | 12.2 | 0.00 | 0.21 | 0.00 | 60 | 1017.2 |
| 20260504222345 | 78 | 140 | 7.8 | 11.3 | 0.00 | 0.00 | 0.00 | 60 | 1017.0 |
| 20260504222339 | 79 | 111 | 10.4 | 13.0 | 0.00 | 0.00 | 0.00 | 64 | 1015.4 |
| 20260504222213 | 78 | 113 | 10.4 | 15.6 | 0.00 | 0.00 | 0.00 | 65 | 1015.2 |
| 20260504222209 | 77 | 144 | 7.8 | 10.4 | 0.00 | 0.21 | 0.00 | 59 | 1017.0 |
| 20260504222203 | 78 | 111 | 10.4 | 15.6 | 0.00 | 0.00 | 0.00 | 66 | 1015.3 |
| 20260504222158 | 78 | 132 | 8.7 | 11.3 | 0.00 | 0.21 | 0.00 | 57 | 1017.1 |
| 20260504222152 | 79 | 132 | 8.7 | 12.2 | 0.00 | 0.00 | 0.00 | 60 | 1016.5 |
| 20260504222146 | 78 | 132 | 7.0 | 10.4 | 0.00 | 0.00 | 0.00 | 57 | 1016.8 |
| 20260504222142 | 77 | 138 | 7.0 | 10.4 | 0.00 | 0.00 | 0.00 | 53 | 1016.9 |
| 20260504222136 | 79 | 139 | 7.8 | 12.2 | 0.00 | 0.00 | 0.00 | 58 | 1016.6 |
| 20260504222131 | 79 | 124 | 9.6 | 13.0 | 0.00 | 0.00 | 0.00 | 61 | 1016.1 |
| 20260504222126 | 79 | 130 | 9.6 | 13.0 | 0.00 | 0.00 | 0.00 | 62 | 1016.2 |
| 20260504222121 | 78 | 132 | 9.6 | 12.2 | 0.00 | 0.00 | 0.00 | 59 | 1016.3 |
| 20260504222116 | 79 | 120 | 8.7 | 13.0 | 0.00 | 0.00 | 0.00 | 59 | 1016.1 |
| 20260504222109 | 80 | 129 | 8.7 | 11.3 | 0.00 | 0.00 | 0.00 | 62 | 1015.9 |
| 20260504222105 | 80 | 123 | 9.6 | 12.2 | 0.00 | 0.00 | 0.00 | 59 | 1015.9 |
| 20260504222059 | 81 | 123 | 9.6 | 13.9 | 0.00 | 0.00 | 0.00 | 60 | 1015.7 |
| 20260504222053 | 81 | 117 | 7.8 | 12.2 | 0.00 | 0.00 | 0.00 | 59 | 1015.7 |
| 20260504222048 | 80 | 109 | 9.6 | 12.2 | 0.00 | 0.00 | 0.00 | 61 | 1015.7 |
| 20260504222044 | 80 | 109 | 10.4 | 15.6 | 0.00 | 0.00 | 0.00 | 62 | 1015.7 |
| 20260504222038 | 80 | 123 | 8.7 | 15.6 | 0.00 | 0.00 | 0.00 | 62 | 1015.6 |
| 20260504222033 | 79 | 121 | 10.4 | 13.9 | 0.00 | 0.00 | 0.00 | 64 | 1015.5 |
| 20260504222027 | 79 | 123 | 10.4 | 13.9 | 0.00 | 0.00 | 0.00 | 64 | 1015.3 |
| 20260504222023 | 78 | 117 | 11.3 | 17.4 | 0.00 | 0.00 | 0.00 | 68 | 1015.3 |
| 20260504222017 | 79 | 103 | 11.3 | 17.4 | 0.00 | 0.00 | 0.00 | 64 | 1015.2 |
| 20260504222012 | 78 | 123 | 11.3 | 15.6 | 0.00 | 0.00 | 0.00 | 67 | 1015.2 |
| 20260504221846 | 78 | 132 | 11.3 | 15.6 | 0.00 | 0.00 | 0.00 | 64 | 1015.2 |
| 20260504221721 | 78 | 111 | 10.4 | 15.6 | 0.00 | 0.00 | 0.00 | 66 | 1015.3 |
| 20260504221553 | 79 | 120 | 8.7 | 13.0 | 0.00 | 0.00 | 0.00 | 59 | 1016.1 |
| 20260504221547 | 80 | 129 | 8.7 | 11.3 | 0.00 | 0.00 | 0.00 | 62 | 1015.9 |
| 20260504221542 | 80 | 123 | 9.6 | 12.2 | 0.00 | 0.00 | 0.00 | 59 | 1015.9 |
| 20260504221537 | 81 | 117 | 7.8 | 12.2 | 0.00 | 0.00 | 0.00 | 59 | 1015.7 |
| 20260504221532 | 80 | 109 | 9.6 | 12.2 | 0.00 | 0.00 | 0.00 | 61 | 1015.7 |
| 20260504221527 | 81 | 123 | 9.6 | 13.9 | 0.00 | 0.00 | 0.00 | 60 | 1015.7 |
| 20260504221521 | 80 | 109 | 10.4 | 15.6 | 0.00 | 0.00 | 0.00 | 62 | 1015.7 |
| 20260504221516 | 80 | 123 | 8.7 | 15.6 | 0.00 | 0.00 | 0.00 | 62 | 1015.6 |
| 20260504221510 | 78 | 123 | 11.3 | 15.6 | 0.00 | 0.00 | 0.00 | 67 | 1015.2 |
| 20260504221505 | 79 | 121 | 10.4 | 13.9 | 0.00 | 0.00 | 0.00 | 64 | 1015.5 |
| 20260504221458 | 79 | 123 | 10.4 | 13.9 | 0.00 | 0.00 | 0.00 | 64 | 1015.3 |
| 20260504221452 | 78 | 117 | 11.3 | 17.4 | 0.00 | 0.00 | 0.00 | 68 | 1015.3 |
| 20260504221447 | 79 | 103 | 11.3 | 17.4 | 0.00 | 0.00 | 0.00 | 64 | 1015.2 |
| 20260504221324 | 78 | 132 | 11.3 | 15.6 | 0.00 | 0.00 | 0.00 | 64 | 1015.2 |
| 20260504221157 | 78 | 111 | 10.4 | 15.6 | 0.00 | 0.00 | 0.00 | 66 | 1015.3 |
| 20260504221030 | 78 | 141 | 8.7 | 12.2 | 0.00 | 0.09 | 0.00 | 57 | 1017.0 |
| 20260504221025 | 77 | 144 | 7.8 | 10.4 | 0.00 | 0.21 | 0.00 | 59 | 1017.0 |
| 20260504221020 | 79 | 132 | 8.7 | 12.2 | 0.00 | 0.00 | 0.00 | 60 | 1016.5 |
| 20260504221014 | 78 | 132 | 7.0 | 10.4 | 0.00 | 0.00 | 0.00 | 57 | 1016.8 |
| 20260504221009 | 77 | 138 | 7.0 | 10.4 | 0.00 | 0.00 | 0.00 | 53 | 1016.9 |
| 20260504221004 | 79 | 139 | 7.8 | 12.2 | 0.00 | 0.00 | 0.00 | 58 | 1016.6 |
| 20260504220957 | 79 | 130 | 9.6 | 13.0 | 0.00 | 0.00 | 0.00 | 62 | 1016.2 |
| 20260504220952 | 78 | 132 | 9.6 | 12.2 | 0.00 | 0.00 | 0.00 | 59 | 1016.3 |
| 20260504220946 | 79 | 124 | 9.6 | 13.0 | 0.00 | 0.00 | 0.00 | 61 | 1016.1 |
| 20260504220941 | 79 | 120 | 8.7 | 13.0 | 0.00 | 0.00 | 0.00 | 59 | 1016.1 |
| 20260504220937 | 80 | 123 | 9.6 | 12.2 | 0.00 | 0.00 | 0.00 | 59 | 1015.9 |
| 20260504220931 | 80 | 129 | 8.7 | 11.3 | 0.00 | 0.00 | 0.00 | 62 | 1015.9 |
| 20260504220927 | 81 | 123 | 9.6 | 13.9 | 0.00 | 0.00 | 0.00 | 60 | 1015.7 |
| 20260504220921 | 81 | 117 | 7.8 | 12.2 | 0.00 | 0.00 | 0.00 | 59 | 1015.7 |
| 20260504220916 | 80 | 109 | 10.4 | 15.6 | 0.00 | 0.00 | 0.00 | 62 | 1015.7 |
| 20260504220910 | 80 | 123 | 8.7 | 15.6 | 0.00 | 0.00 | 0.00 | 62 | 1015.6 |
| 20260504220905 | 78 | 117 | 11.3 | 17.4 | 0.00 | 0.00 | 0.00 | 68 | 1015.3 |
| 20260504220857 | 79 | 123 | 10.4 | 13.9 | 0.00 | 0.00 | 0.00 | 64 | 1015.3 |
| 20260504220852 | 80 | 109 | 9.6 | 12.2 | 0.00 | 0.00 | 0.00 | 61 | 1015.7 |
| 20260504220846 | 79 | 121 | 10.4 | 13.9 | 0.00 | 0.00 | 0.00 | 64 | 1015.5 |
| 20260504220842 | 79 | 103 | 11.3 | 17.4 | 0.00 | 0.00 | 0.00 | 64 | 1015.2 |
| 20260504220714 | 78 | 132 | 11.3 | 15.6 | 0.00 | 0.00 | 0.00 | 64 | 1015.2 |
| 20260504220710 | 78 | 113 | 10.4 | 15.6 | 0.00 | 0.00 | 0.00 | 65 | 1015.2 |
| 20260504220423 | 81 | 123 | 9.6 | 13.9 | 0.00 | 0.00 | 0.00 | 60 | 1015.7 |
| 20260504220417 | 80 | 109 | 10.4 | 15.6 | 0.00 | 0.00 | 0.00 | 62 | 1015.7 |
| 20260504220413 | 79 | 123 | 10.4 | 13.9 | 0.00 | 0.00 | 0.00 | 64 | 1015.3 |
| 20260504220408 | 80 | 123 | 8.7 | 15.6 | 0.00 | 0.00 | 0.00 | 62 | 1015.6 |
| 20260504220402 | 78 | 117 | 11.3 | 17.4 | 0.00 | 0.00 | 0.00 | 68 | 1015.3 |
| 20260504220112 | 79 | 111 | 10.4 | 13.0 | 0.00 | 0.00 | 0.00 | 64 | 1015.4 |
| 20260504220108 | 78 | 132 | 11.3 | 15.6 | 0.00 | 0.00 | 0.00 | 64 | 1015.2 |
| 20260504215935 | 79 | 123 | 10.4 | 13.9 | 0.00 | 0.00 | 0.00 | 64 | 1015.3 |
| 20260504215810 | 78 | 117 | 11.3 | 17.4 | 0.00 | 0.00 | 0.00 | 68 | 1015.3 |
| 20260504215641 | 80 | 109 | 10.4 | 15.6 | 0.00 | 0.00 | 0.00 | 62 | 1015.7 |
| 20260504215636 | 79 | 103 | 11.3 | 17.4 | 0.00 | 0.00 | 0.00 | 64 | 1015.2 |
| 20260504215632 | 77 | 130 | 7.8 | 12.2 | 0.00 | 0.21 | 0.00 | 60 | 1017.2 |
| 20260504215626 | 78 | 132 | 8.7 | 11.3 | 0.00 | 0.21 | 0.00 | 57 | 1017.1 |
| 20260504215621 | 78 | 132 | 11.3 | 15.6 | 0.00 | 0.00 | 0.00 | 64 | 1015.2 |
| 20260504215616 | 78 | 140 | 7.8 | 11.3 | 0.00 | 0.00 | 0.00 | 60 | 1017.0 |
| 20260504215611 | 78 | 141 | 8.7 | 12.2 | 0.00 | 0.09 | 0.00 | 57 | 1017.0 |
| 20260504215605 | 80 | 123 | 8.7 | 15.6 | 0.00 | 0.00 | 0.00 | 62 | 1015.6 |
| 20260504215600 | 79 | 121 | 10.4 | 13.9 | 0.00 | 0.00 | 0.00 | 64 | 1015.5 |
| 20260504215554 | 79 | 111 | 10.4 | 13.0 | 0.00 | 0.00 | 0.00 | 64 | 1015.4 |
| 20260504215539 | 78 | 113 | 10.4 | 15.6 | 0.00 | 0.00 | 0.00 | 65 | 1015.2 |
| 20260504215422 | 79 | 132 | 8.7 | 12.2 | 0.00 | 0.00 | 0.00 | 60 | 1016.5 |
| 20260504215417 | 78 | 132 | 7.0 | 10.4 | 0.00 | 0.00 | 0.00 | 57 | 1016.8 |
| 20260504215412 | 77 | 138 | 7.0 | 10.4 | 0.00 | 0.00 | 0.00 | 53 | 1016.9 |
| 20260504215407 | 79 | 139 | 7.8 | 12.2 | 0.00 | 0.00 | 0.00 | 58 | 1016.6 |
| 20260504215402 | 79 | 130 | 9.6 | 13.0 | 0.00 | 0.00 | 0.00 | 62 | 1016.2 |
| 20260504215357 | 78 | 132 | 9.6 | 12.2 | 0.00 | 0.00 | 0.00 | 59 | 1016.3 |
| 20260504215352 | 79 | 124 | 9.6 | 13.0 | 0.00 | 0.00 | 0.00 | 61 | 1016.1 |
| 20260504215347 | 79 | 123 | 10.4 | 13.9 | 0.00 | 0.00 | 0.00 | 64 | 1015.3 |
| 20260504215220 | 80 | 129 | 8.7 | 11.3 | 0.00 | 0.00 | 0.00 | 62 | 1015.9 |
| 20260504215214 | 80 | 109 | 9.6 | 12.2 | 0.00 | 0.00 | 0.00 | 61 | 1015.7 |
| 20260504215210 | 80 | 123 | 9.6 | 12.2 | 0.00 | 0.00 | 0.00 | 59 | 1015.9 |
| 20260504215205 | 78 | 117 | 11.3 | 17.4 | 0.00 | 0.00 | 0.00 | 68 | 1015.3 |
| 20260504215200 | 81 | 117 | 7.8 | 12.2 | 0.00 | 0.00 | 0.00 | 59 | 1015.7 |
| 20260504215155 | 81 | 123 | 9.6 | 13.9 | 0.00 | 0.00 | 0.00 | 60 | 1015.7 |
| 20260504215149 | 80 | 109 | 10.4 | 15.6 | 0.00 | 0.00 | 0.00 | 62 | 1015.7 |
| 20260504215144 | 79 | 103 | 11.3 | 17.4 | 0.00 | 0.00 | 0.00 | 64 | 1015.2 |
| 20260504215137 | 78 | 132 | 11.3 | 15.6 | 0.00 | 0.00 | 0.00 | 64 | 1015.2 |
| 20260504215010 | 79 | 121 | 10.4 | 13.9 | 0.00 | 0.00 | 0.00 | 64 | 1015.5 |
| 20260504215005 | 79 | 111 | 10.4 | 13.0 | 0.00 | 0.00 | 0.00 | 64 | 1015.4 |
| 20260504214715 | 78 | 132 | 8.7 | 11.3 | 0.00 | 0.21 | 0.00 | 57 | 1017.1 |
| 20260504214710 | 78 | 140 | 7.8 | 11.3 | 0.00 | 0.00 | 0.00 | 60 | 1017.0 |
| 20260504214704 | 78 | 117 | 11.3 | 17.4 | 0.00 | 0.00 | 0.00 | 68 | 1015.3 |
| 20260504214700 | 78 | 141 | 8.7 | 12.2 | 0.00 | 0.09 | 0.00 | 57 | 1017.0 |
| 20260504214654 | 77 | 144 | 7.8 | 10.4 | 0.00 | 0.21 | 0.00 | 59 | 1017.0 |
| 20260504214649 | 79 | 132 | 8.7 | 12.2 | 0.00 | 0.00 | 0.00 | 60 | 1016.5 |
| 20260504214644 | 78 | 132 | 7.0 | 10.4 | 0.00 | 0.00 | 0.00 | 57 | 1016.8 |
| 20260504214639 | 77 | 138 | 7.0 | 10.4 | 0.00 | 0.00 | 0.00 | 53 | 1016.9 |
| 20260504214631 | 79 | 139 | 7.8 | 12.2 | 0.00 | 0.00 | 0.00 | 58 | 1016.6 |
| 20260504214627 | 79 | 130 | 9.6 | 13.0 | 0.00 | 0.00 | 0.00 | 62 | 1016.2 |
| 20260504214621 | 78 | 132 | 9.6 | 12.2 | 0.00 | 0.00 | 0.00 | 59 | 1016.3 |
| 20260504214615 | 79 | 103 | 11.3 | 17.4 | 0.00 | 0.00 | 0.00 | 64 | 1015.2 |
| 20260504214611 | 79 | 124 | 9.6 | 13.0 | 0.00 | 0.00 | 0.00 | 61 | 1016.1 |
| 20260504214553 | 78 | 132 | 11.3 | 15.6 | 0.00 | 0.00 | 0.00 | 64 | 1015.2 |
| 20260504214439 | 80 | 129 | 8.7 | 11.3 | 0.00 | 0.00 | 0.00 | 62 | 1015.9 |
| 20260504214434 | 80 | 109 | 9.6 | 12.2 | 0.00 | 0.00 | 0.00 | 61 | 1015.7 |
| 20260504214427 | 80 | 123 | 9.6 | 12.2 | 0.00 | 0.00 | 0.00 | 59 | 1015.9 |
| 20260504214421 | 81 | 117 | 7.8 | 12.2 | 0.00 | 0.00 | 0.00 | 59 | 1015.7 |
| 20260504214417 | 81 | 123 | 9.6 | 13.9 | 0.00 | 0.00 | 0.00 | 60 | 1015.7 |
| 20260504214412 | 80 | 109 | 10.4 | 15.6 | 0.00 | 0.00 | 0.00 | 62 | 1015.7 |
| 20260504214406 | 80 | 123 | 8.7 | 15.6 | 0.00 | 0.00 | 0.00 | 62 | 1015.6 |
| 20260504214400 | 79 | 121 | 10.4 | 13.9 | 0.00 | 0.00 | 0.00 | 64 | 1015.5 |
| 20260504214356 | 79 | 111 | 10.4 | 13.0 | 0.00 | 0.00 | 0.00 | 64 | 1015.4 |
| 20260504214351 | 79 | 123 | 10.4 | 13.9 | 0.00 | 0.00 | 0.00 | 64 | 1015.3 |
| 20260504214101 | 79 | 103 | 11.3 | 17.4 | 0.00 | 0.00 | 0.00 | 64 | 1015.2 |
| 20260504213933 | 79 | 120 | 8.7 | 13.0 | 0.00 | 0.00 | 0.00 | 59 | 1016.1 |
| 20260504213927 | 80 | 129 | 8.7 | 11.3 | 0.00 | 0.00 | 0.00 | 62 | 1015.9 |
| 20260504213922 | 80 | 109 | 9.6 | 12.2 | 0.00 | 0.00 | 0.00 | 61 | 1015.7 |
| 20260504213914 | 80 | 123 | 9.6 | 12.2 | 0.00 | 0.00 | 0.00 | 59 | 1015.9 |
| 20260504213908 | 81 | 117 | 7.8 | 12.2 | 0.00 | 0.00 | 0.00 | 59 | 1015.7 |
| 20260504213903 | 81 | 123 | 9.6 | 13.9 | 0.00 | 0.00 | 0.00 | 60 | 1015.7 |
| 20260504213857 | 80 | 109 | 10.4 | 15.6 | 0.00 | 0.00 | 0.00 | 62 | 1015.7 |
| 20260504213852 | 79 | 111 | 10.4 | 13.0 | 0.00 | 0.00 | 0.00 | 64 | 1015.4 |
| 20260504213846 | 79 | 123 | 10.4 | 13.9 | 0.00 | 0.00 | 0.00 | 64 | 1015.3 |
| 20260504213717 | 78 | 141 | 8.7 | 12.2 | 0.00 | 0.09 | 0.00 | 57 | 1017.0 |
| 20260504213713 | 79 | 132 | 8.7 | 12.2 | 0.00 | 0.00 | 0.00 | 60 | 1016.5 |
| 20260504213707 | 80 | 123 | 8.7 | 15.6 | 0.00 | 0.00 | 0.00 | 62 | 1015.6 |
| 20260504213701 | 79 | 121 | 10.4 | 13.9 | 0.00 | 0.00 | 0.00 | 64 | 1015.5 |
| 20260504213656 | 78 | 117 | 11.3 | 17.4 | 0.00 | 0.00 | 0.00 | 68 | 1015.3 |
| 20260504213405 | 78 | 132 | 8.7 | 11.3 | 0.00 | 0.21 | 0.00 | 57 | 1017.1 |
| 20260504213400 | 77 | 144 | 7.8 | 10.4 | 0.00 | 0.21 | 0.00 | 59 | 1017.0 |
| 20260504213355 | 79 | 139 | 7.8 | 12.2 | 0.00 | 0.00 | 0.00 | 58 | 1016.6 |
| 20260504213350 | 78 | 132 | 9.6 | 12.2 | 0.00 | 0.00 | 0.00 | 59 | 1016.3 |
| 20260504213345 | 79 | 130 | 9.6 | 13.0 | 0.00 | 0.00 | 0.00 | 62 | 1016.2 |
| 20260504213339 | 79 | 124 | 9.6 | 13.0 | 0.00 | 0.00 | 0.00 | 61 | 1016.1 |
| 20260504213334 | 79 | 120 | 8.7 | 13.0 | 0.00 | 0.00 | 0.00 | 59 | 1016.1 |
| 20260504213329 | 80 | 129 | 8.7 | 11.3 | 0.00 | 0.00 | 0.00 | 62 | 1015.9 |
| 20260504213324 | 80 | 109 | 9.6 | 12.2 | 0.00 | 0.00 | 0.00 | 61 | 1015.7 |
| 20260504213318 | 80 | 123 | 9.6 | 12.2 | 0.00 | 0.00 | 0.00 | 59 | 1015.9 |
| 20260504213313 | 81 | 117 | 7.8 | 12.2 | 0.00 | 0.00 | 0.00 | 59 | 1015.7 |
| 20260504213306 | 81 | 123 | 9.6 | 13.9 | 0.00 | 0.00 | 0.00 | 60 | 1015.7 |
| 20260504213300 | 80 | 109 | 10.4 | 15.6 | 0.00 | 0.00 | 0.00 | 62 | 1015.7 |
| 20260504213255 | 79 | 111 | 10.4 | 13.0 | 0.00 | 0.00 | 0.00 | 64 | 1015.4 |
| 20260504213249 | 79 | 123 | 10.4 | 13.9 | 0.00 | 0.00 | 0.00 | 64 | 1015.3 |
| 20260504213124 | 77 | 138 | 7.0 | 10.4 | 0.00 | 0.00 | 0.00 | 53 | 1016.9 |
| 20260504213119 | 78 | 140 | 7.8 | 11.3 | 0.00 | 0.00 | 0.00 | 60 | 1017.0 |
| 20260504213114 | 80 | 123 | 8.7 | 15.6 | 0.00 | 0.00 | 0.00 | 62 | 1015.6 |
| 20260504213107 | 78 | 117 | 11.3 | 17.4 | 0.00 | 0.00 | 0.00 | 68 | 1015.3 |
| 20260504212941 | 79 | 132 | 8.7 | 12.2 | 0.00 | 0.00 | 0.00 | 60 | 1016.5 |
| 20260504212935 | 79 | 121 | 10.4 | 13.9 | 0.00 | 0.00 | 0.00 | 64 | 1015.5 |
| 20260504212809 | 78 | 132 | 9.6 | 12.2 | 0.00 | 0.00 | 0.00 | 59 | 1016.3 |
| 20260504212800 | 79 | 130 | 9.6 | 13.0 | 0.00 | 0.00 | 0.00 | 62 | 1016.2 |
| 20260504212755 | 79 | 124 | 9.6 | 13.0 | 0.00 | 0.00 | 0.00 | 61 | 1016.1 |
| 20260504212750 | 79 | 120 | 8.7 | 13.0 | 0.00 | 0.00 | 0.00 | 59 | 1016.1 |
| 20260504212745 | 80 | 129 | 8.7 | 11.3 | 0.00 | 0.00 | 0.00 | 62 | 1015.9 |
| 20260504212741 | 80 | 109 | 9.6 | 12.2 | 0.00 | 0.00 | 0.00 | 61 | 1015.7 |
| 20260504212735 | 80 | 123 | 9.6 | 12.2 | 0.00 | 0.00 | 0.00 | 59 | 1015.9 |
| 20260504212730 | 81 | 117 | 7.8 | 12.2 | 0.00 | 0.00 | 0.00 | 59 | 1015.7 |
| 20260504212724 | 81 | 123 | 9.6 | 13.9 | 0.00 | 0.00 | 0.00 | 60 | 1015.7 |
| 20260504212719 | 79 | 111 | 10.4 | 13.0 | 0.00 | 0.00 | 0.00 | 64 | 1015.4 |
| 20260504212715 | 80 | 109 | 10.4 | 15.6 | 0.00 | 0.00 | 0.00 | 62 | 1015.7 |
| 20260504212709 | 79 | 123 | 10.4 | 13.9 | 0.00 | 0.00 | 0.00 | 64 | 1015.3 |
| 20260504212533 | 78 | 117 | 11.3 | 17.4 | 0.00 | 0.00 | 0.00 | 68 | 1015.3 |
| 20260504212249 | 79 | 132 | 8.7 | 12.2 | 0.00 | 0.00 | 0.00 | 60 | 1016.5 |
| 20260504212245 | 79 | 139 | 7.8 | 12.2 | 0.00 | 0.00 | 0.00 | 58 | 1016.6 |
| 20260504212239 | 78 | 132 | 9.6 | 12.2 | 0.00 | 0.00 | 0.00 | 59 | 1016.3 |
| 20260504212234 | 79 | 130 | 9.6 | 13.0 | 0.00 | 0.00 | 0.00 | 62 | 1016.2 |
| 20260504212228 | 79 | 124 | 9.6 | 13.0 | 0.00 | 0.00 | 0.00 | 61 | 1016.1 |
| 20260504212223 | 79 | 120 | 8.7 | 13.0 | 0.00 | 0.00 | 0.00 | 59 | 1016.1 |
| 20260504212219 | 80 | 129 | 8.7 | 11.3 | 0.00 | 0.00 | 0.00 | 62 | 1015.9 |
| 20260504212213 | 79 | 111 | 10.4 | 13.0 | 0.00 | 0.00 | 0.00 | 64 | 1015.4 |
| 20260504212208 | 80 | 109 | 9.6 | 12.2 | 0.00 | 0.00 | 0.00 | 61 | 1015.7 |
| 20260504212201 | 80 | 123 | 9.6 | 12.2 | 0.00 | 0.00 | 0.00 | 59 | 1015.9 |
| 20260504212154 | 81 | 117 | 7.8 | 12.2 | 0.00 | 0.00 | 0.00 | 59 | 1015.7 |
| 20260504212148 | 81 | 123 | 9.6 | 13.9 | 0.00 | 0.00 | 0.00 | 60 | 1015.7 |
| 20260504212143 | 80 | 109 | 10.4 | 15.6 | 0.00 | 0.00 | 0.00 | 62 | 1015.7 |
| 20260504212138 | 79 | 123 | 10.4 | 13.9 | 0.00 | 0.00 | 0.00 | 64 | 1015.3 |
| 20260504211438 | 81 | 117 | 7.8 | 12.2 | 0.00 | 0.00 | 0.00 | 59 | 1015.7 |
| 20260504211432 | 79 | 132 | 8.7 | 12.2 | 0.00 | 0.00 | 0.00 | 60 | 1016.5 |
| 20260504211426 | 80 | 129 | 8.7 | 11.3 | 0.00 | 0.00 | 0.00 | 62 | 1015.9 |
| 20260504211421 | 80 | 109 | 9.6 | 12.2 | 0.00 | 0.00 | 0.00 | 61 | 1015.7 |
| 20260504211256 | 78 | 0.0 | 0.0 | 0.00 | 0.21 | 0.00 | 51 | 1017.8 | |
| 20260504211251 | 81 | 123 | 9.6 | 13.9 | 0.00 | 0.00 | 0.00 | 60 | 1015.7 |
| 20260504211244 | 79 | 120 | 8.7 | 13.0 | 0.00 | 0.00 | 0.00 | 59 | 1016.1 |
| 20260504211238 | 79 | 124 | 9.6 | 13.0 | 0.00 | 0.00 | 0.00 | 61 | 1016.1 |
| 20260504211233 | 80 | 123 | 9.6 | 12.2 | 0.00 | 0.00 | 0.00 | 59 | 1015.9 |
| 20260504211228 | 78 | 0.0 | 0.0 | 0.00 | 0.21 | 0.00 | 52 | 1017.5 | |
| 20260504211223 | 80 | 123 | 8.7 | 15.6 | 0.00 | 0.00 | 0.00 | 62 | 1015.6 |
| 20260504211217 | 80 | 109 | 10.4 | 15.6 | 0.00 | 0.00 | 0.00 | 62 | 1015.7 |
| 20260504211212 | 79 | 121 | 10.4 | 13.9 | 0.00 | 0.00 | 0.00 | 64 | 1015.5 |
| 20260504211044 | 77 | 0.0 | 0.0 | 0.00 | 0.21 | 0.00 | 57 | 1017.4 | |
| 20260504211039 | 76 | 149 | 8.7 | 12.2 | 0.00 | 0.21 | 0.00 | 56 | 1017.4 |
| 20260504211033 | 77 | 130 | 7.8 | 12.2 | 0.00 | 0.21 | 0.00 | 60 | 1017.2 |
| 20260504211028 | 78 | 132 | 8.7 | 11.3 | 0.00 | 0.21 | 0.00 | 57 | 1017.1 |
| 20260504211022 | 77 | 144 | 7.8 | 10.4 | 0.00 | 0.21 | 0.00 | 59 | 1017.0 |
| 20260504211017 | 77 | 138 | 7.0 | 10.4 | 0.00 | 0.00 | 0.00 | 53 | 1016.9 |
| 20260504211013 | 78 | 140 | 7.8 | 11.3 | 0.00 | 0.00 | 0.00 | 60 | 1017.0 |
| 20260504211007 | 78 | 141 | 8.7 | 12.2 | 0.00 | 0.09 | 0.00 | 57 | 1017.0 |
| 20260504211001 | 78 | 132 | 7.0 | 10.4 | 0.00 | 0.00 | 0.00 | 57 | 1016.8 |
| 20260504210956 | 79 | 132 | 8.7 | 12.2 | 0.00 | 0.00 | 0.00 | 60 | 1016.5 |
| 20260504210950 | 79 | 139 | 7.8 | 12.2 | 0.00 | 0.00 | 0.00 | 58 | 1016.6 |
| 20260504210943 | 78 | 132 | 9.6 | 12.2 | 0.00 | 0.00 | 0.00 | 59 | 1016.3 |
| 20260504210938 | 81 | 117 | 7.8 | 12.2 | 0.00 | 0.00 | 0.00 | 59 | 1015.7 |
| 20260504210934 | 79 | 130 | 9.6 | 13.0 | 0.00 | 0.00 | 0.00 | 62 | 1016.2 |
| 20260504210929 | 80 | 129 | 8.7 | 11.3 | 0.00 | 0.00 | 0.00 | 62 | 1015.9 |
| 20260504210923 | 80 | 109 | 9.6 | 12.2 | 0.00 | 0.00 | 0.00 | 61 | 1015.7 |
| 20260504210755 | 79 | 124 | 9.6 | 13.0 | 0.00 | 0.00 | 0.00 | 61 | 1016.1 |
| 20260504210751 | 79 | 120 | 8.7 | 13.0 | 0.00 | 0.00 | 0.00 | 59 | 1016.1 |
| 20260504210747 | 80 | 123 | 9.6 | 12.2 | 0.00 | 0.00 | 0.00 | 59 | 1015.9 |
| 20260504210740 | 80 | 123 | 8.7 | 15.6 | 0.00 | 0.00 | 0.00 | 62 | 1015.6 |
| 20260504210612 | 80 | 109 | 10.4 | 15.6 | 0.00 | 0.00 | 0.00 | 62 | 1015.7 |
| 20260504210555 | 79 | 111 | 10.4 | 13.0 | 0.00 | 0.00 | 0.00 | 64 | 1015.4 |
| 20260504210316 | 80 | 109 | 9.6 | 12.2 | 0.00 | 0.00 | 0.00 | 61 | 1015.7 |
| 20260504210311 | 81 | 123 | 9.6 | 13.9 | 0.00 | 0.00 | 0.00 | 60 | 1015.7 |
| 20260504210144 | 77 | 138 | 7.0 | 10.4 | 0.00 | 0.00 | 0.00 | 53 | 1016.9 |
| 20260504210139 | 78 | 132 | 7.0 | 10.4 | 0.00 | 0.00 | 0.00 | 57 | 1016.8 |
| 20260504210132 | 79 | 132 | 8.7 | 12.2 | 0.00 | 0.00 | 0.00 | 60 | 1016.5 |
| 20260504210126 | 80 | 123 | 8.7 | 15.6 | 0.00 | 0.00 | 0.00 | 62 | 1015.6 |
| 20260504210120 | 79 | 121 | 10.4 | 13.9 | 0.00 | 0.00 | 0.00 | 64 | 1015.5 |
| 20260504210115 | 80 | 109 | 10.4 | 15.6 | 0.00 | 0.00 | 0.00 | 62 | 1015.7 |
| 20260504205947 | 81 | 117 | 7.8 | 12.2 | 0.00 | 0.00 | 0.00 | 59 | 1015.7 |
| 20260504205942 | 78 | 132 | 9.6 | 12.2 | 0.00 | 0.00 | 0.00 | 59 | 1016.3 |
| 20260504205935 | 79 | 130 | 9.6 | 13.0 | 0.00 | 0.00 | 0.00 | 62 | 1016.2 |
| 20260504205807 | 79 | 120 | 8.7 | 13.0 | 0.00 | 0.00 | 0.00 | 59 | 1016.1 |
| 20260504205801 | 80 | 129 | 8.7 | 11.3 | 0.00 | 0.00 | 0.00 | 62 | 1015.9 |
| 20260504205755 | 80 | 123 | 9.6 | 12.2 | 0.00 | 0.00 | 0.00 | 59 | 1015.9 |
| 20260504205749 | 80 | 109 | 9.6 | 12.2 | 0.00 | 0.00 | 0.00 | 61 | 1015.7 |
| 20260504205744 | 81 | 123 | 9.6 | 13.9 | 0.00 | 0.00 | 0.00 | 60 | 1015.7 |
| 20260504205615 | 80 | 123 | 8.7 | 15.6 | 0.00 | 0.00 | 0.00 | 62 | 1015.6 |
| 20260504205556 | 79 | 121 | 10.4 | 13.9 | 0.00 | 0.00 | 0.00 | 64 | 1015.5 |
| 20260504205319 | 77 | 138 | 7.0 | 10.4 | 0.00 | 0.00 | 0.00 | 53 | 1016.9 |
| 20260504205152 | 78 | 0.0 | 0.0 | 0.00 | 0.21 | 0.00 | 52 | 1017.5 | |
| 20260504205147 | 77 | 0.0 | 0.0 | 0.00 | 0.21 | 0.00 | 57 | 1017.4 | |
| 20260504205143 | 76 | 149 | 8.7 | 12.2 | 0.00 | 0.21 | 0.00 | 56 | 1017.4 |
| 20260504205137 | 77 | 130 | 7.8 | 12.2 | 0.00 | 0.21 | 0.00 | 60 | 1017.2 |
| 20260504205131 | 78 | 132 | 8.7 | 11.3 | 0.00 | 0.21 | 0.00 | 57 | 1017.1 |
| 20260504205124 | 78 | 132 | 7.0 | 10.4 | 0.00 | 0.00 | 0.00 | 57 | 1016.8 |
| 20260504205119 | 79 | 132 | 8.7 | 12.2 | 0.00 | 0.00 | 0.00 | 60 | 1016.5 |
| 20260504205113 | 79 | 139 | 7.8 | 12.2 | 0.00 | 0.00 | 0.00 | 58 | 1016.6 |
| 20260504205108 | 78 | 132 | 9.6 | 12.2 | 0.00 | 0.00 | 0.00 | 59 | 1016.3 |
| 20260504205102 | 79 | 130 | 9.6 | 13.0 | 0.00 | 0.00 | 0.00 | 62 | 1016.2 |
| 20260504205057 | 81 | 123 | 9.6 | 13.9 | 0.00 | 0.00 | 0.00 | 60 | 1015.7 |
| 20260504205051 | 80 | 109 | 9.6 | 12.2 | 0.00 | 0.00 | 0.00 | 61 | 1015.7 |
| 20260504205046 | 80 | 109 | 10.4 | 15.6 | 0.00 | 0.00 | 0.00 | 62 | 1015.7 |
| 20260504205040 | 80 | 123 | 8.7 | 15.6 | 0.00 | 0.00 | 0.00 | 62 | 1015.6 |
| 20260504204912 | 79 | 120 | 8.7 | 13.0 | 0.00 | 0.00 | 0.00 | 59 | 1016.1 |
| 20260504204907 | 80 | 129 | 8.7 | 11.3 | 0.00 | 0.00 | 0.00 | 62 | 1015.9 |
| 20260504204903 | 80 | 123 | 9.6 | 12.2 | 0.00 | 0.00 | 0.00 | 59 | 1015.9 |
| 20260504204857 | 81 | 117 | 7.8 | 12.2 | 0.00 | 0.00 | 0.00 | 59 | 1015.7 |
| 20260504204732 | 77 | 144 | 7.8 | 10.4 | 0.00 | 0.21 | 0.00 | 59 | 1017.0 |
| 20260504204725 | 78 | 140 | 7.8 | 11.3 | 0.00 | 0.00 | 0.00 | 60 | 1017.0 |
| 20260504204721 | 77 | 138 | 7.0 | 10.4 | 0.00 | 0.00 | 0.00 | 53 | 1016.9 |
| 20260504204554 | 81 | 123 | 9.6 | 13.9 | 0.00 | 0.00 | 0.00 | 60 | 1015.7 |
| 20260504204549 | 79 | 132 | 8.7 | 12.2 | 0.00 | 0.00 | 0.00 | 60 | 1016.5 |
| 20260504204544 | 79 | 139 | 7.8 | 12.2 | 0.00 | 0.00 | 0.00 | 58 | 1016.6 |
| 20260504204539 | 78 | 132 | 9.6 | 12.2 | 0.00 | 0.00 | 0.00 | 59 | 1016.3 |
| 20260504204535 | 80 | 109 | 9.6 | 12.2 | 0.00 | 0.00 | 0.00 | 61 | 1015.7 |
| 20260504204529 | 80 | 109 | 10.4 | 15.6 | 0.00 | 0.00 | 0.00 | 62 | 1015.7 |
| 20260504204519 | 80 | 123 | 8.7 | 15.6 | 0.00 | 0.00 | 0.00 | 62 | 1015.6 |
| 20260504204356 | 76 | 256 | 2.6 | 4.3 | 0.00 | 0.21 | 0.00 | 47 | 1018.0 |
| 20260504204352 | 78 | 256 | 2.6 | 4.3 | 0.00 | 0.21 | 0.00 | 51 | 1018.1 |
| 20260504204347 | 79 | 124 | 9.6 | 13.0 | 0.00 | 0.00 | 0.00 | 61 | 1016.1 |
| 20260504204342 | 79 | 120 | 8.7 | 13.0 | 0.00 | 0.00 | 0.00 | 59 | 1016.1 |
| 20260504204338 | 80 | 129 | 8.7 | 11.3 | 0.00 | 0.00 | 0.00 | 62 | 1015.9 |
| 20260504204332 | 80 | 123 | 9.6 | 12.2 | 0.00 | 0.00 | 0.00 | 59 | 1015.9 |
| 20260504204325 | 81 | 117 | 7.8 | 12.2 | 0.00 | 0.00 | 0.00 | 59 | 1015.7 |
| 20260504204201 | 80 | 59 | 2.6 | 5.2 | 0.00 | 0.21 | 0.00 | 50 | 1018.0 |
| 20260504204155 | 79 | 17 | 3.5 | 8.7 | 0.00 | 0.21 | 0.00 | 48 | 1018.0 |
| 20260504204149 | 79 | 22 | 6.1 | 8.7 | 0.00 | 0.21 | 0.00 | 48 | 1018.0 |
| 20260504204145 | 79 | 13 | 6.1 | 8.7 | 0.00 | 0.21 | 0.00 | 48 | 1018.0 |
| 20260504204140 | 79 | 22 | 4.3 | 8.7 | 0.00 | 0.21 | 0.00 | 50 | 1018.1 |
| 20260504204134 | 78 | 28 | 5.2 | 9.6 | 0.00 | 0.21 | 0.00 | 46 | 1018.1 |
| 20260504204129 | 78 | 31 | 7.8 | 9.6 | 0.00 | 0.21 | 0.00 | 49 | 1018.1 |
| 20260504204122 | 77 | 36 | 4.3 | 8.7 | 0.00 | 0.21 | 0.00 | 51 | 1018.2 |
| 20260504204118 | 77 | 54 | 5.2 | 9.6 | 0.00 | 0.21 | 0.00 | 53 | 1018.3 |
| 20260504204112 | 76 | 0.0 | 0.0 | 0.00 | 0.21 | 0.00 | 49 | 1017.9 | |
| 20260504204106 | 76 | 0.0 | 0.0 | 0.00 | 0.21 | 0.00 | 50 | 1017.8 | |
| 20260504204101 | 81 | 123 | 9.6 | 13.9 | 0.00 | 0.00 | 0.00 | 60 | 1015.7 |
| 20260504204057 | 77 | 0.0 | 0.0 | 0.00 | 0.21 | 0.00 | 54 | 1017.9 | |
| 20260504204051 | 80 | 109 | 10.4 | 15.6 | 0.00 | 0.00 | 0.00 | 62 | 1015.7 |
| 20260504204045 | 78 | 0.0 | 0.0 | 0.00 | 0.21 | 0.00 | 51 | 1017.8 | |
| 20260504204040 | 80 | 0.0 | 0.0 | 0.00 | 0.21 | 0.00 | 56 | 1017.6 | |
| 20260504204034 | 78 | 0.0 | 0.0 | 0.00 | 0.21 | 0.00 | 52 | 1017.5 | |
| 20260504204028 | 77 | 0.0 | 0.0 | 0.00 | 0.21 | 0.00 | 57 | 1017.4 | |
| 20260504204023 | 76 | 149 | 8.7 | 12.2 | 0.00 | 0.21 | 0.00 | 56 | 1017.4 |
| 20260504204018 | 77 | 130 | 7.8 | 12.2 | 0.00 | 0.21 | 0.00 | 60 | 1017.2 |
| 20260504204013 | 78 | 132 | 8.7 | 11.3 | 0.00 | 0.21 | 0.00 | 57 | 1017.1 |
| 20260504204008 | 78 | 141 | 8.7 | 12.2 | 0.00 | 0.09 | 0.00 | 57 | 1017.0 |
| 20260504204003 | 77 | 144 | 7.8 | 10.4 | 0.00 | 0.21 | 0.00 | 59 | 1017.0 |
| 20260504203958 | 78 | 140 | 7.8 | 11.3 | 0.00 | 0.00 | 0.00 | 60 | 1017.0 |
| 20260504203953 | 77 | 138 | 7.0 | 10.4 | 0.00 | 0.00 | 0.00 | 53 | 1016.9 |
| 20260504203947 | 78 | 132 | 7.0 | 10.4 | 0.00 | 0.00 | 0.00 | 57 | 1016.8 |
| 20260504203942 | 80 | 109 | 9.6 | 12.2 | 0.00 | 0.00 | 0.00 | 61 | 1015.7 |
| 20260504203936 | 79 | 132 | 8.7 | 12.2 | 0.00 | 0.00 | 0.00 | 60 | 1016.5 |
| 20260504203932 | 79 | 139 | 7.8 | 12.2 | 0.00 | 0.00 | 0.00 | 58 | 1016.6 |
| 20260504203925 | 78 | 132 | 9.6 | 12.2 | 0.00 | 0.00 | 0.00 | 59 | 1016.3 |
| 20260504203920 | 79 | 130 | 9.6 | 13.0 | 0.00 | 0.00 | 0.00 | 62 | 1016.2 |
| 20260504203756 | 79 | 120 | 8.7 | 13.0 | 0.00 | 0.00 | 0.00 | 59 | 1016.1 |
| 20260504203750 | 80 | 129 | 8.7 | 11.3 | 0.00 | 0.00 | 0.00 | 62 | 1015.9 |
| 20260504203746 | 80 | 123 | 9.6 | 12.2 | 0.00 | 0.00 | 0.00 | 59 | 1015.9 |
| 20260504203740 | 81 | 117 | 7.8 | 12.2 | 0.00 | 0.00 | 0.00 | 59 | 1015.7 |
| 20260504203558 | 80 | 109 | 10.4 | 15.6 | 0.00 | 0.00 | 0.00 | 62 | 1015.7 |
| 20260504203324 | 76 | 149 | 8.7 | 12.2 | 0.00 | 0.21 | 0.00 | 56 | 1017.4 |
| 20260504203319 | 77 | 130 | 7.8 | 12.2 | 0.00 | 0.21 | 0.00 | 60 | 1017.2 |
| 20260504203152 | 77 | 144 | 7.8 | 10.4 | 0.00 | 0.21 | 0.00 | 59 | 1017.0 |
| 20260504203147 | 78 | 141 | 8.7 | 12.2 | 0.00 | 0.09 | 0.00 | 57 | 1017.0 |
| 20260504203142 | 76 | 0.0 | 0.0 | 0.00 | 0.21 | 0.00 | 49 | 1017.9 | |
| 20260504203137 | 81 | 117 | 7.8 | 12.2 | 0.00 | 0.00 | 0.00 | 59 | 1015.7 |
| 20260504203132 | 78 | 132 | 8.7 | 11.3 | 0.00 | 0.21 | 0.00 | 57 | 1017.1 |
| 20260504203126 | 78 | 140 | 7.8 | 11.3 | 0.00 | 0.00 | 0.00 | 60 | 1017.0 |
| 20260504203119 | 77 | 138 | 7.0 | 10.4 | 0.00 | 0.00 | 0.00 | 53 | 1016.9 |
| 20260504203114 | 78 | 132 | 7.0 | 10.4 | 0.00 | 0.00 | 0.00 | 57 | 1016.8 |
| 20260504203108 | 79 | 132 | 8.7 | 12.2 | 0.00 | 0.00 | 0.00 | 60 | 1016.5 |
| 20260504203102 | 81 | 123 | 9.6 | 13.9 | 0.00 | 0.00 | 0.00 | 60 | 1015.7 |
| 20260504202937 | 79 | 124 | 9.6 | 13.0 | 0.00 | 0.00 | 0.00 | 61 | 1016.1 |
| 20260504202931 | 76 | 0.0 | 0.0 | 0.00 | 0.21 | 0.00 | 50 | 1017.8 | |
| 20260504202927 | 77 | 0.0 | 0.0 | 0.00 | 0.21 | 0.00 | 54 | 1017.9 | |
| 20260504202920 | 78 | 132 | 9.6 | 12.2 | 0.00 | 0.00 | 0.00 | 59 | 1016.3 |
| 20260504202914 | 79 | 130 | 9.6 | 13.0 | 0.00 | 0.00 | 0.00 | 62 | 1016.2 |
| 20260504202908 | 79 | 120 | 8.7 | 13.0 | 0.00 | 0.00 | 0.00 | 59 | 1016.1 |
| 20260504202903 | 80 | 129 | 8.7 | 11.3 | 0.00 | 0.00 | 0.00 | 62 | 1015.9 |
| 20260504202858 | 80 | 123 | 9.6 | 12.2 | 0.00 | 0.00 | 0.00 | 59 | 1015.9 |
| 20260504202853 | 80 | 109 | 9.6 | 12.2 | 0.00 | 0.00 | 0.00 | 61 | 1015.7 |
| 20260504202729 | 80 | 0.0 | 0.0 | 0.00 | 0.21 | 0.00 | 56 | 1017.6 | |
| 20260504202722 | 78 | 0.0 | 0.0 | 0.00 | 0.21 | 0.00 | 52 | 1017.5 | |
| 20260504202717 | 77 | 0.0 | 0.0 | 0.00 | 0.21 | 0.00 | 57 | 1017.4 | |
| 20260504202711 | 76 | 149 | 8.7 | 12.2 | 0.00 | 0.21 | 0.00 | 56 | 1017.4 |
| 20260504202706 | 77 | 130 | 7.8 | 12.2 | 0.00 | 0.21 | 0.00 | 60 | 1017.2 |
| 20260504202700 | 78 | 132 | 8.7 | 11.3 | 0.00 | 0.21 | 0.00 | 57 | 1017.1 |
| 20260504202655 | 78 | 141 | 8.7 | 12.2 | 0.00 | 0.09 | 0.00 | 57 | 1017.0 |
| 20260504202650 | 77 | 144 | 7.8 | 10.4 | 0.00 | 0.21 | 0.00 | 59 | 1017.0 |
| 20260504202645 | 81 | 117 | 7.8 | 12.2 | 0.00 | 0.00 | 0.00 | 59 | 1015.7 |
| 20260504202516 | 79 | 132 | 8.7 | 12.2 | 0.00 | 0.00 | 0.00 | 60 | 1016.5 |
| 20260504202510 | 77 | 138 | 7.0 | 10.4 | 0.00 | 0.00 | 0.00 | 53 | 1016.9 |
| 20260504202505 | 81 | 123 | 9.6 | 13.9 | 0.00 | 0.00 | 0.00 | 60 | 1015.7 |
| 20260504202500 | 78 | 132 | 7.0 | 10.4 | 0.00 | 0.00 | 0.00 | 57 | 1016.8 |
| 20260504202455 | 79 | 139 | 7.8 | 12.2 | 0.00 | 0.00 | 0.00 | 58 | 1016.6 |
| 20260504202450 | 79 | 124 | 9.6 | 13.0 | 0.00 | 0.00 | 0.00 | 61 | 1016.1 |
| 20260504202321 | 79 | 130 | 9.6 | 13.0 | 0.00 | 0.00 | 0.00 | 62 | 1016.2 |
| 20260504202315 | 79 | 120 | 8.7 | 13.0 | 0.00 | 0.00 | 0.00 | 59 | 1016.1 |
| 20260504202309 | 80 | 129 | 8.7 | 11.3 | 0.00 | 0.00 | 0.00 | 62 | 1015.9 |
| 20260504202305 | 80 | 123 | 9.6 | 12.2 | 0.00 | 0.00 | 0.00 | 59 | 1015.9 |
| 20260504202300 | 80 | 109 | 9.6 | 12.2 | 0.00 | 0.00 | 0.00 | 61 | 1015.7 |
| 20260504202010 | 79 | 132 | 8.7 | 12.2 | 0.00 | 0.00 | 0.00 | 60 | 1016.5 |
| 20260504202005 | 79 | 124 | 9.6 | 13.0 | 0.00 | 0.00 | 0.00 | 61 | 1016.1 |
| 20260504201839 | 76 | 149 | 8.7 | 12.2 | 0.00 | 0.21 | 0.00 | 56 | 1017.4 |
| 20260504201833 | 77 | 130 | 7.8 | 12.2 | 0.00 | 0.21 | 0.00 | 60 | 1017.2 |
| 20260504201828 | 78 | 132 | 8.7 | 11.3 | 0.00 | 0.21 | 0.00 | 57 | 1017.1 |
| 20260504201821 | 79 | 120 | 8.7 | 13.0 | 0.00 | 0.00 | 0.00 | 59 | 1016.1 |
| 20260504201815 | 78 | 141 | 8.7 | 12.2 | 0.00 | 0.09 | 0.00 | 57 | 1017.0 |
| 20260504201811 | 78 | 132 | 9.6 | 12.2 | 0.00 | 0.00 | 0.00 | 59 | 1016.3 |
| 20260504201643 | 80 | 129 | 8.7 | 11.3 | 0.00 | 0.00 | 0.00 | 62 | 1015.9 |
| 20260504201638 | 78 | 140 | 7.8 | 11.3 | 0.00 | 0.00 | 0.00 | 60 | 1017.0 |
| 20260504201633 | 77 | 138 | 7.0 | 10.4 | 0.00 | 0.00 | 0.00 | 53 | 1016.9 |
| 20260504201627 | 78 | 132 | 7.0 | 10.4 | 0.00 | 0.00 | 0.00 | 57 | 1016.8 |
| 20260504201620 | 79 | 139 | 7.8 | 12.2 | 0.00 | 0.00 | 0.00 | 58 | 1016.6 |
| 20260504201614 | 79 | 130 | 9.6 | 13.0 | 0.00 | 0.00 | 0.00 | 62 | 1016.2 |
| 20260504201610 | 80 | 123 | 9.6 | 12.2 | 0.00 | 0.00 | 0.00 | 59 | 1015.9 |
| 20260504201605 | 80 | 109 | 9.6 | 12.2 | 0.00 | 0.00 | 0.00 | 61 | 1015.7 |
| 20260504201548 | 81 | 117 | 7.8 | 12.2 | 0.00 | 0.00 | 0.00 | 59 | 1015.7 |
| 20260504201434 | 79 | 124 | 9.6 | 13.0 | 0.00 | 0.00 | 0.00 | 61 | 1016.1 |
| 20260504201307 | 79 | 120 | 8.7 | 13.0 | 0.00 | 0.00 | 0.00 | 59 | 1016.1 |
| 20260504201018 | 80 | 109 | 9.6 | 12.2 | 0.00 | 0.00 | 0.00 | 61 | 1015.7 |
| 20260504201012 | 80 | 123 | 9.6 | 12.2 | 0.00 | 0.00 | 0.00 | 59 | 1015.9 |
| 20260504200846 | 76 | 256 | 2.6 | 4.3 | 0.00 | 0.21 | 0.00 | 47 | 1018.0 |
| 20260504200841 | 78 | 256 | 2.6 | 4.3 | 0.00 | 0.21 | 0.00 | 51 | 1018.1 |
| 20260504200835 | 79 | 59 | 0.9 | 4.3 | 0.00 | 0.21 | 0.00 | 44 | 1018.0 |
| 20260504200831 | 78 | 140 | 7.8 | 11.3 | 0.00 | 0.00 | 0.00 | 60 | 1017.0 |
| 20260504200825 | 80 | 59 | 2.6 | 5.2 | 0.00 | 0.21 | 0.00 | 50 | 1018.0 |
| 20260504200817 | 79 | 17 | 3.5 | 8.7 | 0.00 | 0.21 | 0.00 | 48 | 1018.0 |
| 20260504200813 | 79 | 22 | 6.1 | 8.7 | 0.00 | 0.21 | 0.00 | 48 | 1018.0 |
| 20260504200807 | 79 | 13 | 6.1 | 8.7 | 0.00 | 0.21 | 0.00 | 48 | 1018.0 |
| 20260504200802 | 79 | 124 | 9.6 | 13.0 | 0.00 | 0.00 | 0.00 | 61 | 1016.1 |
| 20260504200756 | 76 | 0.0 | 0.0 | 0.00 | 0.21 | 0.00 | 49 | 1017.9 | |
| 20260504200751 | 79 | 22 | 4.3 | 8.7 | 0.00 | 0.21 | 0.00 | 50 | 1018.1 |
| 20260504200745 | 76 | 0.0 | 0.0 | 0.00 | 0.21 | 0.00 | 50 | 1017.8 | |
| 20260504200741 | 77 | 0.0 | 0.0 | 0.00 | 0.21 | 0.00 | 54 | 1017.9 | |
| 20260504200735 | 78 | 0.0 | 0.0 | 0.00 | 0.21 | 0.00 | 51 | 1017.8 | |
| 20260504200730 | 80 | 0.0 | 0.0 | 0.00 | 0.21 | 0.00 | 56 | 1017.6 | |
| 20260504200724 | 78 | 0.0 | 0.0 | 0.00 | 0.21 | 0.00 | 52 | 1017.5 | |
| 20260504200717 | 77 | 138 | 7.0 | 10.4 | 0.00 | 0.00 | 0.00 | 53 | 1016.9 |
| 20260504200711 | 78 | 132 | 7.0 | 10.4 | 0.00 | 0.00 | 0.00 | 57 | 1016.8 |
| 20260504200706 | 79 | 139 | 7.8 | 12.2 | 0.00 | 0.00 | 0.00 | 58 | 1016.6 |
| 20260504200700 | 79 | 132 | 8.7 | 12.2 | 0.00 | 0.00 | 0.00 | 60 | 1016.5 |
| 20260504200655 | 79 | 120 | 8.7 | 13.0 | 0.00 | 0.00 | 0.00 | 59 | 1016.1 |
| 20260504200651 | 80 | 129 | 8.7 | 11.3 | 0.00 | 0.00 | 0.00 | 62 | 1015.9 |
| 20260504200525 | 76 | 149 | 8.7 | 12.2 | 0.00 | 0.21 | 0.00 | 56 | 1017.4 |
| 20260504200517 | 77 | 130 | 7.8 | 12.2 | 0.00 | 0.21 | 0.00 | 60 | 1017.2 |
| 20260504200512 | 78 | 132 | 8.7 | 11.3 | 0.00 | 0.21 | 0.00 | 57 | 1017.1 |
| 20260504200506 | 80 | 109 | 9.6 | 12.2 | 0.00 | 0.00 | 0.00 | 61 | 1015.7 |
| 20260504200501 | 78 | 141 | 8.7 | 12.2 | 0.00 | 0.09 | 0.00 | 57 | 1017.0 |
| 20260504200457 | 77 | 144 | 7.8 | 10.4 | 0.00 | 0.21 | 0.00 | 59 | 1017.0 |
| 20260504200451 | 80 | 123 | 9.6 | 12.2 | 0.00 | 0.00 | 0.00 | 59 | 1015.9 |
| 20260504200446 | 78 | 132 | 9.6 | 12.2 | 0.00 | 0.00 | 0.00 | 59 | 1016.3 |
| 20260504200441 | 79 | 130 | 9.6 | 13.0 | 0.00 | 0.00 | 0.00 | 62 | 1016.2 |
| 20260504200313 | 78 | 140 | 7.8 | 11.3 | 0.00 | 0.00 | 0.00 | 60 | 1017.0 |
| 20260504200307 | 79 | 124 | 9.6 | 13.0 | 0.00 | 0.00 | 0.00 | 61 | 1016.1 |
| 20260504200144 | 78 | 132 | 7.0 | 10.4 | 0.00 | 0.00 | 0.00 | 57 | 1016.8 |
| 20260504200138 | 79 | 139 | 7.8 | 12.2 | 0.00 | 0.00 | 0.00 | 58 | 1016.6 |
| 20260504200132 | 79 | 132 | 8.7 | 12.2 | 0.00 | 0.00 | 0.00 | 60 | 1016.5 |
| 20260504200127 | 79 | 120 | 8.7 | 13.0 | 0.00 | 0.00 | 0.00 | 59 | 1016.1 |
| 20260504200123 | 80 | 129 | 8.7 | 11.3 | 0.00 | 0.00 | 0.00 | 62 | 1015.9 |
| 20260504195954 | 78 | 0.0 | 0.0 | 0.00 | 0.21 | 0.00 | 51 | 1017.8 | |
| 20260504195948 | 80 | 0.0 | 0.0 | 0.00 | 0.21 | 0.00 | 56 | 1017.6 | |
| 20260504195943 | 78 | 0.0 | 0.0 | 0.00 | 0.21 | 0.00 | 52 | 1017.5 | |
| 20260504195938 | 77 | 0.0 | 0.0 | 0.00 | 0.21 | 0.00 | 57 | 1017.4 | |
| 20260504195933 | 76 | 149 | 8.7 | 12.2 | 0.00 | 0.21 | 0.00 | 56 | 1017.4 |
| 20260504195928 | 77 | 130 | 7.8 | 12.2 | 0.00 | 0.21 | 0.00 | 60 | 1017.2 |
| 20260504195923 | 78 | 132 | 8.7 | 11.3 | 0.00 | 0.21 | 0.00 | 57 | 1017.1 |
| 20260504195915 | 78 | 141 | 8.7 | 12.2 | 0.00 | 0.09 | 0.00 | 57 | 1017.0 |
| 20260504195911 | 78 | 132 | 9.6 | 12.2 | 0.00 | 0.00 | 0.00 | 59 | 1016.3 |
| 20260504195905 | 77 | 144 | 7.8 | 10.4 | 0.00 | 0.21 | 0.00 | 59 | 1017.0 |
| 20260504195900 | 79 | 130 | 9.6 | 13.0 | 0.00 | 0.00 | 0.00 | 62 | 1016.2 |
| 20260504195611 | 78 | 140 | 7.8 | 11.3 | 0.00 | 0.00 | 0.00 | 60 | 1017.0 |
| 20260504195605 | 77 | 138 | 7.0 | 10.4 | 0.00 | 0.00 | 0.00 | 53 | 1016.9 |
| 20260504195600 | 77 | 0.0 | 0.0 | 0.00 | 0.21 | 0.00 | 54 | 1017.9 | |
| 20260504195555 | 79 | 139 | 7.8 | 12.2 | 0.00 | 0.00 | 0.00 | 58 | 1016.6 |
| 20260504195550 | 78 | 132 | 7.0 | 10.4 | 0.00 | 0.00 | 0.00 | 57 | 1016.8 |
| 20260504195545 | 89 | 232 | 6.1 | 13.9 | 0.00 | 0.01 | 0.01 | 53 | 1007.1 |
| 20260504195541 | 79 | 120 | 8.7 | 13.0 | 0.00 | 0.00 | 0.00 | 59 | 1016.1 |
| 20260504195535 | 80 | 129 | 8.7 | 11.3 | 0.00 | 0.00 | 0.00 | 62 | 1015.9 |
| 20260504195530 | 89 | 244 | 6.1 | 13.9 | 0.00 | 0.01 | 0.01 | 56 | 1007.1 |
| 20260504195524 | 79 | 132 | 8.7 | 12.2 | 0.00 | 0.00 | 0.00 | 60 | 1016.5 |
| 20260504195517 | 77 | 35 | 7.8 | 10.4 | 0.00 | 0.21 | 0.00 | 59 | 1018.0 |
| 20260504195513 | 78 | 39 | 7.0 | 10.4 | 0.00 | 0.21 | 0.00 | 51 | 1018.1 |
| 20260504195508 | 80 | 123 | 9.6 | 12.2 | 0.00 | 0.00 | 0.00 | 59 | 1015.9 |
| 20260504195503 | 78 | 28 | 5.2 | 9.6 | 0.00 | 0.21 | 0.00 | 46 | 1018.1 |
| 20260504195457 | 78 | 31 | 7.8 | 9.6 | 0.00 | 0.21 | 0.00 | 49 | 1018.1 |
| 20260504195452 | 77 | 36 | 4.3 | 8.7 | 0.00 | 0.21 | 0.00 | 51 | 1018.2 |
| 20260504195447 | 77 | 54 | 5.2 | 9.6 | 0.00 | 0.21 | 0.00 | 53 | 1018.3 |
| 20260504195442 | 76 | 0.0 | 2.6 | 0.00 | 0.21 | 0.00 | 49 | 1017.9 | |
| 20260504195437 | 76 | 256 | 2.6 | 4.3 | 0.00 | 0.21 | 0.00 | 47 | 1018.0 |
| 20260504195431 | 78 | 256 | 2.6 | 4.3 | 0.00 | 0.21 | 0.00 | 51 | 1018.1 |
| 20260504195427 | 79 | 59 | 0.9 | 4.3 | 0.00 | 0.21 | 0.00 | 44 | 1018.0 |
| 20260504195422 | 80 | 59 | 2.6 | 5.2 | 0.00 | 0.21 | 0.00 | 50 | 1018.0 |
| 20260504195414 | 76 | 0.0 | 0.0 | 0.00 | 0.21 | 0.00 | 49 | 1017.9 | |
| 20260504195409 | 78 | 132 | 9.6 | 12.2 | 0.00 | 0.00 | 0.00 | 59 | 1016.3 |
| 20260504195405 | 79 | 130 | 9.6 | 13.0 | 0.00 | 0.00 | 0.00 | 62 | 1016.2 |
| 20260504195359 | 78 | 0.0 | 0.0 | 0.00 | 0.21 | 0.00 | 51 | 1017.8 | |
| 20260504195354 | 80 | 0.0 | 0.0 | 0.00 | 0.21 | 0.00 | 56 | 1017.6 | |
| 20260504195348 | 78 | 0.0 | 0.0 | 0.00 | 0.21 | 0.00 | 52 | 1017.5 | |
| 20260504195343 | 77 | 0.0 | 0.0 | 0.00 | 0.21 | 0.00 | 57 | 1017.4 | |
| 20260504195338 | 76 | 149 | 8.7 | 12.2 | 0.00 | 0.21 | 0.00 | 56 | 1017.4 |
| 20260504195333 | 77 | 130 | 7.8 | 12.2 | 0.00 | 0.21 | 0.00 | 60 | 1017.2 |
| 20260504195206 | 79 | 22 | 6.1 | 8.7 | 0.00 | 0.21 | 0.00 | 48 | 1018.0 |
| 20260504195201 | 78 | 132 | 8.7 | 11.3 | 0.00 | 0.21 | 0.00 | 57 | 1017.1 |
| 20260504195156 | 78 | 141 | 8.7 | 12.2 | 0.00 | 0.09 | 0.00 | 57 | 1017.0 |
| 20260504195150 | 79 | 13 | 6.1 | 8.7 | 0.00 | 0.21 | 0.00 | 48 | 1018.0 |
| 20260504195146 | 77 | 144 | 7.8 | 10.4 | 0.00 | 0.21 | 0.00 | 59 | 1017.0 |
| 20260504195141 | 79 | 124 | 9.6 | 13.0 | 0.00 | 0.00 | 0.00 | 61 | 1016.1 |
| 20260504195136 | 79 | 22 | 4.3 | 8.7 | 0.00 | 0.21 | 0.00 | 50 | 1018.1 |
| 20260504195130 | 76 | 0.0 | 0.0 | 0.00 | 0.21 | 0.00 | 49 | 1017.9 | |
| 20260504195125 | 76 | 0.0 | 0.0 | 0.00 | 0.21 | 0.00 | 50 | 1017.8 | |
| 20260504195121 | 77 | 0.0 | 0.0 | 0.00 | 0.21 | 0.00 | 54 | 1017.9 | |
| 20260504195113 | 78 | 140 | 7.8 | 11.3 | 0.00 | 0.00 | 0.00 | 60 | 1017.0 |
| 20260504195107 | 77 | 138 | 7.0 | 10.4 | 0.00 | 0.00 | 0.00 | 53 | 1016.9 |
| 20260504195103 | 78 | 132 | 7.0 | 10.4 | 0.00 | 0.00 | 0.00 | 57 | 1016.8 |
| 20260504195057 | 79 | 139 | 7.8 | 12.2 | 0.00 | 0.00 | 0.00 | 58 | 1016.6 |
| 20260504195052 | 79 | 132 | 8.7 | 12.2 | 0.00 | 0.00 | 0.00 | 60 | 1016.5 |
| 20260504195046 | 79 | 120 | 8.7 | 13.0 | 0.00 | 0.00 | 0.00 | 59 | 1016.1 |
| 20260504195041 | 80 | 129 | 8.7 | 11.3 | 0.00 | 0.00 | 0.00 | 62 | 1015.9 |
| 20260504194913 | 79 | 130 | 9.6 | 13.0 | 0.00 | 0.00 | 0.00 | 62 | 1016.2 |
| 20260504194747 | 78 | 0.0 | 0.0 | 0.00 | 0.21 | 0.00 | 51 | 1017.8 | |
| 20260504194741 | 80 | 0.0 | 0.0 | 0.00 | 0.21 | 0.00 | 56 | 1017.6 | |
| 20260504194737 | 78 | 0.0 | 0.0 | 0.00 | 0.21 | 0.00 | 52 | 1017.5 | |
| 20260504194731 | 77 | 0.0 | 0.0 | 0.00 | 0.21 | 0.00 | 57 | 1017.4 | |
| 20260504194726 | 76 | 149 | 8.7 | 12.2 | 0.00 | 0.21 | 0.00 | 56 | 1017.4 |
| 20260504194721 | 77 | 130 | 7.8 | 12.2 | 0.00 | 0.21 | 0.00 | 60 | 1017.2 |
| 20260504194714 | 78 | 132 | 8.7 | 11.3 | 0.00 | 0.21 | 0.00 | 57 | 1017.1 |
| 20260504194709 | 78 | 141 | 8.7 | 12.2 | 0.00 | 0.09 | 0.00 | 57 | 1017.0 |
| 20260504194703 | 77 | 144 | 7.8 | 10.4 | 0.00 | 0.21 | 0.00 | 59 | 1017.0 |
| 20260504194658 | 79 | 124 | 9.6 | 13.0 | 0.00 | 0.00 | 0.00 | 61 | 1016.1 |
| 20260504194533 | 77 | 138 | 7.0 | 10.4 | 0.00 | 0.00 | 0.00 | 53 | 1016.9 |
| 20260504194529 | 78 | 132 | 7.0 | 10.4 | 0.00 | 0.00 | 0.00 | 57 | 1016.8 |
| 20260504194523 | 79 | 132 | 8.7 | 12.2 | 0.00 | 0.00 | 0.00 | 60 | 1016.5 |
| 20260504194518 | 79 | 120 | 8.7 | 13.0 | 0.00 | 0.00 | 0.00 | 59 | 1016.1 |
| 20260504194511 | 79 | 139 | 7.8 | 12.2 | 0.00 | 0.00 | 0.00 | 58 | 1016.6 |
| 20260504194505 | 80 | 129 | 8.7 | 11.3 | 0.00 | 0.00 | 0.00 | 62 | 1015.9 |
| 20260504194340 | 79 | 130 | 9.6 | 13.0 | 0.00 | 0.00 | 0.00 | 62 | 1016.2 |
| 20260504194213 | 78 | 0.0 | 0.0 | 0.00 | 0.21 | 0.00 | 51 | 1017.8 | |
| 20260504194207 | 80 | 0.0 | 0.0 | 0.00 | 0.21 | 0.00 | 56 | 1017.6 | |
| 20260504194201 | 78 | 0.0 | 0.0 | 0.00 | 0.21 | 0.00 | 52 | 1017.5 | |
| 20260504194157 | 77 | 0.0 | 0.0 | 0.00 | 0.21 | 0.00 | 57 | 1017.4 | |
| 20260504194152 | 76 | 149 | 8.7 | 12.2 | 0.00 | 0.21 | 0.00 | 56 | 1017.4 |
| 20260504194146 | 79 | 124 | 9.6 | 13.0 | 0.00 | 0.00 | 0.00 | 61 | 1016.1 |
| 20260504194020 | 77 | 130 | 7.8 | 12.2 | 0.00 | 0.21 | 0.00 | 60 | 1017.2 |
| 20260504194013 | 78 | 132 | 8.7 | 11.3 | 0.00 | 0.21 | 0.00 | 57 | 1017.1 |
| 20260504194008 | 78 | 141 | 8.7 | 12.2 | 0.00 | 0.09 | 0.00 | 57 | 1017.0 |
| 20260504194002 | 79 | 120 | 8.7 | 13.0 | 0.00 | 0.00 | 0.00 | 59 | 1016.1 |
| 20260504193956 | 77 | 138 | 7.0 | 10.4 | 0.00 | 0.00 | 0.00 | 53 | 1016.9 |
| 20260504193830 | 78 | 140 | 7.8 | 11.3 | 0.00 | 0.00 | 0.00 | 60 | 1017.0 |
| 20260504193824 | 78 | 132 | 7.0 | 10.4 | 0.00 | 0.00 | 0.00 | 57 | 1016.8 |
| 20260504193819 | 79 | 139 | 7.8 | 12.2 | 0.00 | 0.00 | 0.00 | 58 | 1016.6 |
| 20260504193813 | 78 | 132 | 9.6 | 12.2 | 0.00 | 0.00 | 0.00 | 59 | 1016.3 |
| 20260504193808 | 79 | 130 | 9.6 | 13.0 | 0.00 | 0.00 | 0.00 | 62 | 1016.2 |
| 20260504193518 | 79 | 120 | 8.7 | 13.0 | 0.00 | 0.00 | 0.00 | 59 | 1016.1 |
| 20260504193234 | 79 | 130 | 9.6 | 13.0 | 0.00 | 0.00 | 0.00 | 62 | 1016.2 |
| 20260504193104 | 79 | 124 | 9.6 | 13.0 | 0.00 | 0.00 | 0.00 | 61 | 1016.1 |
| 20260504192939 | 76 | 256 | 2.6 | 4.3 | 0.00 | 0.21 | 0.00 | 47 | 1018.0 |
| 20260504192934 | 79 | 139 | 7.8 | 12.2 | 0.00 | 0.00 | 0.00 | 58 | 1016.6 |
| 20260504192928 | 79 | 132 | 8.7 | 12.2 | 0.00 | 0.00 | 0.00 | 60 | 1016.5 |
| 20260504192923 | 76 | 0.0 | 0.0 | 0.00 | 0.21 | 0.00 | 49 | 1017.9 | |
| 20260504192755 | 76 | 0.0 | 0.0 | 0.00 | 0.21 | 0.00 | 49 | 1017.9 | |
| 20260504192750 | 78 | 28 | 5.2 | 9.6 | 0.00 | 0.21 | 0.00 | 46 | 1018.1 |
| 20260504192744 | 77 | 130 | 7.8 | 12.2 | 0.00 | 0.21 | 0.00 | 60 | 1017.2 |
| 20260504192739 | 78 | 256 | 2.6 | 4.3 | 0.00 | 0.21 | 0.00 | 51 | 1018.1 |
| 20260504192734 | 79 | 59 | 0.9 | 4.3 | 0.00 | 0.21 | 0.00 | 44 | 1018.0 |
| 20260504192729 | 80 | 59 | 2.6 | 5.2 | 0.00 | 0.21 | 0.00 | 50 | 1018.0 |
| 20260504192725 | 77 | 0.0 | 0.0 | 0.00 | 0.21 | 0.00 | 54 | 1017.9 | |
| 20260504192720 | 78 | 132 | 9.6 | 12.2 | 0.00 | 0.00 | 0.00 | 59 | 1016.3 |
| 20260504192715 | 78 | 0.0 | 0.0 | 0.00 | 0.21 | 0.00 | 51 | 1017.8 | |
| 20260504192707 | 80 | 0.0 | 0.0 | 0.00 | 0.21 | 0.00 | 56 | 1017.6 | |
| 20260504192701 | 78 | 0.0 | 0.0 | 0.00 | 0.21 | 0.00 | 52 | 1017.5 | |
| 20260504192657 | 77 | 0.0 | 0.0 | 0.00 | 0.21 | 0.00 | 57 | 1017.4 | |
| 20260504192651 | 76 | 149 | 8.7 | 12.2 | 0.00 | 0.21 | 0.00 | 56 | 1017.4 |
| 20260504192646 | 78 | 132 | 8.7 | 11.3 | 0.00 | 0.21 | 0.00 | 57 | 1017.1 |
| 20260504192640 | 78 | 141 | 8.7 | 12.2 | 0.00 | 0.09 | 0.00 | 57 | 1017.0 |
| 20260504192635 | 77 | 144 | 7.8 | 10.4 | 0.00 | 0.21 | 0.00 | 59 | 1017.0 |
| 20260504192629 | 78 | 140 | 7.8 | 11.3 | 0.00 | 0.00 | 0.00 | 60 | 1017.0 |
| 20260504192625 | 77 | 138 | 7.0 | 10.4 | 0.00 | 0.00 | 0.00 | 53 | 1016.9 |
| 20260504192619 | 78 | 132 | 7.0 | 10.4 | 0.00 | 0.00 | 0.00 | 57 | 1016.8 |
| 20260504192611 | 79 | 130 | 9.6 | 13.0 | 0.00 | 0.00 | 0.00 | 62 | 1016.2 |
| 20260504192553 | 79 | 124 | 9.6 | 13.0 | 0.00 | 0.00 | 0.00 | 61 | 1016.1 |
| 20260504192440 | 79 | 132 | 8.7 | 12.2 | 0.00 | 0.00 | 0.00 | 60 | 1016.5 |
| 20260504192314 | 76 | 0.0 | 2.6 | 0.00 | 0.21 | 0.00 | 49 | 1017.9 | |
| 20260504192307 | 76 | 256 | 2.6 | 4.3 | 0.00 | 0.21 | 0.00 | 47 | 1018.0 |
| 20260504192304 | 76 | 0.0 | 0.0 | 0.00 | 0.21 | 0.00 | 49 | 1017.9 | |
| 20260504192257 | 76 | 0.0 | 0.0 | 0.00 | 0.21 | 0.00 | 50 | 1017.8 | |
| 20260504192253 | 76 | 0.0 | 0.0 | 0.00 | 0.21 | 0.00 | 49 | 1017.9 | |
| 20260504192247 | 77 | 130 | 7.8 | 12.2 | 0.00 | 0.21 | 0.00 | 60 | 1017.2 |
| 20260504192242 | 78 | 132 | 9.6 | 12.2 | 0.00 | 0.00 | 0.00 | 59 | 1016.3 |
| 20260504192107 | 77 | 0.0 | 0.0 | 0.00 | 0.21 | 0.00 | 54 | 1017.9 | |
| 20260504192102 | 78 | 0.0 | 0.0 | 0.00 | 0.21 | 0.00 | 51 | 1017.8 | |
| 20260504192056 | 80 | 0.0 | 0.0 | 0.00 | 0.21 | 0.00 | 56 | 1017.6 | |
| 20260504192051 | 78 | 0.0 | 0.0 | 0.00 | 0.21 | 0.00 | 52 | 1017.5 | |
| 20260504192045 | 79 | 130 | 9.6 | 13.0 | 0.00 | 0.00 | 0.00 | 62 | 1016.2 |
| 20260504191923 | 76 | 149 | 8.7 | 12.2 | 0.00 | 0.21 | 0.00 | 56 | 1017.4 |
| 20260504191917 | 78 | 132 | 8.7 | 11.3 | 0.00 | 0.21 | 0.00 | 57 | 1017.1 |
| 20260504191910 | 78 | 141 | 8.7 | 12.2 | 0.00 | 0.09 | 0.00 | 57 | 1017.0 |
| 20260504191906 | 77 | 144 | 7.8 | 10.4 | 0.00 | 0.21 | 0.00 | 59 | 1017.0 |
| 20260504191900 | 78 | 140 | 7.8 | 11.3 | 0.00 | 0.00 | 0.00 | 60 | 1017.0 |
| 20260504191855 | 77 | 138 | 7.0 | 10.4 | 0.00 | 0.00 | 0.00 | 53 | 1016.9 |
| 20260504191851 | 78 | 132 | 7.0 | 10.4 | 0.00 | 0.00 | 0.00 | 57 | 1016.8 |
| 20260504191845 | 79 | 139 | 7.8 | 12.2 | 0.00 | 0.00 | 0.00 | 58 | 1016.6 |
| 20260504191841 | 79 | 132 | 8.7 | 12.2 | 0.00 | 0.00 | 0.00 | 60 | 1016.5 |
| 20260504191711 | 76 | 0.0 | 2.6 | 0.00 | 0.21 | 0.00 | 49 | 1017.9 | |
| 20260504191706 | 76 | 256 | 2.6 | 4.3 | 0.00 | 0.21 | 0.00 | 47 | 1018.0 |
| 20260504191701 | 76 | 0.0 | 0.0 | 0.00 | 0.21 | 0.00 | 49 | 1017.9 | |
| 20260504191656 | 76 | 0.0 | 0.0 | 0.00 | 0.21 | 0.00 | 50 | 1017.8 | |
| 20260504191651 | 76 | 0.0 | 0.0 | 0.00 | 0.21 | 0.00 | 49 | 1017.9 | |
| 20260504191647 | 77 | 130 | 7.8 | 12.2 | 0.00 | 0.21 | 0.00 | 60 | 1017.2 |
| 20260504191641 | 78 | 132 | 9.6 | 12.2 | 0.00 | 0.00 | 0.00 | 59 | 1016.3 |
| 20260504191354 | 78 | 0.0 | 0.0 | 0.00 | 0.21 | 0.00 | 51 | 1017.8 | |
| 20260504191348 | 80 | 0.0 | 0.0 | 0.00 | 0.21 | 0.00 | 56 | 1017.6 | |
| 20260504191343 | 78 | 0.0 | 0.0 | 0.00 | 0.21 | 0.00 | 52 | 1017.5 | |
| 20260504191339 | 78 | 141 | 8.7 | 12.2 | 0.00 | 0.09 | 0.00 | 57 | 1017.0 |
| 20260504191333 | 77 | 0.0 | 0.0 | 0.00 | 0.21 | 0.00 | 57 | 1017.4 | |
| 20260504191329 | 78 | 132 | 8.7 | 11.3 | 0.00 | 0.21 | 0.00 | 57 | 1017.1 |
| 20260504191323 | 76 | 149 | 8.7 | 12.2 | 0.00 | 0.21 | 0.00 | 56 | 1017.4 |
| 20260504191318 | 78 | 132 | 7.0 | 10.4 | 0.00 | 0.00 | 0.00 | 57 | 1016.8 |
| 20260504191311 | 77 | 144 | 7.8 | 10.4 | 0.00 | 0.21 | 0.00 | 59 | 1017.0 |
| 20260504191305 | 78 | 140 | 7.8 | 11.3 | 0.00 | 0.00 | 0.00 | 60 | 1017.0 |
| 20260504191259 | 77 | 138 | 7.0 | 10.4 | 0.00 | 0.00 | 0.00 | 53 | 1016.9 |
| 20260504191254 | 79 | 139 | 7.8 | 12.2 | 0.00 | 0.00 | 0.00 | 58 | 1016.6 |
| 20260504191248 | 79 | 132 | 8.7 | 12.2 | 0.00 | 0.00 | 0.00 | 60 | 1016.5 |
| 20260504190841 | 78 | 141 | 8.7 | 12.2 | 0.00 | 0.09 | 0.00 | 57 | 1017.0 |
| 20260504190835 | 78 | 132 | 7.0 | 10.4 | 0.00 | 0.00 | 0.00 | 57 | 1016.8 |
| 20260504190547 | 77 | 144 | 7.8 | 10.4 | 0.00 | 0.21 | 0.00 | 59 | 1017.0 |
| 20260504190542 | 78 | 140 | 7.8 | 11.3 | 0.00 | 0.00 | 0.00 | 60 | 1017.0 |
| 20260504190536 | 77 | 138 | 7.0 | 10.4 | 0.00 | 0.00 | 0.00 | 53 | 1016.9 |
| 20260504190531 | 79 | 132 | 8.7 | 12.2 | 0.00 | 0.00 | 0.00 | 60 | 1016.5 |
| 20260504190521 | 78 | 132 | 9.6 | 12.2 | 0.00 | 0.00 | 0.00 | 59 | 1016.3 |
| 20260504190238 | 76 | 0.0 | 0.0 | 0.00 | 0.21 | 0.00 | 49 | 1017.9 | |
| 20260504190233 | 77 | 0.0 | 0.0 | 0.00 | 0.21 | 0.00 | 54 | 1017.9 | |
| 20260504190227 | 78 | 141 | 8.7 | 12.2 | 0.00 | 0.09 | 0.00 | 57 | 1017.0 |
| 20260504190222 | 78 | 0.0 | 0.0 | 0.00 | 0.21 | 0.00 | 51 | 1017.8 | |
| 20260504190216 | 80 | 0.0 | 0.0 | 0.00 | 0.21 | 0.00 | 56 | 1017.6 | |
| 20260504190209 | 78 | 0.0 | 0.0 | 0.00 | 0.21 | 0.00 | 52 | 1017.5 | |
| 20260504190204 | 77 | 0.0 | 0.0 | 0.00 | 0.21 | 0.00 | 57 | 1017.4 | |
| 20260504190158 | 76 | 149 | 8.7 | 12.2 | 0.00 | 0.21 | 0.00 | 56 | 1017.4 |
| 20260504190154 | 77 | 130 | 7.8 | 12.2 | 0.00 | 0.21 | 0.00 | 60 | 1017.2 |
| 20260504190149 | 78 | 132 | 8.7 | 11.3 | 0.00 | 0.21 | 0.00 | 57 | 1017.1 |
| 20260504190143 | 78 | 132 | 7.0 | 10.4 | 0.00 | 0.00 | 0.00 | 57 | 1016.8 |
| 20260504190139 | 79 | 139 | 7.8 | 12.2 | 0.00 | 0.00 | 0.00 | 58 | 1016.6 |
| 20260504190011 | 77 | 144 | 7.8 | 10.4 | 0.00 | 0.21 | 0.00 | 59 | 1017.0 |
| 20260504190007 | 78 | 140 | 7.8 | 11.3 | 0.00 | 0.00 | 0.00 | 60 | 1017.0 |
| 20260504185559 | 79 | 139 | 7.8 | 12.2 | 0.00 | 0.00 | 0.00 | 58 | 1016.6 |
| 20260504185543 | 79 | 132 | 8.7 | 12.2 | 0.00 | 0.00 | 0.00 | 60 | 1016.5 |
| 20260504185305 | 77 | 138 | 7.0 | 10.4 | 0.00 | 0.00 | 0.00 | 53 | 1016.9 |
| 20260504185141 | 79 | 59 | 0.9 | 4.3 | 0.00 | 0.21 | 0.00 | 44 | 1018.0 |
| 20260504185135 | 76 | 256 | 2.6 | 4.3 | 0.00 | 0.21 | 0.00 | 47 | 1018.0 |
| 20260504185130 | 76 | 0.0 | 2.6 | 0.00 | 0.21 | 0.00 | 49 | 1017.9 | |
| 20260504185002 | 76 | 0.0 | 0.0 | 0.00 | 0.21 | 0.00 | 49 | 1017.9 | |
| 20260504184958 | 79 | 139 | 7.8 | 12.2 | 0.00 | 0.00 | 0.00 | 58 | 1016.6 |
| 20260504184953 | 76 | 0.0 | 0.0 | 0.00 | 0.21 | 0.00 | 50 | 1017.8 | |
| 20260504184947 | 76 | 0.0 | 0.0 | 0.00 | 0.21 | 0.00 | 49 | 1017.9 | |
| 20260504184941 | 77 | 0.0 | 0.0 | 0.00 | 0.21 | 0.00 | 54 | 1017.9 | |
| 20260504184936 | 78 | 0.0 | 0.0 | 0.00 | 0.21 | 0.00 | 51 | 1017.8 | |
| 20260504184931 | 80 | 0.0 | 0.0 | 0.00 | 0.21 | 0.00 | 56 | 1017.6 | |
| 20260504184925 | 78 | 0.0 | 0.0 | 0.00 | 0.21 | 0.00 | 52 | 1017.5 | |
| 20260504184921 | 77 | 0.0 | 0.0 | 0.00 | 0.21 | 0.00 | 57 | 1017.4 | |
| 20260504184915 | 76 | 149 | 8.7 | 12.2 | 0.00 | 0.21 | 0.00 | 56 | 1017.4 |
| 20260504184910 | 77 | 130 | 7.8 | 12.2 | 0.00 | 0.21 | 0.00 | 60 | 1017.2 |
| 20260504184904 | 78 | 132 | 8.7 | 11.3 | 0.00 | 0.21 | 0.00 | 57 | 1017.1 |
| 20260504184857 | 77 | 144 | 7.8 | 10.4 | 0.00 | 0.21 | 0.00 | 59 | 1017.0 |
| 20260504184853 | 78 | 141 | 8.7 | 12.2 | 0.00 | 0.09 | 0.00 | 57 | 1017.0 |
| 20260504184847 | 78 | 140 | 7.8 | 11.3 | 0.00 | 0.00 | 0.00 | 60 | 1017.0 |
| 20260504184600 | 78 | 31 | 7.8 | 9.6 | 0.00 | 0.21 | 0.00 | 49 | 1018.1 |
| 20260504184556 | 77 | 36 | 4.3 | 8.7 | 0.00 | 0.21 | 0.00 | 51 | 1018.2 |
| 20260504184550 | 79 | 22 | 6.1 | 8.7 | 0.00 | 0.21 | 0.00 | 48 | 1018.0 |
| 20260504184545 | 79 | 17 | 3.5 | 8.7 | 0.00 | 0.21 | 0.00 | 48 | 1018.0 |
| 20260504184540 | 79 | 13 | 6.1 | 8.7 | 0.00 | 0.21 | 0.00 | 48 | 1018.0 |
| 20260504184535 | 79 | 59 | 0.9 | 4.3 | 0.00 | 0.21 | 0.00 | 44 | 1018.0 |
| 20260504184529 | 78 | 256 | 2.6 | 4.3 | 0.00 | 0.21 | 0.00 | 51 | 1018.1 |
| 20260504184524 | 76 | 256 | 2.6 | 4.3 | 0.00 | 0.21 | 0.00 | 47 | 1018.0 |
| 20260504184519 | 78 | 132 | 7.0 | 10.4 | 0.00 | 0.00 | 0.00 | 57 | 1016.8 |
| 20260504184513 | 77 | 54 | 5.2 | 9.6 | 0.00 | 0.21 | 0.00 | 53 | 1018.3 |
| 20260504184508 | 79 | 139 | 7.8 | 12.2 | 0.00 | 0.00 | 0.00 | 58 | 1016.6 |
| 20260504184501 | 80 | 59 | 2.6 | 5.2 | 0.00 | 0.21 | 0.00 | 50 | 1018.0 |
| 20260504184455 | 76 | 0.0 | 2.6 | 0.00 | 0.21 | 0.00 | 49 | 1017.9 | |
| 20260504184450 | 76 | 0.0 | 0.0 | 0.00 | 0.21 | 0.00 | 49 | 1017.9 | |
| 20260504184324 | 78 | 0.0 | 0.0 | 0.00 | 0.21 | 0.00 | 51 | 1017.8 | |
| 20260504184318 | 78 | 0.0 | 0.0 | 0.00 | 0.21 | 0.00 | 52 | 1017.5 | |
| 20260504184312 | 76 | 0.0 | 0.0 | 0.00 | 0.21 | 0.00 | 50 | 1017.8 | |
| 20260504184307 | 79 | 22 | 4.3 | 8.7 | 0.00 | 0.21 | 0.00 | 50 | 1018.1 |
| 20260504184301 | 77 | 0.0 | 0.0 | 0.00 | 0.21 | 0.00 | 54 | 1017.9 | |
| 20260504184254 | 80 | 0.0 | 0.0 | 0.00 | 0.21 | 0.00 | 56 | 1017.6 | |
| 20260504184249 | 78 | 28 | 5.2 | 9.6 | 0.00 | 0.21 | 0.00 | 46 | 1018.1 |
| 20260504184243 | 77 | 0.0 | 0.0 | 0.00 | 0.21 | 0.00 | 57 | 1017.4 | |
| 20260504184239 | 76 | 149 | 8.7 | 12.2 | 0.00 | 0.21 | 0.00 | 56 | 1017.4 |
| 20260504184233 | 77 | 130 | 7.8 | 12.2 | 0.00 | 0.21 | 0.00 | 60 | 1017.2 |
| 20260504184229 | 78 | 132 | 8.7 | 11.3 | 0.00 | 0.21 | 0.00 | 57 | 1017.1 |
| 20260504184224 | 77 | 144 | 7.8 | 10.4 | 0.00 | 0.21 | 0.00 | 59 | 1017.0 |
| 20260504184218 | 78 | 141 | 8.7 | 12.2 | 0.00 | 0.09 | 0.00 | 57 | 1017.0 |
| 20260504184212 | 78 | 140 | 7.8 | 11.3 | 0.00 | 0.00 | 0.00 | 60 | 1017.0 |
| 20260504184207 | 77 | 138 | 7.0 | 10.4 | 0.00 | 0.00 | 0.00 | 53 | 1016.9 |
| 20260504184042 | 78 | 132 | 7.0 | 10.4 | 0.00 | 0.00 | 0.00 | 57 | 1016.8 |
| 20260504184036 | 79 | 22 | 6.1 | 8.7 | 0.00 | 0.21 | 0.00 | 48 | 1018.0 |
| 20260504184031 | 79 | 13 | 6.1 | 8.7 | 0.00 | 0.21 | 0.00 | 48 | 1018.0 |
| 20260504184026 | 79 | 17 | 3.5 | 8.7 | 0.00 | 0.21 | 0.00 | 48 | 1018.0 |
| 20260504184020 | 80 | 59 | 2.6 | 5.2 | 0.00 | 0.21 | 0.00 | 50 | 1018.0 |
| 20260504184015 | 78 | 256 | 2.6 | 4.3 | 0.00 | 0.21 | 0.00 | 51 | 1018.1 |
| 20260504184010 | 79 | 59 | 0.9 | 4.3 | 0.00 | 0.21 | 0.00 | 44 | 1018.0 |
| 20260504184005 | 76 | 256 | 2.6 | 4.3 | 0.00 | 0.21 | 0.00 | 47 | 1018.0 |
| 20260504183838 | 76 | 0.0 | 0.0 | 0.00 | 0.21 | 0.00 | 49 | 1017.9 | |
| 20260504183833 | 76 | 0.0 | 0.0 | 0.00 | 0.21 | 0.00 | 50 | 1017.8 | |
| 20260504183829 | 76 | 0.0 | 0.0 | 0.00 | 0.21 | 0.00 | 49 | 1017.9 | |
| 20260504183823 | 77 | 0.0 | 0.0 | 0.00 | 0.21 | 0.00 | 54 | 1017.9 | |
| 20260504183818 | 78 | 0.0 | 0.0 | 0.00 | 0.21 | 0.00 | 51 | 1017.8 | |
| 20260504183812 | 80 | 0.0 | 0.0 | 0.00 | 0.21 | 0.00 | 56 | 1017.6 | |
| 20260504183806 | 78 | 0.0 | 0.0 | 0.00 | 0.21 | 0.00 | 52 | 1017.5 | |
| 20260504183639 | 76 | 149 | 8.7 | 12.2 | 0.00 | 0.21 | 0.00 | 56 | 1017.4 |
| 20260504183633 | 77 | 130 | 7.8 | 12.2 | 0.00 | 0.21 | 0.00 | 60 | 1017.2 |
| 20260504183629 | 78 | 132 | 8.7 | 11.3 | 0.00 | 0.21 | 0.00 | 57 | 1017.1 |
| 20260504183623 | 77 | 144 | 7.8 | 10.4 | 0.00 | 0.21 | 0.00 | 59 | 1017.0 |
| 20260504183618 | 78 | 141 | 8.7 | 12.2 | 0.00 | 0.09 | 0.00 | 57 | 1017.0 |
| 20260504183612 | 78 | 140 | 7.8 | 11.3 | 0.00 | 0.00 | 0.00 | 60 | 1017.0 |
| 20260504183607 | 77 | 138 | 7.0 | 10.4 | 0.00 | 0.00 | 0.00 | 53 | 1016.9 |
| 20260504183551 | 78 | 132 | 7.0 | 10.4 | 0.00 | 0.00 | 0.00 | 57 | 1016.8 |
| 20260504183436 | 85 | 5 | 1.7 | 6.1 | 0.00 | 0.01 | 0.01 | 70 | 1007.2 |
| 20260504183430 | 85 | 56 | 1.7 | 8.7 | 0.00 | 0.01 | 0.01 | 72 | 1007.4 |
| 20260504183426 | 85 | 57 | 5.2 | 8.7 | 0.00 | 0.01 | 0.01 | 73 | 1007.5 |
| 20260504183421 | 85 | 0 | 6.1 | 10.4 | 0.00 | 0.01 | 0.01 | 76 | 1007.6 |
| 20260504183415 | 85 | 42 | 7.8 | 10.4 | 0.01 | 0.01 | 0.01 | 77 | 1007.8 |
| 20260504183249 | 84 | 40 | 7.0 | 11.3 | 0.01 | 0.01 | 0.01 | 79 | 1007.9 |
| 20260504183243 | 77 | 35 | 7.8 | 10.4 | 0.00 | 0.21 | 0.00 | 59 | 1018.0 |
| 20260504183236 | 79 | 22 | 4.3 | 8.7 | 0.00 | 0.21 | 0.00 | 50 | 1018.1 |
| 20260504183230 | 78 | 39 | 7.0 | 10.4 | 0.00 | 0.21 | 0.00 | 51 | 1018.1 |
| 20260504183225 | 77 | 54 | 5.2 | 9.6 | 0.00 | 0.21 | 0.00 | 53 | 1018.3 |
| 20260504183221 | 79 | 17 | 3.5 | 8.7 | 0.00 | 0.21 | 0.00 | 48 | 1018.0 |
| 20260504183215 | 80 | 59 | 2.6 | 5.2 | 0.00 | 0.21 | 0.00 | 50 | 1018.0 |
| 20260504183209 | 78 | 256 | 2.6 | 4.3 | 0.00 | 0.21 | 0.00 | 51 | 1018.1 |
| 20260504183204 | 80 | 0.0 | 0.0 | 0.00 | 0.21 | 0.00 | 56 | 1017.6 | |
| 20260504183159 | 76 | 0.0 | 2.6 | 0.00 | 0.21 | 0.00 | 49 | 1017.9 | |
| 20260504183154 | 76 | 0.0 | 0.0 | 0.00 | 0.21 | 0.00 | 49 | 1017.9 | |
| 20260504183149 | 76 | 0.0 | 0.0 | 0.00 | 0.21 | 0.00 | 49 | 1017.9 | |
| 20260504183143 | 76 | 256 | 2.6 | 4.3 | 0.00 | 0.21 | 0.00 | 47 | 1018.0 |
| 20260504183136 | 76 | 0.0 | 0.0 | 0.00 | 0.21 | 0.00 | 50 | 1017.8 | |
| 20260504183131 | 78 | 28 | 5.2 | 9.6 | 0.00 | 0.21 | 0.00 | 46 | 1018.1 |
| 20260504183126 | 79 | 59 | 0.9 | 4.3 | 0.00 | 0.21 | 0.00 | 44 | 1018.0 |
| 20260504183121 | 78 | 0.0 | 0.0 | 0.00 | 0.21 | 0.00 | 52 | 1017.5 | |
| 20260504183116 | 77 | 0.0 | 0.0 | 0.00 | 0.21 | 0.00 | 57 | 1017.4 | |
| 20260504183111 | 77 | 0.0 | 0.0 | 0.00 | 0.21 | 0.00 | 54 | 1017.9 | |
| 20260504183105 | 78 | 141 | 8.7 | 12.2 | 0.00 | 0.09 | 0.00 | 57 | 1017.0 |
| 20260504183100 | 78 | 31 | 7.8 | 9.6 | 0.00 | 0.21 | 0.00 | 49 | 1018.1 |
| 20260504183054 | 78 | 140 | 7.8 | 11.3 | 0.00 | 0.00 | 0.00 | 60 | 1017.0 |
| 20260504183049 | 78 | 0.0 | 0.0 | 0.00 | 0.21 | 0.00 | 51 | 1017.8 | |
| 20260504183043 | 79 | 22 | 6.1 | 8.7 | 0.00 | 0.21 | 0.00 | 48 | 1018.0 |
| 20260504183036 | 79 | 13 | 6.1 | 8.7 | 0.00 | 0.21 | 0.00 | 48 | 1018.0 |
| 20260504183032 | 76 | 149 | 8.7 | 12.2 | 0.00 | 0.21 | 0.00 | 56 | 1017.4 |
| 20260504183027 | 77 | 130 | 7.8 | 12.2 | 0.00 | 0.21 | 0.00 | 60 | 1017.2 |
| 20260504183022 | 77 | 138 | 7.0 | 10.4 | 0.00 | 0.00 | 0.00 | 53 | 1016.9 |
| 20260504183016 | 78 | 132 | 8.7 | 11.3 | 0.00 | 0.21 | 0.00 | 57 | 1017.1 |
| 20260504183011 | 77 | 144 | 7.8 | 10.4 | 0.00 | 0.21 | 0.00 | 59 | 1017.0 |
| 20260504182847 | 83 | 31 | 4.3 | 11.3 | 0.01 | 0.01 | 0.01 | 76 | 1007.9 |
| 20260504182843 | 84 | 24 | 1.7 | 5.2 | 0.01 | 0.01 | 0.01 | 75 | 1008.0 |
| 20260504182838 | 85 | 327 | 2.6 | 9.6 | 0.01 | 0.01 | 0.01 | 73 | 1008.3 |
| 20260504182831 | 87 | 281 | 5.2 | 13.9 | 0.00 | 0.00 | 0.00 | 65 | 1008.3 |
| 20260504182825 | 90 | 248 | 7.8 | 13.9 | 0.00 | 0.00 | 0.00 | 59 | 1008.4 |
| 20260504182820 | 89 | 240 | 7.8 | 13.9 | 0.00 | 0.00 | 0.00 | 62 | 1008.5 |
| 20260504182815 | 89 | 290 | 6.1 | 13.9 | 0.00 | 0.00 | 0.00 | 60 | 1008.6 |
| 20260504182810 | 88 | 0 | 7.0 | 13.9 | 0.00 | 0.00 | 0.00 | 66 | 1008.8 |
| 20260504182804 | 86 | 229 | 6.1 | 13.0 | 0.00 | 0.00 | 0.00 | 67 | 1008.9 |
| 20260504182759 | 86 | 306 | 5.2 | 9.6 | 0.00 | 0.00 | 0.00 | 74 | 1008.9 |
| 20260504182755 | 87 | 22 | 6.1 | 9.6 | 0.00 | 0.00 | 0.00 | 72 | 1009.0 |
| 20260504182749 | 76 | 42 | 7.8 | 10.4 | 0.00 | 0.21 | 0.00 | 57 | 1018.0 |
| 20260504182744 | 77 | 35 | 7.8 | 10.4 | 0.00 | 0.21 | 0.00 | 59 | 1018.0 |
| 20260504182738 | 77 | 36 | 4.3 | 8.7 | 0.00 | 0.21 | 0.00 | 51 | 1018.2 |
| 20260504182731 | 79 | 22 | 4.3 | 8.7 | 0.00 | 0.21 | 0.00 | 50 | 1018.1 |
| 20260504182727 | 80 | 0.0 | 0.0 | 0.00 | 0.21 | 0.00 | 56 | 1017.6 | |
| 20260504182721 | 79 | 17 | 3.5 | 8.7 | 0.00 | 0.21 | 0.00 | 48 | 1018.0 |
| 20260504182715 | 80 | 59 | 2.6 | 5.2 | 0.00 | 0.21 | 0.00 | 50 | 1018.0 |
| 20260504182710 | 78 | 256 | 2.6 | 4.3 | 0.00 | 0.21 | 0.00 | 51 | 1018.1 |
| 20260504182706 | 76 | 256 | 2.6 | 4.3 | 0.00 | 0.21 | 0.00 | 47 | 1018.0 |
| 20260504182700 | 76 | 0.0 | 2.6 | 0.00 | 0.21 | 0.00 | 49 | 1017.9 | |
| 20260504182655 | 78 | 39 | 7.0 | 10.4 | 0.00 | 0.21 | 0.00 | 51 | 1018.1 |
| 20260504182651 | 76 | 0.0 | 0.0 | 0.00 | 0.21 | 0.00 | 49 | 1017.9 | |
| 20260504182645 | 79 | 59 | 0.9 | 4.3 | 0.00 | 0.21 | 0.00 | 44 | 1018.0 |
| 20260504182641 | 76 | 0.0 | 0.0 | 0.00 | 0.21 | 0.00 | 50 | 1017.8 | |
| 20260504182635 | 76 | 0.0 | 0.0 | 0.00 | 0.21 | 0.00 | 49 | 1017.9 | |
| 20260504182628 | 77 | 0.0 | 0.0 | 0.00 | 0.21 | 0.00 | 57 | 1017.4 | |
| 20260504182623 | 77 | 0.0 | 0.0 | 0.00 | 0.21 | 0.00 | 54 | 1017.9 | |
| 20260504182618 | 78 | 0.0 | 0.0 | 0.00 | 0.21 | 0.00 | 52 | 1017.5 | |
| 20260504182613 | 77 | 54 | 5.2 | 9.6 | 0.00 | 0.21 | 0.00 | 53 | 1018.3 |
| 20260504182609 | 78 | 28 | 5.2 | 9.6 | 0.00 | 0.21 | 0.00 | 46 | 1018.1 |
| 20260504182603 | 78 | 0.0 | 0.0 | 0.00 | 0.21 | 0.00 | 51 | 1017.8 | |
| 20260504182557 | 78 | 140 | 7.8 | 11.3 | 0.00 | 0.00 | 0.00 | 60 | 1017.0 |
| 20260504182552 | 78 | 31 | 7.8 | 9.6 | 0.00 | 0.21 | 0.00 | 49 | 1018.1 |
| 20260504182547 | 78 | 141 | 8.7 | 12.2 | 0.00 | 0.09 | 0.00 | 57 | 1017.0 |
| 20260504182535 | 77 | 138 | 7.0 | 10.4 | 0.00 | 0.00 | 0.00 | 53 | 1016.9 |
| 20260504182417 | 76 | 149 | 8.7 | 12.2 | 0.00 | 0.21 | 0.00 | 56 | 1017.4 |
| 20260504182412 | 77 | 130 | 7.8 | 12.2 | 0.00 | 0.21 | 0.00 | 60 | 1017.2 |
| 20260504182408 | 79 | 13 | 6.1 | 8.7 | 0.00 | 0.21 | 0.00 | 48 | 1018.0 |
| 20260504182402 | 78 | 132 | 8.7 | 11.3 | 0.00 | 0.21 | 0.00 | 57 | 1017.1 |
| 20260504182357 | 77 | 144 | 7.8 | 10.4 | 0.00 | 0.21 | 0.00 | 59 | 1017.0 |
| 20260504182228 | 77 | 36 | 4.3 | 8.7 | 0.00 | 0.21 | 0.00 | 51 | 1018.2 |
| 20260504182223 | 79 | 22 | 4.3 | 8.7 | 0.00 | 0.21 | 0.00 | 50 | 1018.1 |
| 20260504182217 | 79 | 17 | 3.5 | 8.7 | 0.00 | 0.21 | 0.00 | 48 | 1018.0 |
| 20260504182212 | 80 | 59 | 2.6 | 5.2 | 0.00 | 0.21 | 0.00 | 50 | 1018.0 |
| 20260504182207 | 78 | 256 | 2.6 | 4.3 | 0.00 | 0.21 | 0.00 | 51 | 1018.1 |
| 20260504182202 | 79 | 59 | 0.9 | 4.3 | 0.00 | 0.21 | 0.00 | 44 | 1018.0 |
| 20260504182157 | 76 | 256 | 2.6 | 4.3 | 0.00 | 0.21 | 0.00 | 47 | 1018.0 |
| 20260504182151 | 76 | 0.0 | 2.6 | 0.00 | 0.21 | 0.00 | 49 | 1017.9 | |
| 20260504182147 | 76 | 0.0 | 0.0 | 0.00 | 0.21 | 0.00 | 49 | 1017.9 | |
| 20260504182142 | 76 | 0.0 | 0.0 | 0.00 | 0.21 | 0.00 | 50 | 1017.8 | |
| 20260504182136 | 76 | 0.0 | 0.0 | 0.00 | 0.21 | 0.00 | 49 | 1017.9 | |
| 20260504182129 | 77 | 0.0 | 0.0 | 0.00 | 0.21 | 0.00 | 54 | 1017.9 | |
| 20260504182123 | 78 | 0.0 | 0.0 | 0.00 | 0.21 | 0.00 | 51 | 1017.8 | |
| 20260504182118 | 78 | 0.0 | 0.0 | 0.00 | 0.21 | 0.00 | 52 | 1017.5 | |
| 20260504182112 | 77 | 0.0 | 0.0 | 0.00 | 0.21 | 0.00 | 57 | 1017.4 | |
| 20260504182107 | 78 | 140 | 7.8 | 11.3 | 0.00 | 0.00 | 0.00 | 60 | 1017.0 |
| 20260504182103 | 78 | 141 | 8.7 | 12.2 | 0.00 | 0.09 | 0.00 | 57 | 1017.0 |
| 20260504181936 | 77 | 130 | 7.8 | 12.2 | 0.00 | 0.21 | 0.00 | 60 | 1017.2 |
| 20260504181808 | 79 | 22 | 6.1 | 8.7 | 0.00 | 0.21 | 0.00 | 48 | 1018.0 |
| 20260504181803 | 79 | 13 | 6.1 | 8.7 | 0.00 | 0.21 | 0.00 | 48 | 1018.0 |
| 20260504181759 | 80 | 0.0 | 0.0 | 0.00 | 0.21 | 0.00 | 56 | 1017.6 | |
| 20260504181753 | 78 | 132 | 8.7 | 11.3 | 0.00 | 0.21 | 0.00 | 57 | 1017.1 |
| 20260504181749 | 77 | 144 | 7.8 | 10.4 | 0.00 | 0.21 | 0.00 | 59 | 1017.0 |
| 20260504181620 | 80 | 59 | 2.6 | 5.2 | 0.00 | 0.21 | 0.00 | 50 | 1018.0 |
| 20260504181616 | 78 | 256 | 2.6 | 4.3 | 0.00 | 0.21 | 0.00 | 51 | 1018.1 |
| 20260504181610 | 79 | 59 | 0.9 | 4.3 | 0.00 | 0.21 | 0.00 | 44 | 1018.0 |
| 20260504181605 | 76 | 256 | 2.6 | 4.3 | 0.00 | 0.21 | 0.00 | 47 | 1018.0 |
| 20260504181600 | 76 | 0.0 | 2.6 | 0.00 | 0.21 | 0.00 | 49 | 1017.9 | |
| 20260504181555 | 78 | 141 | 8.7 | 12.2 | 0.00 | 0.09 | 0.00 | 57 | 1017.0 |
| 20260504181540 | 78 | 140 | 7.8 | 11.3 | 0.00 | 0.00 | 0.00 | 60 | 1017.0 |
| 20260504181420 | 77 | 0.0 | 0.0 | 0.00 | 0.21 | 0.00 | 54 | 1017.9 | |
| 20260504181415 | 76 | 0.0 | 0.0 | 0.00 | 0.21 | 0.00 | 50 | 1017.8 | |
| 20260504181409 | 78 | 0.0 | 0.0 | 0.00 | 0.21 | 0.00 | 51 | 1017.8 | |
| 20260504181405 | 77 | 0.0 | 0.0 | 0.00 | 0.21 | 0.00 | 57 | 1017.4 | |
| 20260504181359 | 76 | 0.0 | 0.0 | 0.00 | 0.21 | 0.00 | 49 | 1017.9 | |
| 20260504181354 | 78 | 0.0 | 0.0 | 0.00 | 0.21 | 0.00 | 52 | 1017.5 | |
| 20260504181350 | 76 | 149 | 8.7 | 12.2 | 0.00 | 0.21 | 0.00 | 56 | 1017.4 |
| 20260504181344 | 77 | 130 | 7.8 | 12.2 | 0.00 | 0.21 | 0.00 | 60 | 1017.2 |
| 20260504181216 | 80 | 0.0 | 0.0 | 0.00 | 0.21 | 0.00 | 56 | 1017.6 | |
| 20260504181212 | 77 | 144 | 7.8 | 10.4 | 0.00 | 0.21 | 0.00 | 59 | 1017.0 |
| 20260504180925 | 78 | 256 | 2.6 | 4.3 | 0.00 | 0.21 | 0.00 | 51 | 1018.1 |
| 20260504180920 | 76 | 0.0 | 2.6 | 0.00 | 0.21 | 0.00 | 49 | 1017.9 | |
| 20260504180914 | 77 | 0.0 | 0.0 | 0.00 | 0.21 | 0.00 | 54 | 1017.9 | |
| 20260504180909 | 76 | 0.0 | 0.0 | 0.00 | 0.21 | 0.00 | 49 | 1017.9 | |
| 20260504180903 | 76 | 0.0 | 0.0 | 0.00 | 0.21 | 0.00 | 49 | 1017.9 | |
| 20260504180859 | 78 | 0.0 | 0.0 | 0.00 | 0.21 | 0.00 | 51 | 1017.8 | |
| 20260504180853 | 78 | 0.0 | 0.0 | 0.00 | 0.21 | 0.00 | 52 | 1017.5 | |
| 20260504180848 | 77 | 0.0 | 0.0 | 0.00 | 0.21 | 0.00 | 57 | 1017.4 | |
| 20260504180842 | 76 | 149 | 8.7 | 12.2 | 0.00 | 0.21 | 0.00 | 56 | 1017.4 |
| 20260504180836 | 77 | 130 | 7.8 | 12.2 | 0.00 | 0.21 | 0.00 | 60 | 1017.2 |
| 20260504180709 | 78 | 132 | 8.7 | 11.3 | 0.00 | 0.21 | 0.00 | 57 | 1017.1 |
| 20260504180535 | 78 | 141 | 8.7 | 12.2 | 0.00 | 0.09 | 0.00 | 57 | 1017.0 |
| 20260504180417 | 77 | 0.0 | 0.0 | 0.00 | 0.21 | 0.00 | 54 | 1017.9 | |
| 20260504180413 | 78 | 0.0 | 0.0 | 0.00 | 0.21 | 0.00 | 52 | 1017.5 | |
| 20260504180247 | 76 | 149 | 8.7 | 12.2 | 0.00 | 0.21 | 0.00 | 56 | 1017.4 |
| 20260504180241 | 77 | 130 | 7.8 | 12.2 | 0.00 | 0.21 | 0.00 | 60 | 1017.2 |
| 20260504180115 | 76 | 0.0 | 2.6 | 0.00 | 0.21 | 0.00 | 49 | 1017.9 | |
| 20260504180109 | 78 | 0.0 | 0.0 | 0.00 | 0.21 | 0.00 | 51 | 1017.8 | |
| 20260504180104 | 76 | 0.0 | 0.0 | 0.00 | 0.21 | 0.00 | 49 | 1017.9 | |
| 20260504180058 | 78 | 132 | 8.7 | 11.3 | 0.00 | 0.21 | 0.00 | 57 | 1017.1 |
| 20260504180052 | 76 | 0.0 | 0.0 | 0.00 | 0.21 | 0.00 | 49 | 1017.9 | |
| 20260504180048 | 80 | 0.0 | 0.0 | 0.00 | 0.21 | 0.00 | 56 | 1017.6 | |
| 20260504180043 | 77 | 144 | 7.8 | 10.4 | 0.00 | 0.21 | 0.00 | 59 | 1017.0 |
| 20260504175755 | 77 | 0.0 | 0.0 | 0.00 | 0.21 | 0.00 | 54 | 1017.9 | |
| 20260504175749 | 86 | 251 | 7.0 | 14.8 | 0.00 | 0.00 | 0.00 | 69 | 1009.2 |
| 20260504175745 | 76 | 0.0 | 0.0 | 0.00 | 0.21 | 0.00 | 50 | 1017.8 | |
| 20260504175739 | 86 | 251 | 8.7 | 18.2 | 0.00 | 0.00 | 0.00 | 65 | 1009.2 |
| 20260504175734 | 77 | 0.0 | 0.0 | 0.00 | 0.21 | 0.00 | 57 | 1017.4 | |
| 20260504175728 | 87 | 232 | 5.2 | 16.5 | 0.00 | 0.00 | 0.00 | 66 | 1009.4 |
| 20260504175723 | 78 | 0.0 | 0.0 | 0.00 | 0.21 | 0.00 | 52 | 1017.5 | |
| 20260504175717 | 87 | 261 | 5.2 | 10.4 | 0.00 | 0.00 | 0.00 | 68 | 1009.4 |
| 20260504175713 | 85 | 237 | 4.3 | 9.6 | 0.00 | 0.00 | 0.00 | 71 | 1009.7 |
| 20260504175705 | 84 | 232 | 3.5 | 7.0 | 0.00 | 0.00 | 0.00 | 72 | 1009.9 |
| 20260504175659 | 84 | 253 | 3.5 | 9.6 | 0.00 | 0.00 | 0.00 | 72 | 1010.1 |
| 20260504175655 | 84 | 238 | 5.2 | 9.6 | 0.00 | 0.00 | 0.00 | 70 | 1010.4 |
| 20260504175649 | 75 | 51 | 7.0 | 9.6 | 0.00 | 0.21 | 0.00 | 63 | 1018.0 |
| 20260504175645 | 76 | 42 | 7.8 | 10.4 | 0.00 | 0.21 | 0.00 | 57 | 1018.0 |
| 20260504175639 | 72 | 40 | 6.1 | 8.7 | 0.00 | 0.21 | 0.00 | 69 | 1018.0 |
| 20260504175634 | 77 | 35 | 7.8 | 10.4 | 0.00 | 0.21 | 0.00 | 59 | 1018.0 |
| 20260504175629 | 76 | 0.0 | 2.6 | 0.00 | 0.21 | 0.00 | 49 | 1017.9 | |
| 20260504175624 | 77 | 130 | 7.8 | 12.2 | 0.00 | 0.21 | 0.00 | 60 | 1017.2 |
| 20260504175619 | 76 | 149 | 8.7 | 12.2 | 0.00 | 0.21 | 0.00 | 56 | 1017.4 |
| 20260504175613 | 78 | 39 | 7.0 | 10.4 | 0.00 | 0.21 | 0.00 | 51 | 1018.1 |
| 20260504175608 | 77 | 54 | 5.2 | 9.6 | 0.00 | 0.21 | 0.00 | 53 | 1018.3 |
| 20260504175600 | 78 | 132 | 8.7 | 11.3 | 0.00 | 0.21 | 0.00 | 57 | 1017.1 |
| 20260504175555 | 78 | 31 | 7.8 | 9.6 | 0.00 | 0.21 | 0.00 | 49 | 1018.1 |
| 20260504175551 | 77 | 36 | 4.3 | 8.7 | 0.00 | 0.21 | 0.00 | 51 | 1018.2 |
| 20260504175545 | 78 | 0.0 | 0.0 | 0.00 | 0.21 | 0.00 | 51 | 1017.8 | |
| 20260504175540 | 76 | 0.0 | 0.0 | 0.00 | 0.21 | 0.00 | 49 | 1017.9 | |
| 20260504175534 | 76 | 0.0 | 0.0 | 0.00 | 0.21 | 0.00 | 49 | 1017.9 | |
| 20260504175529 | 80 | 0.0 | 0.0 | 0.00 | 0.21 | 0.00 | 56 | 1017.6 | |
| 20260504175518 | 77 | 144 | 7.8 | 10.4 | 0.00 | 0.21 | 0.00 | 59 | 1017.0 |
| 20260504175359 | 79 | 22 | 6.1 | 8.7 | 0.00 | 0.21 | 0.00 | 48 | 1018.0 |
| 20260504175354 | 78 | 28 | 5.2 | 9.6 | 0.00 | 0.21 | 0.00 | 46 | 1018.1 |
| 20260504175348 | 79 | 17 | 3.5 | 8.7 | 0.00 | 0.21 | 0.00 | 48 | 1018.0 |
| 20260504175343 | 80 | 59 | 2.6 | 5.2 | 0.00 | 0.21 | 0.00 | 50 | 1018.0 |
| 20260504175337 | 79 | 59 | 0.9 | 4.3 | 0.00 | 0.21 | 0.00 | 44 | 1018.0 |
| 20260504175332 | 79 | 13 | 6.1 | 8.7 | 0.00 | 0.21 | 0.00 | 48 | 1018.0 |
| 20260504175326 | 76 | 256 | 2.6 | 4.3 | 0.00 | 0.21 | 0.00 | 47 | 1018.0 |
| 20260504175321 | 78 | 256 | 2.6 | 4.3 | 0.00 | 0.21 | 0.00 | 51 | 1018.1 |
| 20260504175315 | 85 | 238 | 4.3 | 9.6 | 0.00 | 0.00 | 0.00 | 70 | 1010.2 |
| 20260504175311 | 76 | 0.0 | 0.0 | 0.00 | 0.21 | 0.00 | 50 | 1017.8 | |
| 20260504175304 | 77 | 0.0 | 0.0 | 0.00 | 0.21 | 0.00 | 57 | 1017.4 | |
| 20260504175258 | 77 | 0.0 | 0.0 | 0.00 | 0.21 | 0.00 | 54 | 1017.9 | |
| 20260504175253 | 83 | 234 | 3.5 | 7.8 | 0.00 | 0.00 | 0.00 | 71 | 1010.4 |
| 20260504175247 | 78 | 0.0 | 0.0 | 0.00 | 0.21 | 0.00 | 52 | 1017.5 | |
| 20260504175243 | 85 | 260 | 5.2 | 9.6 | 0.00 | 0.00 | 0.00 | 70 | 1010.6 |
| 20260504175237 | 85 | 281 | 5.2 | 10.4 | 0.00 | 0.00 | 0.00 | 74 | 1010.8 |
| 20260504175232 | 84 | 234 | 5.2 | 9.6 | 0.00 | 0.00 | 0.00 | 74 | 1010.7 |
| 20260504175226 | 84 | 260 | 3.5 | 10.4 | 0.00 | 0.00 | 0.00 | 72 | 1010.7 |
| 20260504175222 | 70 | 32 | 5.2 | 7.0 | 0.00 | 0.21 | 0.00 | 77 | 1017.9 |
| 20260504175216 | 67 | 36 | 5.2 | 7.0 | 0.00 | 0.27 | 0.00 | 82 | 1018.0 |
| 20260504175211 | 65 | 0 | 3.5 | 7.0 | 0.00 | 0.27 | 0.00 | 87 | 1018.0 |
| 20260504175207 | 63 | 343 | 1.7 | 3.5 | 0.00 | 0.27 | 0.00 | 90 | 1017.8 |
| 20260504175159 | 62 | 340 | 0.9 | 3.5 | 0.00 | 0.27 | 0.00 | 91 | 1017.7 |
| 20260504175154 | 61 | 311 | 1.7 | 4.3 | 0.00 | 0.27 | 0.00 | 92 | 1017.8 |
| 20260504175149 | 75 | 51 | 7.0 | 9.6 | 0.00 | 0.21 | 0.00 | 63 | 1018.0 |
| 20260504175143 | 72 | 40 | 6.1 | 8.7 | 0.00 | 0.21 | 0.00 | 69 | 1018.0 |
| 20260504175138 | 76 | 42 | 7.8 | 10.4 | 0.00 | 0.21 | 0.00 | 57 | 1018.0 |
| 20260504175132 | 77 | 35 | 7.8 | 10.4 | 0.00 | 0.21 | 0.00 | 59 | 1018.0 |
| 20260504175126 | 76 | 149 | 8.7 | 12.2 | 0.00 | 0.21 | 0.00 | 56 | 1017.4 |
| 20260504175121 | 78 | 39 | 7.0 | 10.4 | 0.00 | 0.21 | 0.00 | 51 | 1018.1 |
| 20260504175117 | 77 | 130 | 7.8 | 12.2 | 0.00 | 0.21 | 0.00 | 60 | 1017.2 |
| 20260504175112 | 77 | 54 | 5.2 | 9.6 | 0.00 | 0.21 | 0.00 | 53 | 1018.3 |
| 20260504175107 | 78 | 31 | 7.8 | 9.6 | 0.00 | 0.21 | 0.00 | 49 | 1018.1 |
| 20260504175100 | 76 | 0.0 | 2.6 | 0.00 | 0.21 | 0.00 | 49 | 1017.9 | |
| 20260504175054 | 78 | 0.0 | 0.0 | 0.00 | 0.21 | 0.00 | 51 | 1017.8 | |
| 20260504175049 | 78 | 132 | 8.7 | 11.3 | 0.00 | 0.21 | 0.00 | 57 | 1017.1 |
| 20260504174922 | 76 | 0.0 | 0.0 | 0.00 | 0.21 | 0.00 | 49 | 1017.9 | |
| 20260504174918 | 77 | 36 | 4.3 | 8.7 | 0.00 | 0.21 | 0.00 | 51 | 1018.2 |
| 20260504174913 | 80 | 0.0 | 0.0 | 0.00 | 0.21 | 0.00 | 56 | 1017.6 | |
| 20260504174907 | 79 | 22 | 4.3 | 8.7 | 0.00 | 0.21 | 0.00 | 50 | 1018.1 |
| 20260504174903 | 78 | 28 | 5.2 | 9.6 | 0.00 | 0.21 | 0.00 | 46 | 1018.1 |
| 20260504174854 | 79 | 22 | 6.1 | 8.7 | 0.00 | 0.21 | 0.00 | 48 | 1018.0 |
| 20260504174849 | 79 | 13 | 6.1 | 8.7 | 0.00 | 0.21 | 0.00 | 48 | 1018.0 |
| 20260504174845 | 79 | 17 | 3.5 | 8.7 | 0.00 | 0.21 | 0.00 | 48 | 1018.0 |
| 20260504174839 | 80 | 59 | 2.6 | 5.2 | 0.00 | 0.21 | 0.00 | 50 | 1018.0 |
| 20260504174834 | 78 | 256 | 2.6 | 4.3 | 0.00 | 0.21 | 0.00 | 51 | 1018.1 |
| 20260504174828 | 79 | 59 | 0.9 | 4.3 | 0.00 | 0.21 | 0.00 | 44 | 1018.0 |
| 20260504174823 | 76 | 256 | 2.6 | 4.3 | 0.00 | 0.21 | 0.00 | 47 | 1018.0 |
| 20260504174818 | 76 | 0.0 | 0.0 | 0.00 | 0.21 | 0.00 | 50 | 1017.8 | |
| 20260504174813 | 77 | 0.0 | 0.0 | 0.00 | 0.21 | 0.00 | 54 | 1017.9 | |
| 20260504174807 | 78 | 0.0 | 0.0 | 0.00 | 0.21 | 0.00 | 52 | 1017.5 | |
| 20260504174802 | 77 | 0.0 | 0.0 | 0.00 | 0.21 | 0.00 | 57 | 1017.4 | |
| 20260504174635 | 77 | 130 | 7.8 | 12.2 | 0.00 | 0.21 | 0.00 | 60 | 1017.2 |
| 20260504174511 | 75 | 51 | 7.0 | 9.6 | 0.00 | 0.21 | 0.00 | 63 | 1018.0 |
| 20260504174505 | 78 | 0.0 | 0.0 | 0.00 | 0.21 | 0.00 | 51 | 1017.8 | |
| 20260504174500 | 78 | 132 | 8.7 | 11.3 | 0.00 | 0.21 | 0.00 | 57 | 1017.1 |
| 20260504174454 | 72 | 40 | 6.1 | 8.7 | 0.00 | 0.21 | 0.00 | 69 | 1018.0 |
| 20260504174447 | 76 | 42 | 7.8 | 10.4 | 0.00 | 0.21 | 0.00 | 57 | 1018.0 |
| 20260504174442 | 76 | 0.0 | 2.6 | 0.00 | 0.21 | 0.00 | 49 | 1017.9 | |
| 20260504174437 | 76 | 0.0 | 0.0 | 0.00 | 0.21 | 0.00 | 49 | 1017.9 | |
| 20260504174432 | 76 | 0.0 | 0.0 | 0.00 | 0.21 | 0.00 | 49 | 1017.9 | |
| 20260504174427 | 80 | 0.0 | 0.0 | 0.00 | 0.21 | 0.00 | 56 | 1017.6 | |
| 20260504174301 | 78 | 39 | 7.0 | 10.4 | 0.00 | 0.21 | 0.00 | 51 | 1018.1 |
| 20260504174256 | 77 | 54 | 5.2 | 9.6 | 0.00 | 0.21 | 0.00 | 53 | 1018.3 |
| 20260504174249 | 78 | 31 | 7.8 | 9.6 | 0.00 | 0.21 | 0.00 | 49 | 1018.1 |
| 20260504174245 | 77 | 36 | 4.3 | 8.7 | 0.00 | 0.21 | 0.00 | 51 | 1018.2 |
| 20260504174239 | 79 | 22 | 4.3 | 8.7 | 0.00 | 0.21 | 0.00 | 50 | 1018.1 |
| 20260504174234 | 78 | 28 | 5.2 | 9.6 | 0.00 | 0.21 | 0.00 | 46 | 1018.1 |
| 20260504174229 | 79 | 22 | 6.1 | 8.7 | 0.00 | 0.21 | 0.00 | 48 | 1018.0 |
| 20260504174224 | 79 | 13 | 6.1 | 8.7 | 0.00 | 0.21 | 0.00 | 48 | 1018.0 |
| 20260504174218 | 79 | 17 | 3.5 | 8.7 | 0.00 | 0.21 | 0.00 | 48 | 1018.0 |
| 20260504174213 | 77 | 0.0 | 0.0 | 0.00 | 0.21 | 0.00 | 54 | 1017.9 | |
| 20260504174207 | 80 | 59 | 2.6 | 5.2 | 0.00 | 0.21 | 0.00 | 50 | 1018.0 |
| 20260504174202 | 78 | 256 | 2.6 | 4.3 | 0.00 | 0.21 | 0.00 | 51 | 1018.1 |
| 20260504174158 | 79 | 59 | 0.9 | 4.3 | 0.00 | 0.21 | 0.00 | 44 | 1018.0 |
| 20260504174152 | 77 | 0.0 | 0.0 | 0.00 | 0.21 | 0.00 | 57 | 1017.4 | |
| 20260504174145 | 78 | 0.0 | 0.0 | 0.00 | 0.21 | 0.00 | 52 | 1017.5 | |
| 20260504174139 | 76 | 256 | 2.6 | 4.3 | 0.00 | 0.21 | 0.00 | 47 | 1018.0 |
| 20260504174134 | 76 | 0.0 | 0.0 | 0.00 | 0.21 | 0.00 | 50 | 1017.8 | |
| 20260504174130 | 76 | 149 | 8.7 | 12.2 | 0.00 | 0.21 | 0.00 | 56 | 1017.4 |
| 20260504174124 | 77 | 130 | 7.8 | 12.2 | 0.00 | 0.21 | 0.00 | 60 | 1017.2 |
| 20260504173837 | 76 | 0.0 | 0.0 | 0.00 | 0.21 | 0.00 | 49 | 1017.9 | |
| 20260504173832 | 76 | 0.0 | 0.0 | 0.00 | 0.21 | 0.00 | 49 | 1017.9 | |
| 20260504173826 | 80 | 0.0 | 0.0 | 0.00 | 0.21 | 0.00 | 56 | 1017.6 | |
| 20260504173702 | 78 | 0.0 | 0.0 | 0.00 | 0.21 | 0.00 | 52 | 1017.5 | |
| 20260504173656 | 77 | 0.0 | 0.0 | 0.00 | 0.21 | 0.00 | 57 | 1017.4 | |
| 20260504173529 | 76 | 149 | 8.7 | 12.2 | 0.00 | 0.21 | 0.00 | 56 | 1017.4 |
| 20260504173523 | 76 | 256 | 2.6 | 4.3 | 0.00 | 0.21 | 0.00 | 47 | 1018.0 |
| 20260504173515 | 77 | 130 | 7.8 | 12.2 | 0.00 | 0.21 | 0.00 | 60 | 1017.2 |
| 20260504173353 | 76 | 0.0 | 0.0 | 0.00 | 0.21 | 0.00 | 50 | 1017.8 | |
| 20260504173347 | 78 | 0.0 | 0.0 | 0.00 | 0.21 | 0.00 | 51 | 1017.8 | |
| 20260504173340 | 75 | 51 | 7.0 | 9.6 | 0.00 | 0.21 | 0.00 | 63 | 1018.0 |
| 20260504173336 | 72 | 40 | 6.1 | 8.7 | 0.00 | 0.21 | 0.00 | 69 | 1018.0 |
| 20260504173330 | 76 | 42 | 7.8 | 10.4 | 0.00 | 0.21 | 0.00 | 57 | 1018.0 |
| 20260504173325 | 77 | 35 | 7.8 | 10.4 | 0.00 | 0.21 | 0.00 | 59 | 1018.0 |
| 20260504173321 | 78 | 39 | 7.0 | 10.4 | 0.00 | 0.21 | 0.00 | 51 | 1018.1 |
| 20260504173315 | 77 | 54 | 5.2 | 9.6 | 0.00 | 0.21 | 0.00 | 53 | 1018.3 |
| 20260504173310 | 78 | 31 | 7.8 | 9.6 | 0.00 | 0.21 | 0.00 | 49 | 1018.1 |
| 20260504173304 | 77 | 36 | 4.3 | 8.7 | 0.00 | 0.21 | 0.00 | 51 | 1018.2 |
| 20260504173259 | 79 | 22 | 4.3 | 8.7 | 0.00 | 0.21 | 0.00 | 50 | 1018.1 |
| 20260504173253 | 78 | 28 | 5.2 | 9.6 | 0.00 | 0.21 | 0.00 | 46 | 1018.1 |
| 20260504173249 | 80 | 0.0 | 0.0 | 0.00 | 0.21 | 0.00 | 56 | 1017.6 | |
| 20260504173124 | 79 | 13 | 6.1 | 8.7 | 0.00 | 0.21 | 0.00 | 48 | 1018.0 |
| 20260504173118 | 76 | 0.0 | 2.6 | 0.00 | 0.21 | 0.00 | 49 | 1017.9 | |
| 20260504173113 | 76 | 0.0 | 0.0 | 0.00 | 0.21 | 0.00 | 49 | 1017.9 | |
| 20260504173107 | 79 | 17 | 3.5 | 8.7 | 0.00 | 0.21 | 0.00 | 48 | 1018.0 |
| 20260504173103 | 76 | 0.0 | 0.0 | 0.00 | 0.21 | 0.00 | 49 | 1017.9 | |
| 20260504173057 | 77 | 0.0 | 0.0 | 0.00 | 0.21 | 0.00 | 57 | 1017.4 | |
| 20260504173052 | 78 | 0.0 | 0.0 | 0.00 | 0.21 | 0.00 | 52 | 1017.5 | |
| 20260504173048 | 77 | 0.0 | 0.0 | 0.00 | 0.21 | 0.00 | 54 | 1017.9 | |
| 20260504173043 | 76 | 149 | 8.7 | 12.2 | 0.00 | 0.21 | 0.00 | 56 | 1017.4 |
| 20260504172914 | 79 | 59 | 0.9 | 4.3 | 0.00 | 0.21 | 0.00 | 44 | 1018.0 |
| 20260504172909 | 78 | 256 | 2.6 | 4.3 | 0.00 | 0.21 | 0.00 | 51 | 1018.1 |
| 20260504172905 | 76 | 256 | 2.6 | 4.3 | 0.00 | 0.21 | 0.00 | 47 | 1018.0 |
| 20260504172859 | 76 | 0.0 | 0.0 | 0.00 | 0.21 | 0.00 | 50 | 1017.8 | |
| 20260504172854 | 78 | 0.0 | 0.0 | 0.00 | 0.21 | 0.00 | 51 | 1017.8 | |
| 20260504172607 | 78 | 0.0 | 0.0 | 0.00 | 0.21 | 0.00 | 52 | 1017.5 | |
| 20260504172601 | 77 | 0.0 | 0.0 | 0.00 | 0.21 | 0.00 | 57 | 1017.4 | |
| 20260504172556 | 83 | 15 | 3.5 | 10.4 | 0.00 | 0.00 | 0.00 | 74 | 1010.8 |
| 20260504172550 | 76 | 0.0 | 0.0 | 0.00 | 0.21 | 0.00 | 49 | 1017.9 | |
| 20260504172546 | 76 | 0.0 | 0.0 | 0.00 | 0.21 | 0.00 | 49 | 1017.9 | |
| 20260504172540 | 84 | 304 | 3.5 | 10.4 | 0.00 | 0.00 | 0.00 | 75 | 1011.1 |
| 20260504172535 | 82 | 244 | 4.3 | 10.4 | 0.00 | 0.00 | 0.00 | 77 | 1011.3 |
| 20260504172530 | 82 | 331 | 4.3 | 8.7 | 0.00 | 0.00 | 0.00 | 76 | 1011.1 |
| 20260504172523 | 82 | 327 | 2.6 | 9.6 | 0.00 | 0.00 | 0.00 | 79 | 1010.9 |
| 20260504172518 | 81 | 274 | 4.3 | 9.6 | 0.00 | 0.00 | 0.00 | 81 | 1010.9 |
| 20260504172513 | 80 | 221 | 3.5 | 8.7 | 0.00 | 0.00 | 0.00 | 83 | 1011.0 |
| 20260504172507 | 80 | 67 | 2.6 | 8.7 | 0.00 | 0.00 | 0.00 | 83 | 1011.2 |
| 20260504172501 | 80 | 344 | 2.6 | 7.0 | 0.00 | 0.00 | 0.00 | 83 | 1011.0 |
| 20260504172457 | 76 | 149 | 8.7 | 12.2 | 0.00 | 0.21 | 0.00 | 56 | 1017.4 |
| 20260504172452 | 80 | 254 | 3.5 | 9.6 | 0.00 | 0.00 | 0.00 | 84 | 1010.9 |
| 20260504172446 | 79 | 252 | 4.3 | 9.6 | 0.00 | 0.00 | 0.00 | 86 | 1010.4 |
| 20260504172441 | 78 | 276 | 3.5 | 7.8 | 0.00 | 0.00 | 0.00 | 85 | 1010.8 |
| 20260504172435 | 77 | 302 | 4.3 | 8.7 | 0.00 | 0.00 | 0.00 | 87 | 1010.8 |
| 20260504172429 | 77 | 229 | 3.5 | 8.7 | 0.00 | 0.00 | 0.00 | 87 | 1010.6 |
| 20260504172422 | 77 | 252 | 1.7 | 7.0 | 0.00 | 0.00 | 0.00 | 88 | 1010.6 |
| 20260504172418 | 77 | 0.0 | 0.0 | 0.00 | 0.21 | 0.00 | 54 | 1017.9 | |
| 20260504172412 | 76 | 248 | 3.5 | 7.8 | 0.00 | 0.00 | 0.00 | 88 | 1010.6 |
| 20260504172407 | 76 | 252 | 3.5 | 7.8 | 0.00 | 0.00 | 0.00 | 89 | 1010.6 |
| 20260504172403 | 75 | 244 | 3.5 | 7.0 | 0.00 | 0.00 | 0.00 | 89 | 1010.9 |
| 20260504172357 | 75 | 223 | 2.6 | 6.1 | 0.00 | 0.00 | 0.00 | 90 | 1010.8 |
| 20260504172353 | 60 | 18 | 1.7 | 4.3 | 0.00 | 0.27 | 0.00 | 92 | 1017.5 |
| 20260504172347 | 60 | 0 | 0.9 | 4.3 | 0.00 | 0.27 | 0.00 | 93 | 1017.6 |
| 20260504172342 | 59 | 49 | 0.9 | 3.5 | 0.00 | 0.27 | 0.00 | 94 | 1017.5 |
| 20260504172337 | 58 | 48 | 0.0 | 2.6 | 0.00 | 0.27 | 0.00 | 94 | 1017.4 |
| 20260504172331 | 67 | 36 | 5.2 | 7.0 | 0.00 | 0.27 | 0.00 | 82 | 1018.0 |
| 20260504172324 | 65 | 0 | 3.5 | 7.0 | 0.00 | 0.27 | 0.00 | 87 | 1018.0 |
| 20260504172320 | 63 | 343 | 1.7 | 3.5 | 0.00 | 0.27 | 0.00 | 90 | 1017.8 |
| 20260504172314 | 62 | 340 | 0.9 | 3.5 | 0.00 | 0.27 | 0.00 | 91 | 1017.7 |
| 20260504172309 | 78 | 0.0 | 0.0 | 0.00 | 0.21 | 0.00 | 51 | 1017.8 | |
| 20260504172304 | 61 | 311 | 1.7 | 4.3 | 0.00 | 0.27 | 0.00 | 92 | 1017.8 |
| 20260504172258 | 70 | 32 | 5.2 | 7.0 | 0.00 | 0.21 | 0.00 | 77 | 1017.9 |
| 20260504172252 | 75 | 51 | 7.0 | 9.6 | 0.00 | 0.21 | 0.00 | 63 | 1018.0 |
| 20260504172248 | 72 | 40 | 6.1 | 8.7 | 0.00 | 0.21 | 0.00 | 69 | 1018.0 |
| 20260504172242 | 76 | 42 | 7.8 | 10.4 | 0.00 | 0.21 | 0.00 | 57 | 1018.0 |
| 20260504172237 | 77 | 35 | 7.8 | 10.4 | 0.00 | 0.21 | 0.00 | 59 | 1018.0 |
| 20260504172233 | 78 | 39 | 7.0 | 10.4 | 0.00 | 0.21 | 0.00 | 51 | 1018.1 |
| 20260504172227 | 77 | 54 | 5.2 | 9.6 | 0.00 | 0.21 | 0.00 | 53 | 1018.3 |
| 20260504172219 | 78 | 31 | 7.8 | 9.6 | 0.00 | 0.21 | 0.00 | 49 | 1018.1 |
| 20260504172215 | 77 | 36 | 4.3 | 8.7 | 0.00 | 0.21 | 0.00 | 51 | 1018.2 |
| 20260504172210 | 79 | 22 | 4.3 | 8.7 | 0.00 | 0.21 | 0.00 | 50 | 1018.1 |
| 20260504172205 | 78 | 28 | 5.2 | 9.6 | 0.00 | 0.21 | 0.00 | 46 | 1018.1 |
| 20260504172200 | 79 | 22 | 6.1 | 8.7 | 0.00 | 0.21 | 0.00 | 48 | 1018.0 |
| 20260504172153 | 79 | 13 | 6.1 | 8.7 | 0.00 | 0.21 | 0.00 | 48 | 1018.0 |
| 20260504172149 | 79 | 17 | 3.5 | 8.7 | 0.00 | 0.21 | 0.00 | 48 | 1018.0 |
| 20260504172144 | 80 | 0.0 | 0.0 | 0.00 | 0.21 | 0.00 | 56 | 1017.6 | |
| 20260504172138 | 80 | 59 | 2.6 | 5.2 | 0.00 | 0.21 | 0.00 | 50 | 1018.0 |
| 20260504172132 | 76 | 256 | 2.6 | 4.3 | 0.00 | 0.21 | 0.00 | 47 | 1018.0 |
| 20260504172127 | 79 | 59 | 0.9 | 4.3 | 0.00 | 0.21 | 0.00 | 44 | 1018.0 |
| 20260504172121 | 78 | 256 | 2.6 | 4.3 | 0.00 | 0.21 | 0.00 | 51 | 1018.1 |
| 20260504172115 | 76 | 0.0 | 2.6 | 0.00 | 0.21 | 0.00 | 49 | 1017.9 | |
| 20260504172110 | 76 | 0.0 | 0.0 | 0.00 | 0.21 | 0.00 | 49 | 1017.9 | |
| 20260504172104 | 76 | 0.0 | 0.0 | 0.00 | 0.21 | 0.00 | 50 | 1017.8 | |
| 20260504172059 | 76 | 0.0 | 0.0 | 0.00 | 0.21 | 0.00 | 49 | 1017.9 | |
| 20260504172054 | 78 | 0.0 | 0.0 | 0.00 | 0.21 | 0.00 | 52 | 1017.5 | |
| 20260504172049 | 77 | 0.0 | 0.0 | 0.00 | 0.21 | 0.00 | 57 | 1017.4 | |
| 20260504171647 | 79 | 13 | 6.1 | 8.7 | 0.00 | 0.21 | 0.00 | 48 | 1018.0 |
| 20260504171643 | 76 | 256 | 2.6 | 4.3 | 0.00 | 0.21 | 0.00 | 47 | 1018.0 |
| 20260504171638 | 80 | 0.0 | 0.0 | 0.00 | 0.21 | 0.00 | 56 | 1017.6 | |
| 20260504171514 | 78 | 0.0 | 0.0 | 0.00 | 0.21 | 0.00 | 52 | 1017.5 | |
| 20260504171508 | 76 | 0.0 | 0.0 | 0.00 | 0.21 | 0.00 | 50 | 1017.8 | |
| 20260504171504 | 79 | 17 | 3.5 | 8.7 | 0.00 | 0.21 | 0.00 | 48 | 1018.0 |
| 20260504171458 | 77 | 0.0 | 0.0 | 0.00 | 0.21 | 0.00 | 57 | 1017.4 | |
| 20260504171342 | 79 | 59 | 0.9 | 4.3 | 0.00 | 0.21 | 0.00 | 44 | 1018.0 |
| 20260504171338 | 58 | 48 | 0.9 | 5.2 | 0.00 | 0.27 | 0.00 | 95 | 1017.2 |
| 20260504171333 | 60 | 18 | 1.7 | 4.3 | 0.00 | 0.27 | 0.00 | 92 | 1017.5 |
| 20260504171329 | 80 | 59 | 2.6 | 5.2 | 0.00 | 0.21 | 0.00 | 50 | 1018.0 |
| 20260504171324 | 78 | 256 | 2.6 | 4.3 | 0.00 | 0.21 | 0.00 | 51 | 1018.1 |
| 20260504171319 | 76 | 0.0 | 2.6 | 0.00 | 0.21 | 0.00 | 49 | 1017.9 | |
| 20260504171315 | 76 | 0.0 | 0.0 | 0.00 | 0.21 | 0.00 | 49 | 1017.9 | |
| 20260504171156 | 60 | 0 | 0.9 | 4.3 | 0.00 | 0.27 | 0.00 | 93 | 1017.6 |
| 20260504171152 | 59 | 49 | 0.9 | 3.5 | 0.00 | 0.27 | 0.00 | 94 | 1017.5 |
| 20260504171148 | 78 | 0.0 | 0.0 | 0.00 | 0.21 | 0.00 | 51 | 1017.8 | |
| 20260504171143 | 58 | 48 | 0.0 | 2.6 | 0.00 | 0.27 | 0.00 | 94 | 1017.4 |
| 20260504171139 | 67 | 36 | 5.2 | 7.0 | 0.00 | 0.27 | 0.00 | 82 | 1018.0 |
| 20260504171135 | 65 | 0 | 3.5 | 7.0 | 0.00 | 0.27 | 0.00 | 87 | 1018.0 |
| 20260504171129 | 63 | 343 | 1.7 | 3.5 | 0.00 | 0.27 | 0.00 | 90 | 1017.8 |
| 20260504171125 | 62 | 340 | 0.9 | 3.5 | 0.00 | 0.27 | 0.00 | 91 | 1017.7 |
| 20260504171121 | 61 | 311 | 1.7 | 4.3 | 0.00 | 0.27 | 0.00 | 92 | 1017.8 |
| 20260504171115 | 70 | 32 | 5.2 | 7.0 | 0.00 | 0.21 | 0.00 | 77 | 1017.9 |
| 20260504171111 | 75 | 51 | 7.0 | 9.6 | 0.00 | 0.21 | 0.00 | 63 | 1018.0 |
| 20260504171107 | 72 | 40 | 6.1 | 8.7 | 0.00 | 0.21 | 0.00 | 69 | 1018.0 |
| 20260504171102 | 76 | 42 | 7.8 | 10.4 | 0.00 | 0.21 | 0.00 | 57 | 1018.0 |
| 20260504171057 | 77 | 35 | 7.8 | 10.4 | 0.00 | 0.21 | 0.00 | 59 | 1018.0 |
| 20260504171053 | 78 | 39 | 7.0 | 10.4 | 0.00 | 0.21 | 0.00 | 51 | 1018.1 |
| 20260504171048 | 77 | 54 | 5.2 | 9.6 | 0.00 | 0.21 | 0.00 | 53 | 1018.3 |
| 20260504171044 | 78 | 31 | 7.8 | 9.6 | 0.00 | 0.21 | 0.00 | 49 | 1018.1 |
| 20260504171040 | 80 | 0.0 | 0.0 | 0.00 | 0.21 | 0.00 | 56 | 1017.6 | |
| 20260504171033 | 76 | 256 | 2.6 | 4.3 | 0.00 | 0.21 | 0.00 | 47 | 1018.0 |
| 20260504171029 | 78 | 0.0 | 0.0 | 0.00 | 0.21 | 0.00 | 52 | 1017.5 | |
| 20260504171024 | 77 | 36 | 4.3 | 8.7 | 0.00 | 0.21 | 0.00 | 51 | 1018.2 |
| 20260504171019 | 79 | 22 | 4.3 | 8.7 | 0.00 | 0.21 | 0.00 | 50 | 1018.1 |
| 20260504171014 | 78 | 28 | 5.2 | 9.6 | 0.00 | 0.21 | 0.00 | 46 | 1018.1 |
| 20260504171009 | 79 | 22 | 6.1 | 8.7 | 0.00 | 0.21 | 0.00 | 48 | 1018.0 |
| 20260504171005 | 79 | 13 | 6.1 | 8.7 | 0.00 | 0.21 | 0.00 | 48 | 1018.0 |
| 20260504170959 | 79 | 17 | 3.5 | 8.7 | 0.00 | 0.21 | 0.00 | 48 | 1018.0 |
| 20260504170955 | 76 | 0.0 | 0.0 | 0.00 | 0.21 | 0.00 | 49 | 1017.9 | |
| 20260504170951 | 76 | 0.0 | 0.0 | 0.00 | 0.21 | 0.00 | 50 | 1017.8 | |
| 20260504170834 | 79 | 59 | 0.9 | 4.3 | 0.00 | 0.21 | 0.00 | 44 | 1018.0 |
| 20260504170830 | 76 | 0.0 | 0.0 | 0.00 | 0.21 | 0.00 | 49 | 1017.9 | |
| 20260504170715 | 76 | 0.0 | 2.6 | 0.00 | 0.21 | 0.00 | 49 | 1017.9 | |
| 20260504170709 | 77 | 0.0 | 0.0 | 0.00 | 0.21 | 0.00 | 54 | 1017.9 | |
| 20260504170704 | 78 | 0.0 | 0.0 | 0.00 | 0.21 | 0.00 | 51 | 1017.8 | |
| 20260504170548 | 80 | 0.0 | 0.0 | 0.00 | 0.21 | 0.00 | 56 | 1017.6 | |
| 20260504170540 | 78 | 0.0 | 0.0 | 0.00 | 0.21 | 0.00 | 52 | 1017.5 | |
| 20260504170430 | 76 | 0.0 | 0.0 | 0.00 | 0.21 | 0.00 | 50 | 1017.8 | |
| 20260504170314 | 78 | 28 | 5.2 | 9.6 | 0.00 | 0.21 | 0.00 | 46 | 1018.1 |
| 20260504170309 | 79 | 22 | 6.1 | 8.7 | 0.00 | 0.21 | 0.00 | 48 | 1018.0 |
| 20260504170304 | 80 | 59 | 2.6 | 5.2 | 0.00 | 0.21 | 0.00 | 50 | 1018.0 |
| 20260504170300 | 79 | 59 | 0.9 | 4.3 | 0.00 | 0.21 | 0.00 | 44 | 1018.0 |
| 20260504170254 | 76 | 0.0 | 0.0 | 0.00 | 0.21 | 0.00 | 49 | 1017.9 | |
| 20260504170137 | 76 | 0.0 | 2.6 | 0.00 | 0.21 | 0.00 | 49 | 1017.9 | |
| 20260504170133 | 77 | 0.0 | 0.0 | 0.00 | 0.21 | 0.00 | 54 | 1017.9 | |
| 20260504170129 | 78 | 0.0 | 0.0 | 0.00 | 0.21 | 0.00 | 51 | 1017.8 | |
| 20260504160438 | 58 | 48 | 0.9 | 5.2 | 0.00 | 0.27 | 0.00 | 95 | 1017.2 |
| 20260504160434 | 58 | 48 | 0.0 | 2.6 | 0.00 | 0.27 | 0.00 | 94 | 1017.4 |
| 20260504160429 | 61 | 311 | 1.7 | 4.3 | 0.00 | 0.27 | 0.00 | 92 | 1017.8 |
| 20260504160425 | 60 | 18 | 1.7 | 4.3 | 0.00 | 0.27 | 0.00 | 92 | 1017.5 |
| 20260504160421 | 60 | 0 | 0.9 | 4.3 | 0.00 | 0.27 | 0.00 | 93 | 1017.6 |
| 20260504160417 | 59 | 49 | 0.9 | 3.5 | 0.00 | 0.27 | 0.00 | 94 | 1017.5 |
| 20260504160411 | 63 | 343 | 1.7 | 3.5 | 0.00 | 0.27 | 0.00 | 90 | 1017.8 |
| 20260504160407 | 76 | 0.0 | 0.0 | 0.00 | 0.21 | 0.00 | 49 | 1017.9 | |
| 20260504160400 | 62 | 340 | 0.9 | 3.5 | 0.00 | 0.27 | 0.00 | 91 | 1017.7 |
| 20260504160355 | 65 | 0 | 3.5 | 7.0 | 0.00 | 0.27 | 0.00 | 87 | 1018.0 |
| 20260504160351 | 67 | 36 | 5.2 | 7.0 | 0.00 | 0.27 | 0.00 | 82 | 1018.0 |
| 20260504160347 | 79 | 22 | 6.1 | 8.7 | 0.00 | 0.21 | 0.00 | 48 | 1018.0 |
| 20260504160341 | 70 | 32 | 5.2 | 7.0 | 0.00 | 0.21 | 0.00 | 77 | 1017.9 |
| 20260504160337 | 79 | 17 | 3.5 | 8.7 | 0.00 | 0.21 | 0.00 | 48 | 1018.0 |
| 20260504160333 | 75 | 51 | 7.0 | 9.6 | 0.00 | 0.21 | 0.00 | 63 | 1018.0 |
| 20260504160327 | 72 | 40 | 6.1 | 8.7 | 0.00 | 0.21 | 0.00 | 69 | 1018.0 |
| 20260504160323 | 77 | 35 | 7.8 | 10.4 | 0.00 | 0.21 | 0.00 | 59 | 1018.0 |
| 20260504160319 | 78 | 39 | 7.0 | 10.4 | 0.00 | 0.21 | 0.00 | 51 | 1018.1 |
| 20260504160314 | 79 | 59 | 0.9 | 4.3 | 0.00 | 0.21 | 0.00 | 44 | 1018.0 |
| 20260504160158 | 76 | 42 | 7.8 | 10.4 | 0.00 | 0.21 | 0.00 | 57 | 1018.0 |
| 20260504160151 | 78 | 28 | 5.2 | 9.6 | 0.00 | 0.21 | 0.00 | 46 | 1018.1 |
| 20260504160147 | 77 | 36 | 4.3 | 8.7 | 0.00 | 0.21 | 0.00 | 51 | 1018.2 |
| 20260504160143 | 79 | 22 | 4.3 | 8.7 | 0.00 | 0.21 | 0.00 | 50 | 1018.1 |
| 20260504160138 | 78 | 256 | 2.6 | 4.3 | 0.00 | 0.21 | 0.00 | 51 | 1018.1 |
| 20260504160134 | 77 | 54 | 5.2 | 9.6 | 0.00 | 0.21 | 0.00 | 53 | 1018.3 |